<?xml version="1.0" encoding="UTF-8"?>
<gpx creator="strava.com Android" version="1.1" xmlns="http://www.topografix.com/GPX/1/1" xmlns:xsi="http://www.w3.org/2001/XMLSchema-instance" xsi:schemaLocation="http://www.topografix.com/GPX/1/1 http://www.topografix.com/GPX/1/1/gpx.xsd">
 <metadata>
  <time>2014-02-14T06:15:52Z</time>
 </metadata>
 <trk>
  <name>מישגב </name>
  <trkseg>
   <trkpt lat="32.8621890" lon="35.2484770">
    <ele>260.0</ele>
    <time>2014-02-14T06:15:52Z</time>
   </trkpt>
   <trkpt lat="32.8622460" lon="35.2484010">
    <ele>259.1</ele>
    <time>2014-02-14T06:15:53Z</time>
   </trkpt>
   <trkpt lat="32.8623140" lon="35.2483090">
    <ele>258.2</ele>
    <time>2014-02-14T06:15:54Z</time>
   </trkpt>
   <trkpt lat="32.8623480" lon="35.2482690">
    <ele>257.8</ele>
    <time>2014-02-14T06:15:55Z</time>
   </trkpt>
   <trkpt lat="32.8637360" lon="35.2454270">
    <ele>230.1</ele>
    <time>2014-02-14T06:18:36Z</time>
   </trkpt>
   <trkpt lat="32.8636870" lon="35.2454550">
    <ele>230.4</ele>
    <time>2014-02-14T06:18:37Z</time>
   </trkpt>
   <trkpt lat="32.8635860" lon="35.2455130">
    <ele>231.1</ele>
    <time>2014-02-14T06:18:38Z</time>
   </trkpt>
   <trkpt lat="32.8632970" lon="35.2457060">
    <ele>233.4</ele>
    <time>2014-02-14T06:18:39Z</time>
   </trkpt>
   <trkpt lat="32.8629850" lon="35.2459140">
    <ele>235.9</ele>
    <time>2014-02-14T06:18:40Z</time>
   </trkpt>
   <trkpt lat="32.8632060" lon="35.2457390">
    <ele>233.6</ele>
    <time>2014-02-14T06:18:41Z</time>
   </trkpt>
   <trkpt lat="32.8631670" lon="35.2457040">
    <ele>232.7</ele>
    <time>2014-02-14T06:18:42Z</time>
   </trkpt>
   <trkpt lat="32.8632390" lon="35.2456760">
    <ele>232.5</ele>
    <time>2014-02-14T06:18:43Z</time>
   </trkpt>
   <trkpt lat="32.8634280" lon="35.2453760">
    <ele>228.2</ele>
    <time>2014-02-14T06:18:44Z</time>
   </trkpt>
   <trkpt lat="32.8636620" lon="35.2450050">
    <ele>227.3</ele>
    <time>2014-02-14T06:18:45Z</time>
   </trkpt>
   <trkpt lat="32.8633300" lon="35.2452960">
    <ele>227.0</ele>
    <time>2014-02-14T06:18:46Z</time>
   </trkpt>
   <trkpt lat="32.8629580" lon="35.2456230">
    <ele>230.2</ele>
    <time>2014-02-14T06:18:47Z</time>
   </trkpt>
   <trkpt lat="32.8629950" lon="35.2454770">
    <ele>227.5</ele>
    <time>2014-02-14T06:18:48Z</time>
   </trkpt>
   <trkpt lat="32.8630460" lon="35.2452770">
    <ele>225.2</ele>
    <time>2014-02-14T06:18:49Z</time>
   </trkpt>
   <trkpt lat="32.8631360" lon="35.2451260">
    <ele>224.4</ele>
    <time>2014-02-14T06:18:50Z</time>
   </trkpt>
   <trkpt lat="32.8632490" lon="35.2449390">
    <ele>223.6</ele>
    <time>2014-02-14T06:18:51Z</time>
   </trkpt>
   <trkpt lat="32.8634270" lon="35.2449240">
    <ele>224.9</ele>
    <time>2014-02-14T06:18:52Z</time>
   </trkpt>
   <trkpt lat="32.8633080" lon="35.2449890">
    <ele>224.5</ele>
    <time>2014-02-14T06:18:53Z</time>
   </trkpt>
   <trkpt lat="32.8633250" lon="35.2449590">
    <ele>224.4</ele>
    <time>2014-02-14T06:18:54Z</time>
   </trkpt>
   <trkpt lat="32.8632110" lon="35.2452010">
    <ele>225.5</ele>
    <time>2014-02-14T06:18:55Z</time>
   </trkpt>
   <trkpt lat="32.8630640" lon="35.2455130">
    <ele>228.6</ele>
    <time>2014-02-14T06:18:56Z</time>
   </trkpt>
   <trkpt lat="32.8629080" lon="35.2455380">
    <ele>228.2</ele>
    <time>2014-02-14T06:18:57Z</time>
   </trkpt>
   <trkpt lat="32.8627510" lon="35.2455640">
    <ele>226.7</ele>
    <time>2014-02-14T06:18:58Z</time>
   </trkpt>
   <trkpt lat="32.8628670" lon="35.2455750">
    <ele>228.4</ele>
    <time>2014-02-14T06:18:59Z</time>
   </trkpt>
   <trkpt lat="32.8628540" lon="35.2454280">
    <ele>225.5</ele>
    <time>2014-02-14T06:19:00Z</time>
   </trkpt>
   <trkpt lat="32.8634900" lon="35.2447500">
    <ele>224.3</ele>
    <time>2014-02-14T06:19:11Z</time>
   </trkpt>
   <trkpt lat="32.8634280" lon="35.2448110">
    <ele>224.1</ele>
    <time>2014-02-14T06:19:12Z</time>
   </trkpt>
   <trkpt lat="32.8625960" lon="35.2447930">
    <ele>214.3</ele>
    <time>2014-02-14T06:19:26Z</time>
   </trkpt>
   <trkpt lat="32.8626980" lon="35.2446230">
    <ele>213.8</ele>
    <time>2014-02-14T06:19:27Z</time>
   </trkpt>
   <trkpt lat="32.8628250" lon="35.2444110">
    <ele>215.6</ele>
    <time>2014-02-14T06:19:28Z</time>
   </trkpt>
   <trkpt lat="32.8627920" lon="35.2443500">
    <ele>215.0</ele>
    <time>2014-02-14T06:19:29Z</time>
   </trkpt>
   <trkpt lat="32.8628210" lon="35.2441360">
    <ele>215.6</ele>
    <time>2014-02-14T06:19:31Z</time>
   </trkpt>
   <trkpt lat="32.8626070" lon="35.2439750">
    <ele>211.2</ele>
    <time>2014-02-14T06:19:36Z</time>
   </trkpt>
   <trkpt lat="32.8625150" lon="35.2438800">
    <ele>209.1</ele>
    <time>2014-02-14T06:19:58Z</time>
   </trkpt>
   <trkpt lat="32.8625700" lon="35.2438860">
    <ele>210.3</ele>
    <time>2014-02-14T06:20:01Z</time>
   </trkpt>
   <trkpt lat="32.8624570" lon="35.2440760">
    <ele>208.2</ele>
    <time>2014-02-14T06:20:02Z</time>
   </trkpt>
   <trkpt lat="32.8623160" lon="35.2443130">
    <ele>206.1</ele>
    <time>2014-02-14T06:20:03Z</time>
   </trkpt>
   <trkpt lat="32.8623060" lon="35.2443110">
    <ele>205.9</ele>
    <time>2014-02-14T06:20:04Z</time>
   </trkpt>
   <trkpt lat="32.8622220" lon="35.2442920">
    <ele>204.2</ele>
    <time>2014-02-14T06:20:12Z</time>
   </trkpt>
   <trkpt lat="32.8623740" lon="35.2441370">
    <ele>206.7</ele>
    <time>2014-02-14T06:20:15Z</time>
   </trkpt>
   <trkpt lat="32.8620520" lon="35.2443590">
    <ele>201.6</ele>
    <time>2014-02-14T06:20:28Z</time>
   </trkpt>
   <trkpt lat="32.8619630" lon="35.2444480">
    <ele>201.1</ele>
    <time>2014-02-14T06:20:30Z</time>
   </trkpt>
   <trkpt lat="32.8623810" lon="35.2442800">
    <ele>207.2</ele>
    <time>2014-02-14T06:20:32Z</time>
   </trkpt>
   <trkpt lat="32.8625140" lon="35.2439780">
    <ele>209.2</ele>
    <time>2014-02-14T06:20:33Z</time>
   </trkpt>
   <trkpt lat="32.8627050" lon="35.2438270">
    <ele>213.2</ele>
    <time>2014-02-14T06:20:34Z</time>
   </trkpt>
   <trkpt lat="32.8627680" lon="35.2437670">
    <ele>214.6</ele>
    <time>2014-02-14T06:20:35Z</time>
   </trkpt>
   <trkpt lat="32.8627200" lon="35.2437620">
    <ele>213.5</ele>
    <time>2014-02-14T06:20:36Z</time>
   </trkpt>
   <trkpt lat="32.8627530" lon="35.2437370">
    <ele>214.4</ele>
    <time>2014-02-14T06:20:37Z</time>
   </trkpt>
   <trkpt lat="32.8628180" lon="35.2436790">
    <ele>216.6</ele>
    <time>2014-02-14T06:20:40Z</time>
   </trkpt>
   <trkpt lat="32.8620510" lon="35.2445910">
    <ele>202.8</ele>
    <time>2014-02-14T06:20:48Z</time>
   </trkpt>
   <trkpt lat="32.8620140" lon="35.2446330">
    <ele>203.1</ele>
    <time>2014-02-14T06:20:49Z</time>
   </trkpt>
   <trkpt lat="32.8618910" lon="35.2447720">
    <ele>204.0</ele>
    <time>2014-02-14T06:20:52Z</time>
   </trkpt>
   <trkpt lat="32.8627220" lon="35.2434550">
    <ele>217.4</ele>
    <time>2014-02-14T06:21:03Z</time>
   </trkpt>
   <trkpt lat="32.8622120" lon="35.2442290">
    <ele>203.8</ele>
    <time>2014-02-14T06:21:07Z</time>
   </trkpt>
   <trkpt lat="32.8622680" lon="35.2440090">
    <ele>204.1</ele>
    <time>2014-02-14T06:21:08Z</time>
   </trkpt>
   <trkpt lat="32.8623450" lon="35.2437080">
    <ele>205.6</ele>
    <time>2014-02-14T06:21:09Z</time>
   </trkpt>
   <trkpt lat="32.8623010" lon="35.2439430">
    <ele>204.6</ele>
    <time>2014-02-14T06:21:10Z</time>
   </trkpt>
   <trkpt lat="32.8624350" lon="35.2438280">
    <ele>207.2</ele>
    <time>2014-02-14T06:21:11Z</time>
   </trkpt>
   <trkpt lat="32.8620620" lon="35.2441240">
    <ele>200.5</ele>
    <time>2014-02-14T06:21:19Z</time>
   </trkpt>
   <trkpt lat="32.8622670" lon="35.2439980">
    <ele>204.1</ele>
    <time>2014-02-14T06:21:20Z</time>
   </trkpt>
   <trkpt lat="32.8624860" lon="35.2438620">
    <ele>208.4</ele>
    <time>2014-02-14T06:21:21Z</time>
   </trkpt>
   <trkpt lat="32.8624780" lon="35.2438250">
    <ele>208.1</ele>
    <time>2014-02-14T06:21:22Z</time>
   </trkpt>
   <trkpt lat="32.8624660" lon="35.2437740">
    <ele>207.8</ele>
    <time>2014-02-14T06:21:23Z</time>
   </trkpt>
   <trkpt lat="32.8624210" lon="35.2444500">
    <ele>208.4</ele>
    <time>2014-02-14T06:21:35Z</time>
   </trkpt>
   <trkpt lat="32.8633540" lon="35.2452580">
    <ele>226.9</ele>
    <time>2014-02-14T06:22:20Z</time>
   </trkpt>
   <trkpt lat="32.8632550" lon="35.2453320">
    <ele>226.9</ele>
    <time>2014-02-14T06:22:21Z</time>
   </trkpt>
   <trkpt lat="32.8631560" lon="35.2454070">
    <ele>227.1</ele>
    <time>2014-02-14T06:22:22Z</time>
   </trkpt>
   <trkpt lat="32.8630420" lon="35.2454920">
    <ele>228.0</ele>
    <time>2014-02-14T06:22:23Z</time>
   </trkpt>
   <trkpt lat="32.8632580" lon="35.2451660">
    <ele>225.5</ele>
    <time>2014-02-14T06:22:24Z</time>
   </trkpt>
   <trkpt lat="32.8635230" lon="35.2447670">
    <ele>224.7</ele>
    <time>2014-02-14T06:22:25Z</time>
   </trkpt>
   <trkpt lat="32.8634400" lon="35.2448460">
    <ele>224.5</ele>
    <time>2014-02-14T06:22:26Z</time>
   </trkpt>
   <trkpt lat="32.8636970" lon="35.2446450">
    <ele>225.7</ele>
    <time>2014-02-14T06:22:27Z</time>
   </trkpt>
   <trkpt lat="32.8639800" lon="35.2444240">
    <ele>230.6</ele>
    <time>2014-02-14T06:22:28Z</time>
   </trkpt>
   <trkpt lat="32.8638340" lon="35.2446140">
    <ele>227.4</ele>
    <time>2014-02-14T06:22:29Z</time>
   </trkpt>
   <trkpt lat="32.8637600" lon="35.2448250">
    <ele>227.3</ele>
    <time>2014-02-14T06:22:30Z</time>
   </trkpt>
   <trkpt lat="32.8636400" lon="35.2450280">
    <ele>227.3</ele>
    <time>2014-02-14T06:22:31Z</time>
   </trkpt>
   <trkpt lat="32.8636690" lon="35.2449390">
    <ele>227.0</ele>
    <time>2014-02-14T06:22:37Z</time>
   </trkpt>
   <trkpt lat="32.8639080" lon="35.2448330">
    <ele>229.2</ele>
    <time>2014-02-14T06:22:44Z</time>
   </trkpt>
   <trkpt lat="32.8639130" lon="35.2448030">
    <ele>229.2</ele>
    <time>2014-02-14T06:22:45Z</time>
   </trkpt>
   <trkpt lat="32.8639190" lon="35.2447610">
    <ele>229.1</ele>
    <time>2014-02-14T06:22:46Z</time>
   </trkpt>
   <trkpt lat="32.8640550" lon="35.2445530">
    <ele>231.0</ele>
    <time>2014-02-14T06:22:47Z</time>
   </trkpt>
   <trkpt lat="32.8638660" lon="35.2447740">
    <ele>228.5</ele>
    <time>2014-02-14T06:22:48Z</time>
   </trkpt>
   <trkpt lat="32.8639140" lon="35.2449230">
    <ele>229.5</ele>
    <time>2014-02-14T06:22:49Z</time>
   </trkpt>
   <trkpt lat="32.8639100" lon="35.2449400">
    <ele>229.6</ele>
    <time>2014-02-14T06:22:50Z</time>
   </trkpt>
   <trkpt lat="32.8638880" lon="35.2450240">
    <ele>229.6</ele>
    <time>2014-02-14T06:22:54Z</time>
   </trkpt>
   <trkpt lat="32.8640680" lon="35.2451520">
    <ele>231.6</ele>
    <time>2014-02-14T06:23:03Z</time>
   </trkpt>
   <trkpt lat="32.8641100" lon="35.2451380">
    <ele>232.0</ele>
    <time>2014-02-14T06:23:04Z</time>
   </trkpt>
   <trkpt lat="32.8642390" lon="35.2450310">
    <ele>233.3</ele>
    <time>2014-02-14T06:23:07Z</time>
   </trkpt>
   <trkpt lat="32.8642450" lon="35.2450570">
    <ele>233.3</ele>
    <time>2014-02-14T06:23:08Z</time>
   </trkpt>
   <trkpt lat="32.8643200" lon="35.2454060">
    <ele>233.4</ele>
    <time>2014-02-14T06:23:19Z</time>
   </trkpt>
   <trkpt lat="32.8641920" lon="35.2455210">
    <ele>234.1</ele>
    <time>2014-02-14T06:23:20Z</time>
   </trkpt>
   <trkpt lat="32.8640480" lon="35.2456510">
    <ele>235.5</ele>
    <time>2014-02-14T06:23:21Z</time>
   </trkpt>
   <trkpt lat="32.8640750" lon="35.2456680">
    <ele>235.8</ele>
    <time>2014-02-14T06:23:22Z</time>
   </trkpt>
   <trkpt lat="32.8641880" lon="35.2457380">
    <ele>237.2</ele>
    <time>2014-02-14T06:23:26Z</time>
   </trkpt>
   <trkpt lat="32.8641220" lon="35.2458830">
    <ele>239.2</ele>
    <time>2014-02-14T06:23:28Z</time>
   </trkpt>
   <trkpt lat="32.8640890" lon="35.2459560">
    <ele>240.3</ele>
    <time>2014-02-14T06:23:29Z</time>
   </trkpt>
   <trkpt lat="32.8640370" lon="35.2460710">
    <ele>242.1</ele>
    <time>2014-02-14T06:23:30Z</time>
   </trkpt>
   <trkpt lat="32.8640160" lon="35.2460500">
    <ele>241.8</ele>
    <time>2014-02-14T06:23:31Z</time>
   </trkpt>
   <trkpt lat="32.8641870" lon="35.2455820">
    <ele>235.0</ele>
    <time>2014-02-14T06:23:33Z</time>
   </trkpt>
   <trkpt lat="32.8643140" lon="35.2452320">
    <ele>233.7</ele>
    <time>2014-02-14T06:23:34Z</time>
   </trkpt>
   <trkpt lat="32.8643190" lon="35.2453360">
    <ele>233.6</ele>
    <time>2014-02-14T06:23:35Z</time>
   </trkpt>
   <trkpt lat="32.8643300" lon="35.2455440">
    <ele>235.1</ele>
    <time>2014-02-14T06:23:37Z</time>
   </trkpt>
   <trkpt lat="32.8643590" lon="35.2461080">
    <ele>242.1</ele>
    <time>2014-02-14T06:23:41Z</time>
   </trkpt>
   <trkpt lat="32.8643620" lon="35.2459330">
    <ele>239.9</ele>
    <time>2014-02-14T06:23:44Z</time>
   </trkpt>
   <trkpt lat="32.8643190" lon="35.2459970">
    <ele>240.8</ele>
    <time>2014-02-14T06:23:45Z</time>
   </trkpt>
   <trkpt lat="32.8642660" lon="35.2460760">
    <ele>241.8</ele>
    <time>2014-02-14T06:23:46Z</time>
   </trkpt>
   <trkpt lat="32.8643540" lon="35.2459400">
    <ele>240.0</ele>
    <time>2014-02-14T06:23:47Z</time>
   </trkpt>
   <trkpt lat="32.8644620" lon="35.2457730">
    <ele>238.2</ele>
    <time>2014-02-14T06:23:48Z</time>
   </trkpt>
   <trkpt lat="32.8645380" lon="35.2457140">
    <ele>237.7</ele>
    <time>2014-02-14T06:23:49Z</time>
   </trkpt>
   <trkpt lat="32.8645670" lon="35.2457260">
    <ele>237.9</ele>
    <time>2014-02-14T06:23:50Z</time>
   </trkpt>
   <trkpt lat="32.8644950" lon="35.2457820">
    <ele>238.3</ele>
    <time>2014-02-14T06:23:51Z</time>
   </trkpt>
   <trkpt lat="32.8644610" lon="35.2458000">
    <ele>238.5</ele>
    <time>2014-02-14T06:23:52Z</time>
   </trkpt>
   <trkpt lat="32.8636780" lon="35.2462710">
    <ele>246.0</ele>
    <time>2014-02-14T06:24:19Z</time>
   </trkpt>
   <trkpt lat="32.8637140" lon="35.2461380">
    <ele>243.7</ele>
    <time>2014-02-14T06:24:20Z</time>
   </trkpt>
   <trkpt lat="32.8644480" lon="35.2461490">
    <ele>242.4</ele>
    <time>2014-02-14T06:24:24Z</time>
   </trkpt>
   <trkpt lat="32.8644720" lon="35.2459630">
    <ele>240.3</ele>
    <time>2014-02-14T06:24:25Z</time>
   </trkpt>
   <trkpt lat="32.8646730" lon="35.2464130">
    <ele>246.9</ele>
    <time>2014-02-14T06:25:04Z</time>
   </trkpt>
   <trkpt lat="32.8646580" lon="35.2464460">
    <ele>247.5</ele>
    <time>2014-02-14T06:25:05Z</time>
   </trkpt>
   <trkpt lat="32.8646390" lon="35.2464880">
    <ele>248.2</ele>
    <time>2014-02-14T06:25:06Z</time>
   </trkpt>
   <trkpt lat="32.8654240" lon="35.2464770">
    <ele>252.6</ele>
    <time>2014-02-14T06:25:40Z</time>
   </trkpt>
   <trkpt lat="32.8653260" lon="35.2462580">
    <ele>249.3</ele>
    <time>2014-02-14T06:25:41Z</time>
   </trkpt>
   <trkpt lat="32.8651980" lon="35.2459750">
    <ele>248.2</ele>
    <time>2014-02-14T06:25:42Z</time>
   </trkpt>
   <trkpt lat="32.8648720" lon="35.2461550">
    <ele>244.9</ele>
    <time>2014-02-14T06:25:43Z</time>
   </trkpt>
   <trkpt lat="32.8650400" lon="35.2465950">
    <ele>252.1</ele>
    <time>2014-02-14T06:25:44Z</time>
   </trkpt>
   <trkpt lat="32.8651400" lon="35.2462200">
    <ele>247.7</ele>
    <time>2014-02-14T06:25:45Z</time>
   </trkpt>
   <trkpt lat="32.8654210" lon="35.2459970">
    <ele>251.0</ele>
    <time>2014-02-14T06:25:46Z</time>
   </trkpt>
   <trkpt lat="32.8653230" lon="35.2461370">
    <ele>249.5</ele>
    <time>2014-02-14T06:25:47Z</time>
   </trkpt>
   <trkpt lat="32.8652030" lon="35.2463080">
    <ele>249.0</ele>
    <time>2014-02-14T06:25:48Z</time>
   </trkpt>
   <trkpt lat="32.8651700" lon="35.2462440">
    <ele>247.9</ele>
    <time>2014-02-14T06:25:49Z</time>
   </trkpt>
   <trkpt lat="32.8649920" lon="35.2459430">
    <ele>245.5</ele>
    <time>2014-02-14T06:25:51Z</time>
   </trkpt>
   <trkpt lat="32.8651570" lon="35.2460410">
    <ele>247.7</ele>
    <time>2014-02-14T06:25:52Z</time>
   </trkpt>
   <trkpt lat="32.8652220" lon="35.2460670">
    <ele>248.5</ele>
    <time>2014-02-14T06:25:53Z</time>
   </trkpt>
   <trkpt lat="32.8652050" lon="35.2462270">
    <ele>248.2</ele>
    <time>2014-02-14T06:25:54Z</time>
   </trkpt>
   <trkpt lat="32.8651590" lon="35.2466440">
    <ele>253.3</ele>
    <time>2014-02-14T06:25:56Z</time>
   </trkpt>
   <trkpt lat="32.8651270" lon="35.2464840">
    <ele>250.9</ele>
    <time>2014-02-14T06:25:57Z</time>
   </trkpt>
   <trkpt lat="32.8650830" lon="35.2462620">
    <ele>247.4</ele>
    <time>2014-02-14T06:25:58Z</time>
   </trkpt>
   <trkpt lat="32.8650140" lon="35.2463660">
    <ele>248.4</ele>
    <time>2014-02-14T06:25:59Z</time>
   </trkpt>
   <trkpt lat="32.8649030" lon="35.2464530">
    <ele>249.1</ele>
    <time>2014-02-14T06:26:00Z</time>
   </trkpt>
   <trkpt lat="32.8646650" lon="35.2466400">
    <ele>251.3</ele>
    <time>2014-02-14T06:26:02Z</time>
   </trkpt>
   <trkpt lat="32.8646310" lon="35.2467630">
    <ele>253.6</ele>
    <time>2014-02-14T06:26:03Z</time>
   </trkpt>
   <trkpt lat="32.8647780" lon="35.2467850">
    <ele>254.3</ele>
    <time>2014-02-14T06:26:04Z</time>
   </trkpt>
   <trkpt lat="32.8646420" lon="35.2468800">
    <ele>255.9</ele>
    <time>2014-02-14T06:26:05Z</time>
   </trkpt>
   <trkpt lat="32.8645890" lon="35.2469470">
    <ele>257.2</ele>
    <time>2014-02-14T06:26:06Z</time>
   </trkpt>
   <trkpt lat="32.8644690" lon="35.2470990">
    <ele>260.1</ele>
    <time>2014-02-14T06:26:08Z</time>
   </trkpt>
   <trkpt lat="32.8642920" lon="35.2474140">
    <ele>264.7</ele>
    <time>2014-02-14T06:26:09Z</time>
   </trkpt>
   <trkpt lat="32.8643410" lon="35.2473020">
    <ele>263.1</ele>
    <time>2014-02-14T06:26:10Z</time>
   </trkpt>
   <trkpt lat="32.8646310" lon="35.2466410">
    <ele>251.2</ele>
    <time>2014-02-14T06:26:15Z</time>
   </trkpt>
   <trkpt lat="32.8646230" lon="35.2467940">
    <ele>254.2</ele>
    <time>2014-02-14T06:26:16Z</time>
   </trkpt>
   <trkpt lat="32.8646260" lon="35.2467350">
    <ele>253.0</ele>
    <time>2014-02-14T06:26:17Z</time>
   </trkpt>
   <trkpt lat="32.8647080" lon="35.2465980">
    <ele>250.6</ele>
    <time>2014-02-14T06:26:18Z</time>
   </trkpt>
   <trkpt lat="32.8647810" lon="35.2463000">
    <ele>245.6</ele>
    <time>2014-02-14T06:26:19Z</time>
   </trkpt>
   <trkpt lat="32.8648810" lon="35.2458920">
    <ele>243.8</ele>
    <time>2014-02-14T06:26:20Z</time>
   </trkpt>
   <trkpt lat="32.8647820" lon="35.2458800">
    <ele>242.3</ele>
    <time>2014-02-14T06:26:21Z</time>
   </trkpt>
   <trkpt lat="32.8643130" lon="35.2472760">
    <ele>262.6</ele>
    <time>2014-02-14T06:26:46Z</time>
   </trkpt>
   <trkpt lat="32.8643740" lon="35.2472910">
    <ele>263.0</ele>
    <time>2014-02-14T06:26:47Z</time>
   </trkpt>
   <trkpt lat="32.8644360" lon="35.2473060">
    <ele>263.4</ele>
    <time>2014-02-14T06:26:48Z</time>
   </trkpt>
   <trkpt lat="32.8643580" lon="35.2472140">
    <ele>261.8</ele>
    <time>2014-02-14T06:26:49Z</time>
   </trkpt>
   <trkpt lat="32.8641890" lon="35.2471870">
    <ele>261.0</ele>
    <time>2014-02-14T06:26:50Z</time>
   </trkpt>
   <trkpt lat="32.8640190" lon="35.2471600">
    <ele>260.4</ele>
    <time>2014-02-14T06:26:51Z</time>
   </trkpt>
   <trkpt lat="32.8640480" lon="35.2471500">
    <ele>260.3</ele>
    <time>2014-02-14T06:26:52Z</time>
   </trkpt>
   <trkpt lat="32.8643950" lon="35.2470220">
    <ele>258.6</ele>
    <time>2014-02-14T06:27:04Z</time>
   </trkpt>
   <trkpt lat="32.8641650" lon="35.2470720">
    <ele>259.3</ele>
    <time>2014-02-14T06:27:06Z</time>
   </trkpt>
   <trkpt lat="32.8640480" lon="35.2470980">
    <ele>259.6</ele>
    <time>2014-02-14T06:27:07Z</time>
   </trkpt>
   <trkpt lat="32.8640030" lon="35.2472510">
    <ele>261.6</ele>
    <time>2014-02-14T06:27:08Z</time>
   </trkpt>
   <trkpt lat="32.8640820" lon="35.2469950">
    <ele>257.9</ele>
    <time>2014-02-14T06:27:09Z</time>
   </trkpt>
   <trkpt lat="32.8640760" lon="35.2470250">
    <ele>258.4</ele>
    <time>2014-02-14T06:27:10Z</time>
   </trkpt>
   <trkpt lat="32.8639080" lon="35.2478810">
    <ele>269.5</ele>
    <time>2014-02-14T06:27:34Z</time>
   </trkpt>
   <trkpt lat="32.8639100" lon="35.2472700">
    <ele>261.6</ele>
    <time>2014-02-14T06:27:35Z</time>
   </trkpt>
   <trkpt lat="32.8639130" lon="35.2464080">
    <ele>248.0</ele>
    <time>2014-02-14T06:27:36Z</time>
   </trkpt>
   <trkpt lat="32.8638920" lon="35.2461100">
    <ele>243.0</ele>
    <time>2014-02-14T06:27:37Z</time>
   </trkpt>
   <trkpt lat="32.8646330" lon="35.2484470">
    <ele>285.2</ele>
    <time>2014-02-14T06:28:43Z</time>
   </trkpt>
   <trkpt lat="32.8644680" lon="35.2486200">
    <ele>287.0</ele>
    <time>2014-02-14T06:28:45Z</time>
   </trkpt>
   <trkpt lat="32.8647260" lon="35.2482860">
    <ele>282.4</ele>
    <time>2014-02-14T06:28:46Z</time>
   </trkpt>
   <trkpt lat="32.8650350" lon="35.2478870">
    <ele>274.5</ele>
    <time>2014-02-14T06:28:47Z</time>
   </trkpt>
   <trkpt lat="32.8651900" lon="35.2476410">
    <ele>270.1</ele>
    <time>2014-02-14T06:28:48Z</time>
   </trkpt>
   <trkpt lat="32.8651920" lon="35.2477200">
    <ele>271.6</ele>
    <time>2014-02-14T06:28:49Z</time>
   </trkpt>
   <trkpt lat="32.8652410" lon="35.2476850">
    <ele>271.0</ele>
    <time>2014-02-14T06:28:50Z</time>
   </trkpt>
   <trkpt lat="32.8652950" lon="35.2476460">
    <ele>270.3</ele>
    <time>2014-02-14T06:28:51Z</time>
   </trkpt>
   <trkpt lat="32.8651430" lon="35.2477830">
    <ele>272.8</ele>
    <time>2014-02-14T06:28:52Z</time>
   </trkpt>
   <trkpt lat="32.8649710" lon="35.2479380">
    <ele>275.4</ele>
    <time>2014-02-14T06:28:53Z</time>
   </trkpt>
   <trkpt lat="32.8650860" lon="35.2479650">
    <ele>276.4</ele>
    <time>2014-02-14T06:28:54Z</time>
   </trkpt>
   <trkpt lat="32.8652030" lon="35.2479930">
    <ele>277.5</ele>
    <time>2014-02-14T06:28:55Z</time>
   </trkpt>
   <trkpt lat="32.8652100" lon="35.2479760">
    <ele>277.1</ele>
    <time>2014-02-14T06:28:56Z</time>
   </trkpt>
   <trkpt lat="32.8652950" lon="35.2477710">
    <ele>272.8</ele>
    <time>2014-02-14T06:29:06Z</time>
   </trkpt>
   <trkpt lat="32.8652930" lon="35.2478230">
    <ele>273.8</ele>
    <time>2014-02-14T06:29:07Z</time>
   </trkpt>
   <trkpt lat="32.8652790" lon="35.2482080">
    <ele>283.7</ele>
    <time>2014-02-14T06:29:13Z</time>
   </trkpt>
   <trkpt lat="32.8654390" lon="35.2481090">
    <ele>281.7</ele>
    <time>2014-02-14T06:29:14Z</time>
   </trkpt>
   <trkpt lat="32.8655990" lon="35.2480100">
    <ele>280.3</ele>
    <time>2014-02-14T06:29:15Z</time>
   </trkpt>
   <trkpt lat="32.8659410" lon="35.2477970">
    <ele>278.8</ele>
    <time>2014-02-14T06:29:17Z</time>
   </trkpt>
   <trkpt lat="32.8657010" lon="35.2479710">
    <ele>280.2</ele>
    <time>2014-02-14T06:29:18Z</time>
   </trkpt>
   <trkpt lat="32.8654390" lon="35.2481620">
    <ele>283.2</ele>
    <time>2014-02-14T06:29:19Z</time>
   </trkpt>
   <trkpt lat="32.8656930" lon="35.2479410">
    <ele>279.3</ele>
    <time>2014-02-14T06:29:20Z</time>
   </trkpt>
   <trkpt lat="32.8659150" lon="35.2477190">
    <ele>277.0</ele>
    <time>2014-02-14T06:29:21Z</time>
   </trkpt>
   <trkpt lat="32.8658780" lon="35.2477190">
    <ele>276.7</ele>
    <time>2014-02-14T06:29:22Z</time>
   </trkpt>
   <trkpt lat="32.8658050" lon="35.2479130">
    <ele>279.7</ele>
    <time>2014-02-14T06:29:23Z</time>
   </trkpt>
   <trkpt lat="32.8657080" lon="35.2481690">
    <ele>285.4</ele>
    <time>2014-02-14T06:29:24Z</time>
   </trkpt>
   <trkpt lat="32.8656280" lon="35.2481120">
    <ele>283.3</ele>
    <time>2014-02-14T06:29:25Z</time>
   </trkpt>
   <trkpt lat="32.8655410" lon="35.2480510">
    <ele>280.9</ele>
    <time>2014-02-14T06:29:26Z</time>
   </trkpt>
   <trkpt lat="32.8655430" lon="35.2480060">
    <ele>279.7</ele>
    <time>2014-02-14T06:29:27Z</time>
   </trkpt>
   <trkpt lat="32.8656340" lon="35.2480740">
    <ele>282.3</ele>
    <time>2014-02-14T06:29:29Z</time>
   </trkpt>
   <trkpt lat="32.8655990" lon="35.2481480">
    <ele>284.0</ele>
    <time>2014-02-14T06:29:30Z</time>
   </trkpt>
   <trkpt lat="32.8655530" lon="35.2482420">
    <ele>286.3</ele>
    <time>2014-02-14T06:29:31Z</time>
   </trkpt>
   <trkpt lat="32.8656860" lon="35.2481350">
    <ele>284.4</ele>
    <time>2014-02-14T06:29:32Z</time>
   </trkpt>
   <trkpt lat="32.8656740" lon="35.2481670">
    <ele>285.1</ele>
    <time>2014-02-14T06:29:33Z</time>
   </trkpt>
   <trkpt lat="32.8656570" lon="35.2482100">
    <ele>286.1</ele>
    <time>2014-02-14T06:29:34Z</time>
   </trkpt>
   <trkpt lat="32.8657910" lon="35.2480940">
    <ele>284.1</ele>
    <time>2014-02-14T06:29:35Z</time>
   </trkpt>
   <trkpt lat="32.8657150" lon="35.2482200">
    <ele>286.8</ele>
    <time>2014-02-14T06:29:37Z</time>
   </trkpt>
   <trkpt lat="32.8655980" lon="35.2481320">
    <ele>283.6</ele>
    <time>2014-02-14T06:29:38Z</time>
   </trkpt>
   <trkpt lat="32.8656170" lon="35.2483230">
    <ele>288.9</ele>
    <time>2014-02-14T06:29:39Z</time>
   </trkpt>
   <trkpt lat="32.8655940" lon="35.2483790">
    <ele>290.3</ele>
    <time>2014-02-14T06:29:40Z</time>
   </trkpt>
   <trkpt lat="32.8656510" lon="35.2482530">
    <ele>287.3</ele>
    <time>2014-02-14T06:29:41Z</time>
   </trkpt>
   <trkpt lat="32.8655440" lon="35.2484610">
    <ele>292.3</ele>
    <time>2014-02-14T06:29:42Z</time>
   </trkpt>
   <trkpt lat="32.8656330" lon="35.2482240">
    <ele>286.4</ele>
    <time>2014-02-14T06:29:43Z</time>
   </trkpt>
   <trkpt lat="32.8657500" lon="35.2479100">
    <ele>279.1</ele>
    <time>2014-02-14T06:29:44Z</time>
   </trkpt>
   <trkpt lat="32.8663400" lon="35.2478290">
    <ele>283.3</ele>
    <time>2014-02-14T06:29:49Z</time>
   </trkpt>
   <trkpt lat="32.8659470" lon="35.2482390">
    <ele>288.9</ele>
    <time>2014-02-14T06:29:52Z</time>
   </trkpt>
   <trkpt lat="32.8660820" lon="35.2481450">
    <ele>287.7</ele>
    <time>2014-02-14T06:29:53Z</time>
   </trkpt>
   <trkpt lat="32.8662290" lon="35.2480430">
    <ele>286.6</ele>
    <time>2014-02-14T06:29:54Z</time>
   </trkpt>
   <trkpt lat="32.8663270" lon="35.2479520">
    <ele>285.5</ele>
    <time>2014-02-14T06:29:55Z</time>
   </trkpt>
   <trkpt lat="32.8661750" lon="35.2480460">
    <ele>286.2</ele>
    <time>2014-02-14T06:29:56Z</time>
   </trkpt>
   <trkpt lat="32.8661870" lon="35.2481040">
    <ele>287.5</ele>
    <time>2014-02-14T06:29:57Z</time>
   </trkpt>
   <trkpt lat="32.8662630" lon="35.2484630">
    <ele>295.9</ele>
    <time>2014-02-14T06:30:02Z</time>
   </trkpt>
   <trkpt lat="32.8665790" lon="35.2482940">
    <ele>294.6</ele>
    <time>2014-02-14T06:30:05Z</time>
   </trkpt>
   <trkpt lat="32.8664730" lon="35.2484070">
    <ele>296.1</ele>
    <time>2014-02-14T06:30:06Z</time>
   </trkpt>
   <trkpt lat="32.8665110" lon="35.2484580">
    <ele>297.4</ele>
    <time>2014-02-14T06:30:07Z</time>
   </trkpt>
   <trkpt lat="32.8665100" lon="35.2483920">
    <ele>296.1</ele>
    <time>2014-02-14T06:30:08Z</time>
   </trkpt>
   <trkpt lat="32.8665090" lon="35.2483260">
    <ele>294.7</ele>
    <time>2014-02-14T06:30:09Z</time>
   </trkpt>
   <trkpt lat="32.8665080" lon="35.2482200">
    <ele>292.6</ele>
    <time>2014-02-14T06:30:10Z</time>
   </trkpt>
   <trkpt lat="32.8665970" lon="35.2481930">
    <ele>292.7</ele>
    <time>2014-02-14T06:30:11Z</time>
   </trkpt>
   <trkpt lat="32.8666880" lon="35.2481650">
    <ele>292.9</ele>
    <time>2014-02-14T06:30:12Z</time>
   </trkpt>
   <trkpt lat="32.8665840" lon="35.2479710">
    <ele>288.3</ele>
    <time>2014-02-14T06:30:13Z</time>
   </trkpt>
   <trkpt lat="32.8663640" lon="35.2480900">
    <ele>288.7</ele>
    <time>2014-02-14T06:30:14Z</time>
   </trkpt>
   <trkpt lat="32.8664670" lon="35.2480580">
    <ele>289.0</ele>
    <time>2014-02-14T06:30:15Z</time>
   </trkpt>
   <trkpt lat="32.8663530" lon="35.2482400">
    <ele>291.8</ele>
    <time>2014-02-14T06:30:16Z</time>
   </trkpt>
   <trkpt lat="32.8662120" lon="35.2484660">
    <ele>295.7</ele>
    <time>2014-02-14T06:30:17Z</time>
   </trkpt>
   <trkpt lat="32.8660550" lon="35.2485750">
    <ele>297.5</ele>
    <time>2014-02-14T06:30:18Z</time>
   </trkpt>
   <trkpt lat="32.8658850" lon="35.2486930">
    <ele>299.7</ele>
    <time>2014-02-14T06:30:19Z</time>
   </trkpt>
   <trkpt lat="32.8659480" lon="35.2484850">
    <ele>294.9</ele>
    <time>2014-02-14T06:30:20Z</time>
   </trkpt>
   <trkpt lat="32.8660340" lon="35.2482050">
    <ele>288.7</ele>
    <time>2014-02-14T06:30:21Z</time>
   </trkpt>
   <trkpt lat="32.8661490" lon="35.2481960">
    <ele>289.3</ele>
    <time>2014-02-14T06:30:22Z</time>
   </trkpt>
   <trkpt lat="32.8660800" lon="35.2485050">
    <ele>295.9</ele>
    <time>2014-02-14T06:30:23Z</time>
   </trkpt>
   <trkpt lat="32.8659860" lon="35.2489300">
    <ele>304.9</ele>
    <time>2014-02-14T06:30:24Z</time>
   </trkpt>
   <trkpt lat="32.8660870" lon="35.2486860">
    <ele>300.1</ele>
    <time>2014-02-14T06:30:25Z</time>
   </trkpt>
   <trkpt lat="32.8662190" lon="35.2483670">
    <ele>293.6</ele>
    <time>2014-02-14T06:30:26Z</time>
   </trkpt>
   <trkpt lat="32.8660130" lon="35.2486640">
    <ele>299.4</ele>
    <time>2014-02-14T06:30:27Z</time>
   </trkpt>
   <trkpt lat="32.8657630" lon="35.2490250">
    <ele>306.7</ele>
    <time>2014-02-14T06:30:28Z</time>
   </trkpt>
   <trkpt lat="32.8657790" lon="35.2488510">
    <ele>303.0</ele>
    <time>2014-02-14T06:30:29Z</time>
   </trkpt>
   <trkpt lat="32.8658590" lon="35.2487350">
    <ele>300.7</ele>
    <time>2014-02-14T06:30:30Z</time>
   </trkpt>
   <trkpt lat="32.8659550" lon="35.2488820">
    <ele>303.9</ele>
    <time>2014-02-14T06:30:31Z</time>
   </trkpt>
   <trkpt lat="32.8657350" lon="35.2488700">
    <ele>303.4</ele>
    <time>2014-02-14T06:30:32Z</time>
   </trkpt>
   <trkpt lat="32.8655140" lon="35.2488570">
    <ele>302.7</ele>
    <time>2014-02-14T06:30:33Z</time>
   </trkpt>
   <trkpt lat="32.8656320" lon="35.2491940">
    <ele>310.5</ele>
    <time>2014-02-14T06:30:34Z</time>
   </trkpt>
   <trkpt lat="32.8658180" lon="35.2488690">
    <ele>303.5</ele>
    <time>2014-02-14T06:30:35Z</time>
   </trkpt>
   <trkpt lat="32.8660510" lon="35.2484610">
    <ele>294.8</ele>
    <time>2014-02-14T06:30:36Z</time>
   </trkpt>
   <trkpt lat="32.8660240" lon="35.2486660">
    <ele>299.5</ele>
    <time>2014-02-14T06:30:37Z</time>
   </trkpt>
   <trkpt lat="32.8658100" lon="35.2484720">
    <ele>293.9</ele>
    <time>2014-02-14T06:30:38Z</time>
   </trkpt>
   <trkpt lat="32.8656040" lon="35.2488170">
    <ele>302.0</ele>
    <time>2014-02-14T06:30:39Z</time>
   </trkpt>
   <trkpt lat="32.8657870" lon="35.2483500">
    <ele>290.6</ele>
    <time>2014-02-14T06:30:40Z</time>
   </trkpt>
   <trkpt lat="32.8658740" lon="35.2488630">
    <ele>303.4</ele>
    <time>2014-02-14T06:30:41Z</time>
   </trkpt>
   <trkpt lat="32.8658450" lon="35.2485870">
    <ele>296.9</ele>
    <time>2014-02-14T06:30:42Z</time>
   </trkpt>
   <trkpt lat="32.8658360" lon="35.2486680">
    <ele>298.9</ele>
    <time>2014-02-14T06:30:43Z</time>
   </trkpt>
   <trkpt lat="32.8658230" lon="35.2487820">
    <ele>301.6</ele>
    <time>2014-02-14T06:30:44Z</time>
   </trkpt>
   <trkpt lat="32.8658500" lon="35.2485150">
    <ele>295.2</ele>
    <time>2014-02-14T06:30:45Z</time>
   </trkpt>
   <trkpt lat="32.8658680" lon="35.2483810">
    <ele>291.9</ele>
    <time>2014-02-14T06:30:46Z</time>
   </trkpt>
   <trkpt lat="32.8656910" lon="35.2484630">
    <ele>293.1</ele>
    <time>2014-02-14T06:30:47Z</time>
   </trkpt>
   <trkpt lat="32.8657010" lon="35.2485000">
    <ele>294.1</ele>
    <time>2014-02-14T06:30:48Z</time>
   </trkpt>
   <trkpt lat="32.8657150" lon="35.2485500">
    <ele>295.5</ele>
    <time>2014-02-14T06:30:49Z</time>
   </trkpt>
   <trkpt lat="32.8653760" lon="35.2486990">
    <ele>298.1</ele>
    <time>2014-02-14T06:30:50Z</time>
   </trkpt>
   <trkpt lat="32.8654620" lon="35.2485020">
    <ele>293.1</ele>
    <time>2014-02-14T06:30:51Z</time>
   </trkpt>
   <trkpt lat="32.8654550" lon="35.2485490">
    <ele>294.4</ele>
    <time>2014-02-14T06:30:52Z</time>
   </trkpt>
   <trkpt lat="32.8654170" lon="35.2486660">
    <ele>297.6</ele>
    <time>2014-02-14T06:30:53Z</time>
   </trkpt>
   <trkpt lat="32.8653790" lon="35.2487840">
    <ele>300.4</ele>
    <time>2014-02-14T06:30:54Z</time>
   </trkpt>
   <trkpt lat="32.8653210" lon="35.2489610">
    <ele>304.0</ele>
    <time>2014-02-14T06:30:55Z</time>
   </trkpt>
   <trkpt lat="32.8653030" lon="35.2489690">
    <ele>304.0</ele>
    <time>2014-02-14T06:30:56Z</time>
   </trkpt>
   <trkpt lat="32.8652860" lon="35.2489770">
    <ele>304.0</ele>
    <time>2014-02-14T06:30:57Z</time>
   </trkpt>
   <trkpt lat="32.8652670" lon="35.2489860">
    <ele>304.0</ele>
    <time>2014-02-14T06:30:58Z</time>
   </trkpt>
   <trkpt lat="32.8655290" lon="35.2484860">
    <ele>292.9</ele>
    <time>2014-02-14T06:30:59Z</time>
   </trkpt>
   <trkpt lat="32.8653270" lon="35.2489720">
    <ele>304.3</ele>
    <time>2014-02-14T06:31:00Z</time>
   </trkpt>
   <trkpt lat="32.8653280" lon="35.2489060">
    <ele>302.8</ele>
    <time>2014-02-14T06:31:01Z</time>
   </trkpt>
   <trkpt lat="32.8653300" lon="35.2488140">
    <ele>300.6</ele>
    <time>2014-02-14T06:31:02Z</time>
   </trkpt>
   <trkpt lat="32.8654340" lon="35.2492840">
    <ele>312.8</ele>
    <time>2014-02-14T06:31:03Z</time>
   </trkpt>
   <trkpt lat="32.8653850" lon="35.2495820">
    <ele>319.6</ele>
    <time>2014-02-14T06:31:04Z</time>
   </trkpt>
   <trkpt lat="32.8652770" lon="35.2493740">
    <ele>313.3</ele>
    <time>2014-02-14T06:31:05Z</time>
   </trkpt>
   <trkpt lat="32.8651400" lon="35.2491080">
    <ele>305.5</ele>
    <time>2014-02-14T06:31:06Z</time>
   </trkpt>
   <trkpt lat="32.8652230" lon="35.2487600">
    <ele>298.1</ele>
    <time>2014-02-14T06:31:07Z</time>
   </trkpt>
   <trkpt lat="32.8652380" lon="35.2486750">
    <ele>296.0</ele>
    <time>2014-02-14T06:31:08Z</time>
   </trkpt>
   <trkpt lat="32.8652580" lon="35.2485580">
    <ele>293.1</ele>
    <time>2014-02-14T06:31:09Z</time>
   </trkpt>
   <trkpt lat="32.8655300" lon="35.2486330">
    <ele>297.0</ele>
    <time>2014-02-14T06:31:10Z</time>
   </trkpt>
   <trkpt lat="32.8654930" lon="35.2486900">
    <ele>298.5</ele>
    <time>2014-02-14T06:31:11Z</time>
   </trkpt>
   <trkpt lat="32.8655190" lon="35.2485770">
    <ele>295.4</ele>
    <time>2014-02-14T06:31:12Z</time>
   </trkpt>
   <trkpt lat="32.8656440" lon="35.2484240">
    <ele>291.8</ele>
    <time>2014-02-14T06:31:13Z</time>
   </trkpt>
   <trkpt lat="32.8655930" lon="35.2484590">
    <ele>292.5</ele>
    <time>2014-02-14T06:31:14Z</time>
   </trkpt>
   <trkpt lat="32.8655500" lon="35.2483220">
    <ele>288.5</ele>
    <time>2014-02-14T06:31:16Z</time>
   </trkpt>
   <trkpt lat="32.8656240" lon="35.2481690">
    <ele>284.8</ele>
    <time>2014-02-14T06:31:17Z</time>
   </trkpt>
   <trkpt lat="32.8654450" lon="35.2482230">
    <ele>285.0</ele>
    <time>2014-02-14T06:31:18Z</time>
   </trkpt>
   <trkpt lat="32.8652620" lon="35.2482780">
    <ele>285.5</ele>
    <time>2014-02-14T06:31:19Z</time>
   </trkpt>
   <trkpt lat="32.8651200" lon="35.2485100">
    <ele>290.6</ele>
    <time>2014-02-14T06:31:20Z</time>
   </trkpt>
   <trkpt lat="32.8649430" lon="35.2487970">
    <ele>296.0</ele>
    <time>2014-02-14T06:31:21Z</time>
   </trkpt>
   <trkpt lat="32.8649130" lon="35.2487740">
    <ele>295.1</ele>
    <time>2014-02-14T06:31:22Z</time>
   </trkpt>
   <trkpt lat="32.8648810" lon="35.2487490">
    <ele>294.2</ele>
    <time>2014-02-14T06:31:23Z</time>
   </trkpt>
   <trkpt lat="32.8650860" lon="35.2485500">
    <ele>291.3</ele>
    <time>2014-02-14T06:31:24Z</time>
   </trkpt>
   <trkpt lat="32.8653190" lon="35.2483240">
    <ele>287.1</ele>
    <time>2014-02-14T06:31:25Z</time>
   </trkpt>
   <trkpt lat="32.8651270" lon="35.2486400">
    <ele>294.0</ele>
    <time>2014-02-14T06:31:26Z</time>
   </trkpt>
   <trkpt lat="32.8648890" lon="35.2490320">
    <ele>300.9</ele>
    <time>2014-02-14T06:31:27Z</time>
   </trkpt>
   <trkpt lat="32.8646910" lon="35.2491890">
    <ele>302.2</ele>
    <time>2014-02-14T06:31:29Z</time>
   </trkpt>
   <trkpt lat="32.8647050" lon="35.2490810">
    <ele>299.9</ele>
    <time>2014-02-14T06:31:30Z</time>
   </trkpt>
   <trkpt lat="32.8647250" lon="35.2489290">
    <ele>296.6</ele>
    <time>2014-02-14T06:31:31Z</time>
   </trkpt>
   <trkpt lat="32.8647550" lon="35.2489400">
    <ele>297.2</ele>
    <time>2014-02-14T06:31:32Z</time>
   </trkpt>
   <trkpt lat="32.8648270" lon="35.2488970">
    <ele>297.0</ele>
    <time>2014-02-14T06:31:33Z</time>
   </trkpt>
   <trkpt lat="32.8646800" lon="35.2488450">
    <ele>294.2</ele>
    <time>2014-02-14T06:31:34Z</time>
   </trkpt>
   <trkpt lat="32.8645290" lon="35.2487910">
    <ele>291.2</ele>
    <time>2014-02-14T06:31:35Z</time>
   </trkpt>
   <trkpt lat="32.8646780" lon="35.2488480">
    <ele>294.3</ele>
    <time>2014-02-14T06:31:36Z</time>
   </trkpt>
   <trkpt lat="32.8648310" lon="35.2489070">
    <ele>297.3</ele>
    <time>2014-02-14T06:31:37Z</time>
   </trkpt>
   <trkpt lat="32.8649260" lon="35.2485300">
    <ele>289.5</ele>
    <time>2014-02-14T06:31:38Z</time>
   </trkpt>
   <trkpt lat="32.8647350" lon="35.2489160">
    <ele>296.5</ele>
    <time>2014-02-14T06:31:39Z</time>
   </trkpt>
   <trkpt lat="32.8647950" lon="35.2492780">
    <ele>305.5</ele>
    <time>2014-02-14T06:31:40Z</time>
   </trkpt>
   <trkpt lat="32.8648000" lon="35.2492200">
    <ele>304.2</ele>
    <time>2014-02-14T06:31:41Z</time>
   </trkpt>
   <trkpt lat="32.8647680" lon="35.2492020">
    <ele>303.4</ele>
    <time>2014-02-14T06:31:49Z</time>
   </trkpt>
   <trkpt lat="32.8647150" lon="35.2491920">
    <ele>302.6</ele>
    <time>2014-02-14T06:31:51Z</time>
   </trkpt>
   <trkpt lat="32.8646920" lon="35.2492440">
    <ele>303.5</ele>
    <time>2014-02-14T06:31:52Z</time>
   </trkpt>
   <trkpt lat="32.8646580" lon="35.2492480">
    <ele>303.2</ele>
    <time>2014-02-14T06:31:53Z</time>
   </trkpt>
   <trkpt lat="32.8646240" lon="35.2492320">
    <ele>302.5</ele>
    <time>2014-02-14T06:31:54Z</time>
   </trkpt>
   <trkpt lat="32.8646090" lon="35.2493290">
    <ele>304.5</ele>
    <time>2014-02-14T06:31:55Z</time>
   </trkpt>
   <trkpt lat="32.8645770" lon="35.2493140">
    <ele>303.7</ele>
    <time>2014-02-14T06:31:56Z</time>
   </trkpt>
   <trkpt lat="32.8645370" lon="35.2493200">
    <ele>303.2</ele>
    <time>2014-02-14T06:31:58Z</time>
   </trkpt>
   <trkpt lat="32.8645080" lon="35.2493360">
    <ele>303.0</ele>
    <time>2014-02-14T06:31:59Z</time>
   </trkpt>
   <trkpt lat="32.8644740" lon="35.2493190">
    <ele>302.0</ele>
    <time>2014-02-14T06:32:02Z</time>
   </trkpt>
   <trkpt lat="32.8644660" lon="35.2492860">
    <ele>301.1</ele>
    <time>2014-02-14T06:32:07Z</time>
   </trkpt>
   <trkpt lat="32.8644620" lon="35.2492530">
    <ele>300.3</ele>
    <time>2014-02-14T06:32:09Z</time>
   </trkpt>
   <trkpt lat="32.8644600" lon="35.2492130">
    <ele>299.4</ele>
    <time>2014-02-14T06:32:12Z</time>
   </trkpt>
   <trkpt lat="32.8644470" lon="35.2491680">
    <ele>298.2</ele>
    <time>2014-02-14T06:32:15Z</time>
   </trkpt>
   <trkpt lat="32.8644420" lon="35.2491320">
    <ele>297.4</ele>
    <time>2014-02-14T06:32:17Z</time>
   </trkpt>
   <trkpt lat="32.8644280" lon="35.2490980">
    <ele>296.4</ele>
    <time>2014-02-14T06:32:19Z</time>
   </trkpt>
   <trkpt lat="32.8643970" lon="35.2490840">
    <ele>295.6</ele>
    <time>2014-02-14T06:32:22Z</time>
   </trkpt>
   <trkpt lat="32.8643660" lon="35.2490750">
    <ele>294.9</ele>
    <time>2014-02-14T06:32:26Z</time>
   </trkpt>
   <trkpt lat="32.8643440" lon="35.2490510">
    <ele>294.1</ele>
    <time>2014-02-14T06:32:30Z</time>
   </trkpt>
   <trkpt lat="32.8643750" lon="35.2490440">
    <ele>294.4</ele>
    <time>2014-02-14T06:32:33Z</time>
   </trkpt>
   <trkpt lat="32.8644070" lon="35.2490370">
    <ele>294.8</ele>
    <time>2014-02-14T06:33:39Z</time>
   </trkpt>
   <trkpt lat="32.8644670" lon="35.2490160">
    <ele>295.3</ele>
    <time>2014-02-14T06:33:41Z</time>
   </trkpt>
   <trkpt lat="32.8645150" lon="35.2490030">
    <ele>295.7</ele>
    <time>2014-02-14T06:33:42Z</time>
   </trkpt>
   <trkpt lat="32.8645690" lon="35.2489880">
    <ele>296.2</ele>
    <time>2014-02-14T06:33:43Z</time>
   </trkpt>
   <trkpt lat="32.8646130" lon="35.2489640">
    <ele>296.2</ele>
    <time>2014-02-14T06:33:44Z</time>
   </trkpt>
   <trkpt lat="32.8646520" lon="35.2489300">
    <ele>295.9</ele>
    <time>2014-02-14T06:33:45Z</time>
   </trkpt>
   <trkpt lat="32.8646870" lon="35.2488880">
    <ele>295.3</ele>
    <time>2014-02-14T06:33:46Z</time>
   </trkpt>
   <trkpt lat="32.8647150" lon="35.2488390">
    <ele>294.5</ele>
    <time>2014-02-14T06:33:47Z</time>
   </trkpt>
   <trkpt lat="32.8647150" lon="35.2487890">
    <ele>293.3</ele>
    <time>2014-02-14T06:33:48Z</time>
   </trkpt>
   <trkpt lat="32.8646890" lon="35.2487560">
    <ele>292.3</ele>
    <time>2014-02-14T06:33:49Z</time>
   </trkpt>
   <trkpt lat="32.8646510" lon="35.2487390">
    <ele>291.5</ele>
    <time>2014-02-14T06:33:50Z</time>
   </trkpt>
   <trkpt lat="32.8646140" lon="35.2487230">
    <ele>290.8</ele>
    <time>2014-02-14T06:33:51Z</time>
   </trkpt>
   <trkpt lat="32.8645770" lon="35.2487050">
    <ele>290.0</ele>
    <time>2014-02-14T06:33:52Z</time>
   </trkpt>
   <trkpt lat="32.8645460" lon="35.2487140">
    <ele>289.8</ele>
    <time>2014-02-14T06:33:53Z</time>
   </trkpt>
   <trkpt lat="32.8645180" lon="35.2487280">
    <ele>289.7</ele>
    <time>2014-02-14T06:33:54Z</time>
   </trkpt>
   <trkpt lat="32.8644930" lon="35.2487480">
    <ele>289.8</ele>
    <time>2014-02-14T06:33:55Z</time>
   </trkpt>
   <trkpt lat="32.8645120" lon="35.2487510">
    <ele>290.1</ele>
    <time>2014-02-14T06:33:57Z</time>
   </trkpt>
   <trkpt lat="32.8645510" lon="35.2487210">
    <ele>290.0</ele>
    <time>2014-02-14T06:33:59Z</time>
   </trkpt>
   <trkpt lat="32.8645900" lon="35.2486910">
    <ele>289.9</ele>
    <time>2014-02-14T06:34:01Z</time>
   </trkpt>
   <trkpt lat="32.8646290" lon="35.2486610">
    <ele>289.6</ele>
    <time>2014-02-14T06:34:04Z</time>
   </trkpt>
   <trkpt lat="32.8646780" lon="35.2486230">
    <ele>289.3</ele>
    <time>2014-02-14T06:34:06Z</time>
   </trkpt>
   <trkpt lat="32.8646750" lon="35.2485190">
    <ele>287.1</ele>
    <time>2014-02-14T06:34:07Z</time>
   </trkpt>
   <trkpt lat="32.8646750" lon="35.2484680">
    <ele>286.0</ele>
    <time>2014-02-14T06:34:08Z</time>
   </trkpt>
   <trkpt lat="32.8646840" lon="35.2484380">
    <ele>285.4</ele>
    <time>2014-02-14T06:34:09Z</time>
   </trkpt>
   <trkpt lat="32.8646930" lon="35.2484070">
    <ele>284.8</ele>
    <time>2014-02-14T06:34:10Z</time>
   </trkpt>
   <trkpt lat="32.8647160" lon="35.2483530">
    <ele>283.8</ele>
    <time>2014-02-14T06:34:12Z</time>
   </trkpt>
   <trkpt lat="32.8647370" lon="35.2483110">
    <ele>283.0</ele>
    <time>2014-02-14T06:34:14Z</time>
   </trkpt>
   <trkpt lat="32.8647470" lon="35.2482770">
    <ele>282.3</ele>
    <time>2014-02-14T06:34:16Z</time>
   </trkpt>
   <trkpt lat="32.8666570" lon="35.2454320">
    <ele>258.7</ele>
    <time>2014-02-14T06:35:48Z</time>
   </trkpt>
   <trkpt lat="32.8666810" lon="35.2453990">
    <ele>258.3</ele>
    <time>2014-02-14T06:35:49Z</time>
   </trkpt>
   <trkpt lat="32.8667240" lon="35.2453670">
    <ele>257.7</ele>
    <time>2014-02-14T06:35:50Z</time>
   </trkpt>
   <trkpt lat="32.8667480" lon="35.2453330">
    <ele>257.2</ele>
    <time>2014-02-14T06:35:51Z</time>
   </trkpt>
   <trkpt lat="32.8667720" lon="35.2453000">
    <ele>256.7</ele>
    <time>2014-02-14T06:35:52Z</time>
   </trkpt>
   <trkpt lat="32.8668010" lon="35.2449050">
    <ele>252.6</ele>
    <time>2014-02-14T06:35:58Z</time>
   </trkpt>
   <trkpt lat="32.8667990" lon="35.2448410">
    <ele>252.0</ele>
    <time>2014-02-14T06:35:59Z</time>
   </trkpt>
   <trkpt lat="32.8667770" lon="35.2447820">
    <ele>251.7</ele>
    <time>2014-02-14T06:36:00Z</time>
   </trkpt>
   <trkpt lat="32.8666890" lon="35.2447480">
    <ele>252.6</ele>
    <time>2014-02-14T06:36:01Z</time>
   </trkpt>
   <trkpt lat="32.8665960" lon="35.2447470">
    <ele>253.8</ele>
    <time>2014-02-14T06:36:02Z</time>
   </trkpt>
   <trkpt lat="32.8665510" lon="35.2446940">
    <ele>254.1</ele>
    <time>2014-02-14T06:36:03Z</time>
   </trkpt>
   <trkpt lat="32.8665130" lon="35.2446460">
    <ele>254.3</ele>
    <time>2014-02-14T06:36:04Z</time>
   </trkpt>
   <trkpt lat="32.8664170" lon="35.2445960">
    <ele>255.5</ele>
    <time>2014-02-14T06:36:05Z</time>
   </trkpt>
   <trkpt lat="32.8663630" lon="35.2445540">
    <ele>256.0</ele>
    <time>2014-02-14T06:36:06Z</time>
   </trkpt>
   <trkpt lat="32.8662340" lon="35.2444950">
    <ele>257.5</ele>
    <time>2014-02-14T06:36:07Z</time>
   </trkpt>
   <trkpt lat="32.8661730" lon="35.2444580">
    <ele>257.3</ele>
    <time>2014-02-14T06:36:08Z</time>
   </trkpt>
   <trkpt lat="32.8661110" lon="35.2444220">
    <ele>257.2</ele>
    <time>2014-02-14T06:36:09Z</time>
   </trkpt>
   <trkpt lat="32.8660500" lon="35.2443870">
    <ele>257.2</ele>
    <time>2014-02-14T06:36:10Z</time>
   </trkpt>
   <trkpt lat="32.8701810" lon="35.2366820">
    <ele>153.2</ele>
    <time>2014-02-14T06:39:42Z</time>
   </trkpt>
   <trkpt lat="32.8700180" lon="35.2366130">
    <ele>155.5</ele>
    <time>2014-02-14T06:39:43Z</time>
   </trkpt>
   <trkpt lat="32.8698490" lon="35.2365410">
    <ele>157.6</ele>
    <time>2014-02-14T06:39:44Z</time>
   </trkpt>
   <trkpt lat="32.8697750" lon="35.2365090">
    <ele>158.4</ele>
    <time>2014-02-14T06:39:45Z</time>
   </trkpt>
   <trkpt lat="32.8695580" lon="35.2364510">
    <ele>161.4</ele>
    <time>2014-02-14T06:39:46Z</time>
   </trkpt>
   <trkpt lat="32.8693380" lon="35.2363920">
    <ele>166.7</ele>
    <time>2014-02-14T06:39:47Z</time>
   </trkpt>
   <trkpt lat="32.8692210" lon="35.2363330">
    <ele>169.1</ele>
    <time>2014-02-14T06:39:48Z</time>
   </trkpt>
   <trkpt lat="32.8690990" lon="35.2362720">
    <ele>171.5</ele>
    <time>2014-02-14T06:39:49Z</time>
   </trkpt>
   <trkpt lat="32.8690350" lon="35.2362380">
    <ele>172.7</ele>
    <time>2014-02-14T06:39:50Z</time>
   </trkpt>
   <trkpt lat="32.8688470" lon="35.2362020">
    <ele>177.2</ele>
    <time>2014-02-14T06:39:51Z</time>
   </trkpt>
   <trkpt lat="32.8686570" lon="35.2361660">
    <ele>181.1</ele>
    <time>2014-02-14T06:39:52Z</time>
   </trkpt>
   <trkpt lat="32.8686160" lon="35.2361200">
    <ele>181.5</ele>
    <time>2014-02-14T06:39:54Z</time>
   </trkpt>
   <trkpt lat="32.8685780" lon="35.2360880">
    <ele>182.0</ele>
    <time>2014-02-14T06:39:55Z</time>
   </trkpt>
   <trkpt lat="32.8685390" lon="35.2360610">
    <ele>182.5</ele>
    <time>2014-02-14T06:39:56Z</time>
   </trkpt>
   <trkpt lat="32.8685100" lon="35.2360350">
    <ele>182.8</ele>
    <time>2014-02-14T06:39:57Z</time>
   </trkpt>
   <trkpt lat="32.8684860" lon="35.2360090">
    <ele>183.0</ele>
    <time>2014-02-14T06:39:58Z</time>
   </trkpt>
   <trkpt lat="32.8684650" lon="35.2359820">
    <ele>183.1</ele>
    <time>2014-02-14T06:39:59Z</time>
   </trkpt>
   <trkpt lat="32.8684470" lon="35.2359590">
    <ele>183.2</ele>
    <time>2014-02-14T06:40:00Z</time>
   </trkpt>
   <trkpt lat="32.8684150" lon="35.2359240">
    <ele>183.5</ele>
    <time>2014-02-14T06:40:02Z</time>
   </trkpt>
   <trkpt lat="32.8683900" lon="35.2359070">
    <ele>183.8</ele>
    <time>2014-02-14T06:40:03Z</time>
   </trkpt>
   <trkpt lat="32.8683410" lon="35.2358880">
    <ele>184.4</ele>
    <time>2014-02-14T06:40:05Z</time>
   </trkpt>
   <trkpt lat="32.8682780" lon="35.2358840">
    <ele>185.6</ele>
    <time>2014-02-14T06:40:08Z</time>
   </trkpt>
   <trkpt lat="32.8682460" lon="35.2358710">
    <ele>186.0</ele>
    <time>2014-02-14T06:40:13Z</time>
   </trkpt>
   <trkpt lat="32.8682120" lon="35.2358580">
    <ele>186.5</ele>
    <time>2014-02-14T06:40:14Z</time>
   </trkpt>
   <trkpt lat="32.8681860" lon="35.2358510">
    <ele>186.9</ele>
    <time>2014-02-14T06:40:15Z</time>
   </trkpt>
   <trkpt lat="32.8681560" lon="35.2358430">
    <ele>187.3</ele>
    <time>2014-02-14T06:40:19Z</time>
   </trkpt>
   <trkpt lat="32.8681150" lon="35.2358060">
    <ele>187.6</ele>
    <time>2014-02-14T06:41:04Z</time>
   </trkpt>
   <trkpt lat="32.8680870" lon="35.2357830">
    <ele>187.8</ele>
    <time>2014-02-14T06:41:05Z</time>
   </trkpt>
   <trkpt lat="32.8680490" lon="35.2357550">
    <ele>188.1</ele>
    <time>2014-02-14T06:41:06Z</time>
   </trkpt>
   <trkpt lat="32.8680130" lon="35.2357300">
    <ele>188.5</ele>
    <time>2014-02-14T06:41:07Z</time>
   </trkpt>
   <trkpt lat="32.8679820" lon="35.2357090">
    <ele>188.7</ele>
    <time>2014-02-14T06:41:08Z</time>
   </trkpt>
   <trkpt lat="32.8679500" lon="35.2356900">
    <ele>189.0</ele>
    <time>2014-02-14T06:41:09Z</time>
   </trkpt>
   <trkpt lat="32.8679170" lon="35.2356720">
    <ele>189.4</ele>
    <time>2014-02-14T06:41:10Z</time>
   </trkpt>
   <trkpt lat="32.8678860" lon="35.2356540">
    <ele>189.4</ele>
    <time>2014-02-14T06:41:11Z</time>
   </trkpt>
   <trkpt lat="32.8678550" lon="35.2356350">
    <ele>189.5</ele>
    <time>2014-02-14T06:41:12Z</time>
   </trkpt>
   <trkpt lat="32.8678260" lon="35.2356160">
    <ele>189.5</ele>
    <time>2014-02-14T06:41:13Z</time>
   </trkpt>
   <trkpt lat="32.8677950" lon="35.2355960">
    <ele>189.5</ele>
    <time>2014-02-14T06:41:14Z</time>
   </trkpt>
   <trkpt lat="32.8677630" lon="35.2355750">
    <ele>189.4</ele>
    <time>2014-02-14T06:41:15Z</time>
   </trkpt>
   <trkpt lat="32.8677340" lon="35.2355530">
    <ele>189.4</ele>
    <time>2014-02-14T06:41:16Z</time>
   </trkpt>
   <trkpt lat="32.8677030" lon="35.2355320">
    <ele>189.3</ele>
    <time>2014-02-14T06:41:17Z</time>
   </trkpt>
   <trkpt lat="32.8676720" lon="35.2355110">
    <ele>189.2</ele>
    <time>2014-02-14T06:41:18Z</time>
   </trkpt>
   <trkpt lat="32.8676430" lon="35.2354940">
    <ele>189.2</ele>
    <time>2014-02-14T06:41:19Z</time>
   </trkpt>
   <trkpt lat="32.8676170" lon="35.2354750">
    <ele>189.1</ele>
    <time>2014-02-14T06:41:20Z</time>
   </trkpt>
   <trkpt lat="32.8675900" lon="35.2354560">
    <ele>189.0</ele>
    <time>2014-02-14T06:41:21Z</time>
   </trkpt>
   <trkpt lat="32.8675630" lon="35.2354420">
    <ele>189.0</ele>
    <time>2014-02-14T06:41:22Z</time>
   </trkpt>
   <trkpt lat="32.8675340" lon="35.2354270">
    <ele>188.9</ele>
    <time>2014-02-14T06:41:23Z</time>
   </trkpt>
   <trkpt lat="32.8675050" lon="35.2354130">
    <ele>188.9</ele>
    <time>2014-02-14T06:41:24Z</time>
   </trkpt>
   <trkpt lat="32.8674740" lon="35.2354000">
    <ele>188.8</ele>
    <time>2014-02-14T06:41:25Z</time>
   </trkpt>
   <trkpt lat="32.8674400" lon="35.2353840">
    <ele>188.6</ele>
    <time>2014-02-14T06:41:26Z</time>
   </trkpt>
   <trkpt lat="32.8674090" lon="35.2353660">
    <ele>188.3</ele>
    <time>2014-02-14T06:41:27Z</time>
   </trkpt>
   <trkpt lat="32.8673800" lon="35.2353440">
    <ele>188.0</ele>
    <time>2014-02-14T06:41:28Z</time>
   </trkpt>
   <trkpt lat="32.8673550" lon="35.2353200">
    <ele>187.5</ele>
    <time>2014-02-14T06:41:29Z</time>
   </trkpt>
   <trkpt lat="32.8673290" lon="35.2352960">
    <ele>187.1</ele>
    <time>2014-02-14T06:41:30Z</time>
   </trkpt>
   <trkpt lat="32.8673020" lon="35.2352750">
    <ele>186.7</ele>
    <time>2014-02-14T06:41:31Z</time>
   </trkpt>
   <trkpt lat="32.8672720" lon="35.2352610">
    <ele>186.6</ele>
    <time>2014-02-14T06:41:32Z</time>
   </trkpt>
   <trkpt lat="32.8672430" lon="35.2352500">
    <ele>186.5</ele>
    <time>2014-02-14T06:41:33Z</time>
   </trkpt>
   <trkpt lat="32.8672140" lon="35.2352420">
    <ele>186.5</ele>
    <time>2014-02-14T06:41:34Z</time>
   </trkpt>
   <trkpt lat="32.8671730" lon="35.2352200">
    <ele>186.2</ele>
    <time>2014-02-14T06:41:36Z</time>
   </trkpt>
   <trkpt lat="32.8671290" lon="35.2351950">
    <ele>185.8</ele>
    <time>2014-02-14T06:41:38Z</time>
   </trkpt>
   <trkpt lat="32.8670860" lon="35.2351650">
    <ele>185.3</ele>
    <time>2014-02-14T06:41:40Z</time>
   </trkpt>
   <trkpt lat="32.8670470" lon="35.2351320">
    <ele>184.3</ele>
    <time>2014-02-14T06:41:42Z</time>
   </trkpt>
   <trkpt lat="32.8670100" lon="35.2350920">
    <ele>182.9</ele>
    <time>2014-02-14T06:41:44Z</time>
   </trkpt>
   <trkpt lat="32.8669640" lon="35.2350740">
    <ele>182.1</ele>
    <time>2014-02-14T06:41:46Z</time>
   </trkpt>
   <trkpt lat="32.8669150" lon="35.2350780">
    <ele>181.9</ele>
    <time>2014-02-14T06:41:48Z</time>
   </trkpt>
   <trkpt lat="32.8668710" lon="35.2350910">
    <ele>182.0</ele>
    <time>2014-02-14T06:41:50Z</time>
   </trkpt>
   <trkpt lat="32.8668330" lon="35.2350950">
    <ele>181.8</ele>
    <time>2014-02-14T06:41:52Z</time>
   </trkpt>
   <trkpt lat="32.8667940" lon="35.2350850">
    <ele>181.3</ele>
    <time>2014-02-14T06:41:54Z</time>
   </trkpt>
   <trkpt lat="32.8667580" lon="35.2350740">
    <ele>180.7</ele>
    <time>2014-02-14T06:41:56Z</time>
   </trkpt>
   <trkpt lat="32.8667200" lon="35.2350710">
    <ele>180.4</ele>
    <time>2014-02-14T06:41:58Z</time>
   </trkpt>
   <trkpt lat="32.8666830" lon="35.2350660">
    <ele>180.0</ele>
    <time>2014-02-14T06:42:00Z</time>
   </trkpt>
   <trkpt lat="32.8666470" lon="35.2350480">
    <ele>179.2</ele>
    <time>2014-02-14T06:42:02Z</time>
   </trkpt>
   <trkpt lat="32.8666100" lon="35.2350440">
    <ele>178.9</ele>
    <time>2014-02-14T06:42:04Z</time>
   </trkpt>
   <trkpt lat="32.8665720" lon="35.2350450">
    <ele>178.6</ele>
    <time>2014-02-14T06:42:06Z</time>
   </trkpt>
   <trkpt lat="32.8665310" lon="35.2350480">
    <ele>178.4</ele>
    <time>2014-02-14T06:42:08Z</time>
   </trkpt>
   <trkpt lat="32.8664950" lon="35.2350640">
    <ele>178.7</ele>
    <time>2014-02-14T06:42:10Z</time>
   </trkpt>
   <trkpt lat="32.8664620" lon="35.2350870">
    <ele>179.1</ele>
    <time>2014-02-14T06:42:12Z</time>
   </trkpt>
   <trkpt lat="32.8664220" lon="35.2351050">
    <ele>179.4</ele>
    <time>2014-02-14T06:42:14Z</time>
   </trkpt>
   <trkpt lat="32.8663790" lon="35.2351230">
    <ele>179.7</ele>
    <time>2014-02-14T06:42:16Z</time>
   </trkpt>
   <trkpt lat="32.8663350" lon="35.2351310">
    <ele>179.6</ele>
    <time>2014-02-14T06:42:18Z</time>
   </trkpt>
   <trkpt lat="32.8662870" lon="35.2351330">
    <ele>179.4</ele>
    <time>2014-02-14T06:42:20Z</time>
   </trkpt>
   <trkpt lat="32.8662390" lon="35.2351400">
    <ele>179.1</ele>
    <time>2014-02-14T06:42:22Z</time>
   </trkpt>
   <trkpt lat="32.8661930" lon="35.2351530">
    <ele>178.6</ele>
    <time>2014-02-14T06:42:24Z</time>
   </trkpt>
   <trkpt lat="32.8661490" lon="35.2351790">
    <ele>178.4</ele>
    <time>2014-02-14T06:42:26Z</time>
   </trkpt>
   <trkpt lat="32.8661040" lon="35.2352000">
    <ele>178.0</ele>
    <time>2014-02-14T06:42:28Z</time>
   </trkpt>
   <trkpt lat="32.8660580" lon="35.2352130">
    <ele>177.4</ele>
    <time>2014-02-14T06:42:30Z</time>
   </trkpt>
   <trkpt lat="32.8660130" lon="35.2352290">
    <ele>176.8</ele>
    <time>2014-02-14T06:42:32Z</time>
   </trkpt>
   <trkpt lat="32.8659690" lon="35.2352420">
    <ele>176.2</ele>
    <time>2014-02-14T06:42:34Z</time>
   </trkpt>
   <trkpt lat="32.8659260" lon="35.2352580">
    <ele>175.6</ele>
    <time>2014-02-14T06:42:36Z</time>
   </trkpt>
   <trkpt lat="32.8658900" lon="35.2352980">
    <ele>175.8</ele>
    <time>2014-02-14T06:42:38Z</time>
   </trkpt>
   <trkpt lat="32.8658580" lon="35.2353520">
    <ele>176.5</ele>
    <time>2014-02-14T06:42:40Z</time>
   </trkpt>
   <trkpt lat="32.8658420" lon="35.2353790">
    <ele>176.8</ele>
    <time>2014-02-14T06:42:41Z</time>
   </trkpt>
   <trkpt lat="32.8658240" lon="35.2354080">
    <ele>177.0</ele>
    <time>2014-02-14T06:42:42Z</time>
   </trkpt>
   <trkpt lat="32.8658080" lon="35.2354370">
    <ele>177.3</ele>
    <time>2014-02-14T06:42:43Z</time>
   </trkpt>
   <trkpt lat="32.8657910" lon="35.2354640">
    <ele>177.4</ele>
    <time>2014-02-14T06:42:44Z</time>
   </trkpt>
   <trkpt lat="32.8657750" lon="35.2354930">
    <ele>177.6</ele>
    <time>2014-02-14T06:42:45Z</time>
   </trkpt>
   <trkpt lat="32.8657470" lon="35.2355420">
    <ele>177.9</ele>
    <time>2014-02-14T06:42:47Z</time>
   </trkpt>
   <trkpt lat="32.8657240" lon="35.2355850">
    <ele>178.1</ele>
    <time>2014-02-14T06:42:49Z</time>
   </trkpt>
   <trkpt lat="32.8656950" lon="35.2356260">
    <ele>178.2</ele>
    <time>2014-02-14T06:42:51Z</time>
   </trkpt>
   <trkpt lat="32.8656710" lon="35.2356640">
    <ele>178.3</ele>
    <time>2014-02-14T06:42:53Z</time>
   </trkpt>
   <trkpt lat="32.8656590" lon="35.2356950">
    <ele>178.6</ele>
    <time>2014-02-14T06:42:55Z</time>
   </trkpt>
   <trkpt lat="32.8656280" lon="35.2357090">
    <ele>178.0</ele>
    <time>2014-02-14T06:42:57Z</time>
   </trkpt>
   <trkpt lat="32.8655910" lon="35.2357180">
    <ele>177.2</ele>
    <time>2014-02-14T06:42:59Z</time>
   </trkpt>
   <trkpt lat="32.8655680" lon="35.2357480">
    <ele>177.1</ele>
    <time>2014-02-14T06:43:01Z</time>
   </trkpt>
   <trkpt lat="32.8655650" lon="35.2358050">
    <ele>178.1</ele>
    <time>2014-02-14T06:43:03Z</time>
   </trkpt>
   <trkpt lat="32.8655600" lon="35.2358600">
    <ele>179.0</ele>
    <time>2014-02-14T06:43:05Z</time>
   </trkpt>
   <trkpt lat="32.8655500" lon="35.2359110">
    <ele>179.7</ele>
    <time>2014-02-14T06:43:07Z</time>
   </trkpt>
   <trkpt lat="32.8655400" lon="35.2359590">
    <ele>180.4</ele>
    <time>2014-02-14T06:43:09Z</time>
   </trkpt>
   <trkpt lat="32.8655260" lon="35.2360090">
    <ele>180.9</ele>
    <time>2014-02-14T06:43:11Z</time>
   </trkpt>
   <trkpt lat="32.8655110" lon="35.2360550">
    <ele>181.3</ele>
    <time>2014-02-14T06:43:13Z</time>
   </trkpt>
   <trkpt lat="32.8654980" lon="35.2361030">
    <ele>181.8</ele>
    <time>2014-02-14T06:43:15Z</time>
   </trkpt>
   <trkpt lat="32.8654900" lon="35.2361570">
    <ele>182.6</ele>
    <time>2014-02-14T06:43:17Z</time>
   </trkpt>
   <trkpt lat="32.8654740" lon="35.2362140">
    <ele>183.1</ele>
    <time>2014-02-14T06:43:19Z</time>
   </trkpt>
   <trkpt lat="32.8654620" lon="35.2362500">
    <ele>183.4</ele>
    <time>2014-02-14T06:43:20Z</time>
   </trkpt>
   <trkpt lat="32.8654500" lon="35.2362800">
    <ele>183.5</ele>
    <time>2014-02-14T06:43:21Z</time>
   </trkpt>
   <trkpt lat="32.8654480" lon="35.2363140">
    <ele>183.9</ele>
    <time>2014-02-14T06:43:22Z</time>
   </trkpt>
   <trkpt lat="32.8654490" lon="35.2363480">
    <ele>184.4</ele>
    <time>2014-02-14T06:43:23Z</time>
   </trkpt>
   <trkpt lat="32.8654330" lon="35.2364020">
    <ele>184.7</ele>
    <time>2014-02-14T06:43:25Z</time>
   </trkpt>
   <trkpt lat="32.8654170" lon="35.2364300">
    <ele>184.6</ele>
    <time>2014-02-14T06:43:26Z</time>
   </trkpt>
   <trkpt lat="32.8653890" lon="35.2364850">
    <ele>184.7</ele>
    <time>2014-02-14T06:43:28Z</time>
   </trkpt>
   <trkpt lat="32.8653580" lon="35.2365380">
    <ele>184.6</ele>
    <time>2014-02-14T06:43:30Z</time>
   </trkpt>
   <trkpt lat="32.8653430" lon="35.2365670">
    <ele>184.7</ele>
    <time>2014-02-14T06:43:31Z</time>
   </trkpt>
   <trkpt lat="32.8653320" lon="35.2365970">
    <ele>184.8</ele>
    <time>2014-02-14T06:43:32Z</time>
   </trkpt>
   <trkpt lat="32.8653250" lon="35.2366280">
    <ele>185.1</ele>
    <time>2014-02-14T06:43:33Z</time>
   </trkpt>
   <trkpt lat="32.8653090" lon="35.2366810">
    <ele>185.5</ele>
    <time>2014-02-14T06:43:35Z</time>
   </trkpt>
   <trkpt lat="32.8652950" lon="35.2367410">
    <ele>186.0</ele>
    <time>2014-02-14T06:43:37Z</time>
   </trkpt>
   <trkpt lat="32.8652930" lon="35.2367730">
    <ele>186.5</ele>
    <time>2014-02-14T06:43:38Z</time>
   </trkpt>
   <trkpt lat="32.8652880" lon="35.2368060">
    <ele>186.8</ele>
    <time>2014-02-14T06:43:39Z</time>
   </trkpt>
   <trkpt lat="32.8652850" lon="35.2368400">
    <ele>187.2</ele>
    <time>2014-02-14T06:43:40Z</time>
   </trkpt>
   <trkpt lat="32.8652780" lon="35.2368740">
    <ele>187.6</ele>
    <time>2014-02-14T06:43:41Z</time>
   </trkpt>
   <trkpt lat="32.8652670" lon="35.2369080">
    <ele>187.8</ele>
    <time>2014-02-14T06:43:42Z</time>
   </trkpt>
   <trkpt lat="32.8652520" lon="35.2369410">
    <ele>187.9</ele>
    <time>2014-02-14T06:43:43Z</time>
   </trkpt>
   <trkpt lat="32.8652360" lon="35.2369710">
    <ele>188.0</ele>
    <time>2014-02-14T06:43:44Z</time>
   </trkpt>
   <trkpt lat="32.8652160" lon="35.2369980">
    <ele>187.9</ele>
    <time>2014-02-14T06:43:45Z</time>
   </trkpt>
   <trkpt lat="32.8651990" lon="35.2370250">
    <ele>187.9</ele>
    <time>2014-02-14T06:43:46Z</time>
   </trkpt>
   <trkpt lat="32.8651740" lon="35.2370810">
    <ele>188.1</ele>
    <time>2014-02-14T06:43:48Z</time>
   </trkpt>
   <trkpt lat="32.8651560" lon="35.2371390">
    <ele>188.6</ele>
    <time>2014-02-14T06:43:50Z</time>
   </trkpt>
   <trkpt lat="32.8651370" lon="35.2371950">
    <ele>189.1</ele>
    <time>2014-02-14T06:43:52Z</time>
   </trkpt>
   <trkpt lat="32.8651210" lon="35.2372210">
    <ele>189.1</ele>
    <time>2014-02-14T06:43:53Z</time>
   </trkpt>
   <trkpt lat="32.8651060" lon="35.2372480">
    <ele>189.2</ele>
    <time>2014-02-14T06:43:54Z</time>
   </trkpt>
   <trkpt lat="32.8650850" lon="35.2372710">
    <ele>189.0</ele>
    <time>2014-02-14T06:43:55Z</time>
   </trkpt>
   <trkpt lat="32.8650630" lon="35.2372940">
    <ele>188.8</ele>
    <time>2014-02-14T06:43:56Z</time>
   </trkpt>
   <trkpt lat="32.8650390" lon="35.2373210">
    <ele>188.7</ele>
    <time>2014-02-14T06:43:57Z</time>
   </trkpt>
   <trkpt lat="32.8650210" lon="35.2373550">
    <ele>188.8</ele>
    <time>2014-02-14T06:43:58Z</time>
   </trkpt>
   <trkpt lat="32.8650030" lon="35.2373890">
    <ele>188.8</ele>
    <time>2014-02-14T06:43:59Z</time>
   </trkpt>
   <trkpt lat="32.8649870" lon="35.2374250">
    <ele>189.0</ele>
    <time>2014-02-14T06:44:00Z</time>
   </trkpt>
   <trkpt lat="32.8649690" lon="35.2374560">
    <ele>189.0</ele>
    <time>2014-02-14T06:44:01Z</time>
   </trkpt>
   <trkpt lat="32.8649530" lon="35.2374860">
    <ele>189.1</ele>
    <time>2014-02-14T06:44:02Z</time>
   </trkpt>
   <trkpt lat="32.8649390" lon="35.2375160">
    <ele>189.2</ele>
    <time>2014-02-14T06:44:03Z</time>
   </trkpt>
   <trkpt lat="32.8649180" lon="35.2375690">
    <ele>189.5</ele>
    <time>2014-02-14T06:44:05Z</time>
   </trkpt>
   <trkpt lat="32.8648860" lon="35.2376160">
    <ele>189.4</ele>
    <time>2014-02-14T06:44:07Z</time>
   </trkpt>
   <trkpt lat="32.8648690" lon="35.2376430">
    <ele>189.4</ele>
    <time>2014-02-14T06:44:08Z</time>
   </trkpt>
   <trkpt lat="32.8648510" lon="35.2376680">
    <ele>189.3</ele>
    <time>2014-02-14T06:44:09Z</time>
   </trkpt>
   <trkpt lat="32.8648350" lon="35.2377000">
    <ele>189.4</ele>
    <time>2014-02-14T06:44:10Z</time>
   </trkpt>
   <trkpt lat="32.8648190" lon="35.2377300">
    <ele>189.4</ele>
    <time>2014-02-14T06:44:11Z</time>
   </trkpt>
   <trkpt lat="32.8648040" lon="35.2377580">
    <ele>189.4</ele>
    <time>2014-02-14T06:44:12Z</time>
   </trkpt>
   <trkpt lat="32.8647890" lon="35.2377870">
    <ele>189.5</ele>
    <time>2014-02-14T06:44:13Z</time>
   </trkpt>
   <trkpt lat="32.8647730" lon="35.2378140">
    <ele>189.5</ele>
    <time>2014-02-14T06:44:14Z</time>
   </trkpt>
   <trkpt lat="32.8647560" lon="35.2378400">
    <ele>189.4</ele>
    <time>2014-02-14T06:44:15Z</time>
   </trkpt>
   <trkpt lat="32.8647380" lon="35.2378690">
    <ele>189.4</ele>
    <time>2014-02-14T06:44:16Z</time>
   </trkpt>
   <trkpt lat="32.8647190" lon="35.2378970">
    <ele>189.3</ele>
    <time>2014-02-14T06:44:17Z</time>
   </trkpt>
   <trkpt lat="32.8646990" lon="35.2379250">
    <ele>189.2</ele>
    <time>2014-02-14T06:44:18Z</time>
   </trkpt>
   <trkpt lat="32.8646820" lon="35.2379520">
    <ele>189.2</ele>
    <time>2014-02-14T06:44:19Z</time>
   </trkpt>
   <trkpt lat="32.8646690" lon="35.2379830">
    <ele>189.3</ele>
    <time>2014-02-14T06:44:20Z</time>
   </trkpt>
   <trkpt lat="32.8646590" lon="35.2380150">
    <ele>189.6</ele>
    <time>2014-02-14T06:44:21Z</time>
   </trkpt>
   <trkpt lat="32.8646530" lon="35.2380480">
    <ele>189.9</ele>
    <time>2014-02-14T06:44:22Z</time>
   </trkpt>
   <trkpt lat="32.8646460" lon="35.2380810">
    <ele>190.2</ele>
    <time>2014-02-14T06:44:23Z</time>
   </trkpt>
   <trkpt lat="32.8646400" lon="35.2381150">
    <ele>190.6</ele>
    <time>2014-02-14T06:44:24Z</time>
   </trkpt>
   <trkpt lat="32.8646330" lon="35.2381470">
    <ele>190.9</ele>
    <time>2014-02-14T06:44:25Z</time>
   </trkpt>
   <trkpt lat="32.8646270" lon="35.2381790">
    <ele>191.3</ele>
    <time>2014-02-14T06:44:26Z</time>
   </trkpt>
   <trkpt lat="32.8646220" lon="35.2382110">
    <ele>191.6</ele>
    <time>2014-02-14T06:44:27Z</time>
   </trkpt>
   <trkpt lat="32.8646190" lon="35.2382450">
    <ele>192.1</ele>
    <time>2014-02-14T06:44:28Z</time>
   </trkpt>
   <trkpt lat="32.8646150" lon="35.2382790">
    <ele>192.5</ele>
    <time>2014-02-14T06:44:29Z</time>
   </trkpt>
   <trkpt lat="32.8646150" lon="35.2383150">
    <ele>193.1</ele>
    <time>2014-02-14T06:44:30Z</time>
   </trkpt>
   <trkpt lat="32.8646110" lon="35.2383500">
    <ele>193.5</ele>
    <time>2014-02-14T06:44:31Z</time>
   </trkpt>
   <trkpt lat="32.8646070" lon="35.2383850">
    <ele>194.0</ele>
    <time>2014-02-14T06:44:32Z</time>
   </trkpt>
   <trkpt lat="32.8645990" lon="35.2384190">
    <ele>194.3</ele>
    <time>2014-02-14T06:44:33Z</time>
   </trkpt>
   <trkpt lat="32.8645980" lon="35.2384550">
    <ele>194.8</ele>
    <time>2014-02-14T06:44:34Z</time>
   </trkpt>
   <trkpt lat="32.8645980" lon="35.2384910">
    <ele>195.4</ele>
    <time>2014-02-14T06:44:35Z</time>
   </trkpt>
   <trkpt lat="32.8645980" lon="35.2385270">
    <ele>195.9</ele>
    <time>2014-02-14T06:44:36Z</time>
   </trkpt>
   <trkpt lat="32.8645950" lon="35.2385600">
    <ele>196.4</ele>
    <time>2014-02-14T06:44:37Z</time>
   </trkpt>
   <trkpt lat="32.8645910" lon="35.2385920">
    <ele>196.8</ele>
    <time>2014-02-14T06:44:38Z</time>
   </trkpt>
   <trkpt lat="32.8645850" lon="35.2386550">
    <ele>197.6</ele>
    <time>2014-02-14T06:44:40Z</time>
   </trkpt>
   <trkpt lat="32.8645820" lon="35.2387150">
    <ele>198.4</ele>
    <time>2014-02-14T06:44:42Z</time>
   </trkpt>
   <trkpt lat="32.8645810" lon="35.2387480">
    <ele>198.9</ele>
    <time>2014-02-14T06:44:43Z</time>
   </trkpt>
   <trkpt lat="32.8645860" lon="35.2387860">
    <ele>199.6</ele>
    <time>2014-02-14T06:44:45Z</time>
   </trkpt>
   <trkpt lat="32.8645790" lon="35.2388310">
    <ele>200.0</ele>
    <time>2014-02-14T06:44:47Z</time>
   </trkpt>
   <trkpt lat="32.8645600" lon="35.2388770">
    <ele>200.3</ele>
    <time>2014-02-14T06:44:49Z</time>
   </trkpt>
   <trkpt lat="32.8645550" lon="35.2389250">
    <ele>200.8</ele>
    <time>2014-02-14T06:44:51Z</time>
   </trkpt>
   <trkpt lat="32.8645640" lon="35.2389770">
    <ele>201.7</ele>
    <time>2014-02-14T06:44:53Z</time>
   </trkpt>
   <trkpt lat="32.8645830" lon="35.2390250">
    <ele>202.6</ele>
    <time>2014-02-14T06:44:55Z</time>
   </trkpt>
   <trkpt lat="32.8646020" lon="35.2390710">
    <ele>203.7</ele>
    <time>2014-02-14T06:44:57Z</time>
   </trkpt>
   <trkpt lat="32.8646160" lon="35.2391080">
    <ele>204.6</ele>
    <time>2014-02-14T06:44:59Z</time>
   </trkpt>
   <trkpt lat="32.8646210" lon="35.2391580">
    <ele>205.3</ele>
    <time>2014-02-14T06:45:01Z</time>
   </trkpt>
   <trkpt lat="32.8646310" lon="35.2391960">
    <ele>206.1</ele>
    <time>2014-02-14T06:45:02Z</time>
   </trkpt>
   <trkpt lat="32.8646470" lon="35.2392530">
    <ele>207.2</ele>
    <time>2014-02-14T06:45:04Z</time>
   </trkpt>
   <trkpt lat="32.8646510" lon="35.2393110">
    <ele>208.0</ele>
    <time>2014-02-14T06:45:06Z</time>
   </trkpt>
   <trkpt lat="32.8646560" lon="35.2393650">
    <ele>208.8</ele>
    <time>2014-02-14T06:45:08Z</time>
   </trkpt>
   <trkpt lat="32.8646520" lon="35.2394140">
    <ele>209.3</ele>
    <time>2014-02-14T06:45:10Z</time>
   </trkpt>
   <trkpt lat="32.8646270" lon="35.2394520">
    <ele>209.3</ele>
    <time>2014-02-14T06:45:12Z</time>
   </trkpt>
   <trkpt lat="32.8645890" lon="35.2394910">
    <ele>208.9</ele>
    <time>2014-02-14T06:45:14Z</time>
   </trkpt>
   <trkpt lat="32.8645490" lon="35.2395320">
    <ele>208.8</ele>
    <time>2014-02-14T06:45:16Z</time>
   </trkpt>
   <trkpt lat="32.8645280" lon="35.2395820">
    <ele>209.2</ele>
    <time>2014-02-14T06:45:18Z</time>
   </trkpt>
   <trkpt lat="32.8645180" lon="35.2396330">
    <ele>209.6</ele>
    <time>2014-02-14T06:45:20Z</time>
   </trkpt>
   <trkpt lat="32.8644970" lon="35.2396820">
    <ele>209.7</ele>
    <time>2014-02-14T06:45:22Z</time>
   </trkpt>
   <trkpt lat="32.8644700" lon="35.2397290">
    <ele>209.8</ele>
    <time>2014-02-14T06:45:24Z</time>
   </trkpt>
   <trkpt lat="32.8644440" lon="35.2397760">
    <ele>210.0</ele>
    <time>2014-02-14T06:45:26Z</time>
   </trkpt>
   <trkpt lat="32.8644260" lon="35.2398250">
    <ele>210.2</ele>
    <time>2014-02-14T06:45:28Z</time>
   </trkpt>
   <trkpt lat="32.8644130" lon="35.2398780">
    <ele>210.6</ele>
    <time>2014-02-14T06:45:30Z</time>
   </trkpt>
   <trkpt lat="32.8644020" lon="35.2399300">
    <ele>211.0</ele>
    <time>2014-02-14T06:45:32Z</time>
   </trkpt>
   <trkpt lat="32.8643910" lon="35.2399790">
    <ele>211.4</ele>
    <time>2014-02-14T06:45:34Z</time>
   </trkpt>
   <trkpt lat="32.8643810" lon="35.2400270">
    <ele>211.7</ele>
    <time>2014-02-14T06:45:36Z</time>
   </trkpt>
   <trkpt lat="32.8643710" lon="35.2400730">
    <ele>212.1</ele>
    <time>2014-02-14T06:45:38Z</time>
   </trkpt>
   <trkpt lat="32.8643630" lon="35.2401240">
    <ele>212.5</ele>
    <time>2014-02-14T06:45:40Z</time>
   </trkpt>
   <trkpt lat="32.8643600" lon="35.2401860">
    <ele>213.2</ele>
    <time>2014-02-14T06:45:42Z</time>
   </trkpt>
   <trkpt lat="32.8643610" lon="35.2402220">
    <ele>213.5</ele>
    <time>2014-02-14T06:45:43Z</time>
   </trkpt>
   <trkpt lat="32.8643610" lon="35.2402540">
    <ele>213.9</ele>
    <time>2014-02-14T06:45:44Z</time>
   </trkpt>
   <trkpt lat="32.8643630" lon="35.2402860">
    <ele>214.2</ele>
    <time>2014-02-14T06:45:45Z</time>
   </trkpt>
   <trkpt lat="32.8643620" lon="35.2403230">
    <ele>214.6</ele>
    <time>2014-02-14T06:45:46Z</time>
   </trkpt>
   <trkpt lat="32.8643510" lon="35.2403530">
    <ele>214.8</ele>
    <time>2014-02-14T06:45:47Z</time>
   </trkpt>
   <trkpt lat="32.8643290" lon="35.2404070">
    <ele>215.1</ele>
    <time>2014-02-14T06:45:49Z</time>
   </trkpt>
   <trkpt lat="32.8642990" lon="35.2404520">
    <ele>215.3</ele>
    <time>2014-02-14T06:45:51Z</time>
   </trkpt>
   <trkpt lat="32.8642820" lon="35.2404780">
    <ele>215.4</ele>
    <time>2014-02-14T06:45:52Z</time>
   </trkpt>
   <trkpt lat="32.8642500" lon="35.2405280">
    <ele>215.6</ele>
    <time>2014-02-14T06:45:54Z</time>
   </trkpt>
   <trkpt lat="32.8642400" lon="35.2405910">
    <ele>216.2</ele>
    <time>2014-02-14T06:45:56Z</time>
   </trkpt>
   <trkpt lat="32.8642410" lon="35.2406240">
    <ele>216.5</ele>
    <time>2014-02-14T06:45:57Z</time>
   </trkpt>
   <trkpt lat="32.8642430" lon="35.2406570">
    <ele>216.9</ele>
    <time>2014-02-14T06:45:58Z</time>
   </trkpt>
   <trkpt lat="32.8642220" lon="35.2407080">
    <ele>217.2</ele>
    <time>2014-02-14T06:46:00Z</time>
   </trkpt>
   <trkpt lat="32.8641910" lon="35.2407410">
    <ele>217.3</ele>
    <time>2014-02-14T06:46:02Z</time>
   </trkpt>
   <trkpt lat="32.8641650" lon="35.2407730">
    <ele>217.3</ele>
    <time>2014-02-14T06:46:04Z</time>
   </trkpt>
   <trkpt lat="32.8641400" lon="35.2408090">
    <ele>217.4</ele>
    <time>2014-02-14T06:46:06Z</time>
   </trkpt>
   <trkpt lat="32.8641230" lon="35.2408490">
    <ele>217.7</ele>
    <time>2014-02-14T06:46:08Z</time>
   </trkpt>
   <trkpt lat="32.8641200" lon="35.2408870">
    <ele>218.1</ele>
    <time>2014-02-14T06:46:10Z</time>
   </trkpt>
   <trkpt lat="32.8641490" lon="35.2408520">
    <ele>218.0</ele>
    <time>2014-02-14T06:46:18Z</time>
   </trkpt>
   <trkpt lat="32.8641640" lon="35.2408220">
    <ele>217.8</ele>
    <time>2014-02-14T06:46:21Z</time>
   </trkpt>
   <trkpt lat="32.8641940" lon="35.2407990">
    <ele>217.9</ele>
    <time>2014-02-14T06:46:24Z</time>
   </trkpt>
   <trkpt lat="32.8642270" lon="35.2407900">
    <ele>218.2</ele>
    <time>2014-02-14T06:46:27Z</time>
   </trkpt>
   <trkpt lat="32.8642550" lon="35.2407950">
    <ele>218.5</ele>
    <time>2014-02-14T06:46:35Z</time>
   </trkpt>
   <trkpt lat="32.8642840" lon="35.2408020">
    <ele>218.9</ele>
    <time>2014-02-14T06:48:28Z</time>
   </trkpt>
   <trkpt lat="32.8642530" lon="35.2408030">
    <ele>218.6</ele>
    <time>2014-02-14T06:48:35Z</time>
   </trkpt>
   <trkpt lat="32.8642240" lon="35.2407960">
    <ele>218.2</ele>
    <time>2014-02-14T06:48:40Z</time>
   </trkpt>
   <trkpt lat="32.8642260" lon="35.2407610">
    <ele>217.9</ele>
    <time>2014-02-14T06:48:44Z</time>
   </trkpt>
   <trkpt lat="32.8642370" lon="35.2407950">
    <ele>218.3</ele>
    <time>2014-02-14T06:48:54Z</time>
   </trkpt>
   <trkpt lat="32.8642600" lon="35.2408140">
    <ele>218.8</ele>
    <time>2014-02-14T06:48:58Z</time>
   </trkpt>
   <trkpt lat="32.8642320" lon="35.2407960">
    <ele>218.3</ele>
    <time>2014-02-14T06:49:06Z</time>
   </trkpt>
   <trkpt lat="32.8642070" lon="35.2407810">
    <ele>217.9</ele>
    <time>2014-02-14T06:49:08Z</time>
   </trkpt>
   <trkpt lat="32.8642590" lon="35.2407620">
    <ele>218.2</ele>
    <time>2014-02-14T06:49:11Z</time>
   </trkpt>
   <trkpt lat="32.8643050" lon="35.2407440">
    <ele>218.5</ele>
    <time>2014-02-14T06:49:13Z</time>
   </trkpt>
   <trkpt lat="32.8643370" lon="35.2407300">
    <ele>218.7</ele>
    <time>2014-02-14T06:49:15Z</time>
   </trkpt>
   <trkpt lat="32.8643670" lon="35.2407210">
    <ele>219.0</ele>
    <time>2014-02-14T06:49:18Z</time>
   </trkpt>
   <trkpt lat="32.8643420" lon="35.2407440">
    <ele>218.9</ele>
    <time>2014-02-14T06:49:23Z</time>
   </trkpt>
   <trkpt lat="32.8643170" lon="35.2407570">
    <ele>218.8</ele>
    <time>2014-02-14T06:49:52Z</time>
   </trkpt>
   <trkpt lat="32.8643290" lon="35.2407060">
    <ele>218.4</ele>
    <time>2014-02-14T06:52:37Z</time>
   </trkpt>
   <trkpt lat="32.8643390" lon="35.2406760">
    <ele>218.2</ele>
    <time>2014-02-14T06:52:38Z</time>
   </trkpt>
   <trkpt lat="32.8643460" lon="35.2406450">
    <ele>217.9</ele>
    <time>2014-02-14T06:52:39Z</time>
   </trkpt>
   <trkpt lat="32.8643590" lon="35.2405820">
    <ele>217.4</ele>
    <time>2014-02-14T06:52:41Z</time>
   </trkpt>
   <trkpt lat="32.8643650" lon="35.2405470">
    <ele>217.0</ele>
    <time>2014-02-14T06:52:42Z</time>
   </trkpt>
   <trkpt lat="32.8643770" lon="35.2405150">
    <ele>216.8</ele>
    <time>2014-02-14T06:52:43Z</time>
   </trkpt>
   <trkpt lat="32.8643890" lon="35.2404840">
    <ele>216.6</ele>
    <time>2014-02-14T06:52:44Z</time>
   </trkpt>
   <trkpt lat="32.8644050" lon="35.2404540">
    <ele>216.5</ele>
    <time>2014-02-14T06:52:45Z</time>
   </trkpt>
   <trkpt lat="32.8644230" lon="35.2404260">
    <ele>216.4</ele>
    <time>2014-02-14T06:52:46Z</time>
   </trkpt>
   <trkpt lat="32.8644410" lon="35.2403990">
    <ele>216.3</ele>
    <time>2014-02-14T06:52:47Z</time>
   </trkpt>
   <trkpt lat="32.8644650" lon="35.2403750">
    <ele>216.3</ele>
    <time>2014-02-14T06:52:48Z</time>
   </trkpt>
   <trkpt lat="32.8644870" lon="35.2403510">
    <ele>216.3</ele>
    <time>2014-02-14T06:52:49Z</time>
   </trkpt>
   <trkpt lat="32.8645100" lon="35.2403270">
    <ele>216.3</ele>
    <time>2014-02-14T06:52:50Z</time>
   </trkpt>
   <trkpt lat="32.8645330" lon="35.2403060">
    <ele>216.4</ele>
    <time>2014-02-14T06:52:51Z</time>
   </trkpt>
   <trkpt lat="32.8645560" lon="35.2402850">
    <ele>216.4</ele>
    <time>2014-02-14T06:52:52Z</time>
   </trkpt>
   <trkpt lat="32.8645770" lon="35.2402610">
    <ele>216.4</ele>
    <time>2014-02-14T06:52:53Z</time>
   </trkpt>
   <trkpt lat="32.8645970" lon="35.2402380">
    <ele>216.5</ele>
    <time>2014-02-14T06:52:54Z</time>
   </trkpt>
   <trkpt lat="32.8646310" lon="35.2401890">
    <ele>216.7</ele>
    <time>2014-02-14T06:52:56Z</time>
   </trkpt>
   <trkpt lat="32.8646520" lon="35.2401330">
    <ele>216.6</ele>
    <time>2014-02-14T06:52:58Z</time>
   </trkpt>
   <trkpt lat="32.8646650" lon="35.2400730">
    <ele>216.3</ele>
    <time>2014-02-14T06:53:00Z</time>
   </trkpt>
   <trkpt lat="32.8646830" lon="35.2400190">
    <ele>216.1</ele>
    <time>2014-02-14T06:53:02Z</time>
   </trkpt>
   <trkpt lat="32.8647050" lon="35.2399650">
    <ele>216.1</ele>
    <time>2014-02-14T06:53:04Z</time>
   </trkpt>
   <trkpt lat="32.8647240" lon="35.2399100">
    <ele>216.0</ele>
    <time>2014-02-14T06:53:06Z</time>
   </trkpt>
   <trkpt lat="32.8647540" lon="35.2398590">
    <ele>216.1</ele>
    <time>2014-02-14T06:53:08Z</time>
   </trkpt>
   <trkpt lat="32.8647760" lon="35.2398050">
    <ele>216.1</ele>
    <time>2014-02-14T06:53:10Z</time>
   </trkpt>
   <trkpt lat="32.8647930" lon="35.2397470">
    <ele>216.0</ele>
    <time>2014-02-14T06:53:12Z</time>
   </trkpt>
   <trkpt lat="32.8648080" lon="35.2396930">
    <ele>215.8</ele>
    <time>2014-02-14T06:53:14Z</time>
   </trkpt>
   <trkpt lat="32.8648250" lon="35.2396410">
    <ele>215.7</ele>
    <time>2014-02-14T06:53:16Z</time>
   </trkpt>
   <trkpt lat="32.8648550" lon="35.2395930">
    <ele>215.9</ele>
    <time>2014-02-14T06:53:18Z</time>
   </trkpt>
   <trkpt lat="32.8648780" lon="35.2395720">
    <ele>216.2</ele>
    <time>2014-02-14T06:53:19Z</time>
   </trkpt>
   <trkpt lat="32.8649010" lon="35.2395510">
    <ele>216.5</ele>
    <time>2014-02-14T06:53:20Z</time>
   </trkpt>
   <trkpt lat="32.8649200" lon="35.2395280">
    <ele>216.7</ele>
    <time>2014-02-14T06:53:21Z</time>
   </trkpt>
   <trkpt lat="32.8649520" lon="35.2394840">
    <ele>217.0</ele>
    <time>2014-02-14T06:53:23Z</time>
   </trkpt>
   <trkpt lat="32.8649840" lon="35.2394510">
    <ele>217.4</ele>
    <time>2014-02-14T06:53:25Z</time>
   </trkpt>
   <trkpt lat="32.8650260" lon="35.2394180">
    <ele>218.0</ele>
    <time>2014-02-14T06:53:27Z</time>
   </trkpt>
   <trkpt lat="32.8650700" lon="35.2393840">
    <ele>218.7</ele>
    <time>2014-02-14T06:53:29Z</time>
   </trkpt>
   <trkpt lat="32.8650980" lon="35.2393710">
    <ele>219.3</ele>
    <time>2014-02-14T06:53:30Z</time>
   </trkpt>
   <trkpt lat="32.8651230" lon="35.2393560">
    <ele>219.7</ele>
    <time>2014-02-14T06:53:31Z</time>
   </trkpt>
   <trkpt lat="32.8651650" lon="35.2393230">
    <ele>220.4</ele>
    <time>2014-02-14T06:53:33Z</time>
   </trkpt>
   <trkpt lat="32.8652050" lon="35.2392920">
    <ele>221.1</ele>
    <time>2014-02-14T06:53:35Z</time>
   </trkpt>
   <trkpt lat="32.8652540" lon="35.2392800">
    <ele>222.2</ele>
    <time>2014-02-14T06:53:37Z</time>
   </trkpt>
   <trkpt lat="32.8652830" lon="35.2392890">
    <ele>223.0</ele>
    <time>2014-02-14T06:53:38Z</time>
   </trkpt>
   <trkpt lat="32.8653120" lon="35.2392990">
    <ele>223.8</ele>
    <time>2014-02-14T06:53:39Z</time>
   </trkpt>
   <trkpt lat="32.8653430" lon="35.2393040">
    <ele>224.6</ele>
    <time>2014-02-14T06:53:40Z</time>
   </trkpt>
   <trkpt lat="32.8653710" lon="35.2393140">
    <ele>225.3</ele>
    <time>2014-02-14T06:53:41Z</time>
   </trkpt>
   <trkpt lat="32.8653970" lon="35.2393240">
    <ele>226.0</ele>
    <time>2014-02-14T06:53:42Z</time>
   </trkpt>
   <trkpt lat="32.8654230" lon="35.2393410">
    <ele>226.6</ele>
    <time>2014-02-14T06:53:43Z</time>
   </trkpt>
   <trkpt lat="32.8654500" lon="35.2393520">
    <ele>227.0</ele>
    <time>2014-02-14T06:53:44Z</time>
   </trkpt>
   <trkpt lat="32.8654850" lon="35.2393650">
    <ele>227.4</ele>
    <time>2014-02-14T06:53:45Z</time>
   </trkpt>
   <trkpt lat="32.8655360" lon="35.2393730">
    <ele>228.0</ele>
    <time>2014-02-14T06:53:47Z</time>
   </trkpt>
   <trkpt lat="32.8655840" lon="35.2393860">
    <ele>228.5</ele>
    <time>2014-02-14T06:53:49Z</time>
   </trkpt>
   <trkpt lat="32.8656330" lon="35.2394120">
    <ele>229.2</ele>
    <time>2014-02-14T06:53:51Z</time>
   </trkpt>
   <trkpt lat="32.8656550" lon="35.2394350">
    <ele>229.5</ele>
    <time>2014-02-14T06:53:52Z</time>
   </trkpt>
   <trkpt lat="32.8656790" lon="35.2394630">
    <ele>229.9</ele>
    <time>2014-02-14T06:53:53Z</time>
   </trkpt>
   <trkpt lat="32.8657020" lon="35.2394860">
    <ele>230.2</ele>
    <time>2014-02-14T06:53:54Z</time>
   </trkpt>
   <trkpt lat="32.8657330" lon="35.2395380">
    <ele>230.8</ele>
    <time>2014-02-14T06:53:56Z</time>
   </trkpt>
   <trkpt lat="32.8657670" lon="35.2395830">
    <ele>231.4</ele>
    <time>2014-02-14T06:53:58Z</time>
   </trkpt>
   <trkpt lat="32.8658100" lon="35.2396130">
    <ele>231.9</ele>
    <time>2014-02-14T06:54:00Z</time>
   </trkpt>
   <trkpt lat="32.8658520" lon="35.2396450">
    <ele>232.4</ele>
    <time>2014-02-14T06:54:02Z</time>
   </trkpt>
   <trkpt lat="32.8658810" lon="35.2396800">
    <ele>232.8</ele>
    <time>2014-02-14T06:54:04Z</time>
   </trkpt>
   <trkpt lat="32.8659000" lon="35.2397210">
    <ele>233.2</ele>
    <time>2014-02-14T06:54:06Z</time>
   </trkpt>
   <trkpt lat="32.8659150" lon="35.2397580">
    <ele>233.5</ele>
    <time>2014-02-14T06:54:08Z</time>
   </trkpt>
   <trkpt lat="32.8659180" lon="35.2398050">
    <ele>233.7</ele>
    <time>2014-02-14T06:54:10Z</time>
   </trkpt>
   <trkpt lat="32.8659030" lon="35.2398590">
    <ele>233.7</ele>
    <time>2014-02-14T06:54:12Z</time>
   </trkpt>
   <trkpt lat="32.8658820" lon="35.2399120">
    <ele>233.8</ele>
    <time>2014-02-14T06:54:14Z</time>
   </trkpt>
   <trkpt lat="32.8658570" lon="35.2399600">
    <ele>233.8</ele>
    <time>2014-02-14T06:54:16Z</time>
   </trkpt>
   <trkpt lat="32.8658360" lon="35.2399980">
    <ele>233.8</ele>
    <time>2014-02-14T06:54:18Z</time>
   </trkpt>
   <trkpt lat="32.8658190" lon="35.2400350">
    <ele>233.8</ele>
    <time>2014-02-14T06:54:20Z</time>
   </trkpt>
   <trkpt lat="32.8658100" lon="35.2400710">
    <ele>233.9</ele>
    <time>2014-02-14T06:54:22Z</time>
   </trkpt>
   <trkpt lat="32.8658000" lon="35.2401010">
    <ele>233.9</ele>
    <time>2014-02-14T06:54:24Z</time>
   </trkpt>
   <trkpt lat="32.8657740" lon="35.2401220">
    <ele>233.8</ele>
    <time>2014-02-14T06:54:26Z</time>
   </trkpt>
   <trkpt lat="32.8657530" lon="35.2401680">
    <ele>233.9</ele>
    <time>2014-02-14T06:54:29Z</time>
   </trkpt>
   <trkpt lat="32.8657420" lon="35.2402120">
    <ele>234.0</ele>
    <time>2014-02-14T06:54:31Z</time>
   </trkpt>
   <trkpt lat="32.8657230" lon="35.2402520">
    <ele>234.1</ele>
    <time>2014-02-14T06:54:33Z</time>
   </trkpt>
   <trkpt lat="32.8657070" lon="35.2403060">
    <ele>234.2</ele>
    <time>2014-02-14T06:54:35Z</time>
   </trkpt>
   <trkpt lat="32.8657030" lon="35.2403430">
    <ele>234.4</ele>
    <time>2014-02-14T06:54:36Z</time>
   </trkpt>
   <trkpt lat="32.8657000" lon="35.2403750">
    <ele>234.5</ele>
    <time>2014-02-14T06:54:37Z</time>
   </trkpt>
   <trkpt lat="32.8656830" lon="35.2404360">
    <ele>234.7</ele>
    <time>2014-02-14T06:54:39Z</time>
   </trkpt>
   <trkpt lat="32.8656740" lon="35.2404990">
    <ele>235.0</ele>
    <time>2014-02-14T06:54:41Z</time>
   </trkpt>
   <trkpt lat="32.8656760" lon="35.2405500">
    <ele>235.3</ele>
    <time>2014-02-14T06:54:43Z</time>
   </trkpt>
   <trkpt lat="32.8656770" lon="35.2406100">
    <ele>235.6</ele>
    <time>2014-02-14T06:54:45Z</time>
   </trkpt>
   <trkpt lat="32.8656760" lon="35.2406670">
    <ele>235.9</ele>
    <time>2014-02-14T06:54:47Z</time>
   </trkpt>
   <trkpt lat="32.8656660" lon="35.2407160">
    <ele>236.1</ele>
    <time>2014-02-14T06:54:49Z</time>
   </trkpt>
   <trkpt lat="32.8656460" lon="35.2407590">
    <ele>236.2</ele>
    <time>2014-02-14T06:54:51Z</time>
   </trkpt>
   <trkpt lat="32.8656380" lon="35.2408080">
    <ele>236.4</ele>
    <time>2014-02-14T06:54:53Z</time>
   </trkpt>
   <trkpt lat="32.8656300" lon="35.2408590">
    <ele>236.7</ele>
    <time>2014-02-14T06:54:55Z</time>
   </trkpt>
   <trkpt lat="32.8656100" lon="35.2409020">
    <ele>236.8</ele>
    <time>2014-02-14T06:54:57Z</time>
   </trkpt>
   <trkpt lat="32.8655890" lon="35.2409490">
    <ele>237.0</ele>
    <time>2014-02-14T06:54:59Z</time>
   </trkpt>
   <trkpt lat="32.8655790" lon="35.2410000">
    <ele>237.2</ele>
    <time>2014-02-14T06:55:01Z</time>
   </trkpt>
   <trkpt lat="32.8655620" lon="35.2410360">
    <ele>237.3</ele>
    <time>2014-02-14T06:55:03Z</time>
   </trkpt>
   <trkpt lat="32.8655350" lon="35.2410700">
    <ele>237.4</ele>
    <time>2014-02-14T06:55:05Z</time>
   </trkpt>
   <trkpt lat="32.8655110" lon="35.2411110">
    <ele>237.5</ele>
    <time>2014-02-14T06:55:07Z</time>
   </trkpt>
   <trkpt lat="32.8654900" lon="35.2411520">
    <ele>237.7</ele>
    <time>2014-02-14T06:55:09Z</time>
   </trkpt>
   <trkpt lat="32.8654690" lon="35.2411890">
    <ele>237.8</ele>
    <time>2014-02-14T06:55:11Z</time>
   </trkpt>
   <trkpt lat="32.8654620" lon="35.2412300">
    <ele>238.0</ele>
    <time>2014-02-14T06:55:13Z</time>
   </trkpt>
   <trkpt lat="32.8654640" lon="35.2412740">
    <ele>238.3</ele>
    <time>2014-02-14T06:55:15Z</time>
   </trkpt>
   <trkpt lat="32.8654810" lon="35.2413190">
    <ele>238.6</ele>
    <time>2014-02-14T06:55:17Z</time>
   </trkpt>
   <trkpt lat="32.8655050" lon="35.2413580">
    <ele>238.9</ele>
    <time>2014-02-14T06:55:19Z</time>
   </trkpt>
   <trkpt lat="32.8655290" lon="35.2414160">
    <ele>239.2</ele>
    <time>2014-02-14T06:55:21Z</time>
   </trkpt>
   <trkpt lat="32.8655420" lon="35.2414520">
    <ele>239.5</ele>
    <time>2014-02-14T06:55:22Z</time>
   </trkpt>
   <trkpt lat="32.8655580" lon="35.2414810">
    <ele>239.7</ele>
    <time>2014-02-14T06:55:23Z</time>
   </trkpt>
   <trkpt lat="32.8655760" lon="35.2415080">
    <ele>239.9</ele>
    <time>2014-02-14T06:55:24Z</time>
   </trkpt>
   <trkpt lat="32.8656000" lon="35.2415310">
    <ele>240.1</ele>
    <time>2014-02-14T06:55:25Z</time>
   </trkpt>
   <trkpt lat="32.8656240" lon="35.2415490">
    <ele>240.3</ele>
    <time>2014-02-14T06:55:26Z</time>
   </trkpt>
   <trkpt lat="32.8656480" lon="35.2415680">
    <ele>240.5</ele>
    <time>2014-02-14T06:55:27Z</time>
   </trkpt>
   <trkpt lat="32.8656870" lon="35.2416000">
    <ele>240.8</ele>
    <time>2014-02-14T06:55:29Z</time>
   </trkpt>
   <trkpt lat="32.8657280" lon="35.2416180">
    <ele>241.1</ele>
    <time>2014-02-14T06:55:31Z</time>
   </trkpt>
   <trkpt lat="32.8657630" lon="35.2416120">
    <ele>241.2</ele>
    <time>2014-02-14T06:55:33Z</time>
   </trkpt>
   <trkpt lat="32.8657920" lon="35.2416130">
    <ele>241.3</ele>
    <time>2014-02-14T06:55:35Z</time>
   </trkpt>
   <trkpt lat="32.8658260" lon="35.2416210">
    <ele>241.5</ele>
    <time>2014-02-14T06:55:38Z</time>
   </trkpt>
   <trkpt lat="32.8658340" lon="35.2415880">
    <ele>241.3</ele>
    <time>2014-02-14T06:55:56Z</time>
   </trkpt>
   <trkpt lat="32.8658620" lon="35.2415880">
    <ele>241.4</ele>
    <time>2014-02-14T06:56:16Z</time>
   </trkpt>
   <trkpt lat="32.8659140" lon="35.2415620">
    <ele>241.5</ele>
    <time>2014-02-14T06:56:18Z</time>
   </trkpt>
   <trkpt lat="32.8659400" lon="35.2415530">
    <ele>241.6</ele>
    <time>2014-02-14T06:56:19Z</time>
   </trkpt>
   <trkpt lat="32.8659700" lon="35.2415490">
    <ele>241.7</ele>
    <time>2014-02-14T06:56:20Z</time>
   </trkpt>
   <trkpt lat="32.8659990" lon="35.2415510">
    <ele>241.8</ele>
    <time>2014-02-14T06:56:21Z</time>
   </trkpt>
   <trkpt lat="32.8660290" lon="35.2415560">
    <ele>241.9</ele>
    <time>2014-02-14T06:56:22Z</time>
   </trkpt>
   <trkpt lat="32.8660600" lon="35.2415640">
    <ele>242.1</ele>
    <time>2014-02-14T06:56:23Z</time>
   </trkpt>
   <trkpt lat="32.8660900" lon="35.2415740">
    <ele>242.3</ele>
    <time>2014-02-14T06:56:24Z</time>
   </trkpt>
   <trkpt lat="32.8661210" lon="35.2415850">
    <ele>242.5</ele>
    <time>2014-02-14T06:56:25Z</time>
   </trkpt>
   <trkpt lat="32.8661460" lon="35.2415990">
    <ele>242.7</ele>
    <time>2014-02-14T06:56:26Z</time>
   </trkpt>
   <trkpt lat="32.8661760" lon="35.2416030">
    <ele>242.8</ele>
    <time>2014-02-14T06:56:28Z</time>
   </trkpt>
   <trkpt lat="32.8662050" lon="35.2416180">
    <ele>243.0</ele>
    <time>2014-02-14T06:56:40Z</time>
   </trkpt>
   <trkpt lat="32.8662340" lon="35.2416390">
    <ele>243.3</ele>
    <time>2014-02-14T06:56:43Z</time>
   </trkpt>
   <trkpt lat="32.8662630" lon="35.2416470">
    <ele>243.3</ele>
    <time>2014-02-14T06:56:46Z</time>
   </trkpt>
   <trkpt lat="32.8662740" lon="35.2416790">
    <ele>243.4</ele>
    <time>2014-02-14T06:56:53Z</time>
   </trkpt>
   <trkpt lat="32.8662690" lon="35.2416300">
    <ele>243.1</ele>
    <time>2014-02-14T06:56:55Z</time>
   </trkpt>
   <trkpt lat="32.8662540" lon="35.2415840">
    <ele>243.0</ele>
    <time>2014-02-14T06:56:57Z</time>
   </trkpt>
   <trkpt lat="32.8662440" lon="35.2415430">
    <ele>242.7</ele>
    <time>2014-02-14T06:57:06Z</time>
   </trkpt>
   <trkpt lat="32.8662380" lon="35.2415060">
    <ele>242.5</ele>
    <time>2014-02-14T06:57:08Z</time>
   </trkpt>
   <trkpt lat="32.8662150" lon="35.2414800">
    <ele>242.2</ele>
    <time>2014-02-14T06:57:10Z</time>
   </trkpt>
   <trkpt lat="32.8661850" lon="35.2414850">
    <ele>242.2</ele>
    <time>2014-02-14T06:57:12Z</time>
   </trkpt>
   <trkpt lat="32.8661410" lon="35.2414970">
    <ele>242.1</ele>
    <time>2014-02-14T06:57:14Z</time>
   </trkpt>
   <trkpt lat="32.8660880" lon="35.2414890">
    <ele>241.8</ele>
    <time>2014-02-14T06:57:16Z</time>
   </trkpt>
   <trkpt lat="32.8660590" lon="35.2414890">
    <ele>241.7</ele>
    <time>2014-02-14T06:57:17Z</time>
   </trkpt>
   <trkpt lat="32.8660310" lon="35.2414950">
    <ele>241.6</ele>
    <time>2014-02-14T06:57:18Z</time>
   </trkpt>
   <trkpt lat="32.8660040" lon="35.2415060">
    <ele>241.6</ele>
    <time>2014-02-14T06:57:19Z</time>
   </trkpt>
   <trkpt lat="32.8659580" lon="35.2415190">
    <ele>241.4</ele>
    <time>2014-02-14T06:57:21Z</time>
   </trkpt>
   <trkpt lat="32.8659120" lon="35.2415280">
    <ele>241.3</ele>
    <time>2014-02-14T06:57:23Z</time>
   </trkpt>
   <trkpt lat="32.8658640" lon="35.2415300">
    <ele>241.1</ele>
    <time>2014-02-14T06:57:25Z</time>
   </trkpt>
   <trkpt lat="32.8658170" lon="35.2415450">
    <ele>241.0</ele>
    <time>2014-02-14T06:57:27Z</time>
   </trkpt>
   <trkpt lat="32.8657670" lon="35.2415460">
    <ele>240.8</ele>
    <time>2014-02-14T06:57:29Z</time>
   </trkpt>
   <trkpt lat="32.8657220" lon="35.2415310">
    <ele>240.6</ele>
    <time>2014-02-14T06:57:31Z</time>
   </trkpt>
   <trkpt lat="32.8656790" lon="35.2415140">
    <ele>240.3</ele>
    <time>2014-02-14T06:57:33Z</time>
   </trkpt>
   <trkpt lat="32.8656530" lon="35.2414880">
    <ele>240.1</ele>
    <time>2014-02-14T06:57:35Z</time>
   </trkpt>
   <trkpt lat="32.8656120" lon="35.2414620">
    <ele>239.8</ele>
    <time>2014-02-14T06:57:37Z</time>
   </trkpt>
   <trkpt lat="32.8655740" lon="35.2414420">
    <ele>239.5</ele>
    <time>2014-02-14T06:57:39Z</time>
   </trkpt>
   <trkpt lat="32.8655440" lon="35.2414000">
    <ele>239.2</ele>
    <time>2014-02-14T06:57:41Z</time>
   </trkpt>
   <trkpt lat="32.8655140" lon="35.2413630">
    <ele>238.9</ele>
    <time>2014-02-14T06:57:43Z</time>
   </trkpt>
   <trkpt lat="32.8654910" lon="35.2413220">
    <ele>238.6</ele>
    <time>2014-02-14T06:57:45Z</time>
   </trkpt>
   <trkpt lat="32.8654580" lon="35.2413030">
    <ele>238.4</ele>
    <time>2014-02-14T06:57:47Z</time>
   </trkpt>
   <trkpt lat="32.8654240" lon="35.2412990">
    <ele>238.3</ele>
    <time>2014-02-14T06:57:49Z</time>
   </trkpt>
   <trkpt lat="32.8653990" lon="35.2412730">
    <ele>237.9</ele>
    <time>2014-02-14T06:57:51Z</time>
   </trkpt>
   <trkpt lat="32.8653840" lon="35.2412350">
    <ele>237.5</ele>
    <time>2014-02-14T06:57:53Z</time>
   </trkpt>
   <trkpt lat="32.8653710" lon="35.2411990">
    <ele>237.1</ele>
    <time>2014-02-14T06:57:55Z</time>
   </trkpt>
   <trkpt lat="32.8653770" lon="35.2411640">
    <ele>236.9</ele>
    <time>2014-02-14T06:57:58Z</time>
   </trkpt>
   <trkpt lat="32.8654030" lon="35.2411440">
    <ele>237.2</ele>
    <time>2014-02-14T06:58:00Z</time>
   </trkpt>
   <trkpt lat="32.8654240" lon="35.2411190">
    <ele>237.2</ele>
    <time>2014-02-14T06:58:02Z</time>
   </trkpt>
   <trkpt lat="32.8654500" lon="35.2410870">
    <ele>237.2</ele>
    <time>2014-02-14T06:58:05Z</time>
   </trkpt>
   <trkpt lat="32.8654770" lon="35.2410790">
    <ele>237.2</ele>
    <time>2014-02-14T06:58:07Z</time>
   </trkpt>
   <trkpt lat="32.8654990" lon="35.2410580">
    <ele>237.2</ele>
    <time>2014-02-14T06:58:10Z</time>
   </trkpt>
   <trkpt lat="32.8654780" lon="35.2410300">
    <ele>236.9</ele>
    <time>2014-02-14T06:58:13Z</time>
   </trkpt>
   <trkpt lat="32.8654520" lon="35.2410490">
    <ele>236.9</ele>
    <time>2014-02-14T06:58:16Z</time>
   </trkpt>
   <trkpt lat="32.8654520" lon="35.2410850">
    <ele>237.2</ele>
    <time>2014-02-14T06:58:18Z</time>
   </trkpt>
   <trkpt lat="32.8654510" lon="35.2411170">
    <ele>237.3</ele>
    <time>2014-02-14T06:58:20Z</time>
   </trkpt>
   <trkpt lat="32.8654490" lon="35.2411640">
    <ele>237.6</ele>
    <time>2014-02-14T06:58:23Z</time>
   </trkpt>
   <trkpt lat="32.8654320" lon="35.2412140">
    <ele>237.8</ele>
    <time>2014-02-14T06:58:25Z</time>
   </trkpt>
   <trkpt lat="32.8654210" lon="35.2412480">
    <ele>238.0</ele>
    <time>2014-02-14T06:58:26Z</time>
   </trkpt>
   <trkpt lat="32.8654080" lon="35.2412800">
    <ele>238.0</ele>
    <time>2014-02-14T06:58:27Z</time>
   </trkpt>
   <trkpt lat="32.8653960" lon="35.2413110">
    <ele>238.0</ele>
    <time>2014-02-14T06:58:28Z</time>
   </trkpt>
   <trkpt lat="32.8653820" lon="35.2413390">
    <ele>238.0</ele>
    <time>2014-02-14T06:58:29Z</time>
   </trkpt>
   <trkpt lat="32.8653510" lon="35.2413880">
    <ele>237.9</ele>
    <time>2014-02-14T06:58:31Z</time>
   </trkpt>
   <trkpt lat="32.8653480" lon="35.2414210">
    <ele>238.0</ele>
    <time>2014-02-14T06:58:34Z</time>
   </trkpt>
   <trkpt lat="32.8653780" lon="35.2414010">
    <ele>238.3</ele>
    <time>2014-02-14T06:58:37Z</time>
   </trkpt>
   <trkpt lat="32.8653980" lon="35.2413500">
    <ele>238.2</ele>
    <time>2014-02-14T06:58:39Z</time>
   </trkpt>
   <trkpt lat="32.8654130" lon="35.2413220">
    <ele>238.3</ele>
    <time>2014-02-14T06:58:40Z</time>
   </trkpt>
   <trkpt lat="32.8654280" lon="35.2412860">
    <ele>238.2</ele>
    <time>2014-02-14T06:58:41Z</time>
   </trkpt>
   <trkpt lat="32.8654430" lon="35.2412520">
    <ele>238.1</ele>
    <time>2014-02-14T06:58:42Z</time>
   </trkpt>
   <trkpt lat="32.8654580" lon="35.2412180">
    <ele>238.0</ele>
    <time>2014-02-14T06:58:43Z</time>
   </trkpt>
   <trkpt lat="32.8654770" lon="35.2411850">
    <ele>237.8</ele>
    <time>2014-02-14T06:58:44Z</time>
   </trkpt>
   <trkpt lat="32.8654970" lon="35.2411500">
    <ele>237.7</ele>
    <time>2014-02-14T06:58:45Z</time>
   </trkpt>
   <trkpt lat="32.8655210" lon="35.2411040">
    <ele>237.5</ele>
    <time>2014-02-14T06:58:46Z</time>
   </trkpt>
   <trkpt lat="32.8655360" lon="35.2410610">
    <ele>237.4</ele>
    <time>2014-02-14T06:58:47Z</time>
   </trkpt>
   <trkpt lat="32.8655490" lon="35.2410200">
    <ele>237.2</ele>
    <time>2014-02-14T06:58:48Z</time>
   </trkpt>
   <trkpt lat="32.8655550" lon="35.2409750">
    <ele>237.0</ele>
    <time>2014-02-14T06:58:49Z</time>
   </trkpt>
   <trkpt lat="32.8655590" lon="35.2409290">
    <ele>236.7</ele>
    <time>2014-02-14T06:58:50Z</time>
   </trkpt>
   <trkpt lat="32.8655660" lon="35.2408850">
    <ele>236.5</ele>
    <time>2014-02-14T06:58:51Z</time>
   </trkpt>
   <trkpt lat="32.8655750" lon="35.2408430">
    <ele>236.3</ele>
    <time>2014-02-14T06:58:52Z</time>
   </trkpt>
   <trkpt lat="32.8655890" lon="35.2408050">
    <ele>236.2</ele>
    <time>2014-02-14T06:58:53Z</time>
   </trkpt>
   <trkpt lat="32.8656050" lon="35.2407670">
    <ele>236.0</ele>
    <time>2014-02-14T06:58:54Z</time>
   </trkpt>
   <trkpt lat="32.8656180" lon="35.2407310">
    <ele>235.9</ele>
    <time>2014-02-14T06:58:55Z</time>
   </trkpt>
   <trkpt lat="32.8656330" lon="35.2406920">
    <ele>235.8</ele>
    <time>2014-02-14T06:58:56Z</time>
   </trkpt>
   <trkpt lat="32.8656380" lon="35.2406490">
    <ele>235.6</ele>
    <time>2014-02-14T06:58:57Z</time>
   </trkpt>
   <trkpt lat="32.8656330" lon="35.2406050">
    <ele>235.3</ele>
    <time>2014-02-14T06:58:58Z</time>
   </trkpt>
   <trkpt lat="32.8656210" lon="35.2405550">
    <ele>235.0</ele>
    <time>2014-02-14T06:58:59Z</time>
   </trkpt>
   <trkpt lat="32.8656050" lon="35.2405080">
    <ele>234.6</ele>
    <time>2014-02-14T06:59:00Z</time>
   </trkpt>
   <trkpt lat="32.8656080" lon="35.2404600">
    <ele>234.4</ele>
    <time>2014-02-14T06:59:01Z</time>
   </trkpt>
   <trkpt lat="32.8656200" lon="35.2404070">
    <ele>234.2</ele>
    <time>2014-02-14T06:59:02Z</time>
   </trkpt>
   <trkpt lat="32.8656860" lon="35.2403380">
    <ele>234.2</ele>
    <time>2014-02-14T06:59:03Z</time>
   </trkpt>
   <trkpt lat="32.8656960" lon="35.2402750">
    <ele>234.0</ele>
    <time>2014-02-14T06:59:04Z</time>
   </trkpt>
   <trkpt lat="32.8657000" lon="35.2402150">
    <ele>233.7</ele>
    <time>2014-02-14T06:59:05Z</time>
   </trkpt>
   <trkpt lat="32.8657090" lon="35.2401590">
    <ele>233.5</ele>
    <time>2014-02-14T06:59:06Z</time>
   </trkpt>
   <trkpt lat="32.8657450" lon="35.2400850">
    <ele>233.5</ele>
    <time>2014-02-14T06:59:07Z</time>
   </trkpt>
   <trkpt lat="32.8657560" lon="35.2399960">
    <ele>233.1</ele>
    <time>2014-02-14T06:59:08Z</time>
   </trkpt>
   <trkpt lat="32.8657900" lon="35.2399170">
    <ele>233.0</ele>
    <time>2014-02-14T06:59:09Z</time>
   </trkpt>
   <trkpt lat="32.8658230" lon="35.2398460">
    <ele>233.0</ele>
    <time>2014-02-14T06:59:10Z</time>
   </trkpt>
   <trkpt lat="32.8658590" lon="35.2397740">
    <ele>233.0</ele>
    <time>2014-02-14T06:59:11Z</time>
   </trkpt>
   <trkpt lat="32.8658960" lon="35.2397240">
    <ele>233.2</ele>
    <time>2014-02-14T06:59:12Z</time>
   </trkpt>
   <trkpt lat="32.8659460" lon="35.2396680">
    <ele>233.4</ele>
    <time>2014-02-14T06:59:13Z</time>
   </trkpt>
   <trkpt lat="32.8660550" lon="35.2396140">
    <ele>234.2</ele>
    <time>2014-02-14T06:59:14Z</time>
   </trkpt>
   <trkpt lat="32.8661230" lon="35.2395350">
    <ele>234.6</ele>
    <time>2014-02-14T06:59:15Z</time>
   </trkpt>
   <trkpt lat="32.8661780" lon="35.2394710">
    <ele>234.9</ele>
    <time>2014-02-14T06:59:16Z</time>
   </trkpt>
   <trkpt lat="32.8662390" lon="35.2394070">
    <ele>235.3</ele>
    <time>2014-02-14T06:59:17Z</time>
   </trkpt>
   <trkpt lat="32.8663020" lon="35.2393330">
    <ele>234.7</ele>
    <time>2014-02-14T06:59:18Z</time>
   </trkpt>
   <trkpt lat="32.8663730" lon="35.2392890">
    <ele>234.1</ele>
    <time>2014-02-14T06:59:19Z</time>
   </trkpt>
   <trkpt lat="32.8664230" lon="35.2392370">
    <ele>233.7</ele>
    <time>2014-02-14T06:59:20Z</time>
   </trkpt>
   <trkpt lat="32.8664770" lon="35.2391780">
    <ele>233.3</ele>
    <time>2014-02-14T06:59:21Z</time>
   </trkpt>
   <trkpt lat="32.8665070" lon="35.2391300">
    <ele>233.1</ele>
    <time>2014-02-14T06:59:22Z</time>
   </trkpt>
   <trkpt lat="32.8665250" lon="35.2390760">
    <ele>232.9</ele>
    <time>2014-02-14T06:59:23Z</time>
   </trkpt>
   <trkpt lat="32.8665490" lon="35.2390410">
    <ele>232.8</ele>
    <time>2014-02-14T06:59:24Z</time>
   </trkpt>
   <trkpt lat="32.8665740" lon="35.2389830">
    <ele>232.7</ele>
    <time>2014-02-14T06:59:25Z</time>
   </trkpt>
   <trkpt lat="32.8665940" lon="35.2389420">
    <ele>232.6</ele>
    <time>2014-02-14T06:59:26Z</time>
   </trkpt>
   <trkpt lat="32.8666080" lon="35.2388970">
    <ele>232.6</ele>
    <time>2014-02-14T06:59:27Z</time>
   </trkpt>
   <trkpt lat="32.8666390" lon="35.2388500">
    <ele>232.5</ele>
    <time>2014-02-14T06:59:28Z</time>
   </trkpt>
   <trkpt lat="32.8666700" lon="35.2387760">
    <ele>232.5</ele>
    <time>2014-02-14T06:59:29Z</time>
   </trkpt>
   <trkpt lat="32.8666890" lon="35.2387170">
    <ele>232.3</ele>
    <time>2014-02-14T06:59:30Z</time>
   </trkpt>
   <trkpt lat="32.8667180" lon="35.2386750">
    <ele>232.0</ele>
    <time>2014-02-14T06:59:31Z</time>
   </trkpt>
   <trkpt lat="32.8667300" lon="35.2386260">
    <ele>231.7</ele>
    <time>2014-02-14T06:59:32Z</time>
   </trkpt>
   <trkpt lat="32.8667670" lon="35.2385910">
    <ele>231.6</ele>
    <time>2014-02-14T06:59:33Z</time>
   </trkpt>
   <trkpt lat="32.8667860" lon="35.2385420">
    <ele>231.3</ele>
    <time>2014-02-14T06:59:34Z</time>
   </trkpt>
   <trkpt lat="32.8668100" lon="35.2384950">
    <ele>231.1</ele>
    <time>2014-02-14T06:59:35Z</time>
   </trkpt>
   <trkpt lat="32.8668430" lon="35.2384380">
    <ele>230.9</ele>
    <time>2014-02-14T06:59:36Z</time>
   </trkpt>
   <trkpt lat="32.8668720" lon="35.2383810">
    <ele>230.7</ele>
    <time>2014-02-14T06:59:37Z</time>
   </trkpt>
   <trkpt lat="32.8669030" lon="35.2383360">
    <ele>230.6</ele>
    <time>2014-02-14T06:59:38Z</time>
   </trkpt>
   <trkpt lat="32.8669280" lon="35.2382780">
    <ele>230.4</ele>
    <time>2014-02-14T06:59:39Z</time>
   </trkpt>
   <trkpt lat="32.8669400" lon="35.2382050">
    <ele>230.2</ele>
    <time>2014-02-14T06:59:40Z</time>
   </trkpt>
   <trkpt lat="32.8669800" lon="35.2381440">
    <ele>230.1</ele>
    <time>2014-02-14T06:59:41Z</time>
   </trkpt>
   <trkpt lat="32.8669860" lon="35.2380910">
    <ele>230.0</ele>
    <time>2014-02-14T06:59:42Z</time>
   </trkpt>
   <trkpt lat="32.8669900" lon="35.2380430">
    <ele>229.8</ele>
    <time>2014-02-14T06:59:43Z</time>
   </trkpt>
   <trkpt lat="32.8670010" lon="35.2380020">
    <ele>229.8</ele>
    <time>2014-02-14T06:59:44Z</time>
   </trkpt>
   <trkpt lat="32.8670210" lon="35.2379760">
    <ele>229.8</ele>
    <time>2014-02-14T06:59:45Z</time>
   </trkpt>
   <trkpt lat="32.8670440" lon="35.2379360">
    <ele>229.8</ele>
    <time>2014-02-14T06:59:46Z</time>
   </trkpt>
   <trkpt lat="32.8670390" lon="35.2378990">
    <ele>229.6</ele>
    <time>2014-02-14T06:59:47Z</time>
   </trkpt>
   <trkpt lat="32.8670510" lon="35.2378310">
    <ele>229.0</ele>
    <time>2014-02-14T06:59:49Z</time>
   </trkpt>
   <trkpt lat="32.8670550" lon="35.2377820">
    <ele>228.5</ele>
    <time>2014-02-14T06:59:50Z</time>
   </trkpt>
   <trkpt lat="32.8670680" lon="35.2377530">
    <ele>228.3</ele>
    <time>2014-02-14T06:59:51Z</time>
   </trkpt>
   <trkpt lat="32.8670810" lon="35.2377140">
    <ele>228.0</ele>
    <time>2014-02-14T06:59:52Z</time>
   </trkpt>
   <trkpt lat="32.8670810" lon="35.2376650">
    <ele>227.6</ele>
    <time>2014-02-14T06:59:53Z</time>
   </trkpt>
   <trkpt lat="32.8670800" lon="35.2376110">
    <ele>227.0</ele>
    <time>2014-02-14T06:59:54Z</time>
   </trkpt>
   <trkpt lat="32.8671040" lon="35.2375420">
    <ele>226.1</ele>
    <time>2014-02-14T06:59:55Z</time>
   </trkpt>
   <trkpt lat="32.8671100" lon="35.2374860">
    <ele>225.4</ele>
    <time>2014-02-14T06:59:56Z</time>
   </trkpt>
   <trkpt lat="32.8671250" lon="35.2374480">
    <ele>224.8</ele>
    <time>2014-02-14T06:59:57Z</time>
   </trkpt>
   <trkpt lat="32.8671330" lon="35.2374030">
    <ele>224.2</ele>
    <time>2014-02-14T06:59:58Z</time>
   </trkpt>
   <trkpt lat="32.8671360" lon="35.2373650">
    <ele>223.8</ele>
    <time>2014-02-14T06:59:59Z</time>
   </trkpt>
   <trkpt lat="32.8671550" lon="35.2373320">
    <ele>223.2</ele>
    <time>2014-02-14T07:00:00Z</time>
   </trkpt>
   <trkpt lat="32.8671410" lon="35.2373040">
    <ele>223.1</ele>
    <time>2014-02-14T07:00:01Z</time>
   </trkpt>
   <trkpt lat="32.8671210" lon="35.2372630">
    <ele>223.1</ele>
    <time>2014-02-14T07:00:03Z</time>
   </trkpt>
   <trkpt lat="32.8670920" lon="35.2372750">
    <ele>223.7</ele>
    <time>2014-02-14T07:00:04Z</time>
   </trkpt>
   <trkpt lat="32.8670660" lon="35.2372520">
    <ele>223.5</ele>
    <time>2014-02-14T07:00:11Z</time>
   </trkpt>
   <trkpt lat="32.8670930" lon="35.2372420">
    <ele>223.4</ele>
    <time>2014-02-14T07:00:18Z</time>
   </trkpt>
   <trkpt lat="32.8670930" lon="35.2372080">
    <ele>223.0</ele>
    <time>2014-02-14T07:00:24Z</time>
   </trkpt>
   <trkpt lat="32.8670820" lon="35.2371380">
    <ele>222.5</ele>
    <time>2014-02-14T07:00:26Z</time>
   </trkpt>
   <trkpt lat="32.8670680" lon="35.2370940">
    <ele>222.0</ele>
    <time>2014-02-14T07:00:27Z</time>
   </trkpt>
   <trkpt lat="32.8670490" lon="35.2370490">
    <ele>221.3</ele>
    <time>2014-02-14T07:00:28Z</time>
   </trkpt>
   <trkpt lat="32.8670240" lon="35.2370030">
    <ele>220.6</ele>
    <time>2014-02-14T07:00:29Z</time>
   </trkpt>
   <trkpt lat="32.8669970" lon="35.2369570">
    <ele>219.8</ele>
    <time>2014-02-14T07:00:30Z</time>
   </trkpt>
   <trkpt lat="32.8669660" lon="35.2369080">
    <ele>219.0</ele>
    <time>2014-02-14T07:00:31Z</time>
   </trkpt>
   <trkpt lat="32.8669310" lon="35.2368560">
    <ele>218.1</ele>
    <time>2014-02-14T07:00:32Z</time>
   </trkpt>
   <trkpt lat="32.8668690" lon="35.2368100">
    <ele>217.2</ele>
    <time>2014-02-14T07:00:33Z</time>
   </trkpt>
   <trkpt lat="32.8668400" lon="35.2367530">
    <ele>216.3</ele>
    <time>2014-02-14T07:00:34Z</time>
   </trkpt>
   <trkpt lat="32.8668220" lon="35.2367010">
    <ele>215.5</ele>
    <time>2014-02-14T07:00:35Z</time>
   </trkpt>
   <trkpt lat="32.8668010" lon="35.2366750">
    <ele>215.1</ele>
    <time>2014-02-14T07:00:36Z</time>
   </trkpt>
   <trkpt lat="32.8667940" lon="35.2366340">
    <ele>214.5</ele>
    <time>2014-02-14T07:00:38Z</time>
   </trkpt>
   <trkpt lat="32.8668160" lon="35.2366000">
    <ele>214.1</ele>
    <time>2014-02-14T07:01:24Z</time>
   </trkpt>
   <trkpt lat="32.8668520" lon="35.2365640">
    <ele>213.8</ele>
    <time>2014-02-14T07:01:26Z</time>
   </trkpt>
   <trkpt lat="32.8668810" lon="35.2365180">
    <ele>213.2</ele>
    <time>2014-02-14T07:01:28Z</time>
   </trkpt>
   <trkpt lat="32.8669020" lon="35.2364570">
    <ele>212.4</ele>
    <time>2014-02-14T07:01:30Z</time>
   </trkpt>
   <trkpt lat="32.8669080" lon="35.2364240">
    <ele>212.0</ele>
    <time>2014-02-14T07:01:31Z</time>
   </trkpt>
   <trkpt lat="32.8669250" lon="35.2363700">
    <ele>211.3</ele>
    <time>2014-02-14T07:01:33Z</time>
   </trkpt>
   <trkpt lat="32.8669520" lon="35.2363420">
    <ele>211.0</ele>
    <time>2014-02-14T07:01:35Z</time>
   </trkpt>
   <trkpt lat="32.8669780" lon="35.2363370">
    <ele>211.0</ele>
    <time>2014-02-14T07:01:37Z</time>
   </trkpt>
   <trkpt lat="32.8670080" lon="35.2363420">
    <ele>211.1</ele>
    <time>2014-02-14T07:01:39Z</time>
   </trkpt>
   <trkpt lat="32.8670450" lon="35.2363570">
    <ele>211.4</ele>
    <time>2014-02-14T07:01:42Z</time>
   </trkpt>
   <trkpt lat="32.8670620" lon="35.2363860">
    <ele>211.9</ele>
    <time>2014-02-14T07:01:44Z</time>
   </trkpt>
   <trkpt lat="32.8670690" lon="35.2364290">
    <ele>212.5</ele>
    <time>2014-02-14T07:01:47Z</time>
   </trkpt>
   <trkpt lat="32.8670680" lon="35.2363890">
    <ele>212.0</ele>
    <time>2014-02-14T07:01:55Z</time>
   </trkpt>
   <trkpt lat="32.8670570" lon="35.2363430">
    <ele>211.3</ele>
    <time>2014-02-14T07:01:58Z</time>
   </trkpt>
   <trkpt lat="32.8670470" lon="35.2363110">
    <ele>210.8</ele>
    <time>2014-02-14T07:02:04Z</time>
   </trkpt>
   <trkpt lat="32.8670180" lon="35.2363130">
    <ele>210.7</ele>
    <time>2014-02-14T07:02:07Z</time>
   </trkpt>
   <trkpt lat="32.8669890" lon="35.2363010">
    <ele>210.5</ele>
    <time>2014-02-14T07:02:09Z</time>
   </trkpt>
   <trkpt lat="32.8669610" lon="35.2363060">
    <ele>210.5</ele>
    <time>2014-02-14T07:02:19Z</time>
   </trkpt>
   <trkpt lat="32.8669510" lon="35.2363380">
    <ele>210.9</ele>
    <time>2014-02-14T07:02:24Z</time>
   </trkpt>
   <trkpt lat="32.8669170" lon="35.2363500">
    <ele>211.0</ele>
    <time>2014-02-14T07:02:27Z</time>
   </trkpt>
   <trkpt lat="32.8668950" lon="35.2363720">
    <ele>211.2</ele>
    <time>2014-02-14T07:02:30Z</time>
   </trkpt>
   <trkpt lat="32.8668840" lon="35.2364020">
    <ele>211.6</ele>
    <time>2014-02-14T07:02:33Z</time>
   </trkpt>
   <trkpt lat="32.8668740" lon="35.2364390">
    <ele>212.1</ele>
    <time>2014-02-14T07:02:36Z</time>
   </trkpt>
   <trkpt lat="32.8668430" lon="35.2364540">
    <ele>212.2</ele>
    <time>2014-02-14T07:02:39Z</time>
   </trkpt>
   <trkpt lat="32.8668190" lon="35.2364840">
    <ele>212.6</ele>
    <time>2014-02-14T07:02:42Z</time>
   </trkpt>
   <trkpt lat="32.8667970" lon="35.2365070">
    <ele>212.8</ele>
    <time>2014-02-14T07:02:45Z</time>
   </trkpt>
   <trkpt lat="32.8667720" lon="35.2365330">
    <ele>213.1</ele>
    <time>2014-02-14T07:02:48Z</time>
   </trkpt>
   <trkpt lat="32.8667550" lon="35.2365650">
    <ele>213.5</ele>
    <time>2014-02-14T07:02:51Z</time>
   </trkpt>
   <trkpt lat="32.8667270" lon="35.2365590">
    <ele>213.3</ele>
    <time>2014-02-14T07:02:57Z</time>
   </trkpt>
   <trkpt lat="32.8667460" lon="35.2365870">
    <ele>213.7</ele>
    <time>2014-02-14T07:03:18Z</time>
   </trkpt>
   <trkpt lat="32.8667750" lon="35.2366240">
    <ele>214.3</ele>
    <time>2014-02-14T07:03:20Z</time>
   </trkpt>
   <trkpt lat="32.8667960" lon="35.2366500">
    <ele>214.7</ele>
    <time>2014-02-14T07:03:21Z</time>
   </trkpt>
   <trkpt lat="32.8668150" lon="35.2366760">
    <ele>215.2</ele>
    <time>2014-02-14T07:03:22Z</time>
   </trkpt>
   <trkpt lat="32.8668330" lon="35.2367030">
    <ele>215.6</ele>
    <time>2014-02-14T07:03:23Z</time>
   </trkpt>
   <trkpt lat="32.8668490" lon="35.2367320">
    <ele>216.1</ele>
    <time>2014-02-14T07:03:24Z</time>
   </trkpt>
   <trkpt lat="32.8668650" lon="35.2367580">
    <ele>216.5</ele>
    <time>2014-02-14T07:03:25Z</time>
   </trkpt>
   <trkpt lat="32.8668900" lon="35.2368120">
    <ele>217.3</ele>
    <time>2014-02-14T07:03:27Z</time>
   </trkpt>
   <trkpt lat="32.8669030" lon="35.2368660">
    <ele>218.1</ele>
    <time>2014-02-14T07:03:29Z</time>
   </trkpt>
   <trkpt lat="32.8669260" lon="35.2369100">
    <ele>218.8</ele>
    <time>2014-02-14T07:03:31Z</time>
   </trkpt>
   <trkpt lat="32.8669520" lon="35.2369610">
    <ele>219.7</ele>
    <time>2014-02-14T07:03:33Z</time>
   </trkpt>
   <trkpt lat="32.8669770" lon="35.2370130">
    <ele>220.5</ele>
    <time>2014-02-14T07:03:35Z</time>
   </trkpt>
   <trkpt lat="32.8669980" lon="35.2370650">
    <ele>221.3</ele>
    <time>2014-02-14T07:03:37Z</time>
   </trkpt>
   <trkpt lat="32.8670220" lon="35.2371190">
    <ele>222.0</ele>
    <time>2014-02-14T07:03:39Z</time>
   </trkpt>
   <trkpt lat="32.8670390" lon="35.2371710">
    <ele>222.6</ele>
    <time>2014-02-14T07:03:41Z</time>
   </trkpt>
   <trkpt lat="32.8670470" lon="35.2372190">
    <ele>223.1</ele>
    <time>2014-02-14T07:03:43Z</time>
   </trkpt>
   <trkpt lat="32.8670710" lon="35.2371990">
    <ele>223.0</ele>
    <time>2014-02-14T07:03:54Z</time>
   </trkpt>
   <trkpt lat="32.8670720" lon="35.2372380">
    <ele>223.4</ele>
    <time>2014-02-14T07:03:57Z</time>
   </trkpt>
   <trkpt lat="32.8670690" lon="35.2372870">
    <ele>223.9</ele>
    <time>2014-02-14T07:03:59Z</time>
   </trkpt>
   <trkpt lat="32.8670620" lon="35.2373260">
    <ele>224.2</ele>
    <time>2014-02-14T07:04:01Z</time>
   </trkpt>
   <trkpt lat="32.8670560" lon="35.2373650">
    <ele>224.6</ele>
    <time>2014-02-14T07:04:03Z</time>
   </trkpt>
   <trkpt lat="32.8670550" lon="35.2374150">
    <ele>225.0</ele>
    <time>2014-02-14T07:04:05Z</time>
   </trkpt>
   <trkpt lat="32.8670580" lon="35.2374650">
    <ele>225.5</ele>
    <time>2014-02-14T07:04:07Z</time>
   </trkpt>
   <trkpt lat="32.8670600" lon="35.2375180">
    <ele>226.0</ele>
    <time>2014-02-14T07:04:09Z</time>
   </trkpt>
   <trkpt lat="32.8670530" lon="35.2375730">
    <ele>226.5</ele>
    <time>2014-02-14T07:04:11Z</time>
   </trkpt>
   <trkpt lat="32.8670540" lon="35.2376270">
    <ele>227.1</ele>
    <time>2014-02-14T07:04:13Z</time>
   </trkpt>
   <trkpt lat="32.8670540" lon="35.2376590">
    <ele>227.4</ele>
    <time>2014-02-14T07:04:14Z</time>
   </trkpt>
   <trkpt lat="32.8670520" lon="35.2377140">
    <ele>227.9</ele>
    <time>2014-02-14T07:04:16Z</time>
   </trkpt>
   <trkpt lat="32.8670540" lon="35.2377590">
    <ele>228.3</ele>
    <time>2014-02-14T07:04:18Z</time>
   </trkpt>
   <trkpt lat="32.8670490" lon="35.2378060">
    <ele>228.7</ele>
    <time>2014-02-14T07:04:21Z</time>
   </trkpt>
   <trkpt lat="32.8670460" lon="35.2378570">
    <ele>229.2</ele>
    <time>2014-02-14T07:04:23Z</time>
   </trkpt>
   <trkpt lat="32.8670430" lon="35.2378930">
    <ele>229.5</ele>
    <time>2014-02-14T07:04:24Z</time>
   </trkpt>
   <trkpt lat="32.8670380" lon="35.2379250">
    <ele>229.8</ele>
    <time>2014-02-14T07:04:25Z</time>
   </trkpt>
   <trkpt lat="32.8670240" lon="35.2379790">
    <ele>229.8</ele>
    <time>2014-02-14T07:04:27Z</time>
   </trkpt>
   <trkpt lat="32.8670140" lon="35.2380290">
    <ele>229.9</ele>
    <time>2014-02-14T07:04:29Z</time>
   </trkpt>
   <trkpt lat="32.8670050" lon="35.2380720">
    <ele>230.0</ele>
    <time>2014-02-14T07:04:31Z</time>
   </trkpt>
   <trkpt lat="32.8669950" lon="35.2381030">
    <ele>230.1</ele>
    <time>2014-02-14T07:04:33Z</time>
   </trkpt>
   <trkpt lat="32.8669830" lon="35.2381400">
    <ele>230.1</ele>
    <time>2014-02-14T07:04:35Z</time>
   </trkpt>
   <trkpt lat="32.8669650" lon="35.2381920">
    <ele>230.2</ele>
    <time>2014-02-14T07:04:37Z</time>
   </trkpt>
   <trkpt lat="32.8669450" lon="35.2382390">
    <ele>230.3</ele>
    <time>2014-02-14T07:04:39Z</time>
   </trkpt>
   <trkpt lat="32.8669310" lon="35.2382850">
    <ele>230.5</ele>
    <time>2014-02-14T07:04:41Z</time>
   </trkpt>
   <trkpt lat="32.8669200" lon="35.2383340">
    <ele>230.6</ele>
    <time>2014-02-14T07:04:43Z</time>
   </trkpt>
   <trkpt lat="32.8669100" lon="35.2383870">
    <ele>230.8</ele>
    <time>2014-02-14T07:04:45Z</time>
   </trkpt>
   <trkpt lat="32.8668930" lon="35.2384320">
    <ele>230.9</ele>
    <time>2014-02-14T07:04:47Z</time>
   </trkpt>
   <trkpt lat="32.8668760" lon="35.2384800">
    <ele>231.1</ele>
    <time>2014-02-14T07:04:49Z</time>
   </trkpt>
   <trkpt lat="32.8668550" lon="35.2385290">
    <ele>231.3</ele>
    <time>2014-02-14T07:04:51Z</time>
   </trkpt>
   <trkpt lat="32.8668250" lon="35.2385750">
    <ele>231.5</ele>
    <time>2014-02-14T07:04:53Z</time>
   </trkpt>
   <trkpt lat="32.8668020" lon="35.2386270">
    <ele>231.7</ele>
    <time>2014-02-14T07:04:55Z</time>
   </trkpt>
   <trkpt lat="32.8667830" lon="35.2386830">
    <ele>232.0</ele>
    <time>2014-02-14T07:04:57Z</time>
   </trkpt>
   <trkpt lat="32.8667570" lon="35.2387360">
    <ele>232.3</ele>
    <time>2014-02-14T07:04:59Z</time>
   </trkpt>
   <trkpt lat="32.8667380" lon="35.2387910">
    <ele>232.4</ele>
    <time>2014-02-14T07:05:01Z</time>
   </trkpt>
   <trkpt lat="32.8667170" lon="35.2388430">
    <ele>232.3</ele>
    <time>2014-02-14T07:05:03Z</time>
   </trkpt>
   <trkpt lat="32.8666900" lon="35.2388910">
    <ele>232.4</ele>
    <time>2014-02-14T07:05:05Z</time>
   </trkpt>
   <trkpt lat="32.8666670" lon="35.2389360">
    <ele>232.4</ele>
    <time>2014-02-14T07:05:07Z</time>
   </trkpt>
   <trkpt lat="32.8666470" lon="35.2389770">
    <ele>232.4</ele>
    <time>2014-02-14T07:05:09Z</time>
   </trkpt>
   <trkpt lat="32.8666220" lon="35.2390160">
    <ele>232.5</ele>
    <time>2014-02-14T07:05:11Z</time>
   </trkpt>
   <trkpt lat="32.8665940" lon="35.2390540">
    <ele>232.6</ele>
    <time>2014-02-14T07:05:13Z</time>
   </trkpt>
   <trkpt lat="32.8665640" lon="35.2390930">
    <ele>232.8</ele>
    <time>2014-02-14T07:05:15Z</time>
   </trkpt>
   <trkpt lat="32.8665480" lon="35.2391240">
    <ele>232.9</ele>
    <time>2014-02-14T07:05:16Z</time>
   </trkpt>
   <trkpt lat="32.8665320" lon="35.2391580">
    <ele>233.0</ele>
    <time>2014-02-14T07:05:17Z</time>
   </trkpt>
   <trkpt lat="32.8665160" lon="35.2391900">
    <ele>233.1</ele>
    <time>2014-02-14T07:05:18Z</time>
   </trkpt>
   <trkpt lat="32.8665010" lon="35.2392240">
    <ele>233.2</ele>
    <time>2014-02-14T07:05:19Z</time>
   </trkpt>
   <trkpt lat="32.8664840" lon="35.2392540">
    <ele>233.3</ele>
    <time>2014-02-14T07:05:20Z</time>
   </trkpt>
   <trkpt lat="32.8664670" lon="35.2392830">
    <ele>233.5</ele>
    <time>2014-02-14T07:05:21Z</time>
   </trkpt>
   <trkpt lat="32.8664450" lon="35.2393060">
    <ele>233.7</ele>
    <time>2014-02-14T07:05:22Z</time>
   </trkpt>
   <trkpt lat="32.8664200" lon="35.2393210">
    <ele>233.9</ele>
    <time>2014-02-14T07:05:23Z</time>
   </trkpt>
   <trkpt lat="32.8663800" lon="35.2393400">
    <ele>234.2</ele>
    <time>2014-02-14T07:05:25Z</time>
   </trkpt>
   <trkpt lat="32.8663450" lon="35.2393780">
    <ele>234.5</ele>
    <time>2014-02-14T07:05:27Z</time>
   </trkpt>
   <trkpt lat="32.8663270" lon="35.2394030">
    <ele>234.8</ele>
    <time>2014-02-14T07:05:28Z</time>
   </trkpt>
   <trkpt lat="32.8663070" lon="35.2394380">
    <ele>235.0</ele>
    <time>2014-02-14T07:05:29Z</time>
   </trkpt>
   <trkpt lat="32.8662860" lon="35.2394740">
    <ele>235.3</ele>
    <time>2014-02-14T07:05:30Z</time>
   </trkpt>
   <trkpt lat="32.8662610" lon="35.2395090">
    <ele>235.6</ele>
    <time>2014-02-14T07:05:31Z</time>
   </trkpt>
   <trkpt lat="32.8662350" lon="35.2395420">
    <ele>235.7</ele>
    <time>2014-02-14T07:05:32Z</time>
   </trkpt>
   <trkpt lat="32.8662100" lon="35.2395700">
    <ele>235.6</ele>
    <time>2014-02-14T07:05:33Z</time>
   </trkpt>
   <trkpt lat="32.8661860" lon="35.2395920">
    <ele>235.4</ele>
    <time>2014-02-14T07:05:34Z</time>
   </trkpt>
   <trkpt lat="32.8661610" lon="35.2396110">
    <ele>235.2</ele>
    <time>2014-02-14T07:05:35Z</time>
   </trkpt>
   <trkpt lat="32.8661120" lon="35.2396360">
    <ele>234.8</ele>
    <time>2014-02-14T07:05:37Z</time>
   </trkpt>
   <trkpt lat="32.8660690" lon="35.2396710">
    <ele>234.5</ele>
    <time>2014-02-14T07:05:39Z</time>
   </trkpt>
   <trkpt lat="32.8660260" lon="35.2397060">
    <ele>234.3</ele>
    <time>2014-02-14T07:05:41Z</time>
   </trkpt>
   <trkpt lat="32.8659880" lon="35.2397480">
    <ele>234.1</ele>
    <time>2014-02-14T07:05:43Z</time>
   </trkpt>
   <trkpt lat="32.8659560" lon="35.2397910">
    <ele>233.9</ele>
    <time>2014-02-14T07:05:45Z</time>
   </trkpt>
   <trkpt lat="32.8659270" lon="35.2398300">
    <ele>233.8</ele>
    <time>2014-02-14T07:05:47Z</time>
   </trkpt>
   <trkpt lat="32.8659060" lon="35.2398690">
    <ele>233.8</ele>
    <time>2014-02-14T07:05:49Z</time>
   </trkpt>
   <trkpt lat="32.8658990" lon="35.2399010">
    <ele>233.9</ele>
    <time>2014-02-14T07:05:50Z</time>
   </trkpt>
   <trkpt lat="32.8658960" lon="35.2399370">
    <ele>234.0</ele>
    <time>2014-02-14T07:05:51Z</time>
   </trkpt>
   <trkpt lat="32.8658900" lon="35.2399700">
    <ele>234.1</ele>
    <time>2014-02-14T07:05:52Z</time>
   </trkpt>
   <trkpt lat="32.8658810" lon="35.2400220">
    <ele>234.2</ele>
    <time>2014-02-14T07:05:54Z</time>
   </trkpt>
   <trkpt lat="32.8658780" lon="35.2400570">
    <ele>234.3</ele>
    <time>2014-02-14T07:05:56Z</time>
   </trkpt>
   <trkpt lat="32.8658650" lon="35.2400870">
    <ele>234.4</ele>
    <time>2014-02-14T07:05:58Z</time>
   </trkpt>
   <trkpt lat="32.8658570" lon="35.2401250">
    <ele>234.4</ele>
    <time>2014-02-14T07:06:00Z</time>
   </trkpt>
   <trkpt lat="32.8658550" lon="35.2401870">
    <ele>234.7</ele>
    <time>2014-02-14T07:06:02Z</time>
   </trkpt>
   <trkpt lat="32.8658500" lon="35.2402440">
    <ele>234.9</ele>
    <time>2014-02-14T07:06:04Z</time>
   </trkpt>
   <trkpt lat="32.8658380" lon="35.2402990">
    <ele>235.0</ele>
    <time>2014-02-14T07:06:06Z</time>
   </trkpt>
   <trkpt lat="32.8658330" lon="35.2403330">
    <ele>235.1</ele>
    <time>2014-02-14T07:06:07Z</time>
   </trkpt>
   <trkpt lat="32.8658310" lon="35.2403720">
    <ele>235.3</ele>
    <time>2014-02-14T07:06:08Z</time>
   </trkpt>
   <trkpt lat="32.8658290" lon="35.2404150">
    <ele>235.5</ele>
    <time>2014-02-14T07:06:09Z</time>
   </trkpt>
   <trkpt lat="32.8658290" lon="35.2404540">
    <ele>235.7</ele>
    <time>2014-02-14T07:06:10Z</time>
   </trkpt>
   <trkpt lat="32.8658230" lon="35.2404960">
    <ele>235.8</ele>
    <time>2014-02-14T07:06:11Z</time>
   </trkpt>
   <trkpt lat="32.8658140" lon="35.2405330">
    <ele>235.9</ele>
    <time>2014-02-14T07:06:12Z</time>
   </trkpt>
   <trkpt lat="32.8658040" lon="35.2405670">
    <ele>236.1</ele>
    <time>2014-02-14T07:06:13Z</time>
   </trkpt>
   <trkpt lat="32.8657840" lon="35.2406170">
    <ele>236.2</ele>
    <time>2014-02-14T07:06:15Z</time>
   </trkpt>
   <trkpt lat="32.8657710" lon="35.2406510">
    <ele>236.3</ele>
    <time>2014-02-14T07:06:17Z</time>
   </trkpt>
   <trkpt lat="32.8657510" lon="35.2406950">
    <ele>236.4</ele>
    <time>2014-02-14T07:06:20Z</time>
   </trkpt>
   <trkpt lat="32.8657430" lon="35.2407460">
    <ele>236.6</ele>
    <time>2014-02-14T07:06:22Z</time>
   </trkpt>
   <trkpt lat="32.8657320" lon="35.2407870">
    <ele>236.8</ele>
    <time>2014-02-14T07:06:24Z</time>
   </trkpt>
   <trkpt lat="32.8657180" lon="35.2408290">
    <ele>236.9</ele>
    <time>2014-02-14T07:06:26Z</time>
   </trkpt>
   <trkpt lat="32.8657040" lon="35.2408660">
    <ele>237.0</ele>
    <time>2014-02-14T07:06:28Z</time>
   </trkpt>
   <trkpt lat="32.8656890" lon="35.2409080">
    <ele>237.2</ele>
    <time>2014-02-14T07:06:30Z</time>
   </trkpt>
   <trkpt lat="32.8656770" lon="35.2409650">
    <ele>237.4</ele>
    <time>2014-02-14T07:06:32Z</time>
   </trkpt>
   <trkpt lat="32.8656630" lon="35.2410230">
    <ele>237.7</ele>
    <time>2014-02-14T07:06:34Z</time>
   </trkpt>
   <trkpt lat="32.8656400" lon="35.2410750">
    <ele>237.9</ele>
    <time>2014-02-14T07:06:36Z</time>
   </trkpt>
   <trkpt lat="32.8656290" lon="35.2411060">
    <ele>238.0</ele>
    <time>2014-02-14T07:06:37Z</time>
   </trkpt>
   <trkpt lat="32.8656190" lon="35.2411380">
    <ele>238.1</ele>
    <time>2014-02-14T07:06:38Z</time>
   </trkpt>
   <trkpt lat="32.8656120" lon="35.2411810">
    <ele>238.3</ele>
    <time>2014-02-14T07:06:39Z</time>
   </trkpt>
   <trkpt lat="32.8656090" lon="35.2412300">
    <ele>238.6</ele>
    <time>2014-02-14T07:06:40Z</time>
   </trkpt>
   <trkpt lat="32.8656040" lon="35.2412710">
    <ele>238.8</ele>
    <time>2014-02-14T07:06:41Z</time>
   </trkpt>
   <trkpt lat="32.8655930" lon="35.2413060">
    <ele>238.9</ele>
    <time>2014-02-14T07:06:42Z</time>
   </trkpt>
   <trkpt lat="32.8655780" lon="35.2413370">
    <ele>239.0</ele>
    <time>2014-02-14T07:06:43Z</time>
   </trkpt>
   <trkpt lat="32.8655520" lon="35.2413810">
    <ele>239.1</ele>
    <time>2014-02-14T07:06:45Z</time>
   </trkpt>
   <trkpt lat="32.8655270" lon="35.2414320">
    <ele>239.3</ele>
    <time>2014-02-14T07:06:47Z</time>
   </trkpt>
   <trkpt lat="32.8655080" lon="35.2414820">
    <ele>239.5</ele>
    <time>2014-02-14T07:06:49Z</time>
   </trkpt>
   <trkpt lat="32.8654840" lon="35.2415300">
    <ele>239.6</ele>
    <time>2014-02-14T07:06:51Z</time>
   </trkpt>
   <trkpt lat="32.8654500" lon="35.2415730">
    <ele>239.7</ele>
    <time>2014-02-14T07:06:53Z</time>
   </trkpt>
   <trkpt lat="32.8654210" lon="35.2416180">
    <ele>239.8</ele>
    <time>2014-02-14T07:06:55Z</time>
   </trkpt>
   <trkpt lat="32.8653990" lon="35.2416670">
    <ele>239.8</ele>
    <time>2014-02-14T07:06:57Z</time>
   </trkpt>
   <trkpt lat="32.8653680" lon="35.2417110">
    <ele>239.8</ele>
    <time>2014-02-14T07:06:59Z</time>
   </trkpt>
   <trkpt lat="32.8653340" lon="35.2417450">
    <ele>239.6</ele>
    <time>2014-02-14T07:07:01Z</time>
   </trkpt>
   <trkpt lat="32.8653070" lon="35.2417830">
    <ele>239.6</ele>
    <time>2014-02-14T07:07:03Z</time>
   </trkpt>
   <trkpt lat="32.8652900" lon="35.2418260">
    <ele>239.7</ele>
    <time>2014-02-14T07:07:05Z</time>
   </trkpt>
   <trkpt lat="32.8652800" lon="35.2418710">
    <ele>239.9</ele>
    <time>2014-02-14T07:07:07Z</time>
   </trkpt>
   <trkpt lat="32.8652620" lon="35.2419120">
    <ele>240.0</ele>
    <time>2014-02-14T07:07:09Z</time>
   </trkpt>
   <trkpt lat="32.8652440" lon="35.2419560">
    <ele>240.2</ele>
    <time>2014-02-14T07:07:11Z</time>
   </trkpt>
   <trkpt lat="32.8652190" lon="35.2419940">
    <ele>240.2</ele>
    <time>2014-02-14T07:07:13Z</time>
   </trkpt>
   <trkpt lat="32.8652010" lon="35.2420300">
    <ele>240.4</ele>
    <time>2014-02-14T07:07:15Z</time>
   </trkpt>
   <trkpt lat="32.8652010" lon="35.2420820">
    <ele>240.7</ele>
    <time>2014-02-14T07:07:17Z</time>
   </trkpt>
   <trkpt lat="32.8652030" lon="35.2421350">
    <ele>241.3</ele>
    <time>2014-02-14T07:07:19Z</time>
   </trkpt>
   <trkpt lat="32.8651990" lon="35.2421900">
    <ele>241.8</ele>
    <time>2014-02-14T07:07:21Z</time>
   </trkpt>
   <trkpt lat="32.8651950" lon="35.2422430">
    <ele>242.4</ele>
    <time>2014-02-14T07:07:23Z</time>
   </trkpt>
   <trkpt lat="32.8651910" lon="35.2422890">
    <ele>242.9</ele>
    <time>2014-02-14T07:07:25Z</time>
   </trkpt>
   <trkpt lat="32.8651870" lon="35.2423350">
    <ele>243.3</ele>
    <time>2014-02-14T07:07:27Z</time>
   </trkpt>
   <trkpt lat="32.8651890" lon="35.2423730">
    <ele>243.8</ele>
    <time>2014-02-14T07:07:29Z</time>
   </trkpt>
   <trkpt lat="32.8652020" lon="35.2424150">
    <ele>244.3</ele>
    <time>2014-02-14T07:07:32Z</time>
   </trkpt>
   <trkpt lat="32.8652030" lon="35.2424510">
    <ele>244.7</ele>
    <time>2014-02-14T07:07:34Z</time>
   </trkpt>
   <trkpt lat="32.8652030" lon="35.2425120">
    <ele>245.3</ele>
    <time>2014-02-14T07:07:36Z</time>
   </trkpt>
   <trkpt lat="32.8652080" lon="35.2425700">
    <ele>246.0</ele>
    <time>2014-02-14T07:07:38Z</time>
   </trkpt>
   <trkpt lat="32.8652180" lon="35.2426230">
    <ele>246.6</ele>
    <time>2014-02-14T07:07:40Z</time>
   </trkpt>
   <trkpt lat="32.8652250" lon="35.2426650">
    <ele>247.1</ele>
    <time>2014-02-14T07:07:42Z</time>
   </trkpt>
   <trkpt lat="32.8652370" lon="35.2427010">
    <ele>247.6</ele>
    <time>2014-02-14T07:07:44Z</time>
   </trkpt>
   <trkpt lat="32.8652500" lon="35.2427390">
    <ele>248.1</ele>
    <time>2014-02-14T07:07:46Z</time>
   </trkpt>
   <trkpt lat="32.8652440" lon="35.2427760">
    <ele>248.4</ele>
    <time>2014-02-14T07:07:48Z</time>
   </trkpt>
   <trkpt lat="32.8652350" lon="35.2428180">
    <ele>248.8</ele>
    <time>2014-02-14T07:07:50Z</time>
   </trkpt>
   <trkpt lat="32.8652500" lon="35.2428660">
    <ele>249.5</ele>
    <time>2014-02-14T07:07:52Z</time>
   </trkpt>
   <trkpt lat="32.8652660" lon="35.2429070">
    <ele>250.0</ele>
    <time>2014-02-14T07:07:54Z</time>
   </trkpt>
   <trkpt lat="32.8652910" lon="35.2429540">
    <ele>250.6</ele>
    <time>2014-02-14T07:07:56Z</time>
   </trkpt>
   <trkpt lat="32.8653260" lon="35.2430040">
    <ele>251.2</ele>
    <time>2014-02-14T07:07:58Z</time>
   </trkpt>
   <trkpt lat="32.8653550" lon="35.2430600">
    <ele>251.9</ele>
    <time>2014-02-14T07:08:00Z</time>
   </trkpt>
   <trkpt lat="32.8653690" lon="35.2430880">
    <ele>252.3</ele>
    <time>2014-02-14T07:08:01Z</time>
   </trkpt>
   <trkpt lat="32.8653930" lon="35.2431410">
    <ele>253.0</ele>
    <time>2014-02-14T07:08:03Z</time>
   </trkpt>
   <trkpt lat="32.8654050" lon="35.2431960">
    <ele>253.6</ele>
    <time>2014-02-14T07:08:05Z</time>
   </trkpt>
   <trkpt lat="32.8654080" lon="35.2432270">
    <ele>253.9</ele>
    <time>2014-02-14T07:08:06Z</time>
   </trkpt>
   <trkpt lat="32.8654130" lon="35.2432610">
    <ele>254.3</ele>
    <time>2014-02-14T07:08:07Z</time>
   </trkpt>
   <trkpt lat="32.8654190" lon="35.2432960">
    <ele>254.6</ele>
    <time>2014-02-14T07:08:08Z</time>
   </trkpt>
   <trkpt lat="32.8654340" lon="35.2433410">
    <ele>255.0</ele>
    <time>2014-02-14T07:08:09Z</time>
   </trkpt>
   <trkpt lat="32.8654540" lon="35.2433880">
    <ele>255.3</ele>
    <time>2014-02-14T07:08:10Z</time>
   </trkpt>
   <trkpt lat="32.8654740" lon="35.2434330">
    <ele>255.6</ele>
    <time>2014-02-14T07:08:11Z</time>
   </trkpt>
   <trkpt lat="32.8654920" lon="35.2434720">
    <ele>255.9</ele>
    <time>2014-02-14T07:08:12Z</time>
   </trkpt>
   <trkpt lat="32.8655100" lon="35.2435140">
    <ele>256.2</ele>
    <time>2014-02-14T07:08:13Z</time>
   </trkpt>
   <trkpt lat="32.8655260" lon="35.2435570">
    <ele>256.5</ele>
    <time>2014-02-14T07:08:14Z</time>
   </trkpt>
   <trkpt lat="32.8655410" lon="35.2436030">
    <ele>256.8</ele>
    <time>2014-02-14T07:08:15Z</time>
   </trkpt>
   <trkpt lat="32.8655560" lon="35.2436530">
    <ele>257.1</ele>
    <time>2014-02-14T07:08:16Z</time>
   </trkpt>
   <trkpt lat="32.8655680" lon="35.2437010">
    <ele>257.5</ele>
    <time>2014-02-14T07:08:17Z</time>
   </trkpt>
   <trkpt lat="32.8655770" lon="35.2437490">
    <ele>257.8</ele>
    <time>2014-02-14T07:08:18Z</time>
   </trkpt>
   <trkpt lat="32.8655920" lon="35.2437970">
    <ele>257.8</ele>
    <time>2014-02-14T07:08:19Z</time>
   </trkpt>
   <trkpt lat="32.8656100" lon="35.2438420">
    <ele>257.7</ele>
    <time>2014-02-14T07:08:20Z</time>
   </trkpt>
   <trkpt lat="32.8656260" lon="35.2438780">
    <ele>257.6</ele>
    <time>2014-02-14T07:08:21Z</time>
   </trkpt>
   <trkpt lat="32.8656350" lon="35.2439100">
    <ele>257.5</ele>
    <time>2014-02-14T07:08:22Z</time>
   </trkpt>
   <trkpt lat="32.8656400" lon="35.2439430">
    <ele>257.5</ele>
    <time>2014-02-14T07:08:23Z</time>
   </trkpt>
   <trkpt lat="32.8656360" lon="35.2439930">
    <ele>257.6</ele>
    <time>2014-02-14T07:08:25Z</time>
   </trkpt>
   <trkpt lat="32.8656180" lon="35.2440520">
    <ele>257.7</ele>
    <time>2014-02-14T07:08:27Z</time>
   </trkpt>
   <trkpt lat="32.8656010" lon="35.2440840">
    <ele>257.8</ele>
    <time>2014-02-14T07:08:28Z</time>
   </trkpt>
   <trkpt lat="32.8655830" lon="35.2441120">
    <ele>257.9</ele>
    <time>2014-02-14T07:08:29Z</time>
   </trkpt>
   <trkpt lat="32.8655630" lon="35.2441690">
    <ele>258.0</ele>
    <time>2014-02-14T07:08:31Z</time>
   </trkpt>
   <trkpt lat="32.8655460" lon="35.2442290">
    <ele>258.0</ele>
    <time>2014-02-14T07:08:33Z</time>
   </trkpt>
   <trkpt lat="32.8655260" lon="35.2442850">
    <ele>258.1</ele>
    <time>2014-02-14T07:08:35Z</time>
   </trkpt>
   <trkpt lat="32.8654960" lon="35.2443360">
    <ele>258.1</ele>
    <time>2014-02-14T07:08:37Z</time>
   </trkpt>
   <trkpt lat="32.8654830" lon="35.2443670">
    <ele>258.1</ele>
    <time>2014-02-14T07:08:38Z</time>
   </trkpt>
   <trkpt lat="32.8654730" lon="35.2443990">
    <ele>258.1</ele>
    <time>2014-02-14T07:08:39Z</time>
   </trkpt>
   <trkpt lat="32.8654630" lon="35.2444410">
    <ele>258.1</ele>
    <time>2014-02-14T07:08:40Z</time>
   </trkpt>
   <trkpt lat="32.8654590" lon="35.2444800">
    <ele>258.1</ele>
    <time>2014-02-14T07:08:41Z</time>
   </trkpt>
   <trkpt lat="32.8654610" lon="35.2445190">
    <ele>258.1</ele>
    <time>2014-02-14T07:08:42Z</time>
   </trkpt>
   <trkpt lat="32.8654670" lon="35.2445600">
    <ele>258.0</ele>
    <time>2014-02-14T07:08:43Z</time>
   </trkpt>
   <trkpt lat="32.8654690" lon="35.2446010">
    <ele>257.9</ele>
    <time>2014-02-14T07:08:44Z</time>
   </trkpt>
   <trkpt lat="32.8654750" lon="35.2446500">
    <ele>257.6</ele>
    <time>2014-02-14T07:08:45Z</time>
   </trkpt>
   <trkpt lat="32.8654880" lon="35.2446970">
    <ele>257.4</ele>
    <time>2014-02-14T07:08:46Z</time>
   </trkpt>
   <trkpt lat="32.8655050" lon="35.2447410">
    <ele>257.2</ele>
    <time>2014-02-14T07:08:47Z</time>
   </trkpt>
   <trkpt lat="32.8655250" lon="35.2447810">
    <ele>257.1</ele>
    <time>2014-02-14T07:08:48Z</time>
   </trkpt>
   <trkpt lat="32.8655430" lon="35.2448190">
    <ele>256.9</ele>
    <time>2014-02-14T07:08:49Z</time>
   </trkpt>
   <trkpt lat="32.8655570" lon="35.2448550">
    <ele>256.8</ele>
    <time>2014-02-14T07:08:50Z</time>
   </trkpt>
   <trkpt lat="32.8655730" lon="35.2448980">
    <ele>256.7</ele>
    <time>2014-02-14T07:08:52Z</time>
   </trkpt>
   <trkpt lat="32.8655900" lon="35.2449320">
    <ele>256.6</ele>
    <time>2014-02-14T07:08:54Z</time>
   </trkpt>
   <trkpt lat="32.8656150" lon="35.2449710">
    <ele>256.6</ele>
    <time>2014-02-14T07:08:56Z</time>
   </trkpt>
   <trkpt lat="32.8656480" lon="35.2450020">
    <ele>256.6</ele>
    <time>2014-02-14T07:08:58Z</time>
   </trkpt>
   <trkpt lat="32.8656870" lon="35.2450160">
    <ele>256.8</ele>
    <time>2014-02-14T07:09:00Z</time>
   </trkpt>
   <trkpt lat="32.8657260" lon="35.2450250">
    <ele>256.9</ele>
    <time>2014-02-14T07:09:02Z</time>
   </trkpt>
   <trkpt lat="32.8657730" lon="35.2450340">
    <ele>257.1</ele>
    <time>2014-02-14T07:09:04Z</time>
   </trkpt>
   <trkpt lat="32.8658200" lon="35.2450540">
    <ele>257.4</ele>
    <time>2014-02-14T07:09:06Z</time>
   </trkpt>
   <trkpt lat="32.8658530" lon="35.2450610">
    <ele>257.5</ele>
    <time>2014-02-14T07:09:07Z</time>
   </trkpt>
   <trkpt lat="32.8658860" lon="35.2450710">
    <ele>257.7</ele>
    <time>2014-02-14T07:09:08Z</time>
   </trkpt>
   <trkpt lat="32.8659200" lon="35.2450810">
    <ele>257.9</ele>
    <time>2014-02-14T07:09:09Z</time>
   </trkpt>
   <trkpt lat="32.8659560" lon="35.2450990">
    <ele>258.1</ele>
    <time>2014-02-14T07:09:11Z</time>
   </trkpt>
   <trkpt lat="32.8659730" lon="35.2451300">
    <ele>258.2</ele>
    <time>2014-02-14T07:09:13Z</time>
   </trkpt>
   <trkpt lat="32.8659950" lon="35.2451660">
    <ele>258.4</ele>
    <time>2014-02-14T07:09:15Z</time>
   </trkpt>
   <trkpt lat="32.8660190" lon="35.2452070">
    <ele>258.6</ele>
    <time>2014-02-14T07:09:17Z</time>
   </trkpt>
   <trkpt lat="32.8660320" lon="35.2452350">
    <ele>258.7</ele>
    <time>2014-02-14T07:09:18Z</time>
   </trkpt>
   <trkpt lat="32.8660470" lon="35.2452660">
    <ele>258.9</ele>
    <time>2014-02-14T07:09:19Z</time>
   </trkpt>
   <trkpt lat="32.8660750" lon="35.2453200">
    <ele>259.2</ele>
    <time>2014-02-14T07:09:21Z</time>
   </trkpt>
   <trkpt lat="32.8661010" lon="35.2453720">
    <ele>259.5</ele>
    <time>2014-02-14T07:09:23Z</time>
   </trkpt>
   <trkpt lat="32.8661230" lon="35.2454150">
    <ele>259.8</ele>
    <time>2014-02-14T07:09:25Z</time>
   </trkpt>
   <trkpt lat="32.8661420" lon="35.2454450">
    <ele>260.0</ele>
    <time>2014-02-14T07:09:27Z</time>
   </trkpt>
   <trkpt lat="32.8661590" lon="35.2454830">
    <ele>260.3</ele>
    <time>2014-02-14T07:09:29Z</time>
   </trkpt>
   <trkpt lat="32.8661700" lon="35.2455230">
    <ele>260.5</ele>
    <time>2014-02-14T07:09:31Z</time>
   </trkpt>
   <trkpt lat="32.8661860" lon="35.2455620">
    <ele>260.8</ele>
    <time>2014-02-14T07:09:33Z</time>
   </trkpt>
   <trkpt lat="32.8662060" lon="35.2456030">
    <ele>261.2</ele>
    <time>2014-02-14T07:09:35Z</time>
   </trkpt>
   <trkpt lat="32.8662230" lon="35.2456470">
    <ele>261.5</ele>
    <time>2014-02-14T07:09:37Z</time>
   </trkpt>
   <trkpt lat="32.8662220" lon="35.2456820">
    <ele>261.6</ele>
    <time>2014-02-14T07:09:39Z</time>
   </trkpt>
   <trkpt lat="32.8662200" lon="35.2457210">
    <ele>261.7</ele>
    <time>2014-02-14T07:09:42Z</time>
   </trkpt>
   <trkpt lat="32.8662360" lon="35.2457530">
    <ele>262.0</ele>
    <time>2014-02-14T07:09:45Z</time>
   </trkpt>
   <trkpt lat="32.8662640" lon="35.2457870">
    <ele>262.3</ele>
    <time>2014-02-14T07:09:48Z</time>
   </trkpt>
   <trkpt lat="32.8662980" lon="35.2457970">
    <ele>262.3</ele>
    <time>2014-02-14T07:09:51Z</time>
   </trkpt>
   <trkpt lat="32.8663260" lon="35.2458100">
    <ele>262.3</ele>
    <time>2014-02-14T07:09:55Z</time>
   </trkpt>
   <trkpt lat="32.8663430" lon="35.2458470">
    <ele>262.4</ele>
    <time>2014-02-14T07:09:58Z</time>
   </trkpt>
   <trkpt lat="32.8663640" lon="35.2458660">
    <ele>262.4</ele>
    <time>2014-02-14T07:10:00Z</time>
   </trkpt>
   <trkpt lat="32.8663790" lon="35.2459030">
    <ele>262.6</ele>
    <time>2014-02-14T07:10:03Z</time>
   </trkpt>
   <trkpt lat="32.8663980" lon="35.2459360">
    <ele>262.8</ele>
    <time>2014-02-14T07:10:05Z</time>
   </trkpt>
   <trkpt lat="32.8664140" lon="35.2459780">
    <ele>263.0</ele>
    <time>2014-02-14T07:10:08Z</time>
   </trkpt>
   <trkpt lat="32.8664430" lon="35.2460120">
    <ele>263.1</ele>
    <time>2014-02-14T07:10:11Z</time>
   </trkpt>
   <trkpt lat="32.8664590" lon="35.2460610">
    <ele>263.4</ele>
    <time>2014-02-14T07:10:13Z</time>
   </trkpt>
   <trkpt lat="32.8664810" lon="35.2461050">
    <ele>263.7</ele>
    <time>2014-02-14T07:10:15Z</time>
   </trkpt>
   <trkpt lat="32.8664990" lon="35.2461500">
    <ele>264.0</ele>
    <time>2014-02-14T07:10:17Z</time>
   </trkpt>
   <trkpt lat="32.8665150" lon="35.2462030">
    <ele>264.3</ele>
    <time>2014-02-14T07:10:19Z</time>
   </trkpt>
   <trkpt lat="32.8665230" lon="35.2462620">
    <ele>264.8</ele>
    <time>2014-02-14T07:10:21Z</time>
   </trkpt>
   <trkpt lat="32.8665300" lon="35.2463110">
    <ele>265.2</ele>
    <time>2014-02-14T07:10:23Z</time>
   </trkpt>
   <trkpt lat="32.8665180" lon="35.2463460">
    <ele>265.4</ele>
    <time>2014-02-14T07:10:26Z</time>
   </trkpt>
   <trkpt lat="32.8665260" lon="35.2463900">
    <ele>265.8</ele>
    <time>2014-02-14T07:10:29Z</time>
   </trkpt>
   <trkpt lat="32.8665350" lon="35.2464250">
    <ele>266.2</ele>
    <time>2014-02-14T07:10:31Z</time>
   </trkpt>
   <trkpt lat="32.8665420" lon="35.2464600">
    <ele>266.5</ele>
    <time>2014-02-14T07:10:33Z</time>
   </trkpt>
   <trkpt lat="32.8665480" lon="35.2464950">
    <ele>266.8</ele>
    <time>2014-02-14T07:10:35Z</time>
   </trkpt>
   <trkpt lat="32.8665520" lon="35.2465290">
    <ele>267.1</ele>
    <time>2014-02-14T07:10:37Z</time>
   </trkpt>
   <trkpt lat="32.8665580" lon="35.2465630">
    <ele>267.5</ele>
    <time>2014-02-14T07:10:39Z</time>
   </trkpt>
   <trkpt lat="32.8665680" lon="35.2465970">
    <ele>267.8</ele>
    <time>2014-02-14T07:10:43Z</time>
   </trkpt>
   <trkpt lat="32.8665620" lon="35.2466310">
    <ele>268.1</ele>
    <time>2014-02-14T07:10:46Z</time>
   </trkpt>
   <trkpt lat="32.8665720" lon="35.2466670">
    <ele>268.4</ele>
    <time>2014-02-14T07:10:49Z</time>
   </trkpt>
   <trkpt lat="32.8666010" lon="35.2467120">
    <ele>269.0</ele>
    <time>2014-02-14T07:10:51Z</time>
   </trkpt>
   <trkpt lat="32.8666190" lon="35.2467360">
    <ele>269.4</ele>
    <time>2014-02-14T07:10:52Z</time>
   </trkpt>
   <trkpt lat="32.8666520" lon="35.2467750">
    <ele>269.9</ele>
    <time>2014-02-14T07:10:54Z</time>
   </trkpt>
   <trkpt lat="32.8666760" lon="35.2468130">
    <ele>270.5</ele>
    <time>2014-02-14T07:10:56Z</time>
   </trkpt>
   <trkpt lat="32.8666950" lon="35.2468470">
    <ele>270.9</ele>
    <time>2014-02-14T07:10:58Z</time>
   </trkpt>
   <trkpt lat="32.8667270" lon="35.2468760">
    <ele>271.5</ele>
    <time>2014-02-14T07:11:00Z</time>
   </trkpt>
   <trkpt lat="32.8667530" lon="35.2468870">
    <ele>271.8</ele>
    <time>2014-02-14T07:11:01Z</time>
   </trkpt>
   <trkpt lat="32.8667910" lon="35.2468950">
    <ele>272.2</ele>
    <time>2014-02-14T07:11:03Z</time>
   </trkpt>
   <trkpt lat="32.8668220" lon="35.2468970">
    <ele>272.5</ele>
    <time>2014-02-14T07:11:05Z</time>
   </trkpt>
   <trkpt lat="32.8668610" lon="35.2469020">
    <ele>272.8</ele>
    <time>2014-02-14T07:11:08Z</time>
   </trkpt>
   <trkpt lat="32.8668780" lon="35.2469310">
    <ele>273.3</ele>
    <time>2014-02-14T07:11:10Z</time>
   </trkpt>
   <trkpt lat="32.8668360" lon="35.2469570">
    <ele>273.2</ele>
    <time>2014-02-14T07:11:14Z</time>
   </trkpt>
   <trkpt lat="32.8667960" lon="35.2469680">
    <ele>273.0</ele>
    <time>2014-02-14T07:11:16Z</time>
   </trkpt>
   <trkpt lat="32.8667800" lon="35.2470140">
    <ele>273.4</ele>
    <time>2014-02-14T07:11:18Z</time>
   </trkpt>
   <trkpt lat="32.8667760" lon="35.2470690">
    <ele>273.9</ele>
    <time>2014-02-14T07:11:20Z</time>
   </trkpt>
   <trkpt lat="32.8667700" lon="35.2471200">
    <ele>274.7</ele>
    <time>2014-02-14T07:11:22Z</time>
   </trkpt>
   <trkpt lat="32.8667760" lon="35.2471590">
    <ele>275.4</ele>
    <time>2014-02-14T07:11:24Z</time>
   </trkpt>
   <trkpt lat="32.8667890" lon="35.2472020">
    <ele>276.3</ele>
    <time>2014-02-14T07:11:26Z</time>
   </trkpt>
   <trkpt lat="32.8667920" lon="35.2472490">
    <ele>277.2</ele>
    <time>2014-02-14T07:11:28Z</time>
   </trkpt>
   <trkpt lat="32.8667900" lon="35.2473060">
    <ele>278.2</ele>
    <time>2014-02-14T07:11:30Z</time>
   </trkpt>
   <trkpt lat="32.8667930" lon="35.2473500">
    <ele>279.0</ele>
    <time>2014-02-14T07:11:32Z</time>
   </trkpt>
   <trkpt lat="32.8667860" lon="35.2474060">
    <ele>280.0</ele>
    <time>2014-02-14T07:11:34Z</time>
   </trkpt>
   <trkpt lat="32.8667790" lon="35.2474530">
    <ele>280.7</ele>
    <time>2014-02-14T07:11:36Z</time>
   </trkpt>
   <trkpt lat="32.8667780" lon="35.2474980">
    <ele>281.5</ele>
    <time>2014-02-14T07:11:38Z</time>
   </trkpt>
   <trkpt lat="32.8667780" lon="35.2475390">
    <ele>282.3</ele>
    <time>2014-02-14T07:11:40Z</time>
   </trkpt>
   <trkpt lat="32.8667540" lon="35.2475670">
    <ele>282.5</ele>
    <time>2014-02-14T07:11:43Z</time>
   </trkpt>
   <trkpt lat="32.8667350" lon="35.2475910">
    <ele>282.8</ele>
    <time>2014-02-14T07:11:45Z</time>
   </trkpt>
   <trkpt lat="32.8667080" lon="35.2476180">
    <ele>283.0</ele>
    <time>2014-02-14T07:11:47Z</time>
   </trkpt>
   <trkpt lat="32.8666870" lon="35.2476400">
    <ele>283.2</ele>
    <time>2014-02-14T07:11:49Z</time>
   </trkpt>
   <trkpt lat="32.8666710" lon="35.2476680">
    <ele>283.6</ele>
    <time>2014-02-14T07:12:23Z</time>
   </trkpt>
   <trkpt lat="32.8666590" lon="35.2477270">
    <ele>284.5</ele>
    <time>2014-02-14T07:12:25Z</time>
   </trkpt>
   <trkpt lat="32.8666590" lon="35.2477600">
    <ele>285.1</ele>
    <time>2014-02-14T07:12:26Z</time>
   </trkpt>
   <trkpt lat="32.8666660" lon="35.2478200">
    <ele>286.3</ele>
    <time>2014-02-14T07:12:28Z</time>
   </trkpt>
   <trkpt lat="32.8666620" lon="35.2478640">
    <ele>287.0</ele>
    <time>2014-02-14T07:12:30Z</time>
   </trkpt>
   <trkpt lat="32.8666530" lon="35.2478970">
    <ele>287.5</ele>
    <time>2014-02-14T07:12:32Z</time>
   </trkpt>
   <trkpt lat="32.8666390" lon="35.2479350">
    <ele>288.1</ele>
    <time>2014-02-14T07:12:34Z</time>
   </trkpt>
   <trkpt lat="32.8666220" lon="35.2479760">
    <ele>288.7</ele>
    <time>2014-02-14T07:12:36Z</time>
   </trkpt>
   <trkpt lat="32.8665960" lon="35.2480180">
    <ele>289.3</ele>
    <time>2014-02-14T07:12:38Z</time>
   </trkpt>
   <trkpt lat="32.8665730" lon="35.2480530">
    <ele>289.8</ele>
    <time>2014-02-14T07:12:40Z</time>
   </trkpt>
   <trkpt lat="32.8665370" lon="35.2480560">
    <ele>289.5</ele>
    <time>2014-02-14T07:12:42Z</time>
   </trkpt>
   <trkpt lat="32.8665270" lon="35.2480450">
    <ele>289.2</ele>
    <time>2014-02-14T07:12:44Z</time>
   </trkpt>
   <trkpt lat="32.8665170" lon="35.2480330">
    <ele>288.9</ele>
    <time>2014-02-14T07:12:46Z</time>
   </trkpt>
   <trkpt lat="32.8665060" lon="35.2480220">
    <ele>288.6</ele>
    <time>2014-02-14T07:15:33Z</time>
   </trkpt>
   <trkpt lat="32.8664920" lon="35.2480050">
    <ele>288.1</ele>
    <time>2014-02-14T07:15:34Z</time>
   </trkpt>
   <trkpt lat="32.8664940" lon="35.2479560">
    <ele>287.1</ele>
    <time>2014-02-14T07:15:35Z</time>
   </trkpt>
   <trkpt lat="32.8664930" lon="35.2479090">
    <ele>286.2</ele>
    <time>2014-02-14T07:15:36Z</time>
   </trkpt>
   <trkpt lat="32.8664870" lon="35.2478630">
    <ele>285.3</ele>
    <time>2014-02-14T07:15:37Z</time>
   </trkpt>
   <trkpt lat="32.8664810" lon="35.2478130">
    <ele>284.4</ele>
    <time>2014-02-14T07:15:38Z</time>
   </trkpt>
   <trkpt lat="32.8664760" lon="35.2477560">
    <ele>283.3</ele>
    <time>2014-02-14T07:15:39Z</time>
   </trkpt>
   <trkpt lat="32.8664810" lon="35.2476910">
    <ele>282.2</ele>
    <time>2014-02-14T07:15:40Z</time>
   </trkpt>
   <trkpt lat="32.8665350" lon="35.2475620">
    <ele>280.4</ele>
    <time>2014-02-14T07:15:41Z</time>
   </trkpt>
   <trkpt lat="32.8665370" lon="35.2474870">
    <ele>279.0</ele>
    <time>2014-02-14T07:15:42Z</time>
   </trkpt>
   <trkpt lat="32.8665480" lon="35.2474190">
    <ele>277.9</ele>
    <time>2014-02-14T07:15:43Z</time>
   </trkpt>
   <trkpt lat="32.8665620" lon="35.2473460">
    <ele>276.7</ele>
    <time>2014-02-14T07:15:44Z</time>
   </trkpt>
   <trkpt lat="32.8665980" lon="35.2472890">
    <ele>276.0</ele>
    <time>2014-02-14T07:15:46Z</time>
   </trkpt>
   <trkpt lat="32.8666210" lon="35.2471890">
    <ele>274.5</ele>
    <time>2014-02-14T07:15:47Z</time>
   </trkpt>
   <trkpt lat="32.8666190" lon="35.2471470">
    <ele>273.7</ele>
    <time>2014-02-14T07:15:48Z</time>
   </trkpt>
   <trkpt lat="32.8666170" lon="35.2470580">
    <ele>272.3</ele>
    <time>2014-02-14T07:15:49Z</time>
   </trkpt>
   <trkpt lat="32.8666310" lon="35.2469960">
    <ele>271.8</ele>
    <time>2014-02-14T07:15:50Z</time>
   </trkpt>
   <trkpt lat="32.8666290" lon="35.2469400">
    <ele>271.3</ele>
    <time>2014-02-14T07:15:51Z</time>
   </trkpt>
   <trkpt lat="32.8666250" lon="35.2468800">
    <ele>270.7</ele>
    <time>2014-02-14T07:15:52Z</time>
   </trkpt>
   <trkpt lat="32.8665990" lon="35.2468290">
    <ele>270.1</ele>
    <time>2014-02-14T07:15:53Z</time>
   </trkpt>
   <trkpt lat="32.8665930" lon="35.2467480">
    <ele>269.3</ele>
    <time>2014-02-14T07:15:54Z</time>
   </trkpt>
   <trkpt lat="32.8665820" lon="35.2466940">
    <ele>268.7</ele>
    <time>2014-02-14T07:15:55Z</time>
   </trkpt>
   <trkpt lat="32.8665660" lon="35.2466420">
    <ele>268.2</ele>
    <time>2014-02-14T07:15:56Z</time>
   </trkpt>
   <trkpt lat="32.8665610" lon="35.2466050">
    <ele>267.8</ele>
    <time>2014-02-14T07:15:57Z</time>
   </trkpt>
   <trkpt lat="32.8665230" lon="35.2465160">
    <ele>266.9</ele>
    <time>2014-02-14T07:15:58Z</time>
   </trkpt>
   <trkpt lat="32.8664750" lon="35.2464610">
    <ele>266.2</ele>
    <time>2014-02-14T07:15:59Z</time>
   </trkpt>
   <trkpt lat="32.8664020" lon="35.2464160">
    <ele>265.6</ele>
    <time>2014-02-14T07:16:00Z</time>
   </trkpt>
   <trkpt lat="32.8663690" lon="35.2464080">
    <ele>265.4</ele>
    <time>2014-02-14T07:16:01Z</time>
   </trkpt>
   <trkpt lat="32.8663240" lon="35.2463850">
    <ele>265.1</ele>
    <time>2014-02-14T07:16:02Z</time>
   </trkpt>
   <trkpt lat="32.8662760" lon="35.2463580">
    <ele>264.7</ele>
    <time>2014-02-14T07:16:03Z</time>
   </trkpt>
   <trkpt lat="32.8662410" lon="35.2462930">
    <ele>264.1</ele>
    <time>2014-02-14T07:16:04Z</time>
   </trkpt>
   <trkpt lat="32.8662480" lon="35.2462380">
    <ele>263.9</ele>
    <time>2014-02-14T07:16:05Z</time>
   </trkpt>
   <trkpt lat="32.8662290" lon="35.2461710">
    <ele>263.4</ele>
    <time>2014-02-14T07:16:06Z</time>
   </trkpt>
   <trkpt lat="32.8662060" lon="35.2461150">
    <ele>262.8</ele>
    <time>2014-02-14T07:16:07Z</time>
   </trkpt>
   <trkpt lat="32.8661770" lon="35.2460490">
    <ele>262.2</ele>
    <time>2014-02-14T07:16:08Z</time>
   </trkpt>
   <trkpt lat="32.8661770" lon="35.2459930">
    <ele>262.0</ele>
    <time>2014-02-14T07:16:09Z</time>
   </trkpt>
   <trkpt lat="32.8661360" lon="35.2459170">
    <ele>261.2</ele>
    <time>2014-02-14T07:16:10Z</time>
   </trkpt>
   <trkpt lat="32.8661300" lon="35.2458550">
    <ele>261.0</ele>
    <time>2014-02-14T07:16:11Z</time>
   </trkpt>
   <trkpt lat="32.8661050" lon="35.2458080">
    <ele>260.5</ele>
    <time>2014-02-14T07:16:12Z</time>
   </trkpt>
   <trkpt lat="32.8661270" lon="35.2457690">
    <ele>260.7</ele>
    <time>2014-02-14T07:16:13Z</time>
   </trkpt>
   <trkpt lat="32.8661400" lon="35.2457350">
    <ele>260.8</ele>
    <time>2014-02-14T07:16:14Z</time>
   </trkpt>
   <trkpt lat="32.8661500" lon="35.2456960">
    <ele>260.8</ele>
    <time>2014-02-14T07:16:15Z</time>
   </trkpt>
   <trkpt lat="32.8661520" lon="35.2456530">
    <ele>260.7</ele>
    <time>2014-02-14T07:16:16Z</time>
   </trkpt>
   <trkpt lat="32.8661460" lon="35.2456150">
    <ele>260.5</ele>
    <time>2014-02-14T07:16:17Z</time>
   </trkpt>
   <trkpt lat="32.8661160" lon="35.2455800">
    <ele>260.1</ele>
    <time>2014-02-14T07:16:18Z</time>
   </trkpt>
   <trkpt lat="32.8660910" lon="35.2455250">
    <ele>259.7</ele>
    <time>2014-02-14T07:16:19Z</time>
   </trkpt>
   <trkpt lat="32.8660610" lon="35.2454910">
    <ele>259.3</ele>
    <time>2014-02-14T07:16:20Z</time>
   </trkpt>
   <trkpt lat="32.8660370" lon="35.2454490">
    <ele>259.0</ele>
    <time>2014-02-14T07:16:21Z</time>
   </trkpt>
   <trkpt lat="32.8659500" lon="35.2454150">
    <ele>258.1</ele>
    <time>2014-02-14T07:16:22Z</time>
   </trkpt>
   <trkpt lat="32.8658860" lon="35.2453910">
    <ele>257.5</ele>
    <time>2014-02-14T07:16:23Z</time>
   </trkpt>
   <trkpt lat="32.8658110" lon="35.2453730">
    <ele>256.8</ele>
    <time>2014-02-14T07:16:24Z</time>
   </trkpt>
   <trkpt lat="32.8657550" lon="35.2453380">
    <ele>256.4</ele>
    <time>2014-02-14T07:16:25Z</time>
   </trkpt>
   <trkpt lat="32.8657090" lon="35.2453110">
    <ele>256.1</ele>
    <time>2014-02-14T07:16:26Z</time>
   </trkpt>
   <trkpt lat="32.8656820" lon="35.2452720">
    <ele>256.0</ele>
    <time>2014-02-14T07:16:27Z</time>
   </trkpt>
   <trkpt lat="32.8656800" lon="35.2452210">
    <ele>256.1</ele>
    <time>2014-02-14T07:16:28Z</time>
   </trkpt>
   <trkpt lat="32.8656540" lon="35.2451680">
    <ele>256.1</ele>
    <time>2014-02-14T07:16:30Z</time>
   </trkpt>
   <trkpt lat="32.8656290" lon="35.2451110">
    <ele>256.1</ele>
    <time>2014-02-14T07:16:32Z</time>
   </trkpt>
   <trkpt lat="32.8656110" lon="35.2450700">
    <ele>256.2</ele>
    <time>2014-02-14T07:16:33Z</time>
   </trkpt>
   <trkpt lat="32.8655990" lon="35.2450290">
    <ele>256.3</ele>
    <time>2014-02-14T07:16:34Z</time>
   </trkpt>
   <trkpt lat="32.8655730" lon="35.2450000">
    <ele>256.3</ele>
    <time>2014-02-14T07:16:35Z</time>
   </trkpt>
   <trkpt lat="32.8655400" lon="35.2449910">
    <ele>256.1</ele>
    <time>2014-02-14T07:16:36Z</time>
   </trkpt>
   <trkpt lat="32.8655170" lon="35.2449680">
    <ele>256.1</ele>
    <time>2014-02-14T07:16:37Z</time>
   </trkpt>
   <trkpt lat="32.8654920" lon="35.2449410">
    <ele>256.2</ele>
    <time>2014-02-14T07:16:38Z</time>
   </trkpt>
   <trkpt lat="32.8654620" lon="35.2449170">
    <ele>256.2</ele>
    <time>2014-02-14T07:16:39Z</time>
   </trkpt>
   <trkpt lat="32.8654340" lon="35.2448930">
    <ele>256.2</ele>
    <time>2014-02-14T07:16:40Z</time>
   </trkpt>
   <trkpt lat="32.8654070" lon="35.2448690">
    <ele>256.1</ele>
    <time>2014-02-14T07:16:41Z</time>
   </trkpt>
   <trkpt lat="32.8653800" lon="35.2448430">
    <ele>255.6</ele>
    <time>2014-02-14T07:16:42Z</time>
   </trkpt>
   <trkpt lat="32.8653500" lon="35.2448180">
    <ele>255.1</ele>
    <time>2014-02-14T07:16:43Z</time>
   </trkpt>
   <trkpt lat="32.8653110" lon="35.2447920">
    <ele>254.4</ele>
    <time>2014-02-14T07:16:44Z</time>
   </trkpt>
   <trkpt lat="32.8652710" lon="35.2447670">
    <ele>253.6</ele>
    <time>2014-02-14T07:16:45Z</time>
   </trkpt>
   <trkpt lat="32.8652390" lon="35.2447370">
    <ele>253.1</ele>
    <time>2014-02-14T07:16:46Z</time>
   </trkpt>
   <trkpt lat="32.8652140" lon="35.2447020">
    <ele>252.7</ele>
    <time>2014-02-14T07:16:47Z</time>
   </trkpt>
   <trkpt lat="32.8651920" lon="35.2446660">
    <ele>252.4</ele>
    <time>2014-02-14T07:16:48Z</time>
   </trkpt>
   <trkpt lat="32.8651740" lon="35.2446360">
    <ele>252.2</ele>
    <time>2014-02-14T07:16:49Z</time>
   </trkpt>
   <trkpt lat="32.8651530" lon="35.2446100">
    <ele>251.8</ele>
    <time>2014-02-14T07:16:50Z</time>
   </trkpt>
   <trkpt lat="32.8651300" lon="35.2445860">
    <ele>251.4</ele>
    <time>2014-02-14T07:16:51Z</time>
   </trkpt>
   <trkpt lat="32.8651060" lon="35.2445640">
    <ele>251.0</ele>
    <time>2014-02-14T07:16:52Z</time>
   </trkpt>
   <trkpt lat="32.8650890" lon="35.2445010">
    <ele>250.9</ele>
    <time>2014-02-14T07:16:54Z</time>
   </trkpt>
   <trkpt lat="32.8651000" lon="35.2444700">
    <ele>251.3</ele>
    <time>2014-02-14T07:16:55Z</time>
   </trkpt>
   <trkpt lat="32.8651140" lon="35.2444400">
    <ele>251.7</ele>
    <time>2014-02-14T07:16:56Z</time>
   </trkpt>
   <trkpt lat="32.8651400" lon="35.2444140">
    <ele>252.4</ele>
    <time>2014-02-14T07:16:57Z</time>
   </trkpt>
   <trkpt lat="32.8651690" lon="35.2443900">
    <ele>253.1</ele>
    <time>2014-02-14T07:16:58Z</time>
   </trkpt>
   <trkpt lat="32.8651940" lon="35.2443690">
    <ele>253.7</ele>
    <time>2014-02-14T07:16:59Z</time>
   </trkpt>
   <trkpt lat="32.8652270" lon="35.2443210">
    <ele>254.5</ele>
    <time>2014-02-14T07:17:01Z</time>
   </trkpt>
   <trkpt lat="32.8652310" lon="35.2442670">
    <ele>254.7</ele>
    <time>2014-02-14T07:17:03Z</time>
   </trkpt>
   <trkpt lat="32.8652120" lon="35.2442110">
    <ele>254.5</ele>
    <time>2014-02-14T07:17:05Z</time>
   </trkpt>
   <trkpt lat="32.8651970" lon="35.2441580">
    <ele>254.4</ele>
    <time>2014-02-14T07:17:07Z</time>
   </trkpt>
   <trkpt lat="32.8651940" lon="35.2441020">
    <ele>254.6</ele>
    <time>2014-02-14T07:17:09Z</time>
   </trkpt>
   <trkpt lat="32.8651980" lon="35.2440440">
    <ele>254.9</ele>
    <time>2014-02-14T07:17:11Z</time>
   </trkpt>
   <trkpt lat="32.8652060" lon="35.2439840">
    <ele>255.2</ele>
    <time>2014-02-14T07:17:13Z</time>
   </trkpt>
   <trkpt lat="32.8652110" lon="35.2439250">
    <ele>255.5</ele>
    <time>2014-02-14T07:17:15Z</time>
   </trkpt>
   <trkpt lat="32.8652040" lon="35.2438920">
    <ele>255.5</ele>
    <time>2014-02-14T07:17:16Z</time>
   </trkpt>
   <trkpt lat="32.8651930" lon="35.2438590">
    <ele>255.4</ele>
    <time>2014-02-14T07:17:17Z</time>
   </trkpt>
   <trkpt lat="32.8651820" lon="35.2438210">
    <ele>255.4</ele>
    <time>2014-02-14T07:17:18Z</time>
   </trkpt>
   <trkpt lat="32.8651730" lon="35.2437870">
    <ele>255.4</ele>
    <time>2014-02-14T07:17:19Z</time>
   </trkpt>
   <trkpt lat="32.8651650" lon="35.2437540">
    <ele>255.4</ele>
    <time>2014-02-14T07:17:20Z</time>
   </trkpt>
   <trkpt lat="32.8651750" lon="35.2436870">
    <ele>255.1</ele>
    <time>2014-02-14T07:17:22Z</time>
   </trkpt>
   <trkpt lat="32.8651990" lon="35.2436610">
    <ele>255.2</ele>
    <time>2014-02-14T07:17:23Z</time>
   </trkpt>
   <trkpt lat="32.8652280" lon="35.2436480">
    <ele>255.5</ele>
    <time>2014-02-14T07:17:24Z</time>
   </trkpt>
   <trkpt lat="32.8652560" lon="35.2436400">
    <ele>255.8</ele>
    <time>2014-02-14T07:17:25Z</time>
   </trkpt>
   <trkpt lat="32.8653030" lon="35.2436070">
    <ele>256.2</ele>
    <time>2014-02-14T07:17:27Z</time>
   </trkpt>
   <trkpt lat="32.8653190" lon="35.2435760">
    <ele>256.1</ele>
    <time>2014-02-14T07:17:28Z</time>
   </trkpt>
   <trkpt lat="32.8653310" lon="35.2435390">
    <ele>255.9</ele>
    <time>2014-02-14T07:17:29Z</time>
   </trkpt>
   <trkpt lat="32.8653420" lon="35.2434980">
    <ele>255.7</ele>
    <time>2014-02-14T07:17:30Z</time>
   </trkpt>
   <trkpt lat="32.8653470" lon="35.2434540">
    <ele>255.4</ele>
    <time>2014-02-14T07:17:31Z</time>
   </trkpt>
   <trkpt lat="32.8653420" lon="35.2434120">
    <ele>254.9</ele>
    <time>2014-02-14T07:17:32Z</time>
   </trkpt>
   <trkpt lat="32.8653300" lon="35.2433660">
    <ele>254.4</ele>
    <time>2014-02-14T07:17:33Z</time>
   </trkpt>
   <trkpt lat="32.8653020" lon="35.2433250">
    <ele>253.8</ele>
    <time>2014-02-14T07:17:34Z</time>
   </trkpt>
   <trkpt lat="32.8652690" lon="35.2432830">
    <ele>253.1</ele>
    <time>2014-02-14T07:17:35Z</time>
   </trkpt>
   <trkpt lat="32.8652290" lon="35.2432570">
    <ele>252.5</ele>
    <time>2014-02-14T07:17:36Z</time>
   </trkpt>
   <trkpt lat="32.8651910" lon="35.2432390">
    <ele>252.0</ele>
    <time>2014-02-14T07:17:37Z</time>
   </trkpt>
   <trkpt lat="32.8651590" lon="35.2432180">
    <ele>251.6</ele>
    <time>2014-02-14T07:17:38Z</time>
   </trkpt>
   <trkpt lat="32.8651330" lon="35.2431980">
    <ele>251.2</ele>
    <time>2014-02-14T07:17:39Z</time>
   </trkpt>
   <trkpt lat="32.8651070" lon="35.2431810">
    <ele>250.9</ele>
    <time>2014-02-14T07:17:40Z</time>
   </trkpt>
   <trkpt lat="32.8650640" lon="35.2431610">
    <ele>250.4</ele>
    <time>2014-02-14T07:17:42Z</time>
   </trkpt>
   <trkpt lat="32.8650490" lon="35.2431310">
    <ele>250.1</ele>
    <time>2014-02-14T07:17:44Z</time>
   </trkpt>
   <trkpt lat="32.8650290" lon="35.2430930">
    <ele>249.7</ele>
    <time>2014-02-14T07:17:46Z</time>
   </trkpt>
   <trkpt lat="32.8650080" lon="35.2430580">
    <ele>249.3</ele>
    <time>2014-02-14T07:17:48Z</time>
   </trkpt>
   <trkpt lat="32.8650100" lon="35.2430260">
    <ele>249.2</ele>
    <time>2014-02-14T07:17:51Z</time>
   </trkpt>
   <trkpt lat="32.8650060" lon="35.2429710">
    <ele>248.8</ele>
    <time>2014-02-14T07:18:10Z</time>
   </trkpt>
   <trkpt lat="32.8649880" lon="35.2429440">
    <ele>248.6</ele>
    <time>2014-02-14T07:18:11Z</time>
   </trkpt>
   <trkpt lat="32.8649630" lon="35.2429020">
    <ele>248.1</ele>
    <time>2014-02-14T07:18:12Z</time>
   </trkpt>
   <trkpt lat="32.8649400" lon="35.2428710">
    <ele>247.6</ele>
    <time>2014-02-14T07:18:13Z</time>
   </trkpt>
   <trkpt lat="32.8649230" lon="35.2428420">
    <ele>247.2</ele>
    <time>2014-02-14T07:18:14Z</time>
   </trkpt>
   <trkpt lat="32.8649160" lon="35.2428100">
    <ele>246.8</ele>
    <time>2014-02-14T07:18:15Z</time>
   </trkpt>
   <trkpt lat="32.8649160" lon="35.2427760">
    <ele>246.5</ele>
    <time>2014-02-14T07:18:16Z</time>
   </trkpt>
   <trkpt lat="32.8649180" lon="35.2427390">
    <ele>246.1</ele>
    <time>2014-02-14T07:18:17Z</time>
   </trkpt>
   <trkpt lat="32.8649230" lon="35.2426980">
    <ele>245.7</ele>
    <time>2014-02-14T07:18:18Z</time>
   </trkpt>
   <trkpt lat="32.8649290" lon="35.2426530">
    <ele>245.2</ele>
    <time>2014-02-14T07:18:19Z</time>
   </trkpt>
   <trkpt lat="32.8649380" lon="35.2425990">
    <ele>244.7</ele>
    <time>2014-02-14T07:18:20Z</time>
   </trkpt>
   <trkpt lat="32.8649500" lon="35.2425510">
    <ele>244.3</ele>
    <time>2014-02-14T07:18:21Z</time>
   </trkpt>
   <trkpt lat="32.8649630" lon="35.2425040">
    <ele>243.8</ele>
    <time>2014-02-14T07:18:22Z</time>
   </trkpt>
   <trkpt lat="32.8649760" lon="35.2424630">
    <ele>243.5</ele>
    <time>2014-02-14T07:18:23Z</time>
   </trkpt>
   <trkpt lat="32.8649830" lon="35.2424240">
    <ele>243.1</ele>
    <time>2014-02-14T07:18:24Z</time>
   </trkpt>
   <trkpt lat="32.8649820" lon="35.2423690">
    <ele>242.5</ele>
    <time>2014-02-14T07:18:26Z</time>
   </trkpt>
   <trkpt lat="32.8649770" lon="35.2423370">
    <ele>242.1</ele>
    <time>2014-02-14T07:18:27Z</time>
   </trkpt>
   <trkpt lat="32.8649730" lon="35.2423030">
    <ele>241.7</ele>
    <time>2014-02-14T07:18:28Z</time>
   </trkpt>
   <trkpt lat="32.8649710" lon="35.2422670">
    <ele>241.3</ele>
    <time>2014-02-14T07:18:29Z</time>
   </trkpt>
   <trkpt lat="32.8649750" lon="35.2422320">
    <ele>241.0</ele>
    <time>2014-02-14T07:18:30Z</time>
   </trkpt>
   <trkpt lat="32.8649810" lon="35.2421970">
    <ele>240.6</ele>
    <time>2014-02-14T07:18:31Z</time>
   </trkpt>
   <trkpt lat="32.8649920" lon="35.2421590">
    <ele>240.3</ele>
    <time>2014-02-14T07:18:32Z</time>
   </trkpt>
   <trkpt lat="32.8650020" lon="35.2421240">
    <ele>240.0</ele>
    <time>2014-02-14T07:18:33Z</time>
   </trkpt>
   <trkpt lat="32.8650040" lon="35.2420880">
    <ele>239.6</ele>
    <time>2014-02-14T07:18:34Z</time>
   </trkpt>
   <trkpt lat="32.8649960" lon="35.2420550">
    <ele>239.2</ele>
    <time>2014-02-14T07:18:35Z</time>
   </trkpt>
   <trkpt lat="32.8649820" lon="35.2420220">
    <ele>238.9</ele>
    <time>2014-02-14T07:18:36Z</time>
   </trkpt>
   <trkpt lat="32.8649680" lon="35.2419900">
    <ele>238.5</ele>
    <time>2014-02-14T07:18:37Z</time>
   </trkpt>
   <trkpt lat="32.8649540" lon="35.2419580">
    <ele>238.1</ele>
    <time>2014-02-14T07:18:38Z</time>
   </trkpt>
   <trkpt lat="32.8649430" lon="35.2419270">
    <ele>237.8</ele>
    <time>2014-02-14T07:18:39Z</time>
   </trkpt>
   <trkpt lat="32.8649420" lon="35.2418890">
    <ele>237.4</ele>
    <time>2014-02-14T07:18:40Z</time>
   </trkpt>
   <trkpt lat="32.8649470" lon="35.2418510">
    <ele>237.1</ele>
    <time>2014-02-14T07:18:41Z</time>
   </trkpt>
   <trkpt lat="32.8649510" lon="35.2418150">
    <ele>236.8</ele>
    <time>2014-02-14T07:18:42Z</time>
   </trkpt>
   <trkpt lat="32.8649570" lon="35.2417810">
    <ele>236.6</ele>
    <time>2014-02-14T07:18:43Z</time>
   </trkpt>
   <trkpt lat="32.8649680" lon="35.2417200">
    <ele>236.2</ele>
    <time>2014-02-14T07:18:45Z</time>
   </trkpt>
   <trkpt lat="32.8649570" lon="35.2416790">
    <ele>235.7</ele>
    <time>2014-02-14T07:18:47Z</time>
   </trkpt>
   <trkpt lat="32.8649270" lon="35.2416330">
    <ele>235.0</ele>
    <time>2014-02-14T07:18:49Z</time>
   </trkpt>
   <trkpt lat="32.8649110" lon="35.2416030">
    <ele>234.6</ele>
    <time>2014-02-14T07:18:50Z</time>
   </trkpt>
   <trkpt lat="32.8648900" lon="35.2415680">
    <ele>234.0</ele>
    <time>2014-02-14T07:18:51Z</time>
   </trkpt>
   <trkpt lat="32.8648660" lon="35.2415270">
    <ele>233.4</ele>
    <time>2014-02-14T07:18:52Z</time>
   </trkpt>
   <trkpt lat="32.8648450" lon="35.2414900">
    <ele>232.8</ele>
    <time>2014-02-14T07:18:53Z</time>
   </trkpt>
   <trkpt lat="32.8648280" lon="35.2414540">
    <ele>232.2</ele>
    <time>2014-02-14T07:18:54Z</time>
   </trkpt>
   <trkpt lat="32.8648080" lon="35.2414150">
    <ele>231.6</ele>
    <time>2014-02-14T07:18:55Z</time>
   </trkpt>
   <trkpt lat="32.8647880" lon="35.2413770">
    <ele>231.0</ele>
    <time>2014-02-14T07:18:56Z</time>
   </trkpt>
   <trkpt lat="32.8647650" lon="35.2413430">
    <ele>230.4</ele>
    <time>2014-02-14T07:18:57Z</time>
   </trkpt>
   <trkpt lat="32.8647450" lon="35.2413060">
    <ele>229.7</ele>
    <time>2014-02-14T07:18:58Z</time>
   </trkpt>
   <trkpt lat="32.8647220" lon="35.2412710">
    <ele>229.1</ele>
    <time>2014-02-14T07:18:59Z</time>
   </trkpt>
   <trkpt lat="32.8646960" lon="35.2412390">
    <ele>228.4</ele>
    <time>2014-02-14T07:19:00Z</time>
   </trkpt>
   <trkpt lat="32.8646620" lon="35.2412120">
    <ele>227.6</ele>
    <time>2014-02-14T07:19:01Z</time>
   </trkpt>
   <trkpt lat="32.8646250" lon="35.2411940">
    <ele>227.0</ele>
    <time>2014-02-14T07:19:02Z</time>
   </trkpt>
   <trkpt lat="32.8645850" lon="35.2411830">
    <ele>226.3</ele>
    <time>2014-02-14T07:19:03Z</time>
   </trkpt>
   <trkpt lat="32.8645460" lon="35.2411750">
    <ele>225.8</ele>
    <time>2014-02-14T07:19:04Z</time>
   </trkpt>
   <trkpt lat="32.8645070" lon="35.2411640">
    <ele>225.2</ele>
    <time>2014-02-14T07:19:05Z</time>
   </trkpt>
   <trkpt lat="32.8644690" lon="35.2411480">
    <ele>224.7</ele>
    <time>2014-02-14T07:19:06Z</time>
   </trkpt>
   <trkpt lat="32.8644140" lon="35.2411240">
    <ele>223.8</ele>
    <time>2014-02-14T07:19:07Z</time>
   </trkpt>
   <trkpt lat="32.8643400" lon="35.2410650">
    <ele>222.4</ele>
    <time>2014-02-14T07:19:08Z</time>
   </trkpt>
   <trkpt lat="32.8643110" lon="35.2410330">
    <ele>221.7</ele>
    <time>2014-02-14T07:19:09Z</time>
   </trkpt>
   <trkpt lat="32.8642840" lon="35.2410080">
    <ele>221.2</ele>
    <time>2014-02-14T07:19:10Z</time>
   </trkpt>
   <trkpt lat="32.8642330" lon="35.2409830">
    <ele>220.3</ele>
    <time>2014-02-14T07:19:11Z</time>
   </trkpt>
   <trkpt lat="32.8641830" lon="35.2409620">
    <ele>219.6</ele>
    <time>2014-02-14T07:19:12Z</time>
   </trkpt>
   <trkpt lat="32.8641270" lon="35.2409630">
    <ele>219.0</ele>
    <time>2014-02-14T07:19:14Z</time>
   </trkpt>
   <trkpt lat="32.8640990" lon="35.2409750">
    <ele>218.8</ele>
    <time>2014-02-14T07:19:16Z</time>
   </trkpt>
   <trkpt lat="32.8640690" lon="35.2409700">
    <ele>218.4</ele>
    <time>2014-02-14T07:19:19Z</time>
   </trkpt>
   <trkpt lat="32.8640730" lon="35.2409350">
    <ele>218.1</ele>
    <time>2014-02-14T07:19:26Z</time>
   </trkpt>
   <trkpt lat="32.8640630" lon="35.2409670">
    <ele>218.3</ele>
    <time>2014-02-14T07:21:13Z</time>
   </trkpt>
   <trkpt lat="32.8640450" lon="35.2410180">
    <ele>218.7</ele>
    <time>2014-02-14T07:21:15Z</time>
   </trkpt>
   <trkpt lat="32.8640250" lon="35.2410470">
    <ele>218.8</ele>
    <time>2014-02-14T07:21:16Z</time>
   </trkpt>
   <trkpt lat="32.8640040" lon="35.2410740">
    <ele>218.8</ele>
    <time>2014-02-14T07:21:17Z</time>
   </trkpt>
   <trkpt lat="32.8639830" lon="35.2410960">
    <ele>218.9</ele>
    <time>2014-02-14T07:21:18Z</time>
   </trkpt>
   <trkpt lat="32.8639430" lon="35.2411340">
    <ele>218.8</ele>
    <time>2014-02-14T07:21:20Z</time>
   </trkpt>
   <trkpt lat="32.8639020" lon="35.2411700">
    <ele>218.8</ele>
    <time>2014-02-14T07:21:22Z</time>
   </trkpt>
   <trkpt lat="32.8638570" lon="35.2411970">
    <ele>218.6</ele>
    <time>2014-02-14T07:21:24Z</time>
   </trkpt>
   <trkpt lat="32.8638090" lon="35.2412140">
    <ele>218.2</ele>
    <time>2014-02-14T07:21:26Z</time>
   </trkpt>
   <trkpt lat="32.8637590" lon="35.2412320">
    <ele>217.9</ele>
    <time>2014-02-14T07:21:28Z</time>
   </trkpt>
   <trkpt lat="32.8637300" lon="35.2412410">
    <ele>217.8</ele>
    <time>2014-02-14T07:21:29Z</time>
   </trkpt>
   <trkpt lat="32.8637000" lon="35.2412460">
    <ele>217.8</ele>
    <time>2014-02-14T07:21:30Z</time>
   </trkpt>
   <trkpt lat="32.8636710" lon="35.2412520">
    <ele>217.7</ele>
    <time>2014-02-14T07:21:31Z</time>
   </trkpt>
   <trkpt lat="32.8636250" lon="35.2412710">
    <ele>217.9</ele>
    <time>2014-02-14T07:21:33Z</time>
   </trkpt>
   <trkpt lat="32.8636290" lon="35.2412370">
    <ele>217.4</ele>
    <time>2014-02-14T07:21:42Z</time>
   </trkpt>
   <trkpt lat="32.8636010" lon="35.2412380">
    <ele>217.3</ele>
    <time>2014-02-14T07:21:54Z</time>
   </trkpt>
   <trkpt lat="32.8635780" lon="35.2412580">
    <ele>217.5</ele>
    <time>2014-02-14T07:21:57Z</time>
   </trkpt>
   <trkpt lat="32.8635340" lon="35.2412900">
    <ele>217.9</ele>
    <time>2014-02-14T07:21:59Z</time>
   </trkpt>
   <trkpt lat="32.8635080" lon="35.2413150">
    <ele>218.3</ele>
    <time>2014-02-14T07:22:00Z</time>
   </trkpt>
   <trkpt lat="32.8634800" lon="35.2413370">
    <ele>218.6</ele>
    <time>2014-02-14T07:22:01Z</time>
   </trkpt>
   <trkpt lat="32.8634520" lon="35.2413590">
    <ele>218.9</ele>
    <time>2014-02-14T07:22:02Z</time>
   </trkpt>
   <trkpt lat="32.8634240" lon="35.2413700">
    <ele>219.0</ele>
    <time>2014-02-14T07:22:03Z</time>
   </trkpt>
   <trkpt lat="32.8633940" lon="35.2413750">
    <ele>218.9</ele>
    <time>2014-02-14T07:22:04Z</time>
   </trkpt>
   <trkpt lat="32.8633650" lon="35.2413800">
    <ele>218.9</ele>
    <time>2014-02-14T07:22:05Z</time>
   </trkpt>
   <trkpt lat="32.8633360" lon="35.2413850">
    <ele>218.9</ele>
    <time>2014-02-14T07:22:06Z</time>
   </trkpt>
   <trkpt lat="32.8633110" lon="35.2414000">
    <ele>219.1</ele>
    <time>2014-02-14T07:22:07Z</time>
   </trkpt>
   <trkpt lat="32.8632860" lon="35.2414130">
    <ele>219.3</ele>
    <time>2014-02-14T07:22:08Z</time>
   </trkpt>
   <trkpt lat="32.8632440" lon="35.2414430">
    <ele>219.7</ele>
    <time>2014-02-14T07:22:10Z</time>
   </trkpt>
   <trkpt lat="32.8632040" lon="35.2414760">
    <ele>220.2</ele>
    <time>2014-02-14T07:22:12Z</time>
   </trkpt>
   <trkpt lat="32.8631570" lon="35.2414920">
    <ele>220.3</ele>
    <time>2014-02-14T07:22:14Z</time>
   </trkpt>
   <trkpt lat="32.8631040" lon="35.2414980">
    <ele>220.3</ele>
    <time>2014-02-14T07:22:16Z</time>
   </trkpt>
   <trkpt lat="32.8630630" lon="35.2415370">
    <ele>220.9</ele>
    <time>2014-02-14T07:22:18Z</time>
   </trkpt>
   <trkpt lat="32.8630510" lon="35.2415690">
    <ele>221.5</ele>
    <time>2014-02-14T07:22:19Z</time>
   </trkpt>
   <trkpt lat="32.8630390" lon="35.2415980">
    <ele>222.0</ele>
    <time>2014-02-14T07:22:20Z</time>
   </trkpt>
   <trkpt lat="32.8630080" lon="35.2416440">
    <ele>222.8</ele>
    <time>2014-02-14T07:22:22Z</time>
   </trkpt>
   <trkpt lat="32.8629680" lon="35.2416840">
    <ele>223.5</ele>
    <time>2014-02-14T07:22:24Z</time>
   </trkpt>
   <trkpt lat="32.8629470" lon="35.2417050">
    <ele>223.8</ele>
    <time>2014-02-14T07:22:25Z</time>
   </trkpt>
   <trkpt lat="32.8629150" lon="35.2417510">
    <ele>224.6</ele>
    <time>2014-02-14T07:22:27Z</time>
   </trkpt>
   <trkpt lat="32.8628840" lon="35.2417890">
    <ele>225.0</ele>
    <time>2014-02-14T07:22:29Z</time>
   </trkpt>
   <trkpt lat="32.8628560" lon="35.2418240">
    <ele>225.3</ele>
    <time>2014-02-14T07:22:31Z</time>
   </trkpt>
   <trkpt lat="32.8628380" lon="35.2418750">
    <ele>226.0</ele>
    <time>2014-02-14T07:22:33Z</time>
   </trkpt>
   <trkpt lat="32.8628280" lon="35.2419270">
    <ele>226.9</ele>
    <time>2014-02-14T07:22:35Z</time>
   </trkpt>
   <trkpt lat="32.8628220" lon="35.2419790">
    <ele>227.7</ele>
    <time>2014-02-14T07:22:37Z</time>
   </trkpt>
   <trkpt lat="32.8628150" lon="35.2420370">
    <ele>228.7</ele>
    <time>2014-02-14T07:22:39Z</time>
   </trkpt>
   <trkpt lat="32.8628040" lon="35.2420860">
    <ele>229.4</ele>
    <time>2014-02-14T07:22:41Z</time>
   </trkpt>
   <trkpt lat="32.8628040" lon="35.2421350">
    <ele>229.2</ele>
    <time>2014-02-14T07:22:43Z</time>
   </trkpt>
   <trkpt lat="32.8628100" lon="35.2421750">
    <ele>229.1</ele>
    <time>2014-02-14T07:22:45Z</time>
   </trkpt>
   <trkpt lat="32.8628310" lon="35.2422020">
    <ele>229.3</ele>
    <time>2014-02-14T07:22:47Z</time>
   </trkpt>
   <trkpt lat="32.8628550" lon="35.2422290">
    <ele>229.5</ele>
    <time>2014-02-14T07:22:49Z</time>
   </trkpt>
   <trkpt lat="32.8628880" lon="35.2422530">
    <ele>230.0</ele>
    <time>2014-02-14T07:22:51Z</time>
   </trkpt>
   <trkpt lat="32.8629180" lon="35.2422850">
    <ele>230.3</ele>
    <time>2014-02-14T07:22:53Z</time>
   </trkpt>
   <trkpt lat="32.8629450" lon="35.2423280">
    <ele>230.2</ele>
    <time>2014-02-14T07:22:55Z</time>
   </trkpt>
   <trkpt lat="32.8629750" lon="35.2423690">
    <ele>230.2</ele>
    <time>2014-02-14T07:22:57Z</time>
   </trkpt>
   <trkpt lat="32.8630040" lon="35.2424210">
    <ele>230.2</ele>
    <time>2014-02-14T07:22:59Z</time>
   </trkpt>
   <trkpt lat="32.8630140" lon="35.2424510">
    <ele>230.2</ele>
    <time>2014-02-14T07:23:00Z</time>
   </trkpt>
   <trkpt lat="32.8630490" lon="35.2424930">
    <ele>230.2</ele>
    <time>2014-02-14T07:23:02Z</time>
   </trkpt>
   <trkpt lat="32.8630920" lon="35.2425240">
    <ele>230.4</ele>
    <time>2014-02-14T07:23:04Z</time>
   </trkpt>
   <trkpt lat="32.8631250" lon="35.2425620">
    <ele>230.5</ele>
    <time>2014-02-14T07:23:06Z</time>
   </trkpt>
   <trkpt lat="32.8631530" lon="35.2426110">
    <ele>230.6</ele>
    <time>2014-02-14T07:23:08Z</time>
   </trkpt>
   <trkpt lat="32.8631780" lon="35.2426630">
    <ele>230.8</ele>
    <time>2014-02-14T07:23:10Z</time>
   </trkpt>
   <trkpt lat="32.8632080" lon="35.2427160">
    <ele>230.9</ele>
    <time>2014-02-14T07:23:12Z</time>
   </trkpt>
   <trkpt lat="32.8632410" lon="35.2427650">
    <ele>231.2</ele>
    <time>2014-02-14T07:23:14Z</time>
   </trkpt>
   <trkpt lat="32.8632820" lon="35.2428050">
    <ele>231.5</ele>
    <time>2014-02-14T07:23:16Z</time>
   </trkpt>
   <trkpt lat="32.8633050" lon="35.2428270">
    <ele>231.7</ele>
    <time>2014-02-14T07:23:17Z</time>
   </trkpt>
   <trkpt lat="32.8633410" lon="35.2428700">
    <ele>232.0</ele>
    <time>2014-02-14T07:23:19Z</time>
   </trkpt>
   <trkpt lat="32.8633730" lon="35.2429100">
    <ele>232.4</ele>
    <time>2014-02-14T07:23:21Z</time>
   </trkpt>
   <trkpt lat="32.8634070" lon="35.2429490">
    <ele>232.4</ele>
    <time>2014-02-14T07:23:23Z</time>
   </trkpt>
   <trkpt lat="32.8634380" lon="35.2429900">
    <ele>232.3</ele>
    <time>2014-02-14T07:23:25Z</time>
   </trkpt>
   <trkpt lat="32.8634730" lon="35.2430310">
    <ele>232.3</ele>
    <time>2014-02-14T07:23:27Z</time>
   </trkpt>
   <trkpt lat="32.8635110" lon="35.2430740">
    <ele>232.4</ele>
    <time>2014-02-14T07:23:29Z</time>
   </trkpt>
   <trkpt lat="32.8635540" lon="35.2431070">
    <ele>232.5</ele>
    <time>2014-02-14T07:23:31Z</time>
   </trkpt>
   <trkpt lat="32.8635950" lon="35.2431530">
    <ele>232.6</ele>
    <time>2014-02-14T07:23:33Z</time>
   </trkpt>
   <trkpt lat="32.8636130" lon="35.2431890">
    <ele>232.5</ele>
    <time>2014-02-14T07:23:34Z</time>
   </trkpt>
   <trkpt lat="32.8636300" lon="35.2432240">
    <ele>232.4</ele>
    <time>2014-02-14T07:23:35Z</time>
   </trkpt>
   <trkpt lat="32.8636470" lon="35.2432560">
    <ele>232.4</ele>
    <time>2014-02-14T07:23:36Z</time>
   </trkpt>
   <trkpt lat="32.8636640" lon="35.2432870">
    <ele>232.3</ele>
    <time>2014-02-14T07:23:37Z</time>
   </trkpt>
   <trkpt lat="32.8636830" lon="35.2433180">
    <ele>232.3</ele>
    <time>2014-02-14T07:23:38Z</time>
   </trkpt>
   <trkpt lat="32.8637000" lon="35.2433460">
    <ele>232.3</ele>
    <time>2014-02-14T07:23:39Z</time>
   </trkpt>
   <trkpt lat="32.8637190" lon="35.2433730">
    <ele>232.3</ele>
    <time>2014-02-14T07:23:40Z</time>
   </trkpt>
   <trkpt lat="32.8637390" lon="35.2433980">
    <ele>232.4</ele>
    <time>2014-02-14T07:23:41Z</time>
   </trkpt>
   <trkpt lat="32.8637580" lon="35.2434250">
    <ele>232.5</ele>
    <time>2014-02-14T07:23:42Z</time>
   </trkpt>
   <trkpt lat="32.8637750" lon="35.2434540">
    <ele>232.6</ele>
    <time>2014-02-14T07:23:43Z</time>
   </trkpt>
   <trkpt lat="32.8637930" lon="35.2434820">
    <ele>232.7</ele>
    <time>2014-02-14T07:23:44Z</time>
   </trkpt>
   <trkpt lat="32.8638070" lon="35.2435140">
    <ele>232.7</ele>
    <time>2014-02-14T07:23:45Z</time>
   </trkpt>
   <trkpt lat="32.8638200" lon="35.2435470">
    <ele>232.7</ele>
    <time>2014-02-14T07:23:46Z</time>
   </trkpt>
   <trkpt lat="32.8638340" lon="35.2435820">
    <ele>232.8</ele>
    <time>2014-02-14T07:23:47Z</time>
   </trkpt>
   <trkpt lat="32.8638490" lon="35.2436150">
    <ele>232.9</ele>
    <time>2014-02-14T07:23:48Z</time>
   </trkpt>
   <trkpt lat="32.8638640" lon="35.2436480">
    <ele>232.9</ele>
    <time>2014-02-14T07:23:49Z</time>
   </trkpt>
   <trkpt lat="32.8638780" lon="35.2436820">
    <ele>233.0</ele>
    <time>2014-02-14T07:23:50Z</time>
   </trkpt>
   <trkpt lat="32.8638930" lon="35.2437170">
    <ele>233.1</ele>
    <time>2014-02-14T07:23:51Z</time>
   </trkpt>
   <trkpt lat="32.8639100" lon="35.2437480">
    <ele>233.3</ele>
    <time>2014-02-14T07:23:52Z</time>
   </trkpt>
   <trkpt lat="32.8639270" lon="35.2437760">
    <ele>233.5</ele>
    <time>2014-02-14T07:23:53Z</time>
   </trkpt>
   <trkpt lat="32.8639410" lon="35.2438060">
    <ele>233.6</ele>
    <time>2014-02-14T07:23:54Z</time>
   </trkpt>
   <trkpt lat="32.8639560" lon="35.2438370">
    <ele>233.7</ele>
    <time>2014-02-14T07:23:55Z</time>
   </trkpt>
   <trkpt lat="32.8639730" lon="35.2438670">
    <ele>233.8</ele>
    <time>2014-02-14T07:23:56Z</time>
   </trkpt>
   <trkpt lat="32.8639890" lon="35.2438970">
    <ele>234.0</ele>
    <time>2014-02-14T07:23:57Z</time>
   </trkpt>
   <trkpt lat="32.8640050" lon="35.2439280">
    <ele>234.1</ele>
    <time>2014-02-14T07:23:58Z</time>
   </trkpt>
   <trkpt lat="32.8640170" lon="35.2439610">
    <ele>234.1</ele>
    <time>2014-02-14T07:23:59Z</time>
   </trkpt>
   <trkpt lat="32.8640270" lon="35.2439930">
    <ele>234.1</ele>
    <time>2014-02-14T07:24:00Z</time>
   </trkpt>
   <trkpt lat="32.8640340" lon="35.2440270">
    <ele>234.0</ele>
    <time>2014-02-14T07:24:01Z</time>
   </trkpt>
   <trkpt lat="32.8640410" lon="35.2440620">
    <ele>233.9</ele>
    <time>2014-02-14T07:24:02Z</time>
   </trkpt>
   <trkpt lat="32.8640500" lon="35.2440940">
    <ele>233.9</ele>
    <time>2014-02-14T07:24:03Z</time>
   </trkpt>
   <trkpt lat="32.8640590" lon="35.2441280">
    <ele>233.8</ele>
    <time>2014-02-14T07:24:04Z</time>
   </trkpt>
   <trkpt lat="32.8640630" lon="35.2441620">
    <ele>233.7</ele>
    <time>2014-02-14T07:24:05Z</time>
   </trkpt>
   <trkpt lat="32.8640660" lon="35.2441970">
    <ele>233.5</ele>
    <time>2014-02-14T07:24:06Z</time>
   </trkpt>
   <trkpt lat="32.8640660" lon="35.2442330">
    <ele>233.2</ele>
    <time>2014-02-14T07:24:07Z</time>
   </trkpt>
   <trkpt lat="32.8640760" lon="35.2442640">
    <ele>233.2</ele>
    <time>2014-02-14T07:24:08Z</time>
   </trkpt>
   <trkpt lat="32.8641080" lon="35.2443160">
    <ele>233.4</ele>
    <time>2014-02-14T07:24:10Z</time>
   </trkpt>
   <trkpt lat="32.8641360" lon="35.2443690">
    <ele>233.5</ele>
    <time>2014-02-14T07:24:12Z</time>
   </trkpt>
   <trkpt lat="32.8641510" lon="35.2443990">
    <ele>233.6</ele>
    <time>2014-02-14T07:24:13Z</time>
   </trkpt>
   <trkpt lat="32.8641640" lon="35.2444310">
    <ele>233.6</ele>
    <time>2014-02-14T07:24:14Z</time>
   </trkpt>
   <trkpt lat="32.8641780" lon="35.2444590">
    <ele>233.6</ele>
    <time>2014-02-14T07:24:15Z</time>
   </trkpt>
   <trkpt lat="32.8641900" lon="35.2444900">
    <ele>233.5</ele>
    <time>2014-02-14T07:24:16Z</time>
   </trkpt>
   <trkpt lat="32.8642030" lon="35.2445200">
    <ele>233.5</ele>
    <time>2014-02-14T07:24:17Z</time>
   </trkpt>
   <trkpt lat="32.8642180" lon="35.2445480">
    <ele>233.6</ele>
    <time>2014-02-14T07:24:18Z</time>
   </trkpt>
   <trkpt lat="32.8642330" lon="35.2445770">
    <ele>233.6</ele>
    <time>2014-02-14T07:24:19Z</time>
   </trkpt>
   <trkpt lat="32.8642480" lon="35.2446070">
    <ele>233.7</ele>
    <time>2014-02-14T07:24:20Z</time>
   </trkpt>
   <trkpt lat="32.8642630" lon="35.2446380">
    <ele>233.9</ele>
    <time>2014-02-14T07:24:21Z</time>
   </trkpt>
   <trkpt lat="32.8642790" lon="35.2446730">
    <ele>234.1</ele>
    <time>2014-02-14T07:24:22Z</time>
   </trkpt>
   <trkpt lat="32.8642950" lon="35.2447080">
    <ele>234.3</ele>
    <time>2014-02-14T07:24:23Z</time>
   </trkpt>
   <trkpt lat="32.8643140" lon="35.2447430">
    <ele>234.5</ele>
    <time>2014-02-14T07:24:24Z</time>
   </trkpt>
   <trkpt lat="32.8643340" lon="35.2447770">
    <ele>234.7</ele>
    <time>2014-02-14T07:24:25Z</time>
   </trkpt>
   <trkpt lat="32.8643540" lon="35.2448110">
    <ele>234.9</ele>
    <time>2014-02-14T07:24:26Z</time>
   </trkpt>
   <trkpt lat="32.8643720" lon="35.2448450">
    <ele>235.1</ele>
    <time>2014-02-14T07:24:27Z</time>
   </trkpt>
   <trkpt lat="32.8643870" lon="35.2448790">
    <ele>235.2</ele>
    <time>2014-02-14T07:24:28Z</time>
   </trkpt>
   <trkpt lat="32.8644040" lon="35.2449120">
    <ele>235.3</ele>
    <time>2014-02-14T07:24:29Z</time>
   </trkpt>
   <trkpt lat="32.8644210" lon="35.2449440">
    <ele>235.4</ele>
    <time>2014-02-14T07:24:30Z</time>
   </trkpt>
   <trkpt lat="32.8644370" lon="35.2449720">
    <ele>235.5</ele>
    <time>2014-02-14T07:24:31Z</time>
   </trkpt>
   <trkpt lat="32.8644500" lon="35.2450000">
    <ele>235.6</ele>
    <time>2014-02-14T07:24:32Z</time>
   </trkpt>
   <trkpt lat="32.8644600" lon="35.2450310">
    <ele>235.6</ele>
    <time>2014-02-14T07:24:33Z</time>
   </trkpt>
   <trkpt lat="32.8644690" lon="35.2450650">
    <ele>235.5</ele>
    <time>2014-02-14T07:24:34Z</time>
   </trkpt>
   <trkpt lat="32.8644770" lon="35.2451000">
    <ele>235.5</ele>
    <time>2014-02-14T07:24:35Z</time>
   </trkpt>
   <trkpt lat="32.8644830" lon="35.2451360">
    <ele>235.4</ele>
    <time>2014-02-14T07:24:36Z</time>
   </trkpt>
   <trkpt lat="32.8644910" lon="35.2451710">
    <ele>235.4</ele>
    <time>2014-02-14T07:24:37Z</time>
   </trkpt>
   <trkpt lat="32.8644990" lon="35.2452040">
    <ele>235.3</ele>
    <time>2014-02-14T07:24:38Z</time>
   </trkpt>
   <trkpt lat="32.8645080" lon="35.2452350">
    <ele>235.3</ele>
    <time>2014-02-14T07:24:39Z</time>
   </trkpt>
   <trkpt lat="32.8645160" lon="35.2452880">
    <ele>235.1</ele>
    <time>2014-02-14T07:24:41Z</time>
   </trkpt>
   <trkpt lat="32.8645240" lon="35.2453350">
    <ele>235.0</ele>
    <time>2014-02-14T07:24:43Z</time>
   </trkpt>
   <trkpt lat="32.8645470" lon="35.2453810">
    <ele>234.9</ele>
    <time>2014-02-14T07:24:45Z</time>
   </trkpt>
   <trkpt lat="32.8645710" lon="35.2454300">
    <ele>235.1</ele>
    <time>2014-02-14T07:24:47Z</time>
   </trkpt>
   <trkpt lat="32.8645850" lon="35.2454900">
    <ele>235.7</ele>
    <time>2014-02-14T07:24:49Z</time>
   </trkpt>
   <trkpt lat="32.8646050" lon="35.2455460">
    <ele>236.7</ele>
    <time>2014-02-14T07:24:51Z</time>
   </trkpt>
   <trkpt lat="32.8646300" lon="35.2455870">
    <ele>237.5</ele>
    <time>2014-02-14T07:24:53Z</time>
   </trkpt>
   <trkpt lat="32.8646590" lon="35.2456030">
    <ele>238.2</ele>
    <time>2014-02-14T07:24:56Z</time>
   </trkpt>
   <trkpt lat="32.8646960" lon="35.2456250">
    <ele>239.1</ele>
    <time>2014-02-14T07:24:59Z</time>
   </trkpt>
   <trkpt lat="32.8647370" lon="35.2456330">
    <ele>239.9</ele>
    <time>2014-02-14T07:25:01Z</time>
   </trkpt>
   <trkpt lat="32.8647820" lon="35.2456450">
    <ele>240.8</ele>
    <time>2014-02-14T07:25:03Z</time>
   </trkpt>
   <trkpt lat="32.8648200" lon="35.2456560">
    <ele>241.5</ele>
    <time>2014-02-14T07:25:05Z</time>
   </trkpt>
   <trkpt lat="32.8648510" lon="35.2456680">
    <ele>242.1</ele>
    <time>2014-02-14T07:25:07Z</time>
   </trkpt>
   <trkpt lat="32.8648800" lon="35.2456930">
    <ele>242.8</ele>
    <time>2014-02-14T07:25:10Z</time>
   </trkpt>
   <trkpt lat="32.8649030" lon="35.2457130">
    <ele>243.2</ele>
    <time>2014-02-14T07:25:12Z</time>
   </trkpt>
   <trkpt lat="32.8649320" lon="35.2457340">
    <ele>243.8</ele>
    <time>2014-02-14T07:25:14Z</time>
   </trkpt>
   <trkpt lat="32.8649680" lon="35.2457520">
    <ele>244.5</ele>
    <time>2014-02-14T07:25:16Z</time>
   </trkpt>
   <trkpt lat="32.8650070" lon="35.2457700">
    <ele>245.2</ele>
    <time>2014-02-14T07:25:18Z</time>
   </trkpt>
   <trkpt lat="32.8650470" lon="35.2457900">
    <ele>245.9</ele>
    <time>2014-02-14T07:25:20Z</time>
   </trkpt>
   <trkpt lat="32.8650820" lon="35.2458120">
    <ele>246.4</ele>
    <time>2014-02-14T07:25:22Z</time>
   </trkpt>
   <trkpt lat="32.8651090" lon="35.2458370">
    <ele>246.9</ele>
    <time>2014-02-14T07:25:24Z</time>
   </trkpt>
   <trkpt lat="32.8651270" lon="35.2458670">
    <ele>247.2</ele>
    <time>2014-02-14T07:25:26Z</time>
   </trkpt>
   <trkpt lat="32.8651320" lon="35.2459040">
    <ele>247.3</ele>
    <time>2014-02-14T07:25:28Z</time>
   </trkpt>
   <trkpt lat="32.8651420" lon="35.2459390">
    <ele>247.5</ele>
    <time>2014-02-14T07:25:30Z</time>
   </trkpt>
   <trkpt lat="32.8651520" lon="35.2459750">
    <ele>247.6</ele>
    <time>2014-02-14T07:25:32Z</time>
   </trkpt>
   <trkpt lat="32.8651660" lon="35.2460140">
    <ele>247.8</ele>
    <time>2014-02-14T07:25:34Z</time>
   </trkpt>
   <trkpt lat="32.8651780" lon="35.2460650">
    <ele>248.0</ele>
    <time>2014-02-14T07:25:36Z</time>
   </trkpt>
   <trkpt lat="32.8651900" lon="35.2461140">
    <ele>248.1</ele>
    <time>2014-02-14T07:25:38Z</time>
   </trkpt>
   <trkpt lat="32.8652100" lon="35.2461570">
    <ele>248.3</ele>
    <time>2014-02-14T07:25:40Z</time>
   </trkpt>
   <trkpt lat="32.8652240" lon="35.2461900">
    <ele>248.4</ele>
    <time>2014-02-14T07:25:42Z</time>
   </trkpt>
   <trkpt lat="32.8652210" lon="35.2462230">
    <ele>248.4</ele>
    <time>2014-02-14T07:25:44Z</time>
   </trkpt>
   <trkpt lat="32.8652260" lon="35.2462580">
    <ele>248.5</ele>
    <time>2014-02-14T07:25:46Z</time>
   </trkpt>
   <trkpt lat="32.8652290" lon="35.2463020">
    <ele>249.1</ele>
    <time>2014-02-14T07:25:48Z</time>
   </trkpt>
   <trkpt lat="32.8652280" lon="35.2463570">
    <ele>249.8</ele>
    <time>2014-02-14T07:25:50Z</time>
   </trkpt>
   <trkpt lat="32.8652320" lon="35.2464080">
    <ele>250.5</ele>
    <time>2014-02-14T07:25:52Z</time>
   </trkpt>
   <trkpt lat="32.8652330" lon="35.2464550">
    <ele>251.1</ele>
    <time>2014-02-14T07:25:54Z</time>
   </trkpt>
   <trkpt lat="32.8652250" lon="35.2465080">
    <ele>251.7</ele>
    <time>2014-02-14T07:25:56Z</time>
   </trkpt>
   <trkpt lat="32.8652180" lon="35.2465680">
    <ele>252.5</ele>
    <time>2014-02-14T07:25:58Z</time>
   </trkpt>
   <trkpt lat="32.8652040" lon="35.2466230">
    <ele>253.2</ele>
    <time>2014-02-14T07:26:00Z</time>
   </trkpt>
   <trkpt lat="32.8651830" lon="35.2466710">
    <ele>253.7</ele>
    <time>2014-02-14T07:26:02Z</time>
   </trkpt>
   <trkpt lat="32.8651540" lon="35.2467170">
    <ele>254.3</ele>
    <time>2014-02-14T07:26:04Z</time>
   </trkpt>
   <trkpt lat="32.8651260" lon="35.2467650">
    <ele>254.8</ele>
    <time>2014-02-14T07:26:06Z</time>
   </trkpt>
   <trkpt lat="32.8651050" lon="35.2467890">
    <ele>255.1</ele>
    <time>2014-02-14T07:26:08Z</time>
   </trkpt>
   <trkpt lat="32.8650800" lon="35.2468200">
    <ele>255.5</ele>
    <time>2014-02-14T07:26:11Z</time>
   </trkpt>
   <trkpt lat="32.8650590" lon="35.2468460">
    <ele>255.9</ele>
    <time>2014-02-14T07:26:13Z</time>
   </trkpt>
   <trkpt lat="32.8650300" lon="35.2468720">
    <ele>256.2</ele>
    <time>2014-02-14T07:26:15Z</time>
   </trkpt>
   <trkpt lat="32.8649960" lon="35.2468880">
    <ele>256.4</ele>
    <time>2014-02-14T07:26:17Z</time>
   </trkpt>
   <trkpt lat="32.8649670" lon="35.2468900">
    <ele>256.5</ele>
    <time>2014-02-14T07:26:19Z</time>
   </trkpt>
   <trkpt lat="32.8649230" lon="35.2468850">
    <ele>256.3</ele>
    <time>2014-02-14T07:26:22Z</time>
   </trkpt>
   <trkpt lat="32.8648880" lon="35.2468880">
    <ele>256.3</ele>
    <time>2014-02-14T07:26:24Z</time>
   </trkpt>
   <trkpt lat="32.8648550" lon="35.2468950">
    <ele>256.4</ele>
    <time>2014-02-14T07:26:26Z</time>
   </trkpt>
   <trkpt lat="32.8648180" lon="35.2468800">
    <ele>256.1</ele>
    <time>2014-02-14T07:26:28Z</time>
   </trkpt>
   <trkpt lat="32.8647870" lon="35.2468570">
    <ele>255.7</ele>
    <time>2014-02-14T07:26:30Z</time>
   </trkpt>
   <trkpt lat="32.8647500" lon="35.2468460">
    <ele>255.4</ele>
    <time>2014-02-14T07:26:33Z</time>
   </trkpt>
   <trkpt lat="32.8647120" lon="35.2468460">
    <ele>255.4</ele>
    <time>2014-02-14T07:26:35Z</time>
   </trkpt>
   <trkpt lat="32.8646670" lon="35.2468550">
    <ele>255.5</ele>
    <time>2014-02-14T07:26:37Z</time>
   </trkpt>
   <trkpt lat="32.8646330" lon="35.2468670">
    <ele>255.7</ele>
    <time>2014-02-14T07:26:39Z</time>
   </trkpt>
   <trkpt lat="32.8645990" lon="35.2468810">
    <ele>255.9</ele>
    <time>2014-02-14T07:26:41Z</time>
   </trkpt>
   <trkpt lat="32.8645670" lon="35.2468940">
    <ele>256.1</ele>
    <time>2014-02-14T07:26:43Z</time>
   </trkpt>
   <trkpt lat="32.8645310" lon="35.2469100">
    <ele>256.5</ele>
    <time>2014-02-14T07:26:45Z</time>
   </trkpt>
   <trkpt lat="32.8644930" lon="35.2469250">
    <ele>256.7</ele>
    <time>2014-02-14T07:26:47Z</time>
   </trkpt>
   <trkpt lat="32.8644730" lon="35.2469600">
    <ele>257.4</ele>
    <time>2014-02-14T07:26:50Z</time>
   </trkpt>
   <trkpt lat="32.8644670" lon="35.2470030">
    <ele>258.3</ele>
    <time>2014-02-14T07:26:52Z</time>
   </trkpt>
   <trkpt lat="32.8644610" lon="35.2470410">
    <ele>259.0</ele>
    <time>2014-02-14T07:26:54Z</time>
   </trkpt>
   <trkpt lat="32.8644550" lon="35.2470820">
    <ele>259.8</ele>
    <time>2014-02-14T07:26:56Z</time>
   </trkpt>
   <trkpt lat="32.8644460" lon="35.2471210">
    <ele>260.4</ele>
    <time>2014-02-14T07:26:58Z</time>
   </trkpt>
   <trkpt lat="32.8644280" lon="35.2471580">
    <ele>261.0</ele>
    <time>2014-02-14T07:27:00Z</time>
   </trkpt>
   <trkpt lat="32.8644020" lon="35.2471740">
    <ele>261.2</ele>
    <time>2014-02-14T07:27:02Z</time>
   </trkpt>
   <trkpt lat="32.8643780" lon="35.2472020">
    <ele>261.6</ele>
    <time>2014-02-14T07:27:04Z</time>
   </trkpt>
   <trkpt lat="32.8643570" lon="35.2472350">
    <ele>262.1</ele>
    <time>2014-02-14T07:27:06Z</time>
   </trkpt>
   <trkpt lat="32.8643300" lon="35.2472430">
    <ele>262.1</ele>
    <time>2014-02-14T07:27:08Z</time>
   </trkpt>
   <trkpt lat="32.8643010" lon="35.2472150">
    <ele>261.7</ele>
    <time>2014-02-14T07:27:10Z</time>
   </trkpt>
   <trkpt lat="32.8642770" lon="35.2471890">
    <ele>261.2</ele>
    <time>2014-02-14T07:27:12Z</time>
   </trkpt>
   <trkpt lat="32.8642450" lon="35.2471740">
    <ele>260.9</ele>
    <time>2014-02-14T07:27:15Z</time>
   </trkpt>
   <trkpt lat="32.8642110" lon="35.2471630">
    <ele>260.7</ele>
    <time>2014-02-14T07:27:18Z</time>
   </trkpt>
   <trkpt lat="32.8641880" lon="35.2471830">
    <ele>261.0</ele>
    <time>2014-02-14T07:27:21Z</time>
   </trkpt>
   <trkpt lat="32.8641680" lon="35.2472260">
    <ele>261.6</ele>
    <time>2014-02-14T07:27:24Z</time>
   </trkpt>
   <trkpt lat="32.8641300" lon="35.2472360">
    <ele>261.6</ele>
    <time>2014-02-14T07:27:27Z</time>
   </trkpt>
   <trkpt lat="32.8641030" lon="35.2472400">
    <ele>261.6</ele>
    <time>2014-02-14T07:27:29Z</time>
   </trkpt>
   <trkpt lat="32.8640690" lon="35.2472520">
    <ele>261.7</ele>
    <time>2014-02-14T07:27:32Z</time>
   </trkpt>
   <trkpt lat="32.8640520" lon="35.2472790">
    <ele>262.1</ele>
    <time>2014-02-14T07:27:34Z</time>
   </trkpt>
   <trkpt lat="32.8640350" lon="35.2473170">
    <ele>262.5</ele>
    <time>2014-02-14T07:27:36Z</time>
   </trkpt>
   <trkpt lat="32.8640200" lon="35.2473580">
    <ele>263.0</ele>
    <time>2014-02-14T07:27:38Z</time>
   </trkpt>
   <trkpt lat="32.8640150" lon="35.2473980">
    <ele>263.6</ele>
    <time>2014-02-14T07:27:40Z</time>
   </trkpt>
   <trkpt lat="32.8640110" lon="35.2474390">
    <ele>264.1</ele>
    <time>2014-02-14T07:27:42Z</time>
   </trkpt>
   <trkpt lat="32.8640020" lon="35.2474900">
    <ele>264.8</ele>
    <time>2014-02-14T07:27:44Z</time>
   </trkpt>
   <trkpt lat="32.8639960" lon="35.2475310">
    <ele>265.3</ele>
    <time>2014-02-14T07:27:46Z</time>
   </trkpt>
   <trkpt lat="32.8639760" lon="35.2475590">
    <ele>265.6</ele>
    <time>2014-02-14T07:27:51Z</time>
   </trkpt>
   <trkpt lat="32.8639430" lon="35.2475620">
    <ele>265.5</ele>
    <time>2014-02-14T07:27:54Z</time>
   </trkpt>
   <trkpt lat="32.8639180" lon="35.2475820">
    <ele>265.7</ele>
    <time>2014-02-14T07:27:56Z</time>
   </trkpt>
   <trkpt lat="32.8639000" lon="35.2476280">
    <ele>266.2</ele>
    <time>2014-02-14T07:27:59Z</time>
   </trkpt>
   <trkpt lat="32.8638910" lon="35.2476670">
    <ele>266.6</ele>
    <time>2014-02-14T07:28:01Z</time>
   </trkpt>
   <trkpt lat="32.8638910" lon="35.2477070">
    <ele>267.2</ele>
    <time>2014-02-14T07:28:03Z</time>
   </trkpt>
   <trkpt lat="32.8638970" lon="35.2477480">
    <ele>267.7</ele>
    <time>2014-02-14T07:28:05Z</time>
   </trkpt>
   <trkpt lat="32.8639130" lon="35.2477820">
    <ele>268.2</ele>
    <time>2014-02-14T07:28:08Z</time>
   </trkpt>
   <trkpt lat="32.8639540" lon="35.2477750">
    <ele>268.4</ele>
    <time>2014-02-14T07:28:10Z</time>
   </trkpt>
   <trkpt lat="32.8639940" lon="35.2477680">
    <ele>268.5</ele>
    <time>2014-02-14T07:28:12Z</time>
   </trkpt>
   <trkpt lat="32.8640310" lon="35.2477650">
    <ele>268.6</ele>
    <time>2014-02-14T07:28:14Z</time>
   </trkpt>
   <trkpt lat="32.8640700" lon="35.2477690">
    <ele>268.9</ele>
    <time>2014-02-14T07:28:16Z</time>
   </trkpt>
   <trkpt lat="32.8641070" lon="35.2477820">
    <ele>269.2</ele>
    <time>2014-02-14T07:28:18Z</time>
   </trkpt>
   <trkpt lat="32.8641400" lon="35.2477850">
    <ele>269.5</ele>
    <time>2014-02-14T07:28:20Z</time>
   </trkpt>
   <trkpt lat="32.8641710" lon="35.2477800">
    <ele>269.6</ele>
    <time>2014-02-14T07:28:22Z</time>
   </trkpt>
   <trkpt lat="32.8642000" lon="35.2477720">
    <ele>269.6</ele>
    <time>2014-02-14T07:28:24Z</time>
   </trkpt>
   <trkpt lat="32.8642200" lon="35.2477420">
    <ele>269.3</ele>
    <time>2014-02-14T07:28:26Z</time>
   </trkpt>
   <trkpt lat="32.8642500" lon="35.2477240">
    <ele>269.1</ele>
    <time>2014-02-14T07:28:28Z</time>
   </trkpt>
   <trkpt lat="32.8642870" lon="35.2477390">
    <ele>269.5</ele>
    <time>2014-02-14T07:28:30Z</time>
   </trkpt>
   <trkpt lat="32.8643210" lon="35.2477620">
    <ele>270.1</ele>
    <time>2014-02-14T07:28:32Z</time>
   </trkpt>
   <trkpt lat="32.8643520" lon="35.2477740">
    <ele>270.4</ele>
    <time>2014-02-14T07:28:34Z</time>
   </trkpt>
   <trkpt lat="32.8643770" lon="35.2477920">
    <ele>270.8</ele>
    <time>2014-02-14T07:28:36Z</time>
   </trkpt>
   <trkpt lat="32.8643980" lon="35.2478170">
    <ele>271.3</ele>
    <time>2014-02-14T07:28:38Z</time>
   </trkpt>
   <trkpt lat="32.8644200" lon="35.2478380">
    <ele>271.8</ele>
    <time>2014-02-14T07:28:40Z</time>
   </trkpt>
   <trkpt lat="32.8644540" lon="35.2478340">
    <ele>271.9</ele>
    <time>2014-02-14T07:28:43Z</time>
   </trkpt>
   <trkpt lat="32.8644810" lon="35.2478450">
    <ele>272.2</ele>
    <time>2014-02-14T07:28:46Z</time>
   </trkpt>
   <trkpt lat="32.8645110" lon="35.2478330">
    <ele>272.2</ele>
    <time>2014-02-14T07:28:48Z</time>
   </trkpt>
   <trkpt lat="32.8645620" lon="35.2478260">
    <ele>272.4</ele>
    <time>2014-02-14T07:28:50Z</time>
   </trkpt>
   <trkpt lat="32.8646130" lon="35.2478250">
    <ele>272.5</ele>
    <time>2014-02-14T07:28:52Z</time>
   </trkpt>
   <trkpt lat="32.8646650" lon="35.2478260">
    <ele>272.6</ele>
    <time>2014-02-14T07:28:54Z</time>
   </trkpt>
   <trkpt lat="32.8647140" lon="35.2478270">
    <ele>272.8</ele>
    <time>2014-02-14T07:28:56Z</time>
   </trkpt>
   <trkpt lat="32.8647640" lon="35.2478280">
    <ele>272.9</ele>
    <time>2014-02-14T07:28:58Z</time>
   </trkpt>
   <trkpt lat="32.8647920" lon="35.2478250">
    <ele>272.9</ele>
    <time>2014-02-14T07:28:59Z</time>
   </trkpt>
   <trkpt lat="32.8648200" lon="35.2478210">
    <ele>272.9</ele>
    <time>2014-02-14T07:29:00Z</time>
   </trkpt>
   <trkpt lat="32.8648680" lon="35.2478320">
    <ele>273.2</ele>
    <time>2014-02-14T07:29:02Z</time>
   </trkpt>
   <trkpt lat="32.8649170" lon="35.2478380">
    <ele>273.4</ele>
    <time>2014-02-14T07:29:04Z</time>
   </trkpt>
   <trkpt lat="32.8649640" lon="35.2478360">
    <ele>273.4</ele>
    <time>2014-02-14T07:29:06Z</time>
   </trkpt>
   <trkpt lat="32.8650110" lon="35.2478330">
    <ele>273.5</ele>
    <time>2014-02-14T07:29:08Z</time>
   </trkpt>
   <trkpt lat="32.8650550" lon="35.2478330">
    <ele>273.6</ele>
    <time>2014-02-14T07:29:10Z</time>
   </trkpt>
   <trkpt lat="32.8650860" lon="35.2478270">
    <ele>273.5</ele>
    <time>2014-02-14T07:29:12Z</time>
   </trkpt>
   <trkpt lat="32.8651180" lon="35.2478340">
    <ele>273.7</ele>
    <time>2014-02-14T07:29:14Z</time>
   </trkpt>
   <trkpt lat="32.8651560" lon="35.2478560">
    <ele>274.2</ele>
    <time>2014-02-14T07:29:16Z</time>
   </trkpt>
   <trkpt lat="32.8651990" lon="35.2478630">
    <ele>274.4</ele>
    <time>2014-02-14T07:29:18Z</time>
   </trkpt>
   <trkpt lat="32.8652330" lon="35.2478790">
    <ele>274.8</ele>
    <time>2014-02-14T07:29:20Z</time>
   </trkpt>
   <trkpt lat="32.8652650" lon="35.2479060">
    <ele>275.4</ele>
    <time>2014-02-14T07:29:22Z</time>
   </trkpt>
   <trkpt lat="32.8652980" lon="35.2479370">
    <ele>276.3</ele>
    <time>2014-02-14T07:29:24Z</time>
   </trkpt>
   <trkpt lat="32.8653320" lon="35.2479640">
    <ele>277.1</ele>
    <time>2014-02-14T07:29:26Z</time>
   </trkpt>
   <trkpt lat="32.8653720" lon="35.2479800">
    <ele>277.7</ele>
    <time>2014-02-14T07:29:28Z</time>
   </trkpt>
   <trkpt lat="32.8654150" lon="35.2479900">
    <ele>278.1</ele>
    <time>2014-02-14T07:29:30Z</time>
   </trkpt>
   <trkpt lat="32.8654540" lon="35.2480030">
    <ele>278.8</ele>
    <time>2014-02-14T07:29:32Z</time>
   </trkpt>
   <trkpt lat="32.8654920" lon="35.2480120">
    <ele>279.4</ele>
    <time>2014-02-14T07:29:34Z</time>
   </trkpt>
   <trkpt lat="32.8655180" lon="35.2480380">
    <ele>280.4</ele>
    <time>2014-02-14T07:29:36Z</time>
   </trkpt>
   <trkpt lat="32.8655270" lon="35.2480720">
    <ele>281.4</ele>
    <time>2014-02-14T07:29:38Z</time>
   </trkpt>
   <trkpt lat="32.8655420" lon="35.2481010">
    <ele>282.3</ele>
    <time>2014-02-14T07:29:41Z</time>
   </trkpt>
   <trkpt lat="32.8655780" lon="35.2480990">
    <ele>282.5</ele>
    <time>2014-02-14T07:29:43Z</time>
   </trkpt>
   <trkpt lat="32.8656130" lon="35.2481050">
    <ele>283.0</ele>
    <time>2014-02-14T07:29:45Z</time>
   </trkpt>
   <trkpt lat="32.8656450" lon="35.2481320">
    <ele>284.0</ele>
    <time>2014-02-14T07:29:47Z</time>
   </trkpt>
   <trkpt lat="32.8656730" lon="35.2481690">
    <ele>285.2</ele>
    <time>2014-02-14T07:29:49Z</time>
   </trkpt>
   <trkpt lat="32.8656990" lon="35.2481970">
    <ele>286.1</ele>
    <time>2014-02-14T07:29:51Z</time>
   </trkpt>
   <trkpt lat="32.8657190" lon="35.2482220">
    <ele>286.9</ele>
    <time>2014-02-14T07:29:55Z</time>
   </trkpt>
   <trkpt lat="32.8657420" lon="35.2482600">
    <ele>288.0</ele>
    <time>2014-02-14T07:29:59Z</time>
   </trkpt>
   <trkpt lat="32.8657620" lon="35.2482980">
    <ele>289.2</ele>
    <time>2014-02-14T07:30:01Z</time>
   </trkpt>
   <trkpt lat="32.8657970" lon="35.2483270">
    <ele>290.1</ele>
    <time>2014-02-14T07:30:03Z</time>
   </trkpt>
   <trkpt lat="32.8658260" lon="35.2483520">
    <ele>290.9</ele>
    <time>2014-02-14T07:30:05Z</time>
   </trkpt>
   <trkpt lat="32.8658720" lon="35.2483660">
    <ele>291.5</ele>
    <time>2014-02-14T07:30:07Z</time>
   </trkpt>
   <trkpt lat="32.8659200" lon="35.2483750">
    <ele>292.0</ele>
    <time>2014-02-14T07:30:09Z</time>
   </trkpt>
   <trkpt lat="32.8659630" lon="35.2483820">
    <ele>292.4</ele>
    <time>2014-02-14T07:30:11Z</time>
   </trkpt>
   <trkpt lat="32.8660000" lon="35.2483870">
    <ele>292.8</ele>
    <time>2014-02-14T07:30:13Z</time>
   </trkpt>
   <trkpt lat="32.8660370" lon="35.2483910">
    <ele>293.1</ele>
    <time>2014-02-14T07:30:15Z</time>
   </trkpt>
   <trkpt lat="32.8660740" lon="35.2483900">
    <ele>293.3</ele>
    <time>2014-02-14T07:30:17Z</time>
   </trkpt>
   <trkpt lat="32.8661090" lon="35.2484050">
    <ele>293.8</ele>
    <time>2014-02-14T07:30:19Z</time>
   </trkpt>
   <trkpt lat="32.8661310" lon="35.2484410">
    <ele>294.7</ele>
    <time>2014-02-14T07:30:21Z</time>
   </trkpt>
   <trkpt lat="32.8661380" lon="35.2484790">
    <ele>295.6</ele>
    <time>2014-02-14T07:30:23Z</time>
   </trkpt>
   <trkpt lat="32.8661310" lon="35.2485150">
    <ele>296.4</ele>
    <time>2014-02-14T07:30:25Z</time>
   </trkpt>
   <trkpt lat="32.8661180" lon="35.2485440">
    <ele>297.0</ele>
    <time>2014-02-14T07:30:27Z</time>
   </trkpt>
   <trkpt lat="32.8660940" lon="35.2485780">
    <ele>297.7</ele>
    <time>2014-02-14T07:30:30Z</time>
   </trkpt>
   <trkpt lat="32.8660700" lon="35.2486140">
    <ele>298.4</ele>
    <time>2014-02-14T07:30:33Z</time>
   </trkpt>
   <trkpt lat="32.8660370" lon="35.2486310">
    <ele>298.7</ele>
    <time>2014-02-14T07:30:36Z</time>
   </trkpt>
   <trkpt lat="32.8660060" lon="35.2486440">
    <ele>298.9</ele>
    <time>2014-02-14T07:30:38Z</time>
   </trkpt>
   <trkpt lat="32.8659790" lon="35.2486580">
    <ele>299.1</ele>
    <time>2014-02-14T07:30:40Z</time>
   </trkpt>
   <trkpt lat="32.8659490" lon="35.2486710">
    <ele>299.4</ele>
    <time>2014-02-14T07:30:42Z</time>
   </trkpt>
   <trkpt lat="32.8659210" lon="35.2486870">
    <ele>299.7</ele>
    <time>2014-02-14T07:30:44Z</time>
   </trkpt>
   <trkpt lat="32.8658940" lon="35.2487080">
    <ele>300.1</ele>
    <time>2014-02-14T07:30:46Z</time>
   </trkpt>
   <trkpt lat="32.8658610" lon="35.2487220">
    <ele>300.4</ele>
    <time>2014-02-14T07:30:48Z</time>
   </trkpt>
   <trkpt lat="32.8658300" lon="35.2487290">
    <ele>300.5</ele>
    <time>2014-02-14T07:30:50Z</time>
   </trkpt>
   <trkpt lat="32.8657970" lon="35.2487490">
    <ele>300.9</ele>
    <time>2014-02-14T07:30:52Z</time>
   </trkpt>
   <trkpt lat="32.8657640" lon="35.2487670">
    <ele>301.2</ele>
    <time>2014-02-14T07:30:54Z</time>
   </trkpt>
   <trkpt lat="32.8657330" lon="35.2487830">
    <ele>301.5</ele>
    <time>2014-02-14T07:30:56Z</time>
   </trkpt>
   <trkpt lat="32.8657040" lon="35.2488010">
    <ele>301.8</ele>
    <time>2014-02-14T07:30:58Z</time>
   </trkpt>
   <trkpt lat="32.8656750" lon="35.2488130">
    <ele>302.0</ele>
    <time>2014-02-14T07:31:00Z</time>
   </trkpt>
   <trkpt lat="32.8656360" lon="35.2488080">
    <ele>301.8</ele>
    <time>2014-02-14T07:31:03Z</time>
   </trkpt>
   <trkpt lat="32.8656020" lon="35.2488030">
    <ele>301.6</ele>
    <time>2014-02-14T07:31:06Z</time>
   </trkpt>
   <trkpt lat="32.8655630" lon="35.2487940">
    <ele>301.4</ele>
    <time>2014-02-14T07:31:09Z</time>
   </trkpt>
   <trkpt lat="32.8655230" lon="35.2487880">
    <ele>301.1</ele>
    <time>2014-02-14T07:31:12Z</time>
   </trkpt>
   <trkpt lat="32.8654930" lon="35.2487930">
    <ele>301.2</ele>
    <time>2014-02-14T07:31:14Z</time>
   </trkpt>
   <trkpt lat="32.8654640" lon="35.2487870">
    <ele>301.0</ele>
    <time>2014-02-14T07:31:16Z</time>
   </trkpt>
   <trkpt lat="32.8654360" lon="35.2487800">
    <ele>300.8</ele>
    <time>2014-02-14T07:31:18Z</time>
   </trkpt>
   <trkpt lat="32.8654040" lon="35.2487890">
    <ele>300.8</ele>
    <time>2014-02-14T07:31:20Z</time>
   </trkpt>
   <trkpt lat="32.8653700" lon="35.2488000">
    <ele>300.7</ele>
    <time>2014-02-14T07:31:22Z</time>
   </trkpt>
   <trkpt lat="32.8653380" lon="35.2488070">
    <ele>300.5</ele>
    <time>2014-02-14T07:31:24Z</time>
   </trkpt>
   <trkpt lat="32.8653060" lon="35.2488110">
    <ele>300.3</ele>
    <time>2014-02-14T07:31:26Z</time>
   </trkpt>
   <trkpt lat="32.8652670" lon="35.2488120">
    <ele>299.9</ele>
    <time>2014-02-14T07:31:28Z</time>
   </trkpt>
   <trkpt lat="32.8652360" lon="35.2488170">
    <ele>299.6</ele>
    <time>2014-02-14T07:31:30Z</time>
   </trkpt>
   <trkpt lat="32.8651970" lon="35.2488130">
    <ele>299.1</ele>
    <time>2014-02-14T07:31:33Z</time>
   </trkpt>
   <trkpt lat="32.8651600" lon="35.2487980">
    <ele>298.4</ele>
    <time>2014-02-14T07:31:36Z</time>
   </trkpt>
   <trkpt lat="32.8651270" lon="35.2487900">
    <ele>297.8</ele>
    <time>2014-02-14T07:31:38Z</time>
   </trkpt>
   <trkpt lat="32.8650960" lon="35.2487870">
    <ele>297.4</ele>
    <time>2014-02-14T07:31:40Z</time>
   </trkpt>
   <trkpt lat="32.8650680" lon="35.2488050">
    <ele>297.5</ele>
    <time>2014-02-14T07:31:42Z</time>
   </trkpt>
   <trkpt lat="32.8650410" lon="35.2488340">
    <ele>297.9</ele>
    <time>2014-02-14T07:31:44Z</time>
   </trkpt>
   <trkpt lat="32.8650160" lon="35.2488630">
    <ele>298.3</ele>
    <time>2014-02-14T07:31:46Z</time>
   </trkpt>
   <trkpt lat="32.8649880" lon="35.2488850">
    <ele>298.5</ele>
    <time>2014-02-14T07:31:48Z</time>
   </trkpt>
   <trkpt lat="32.8649540" lon="35.2488910">
    <ele>298.3</ele>
    <time>2014-02-14T07:31:50Z</time>
   </trkpt>
   <trkpt lat="32.8649200" lon="35.2489140">
    <ele>298.5</ele>
    <time>2014-02-14T07:31:52Z</time>
   </trkpt>
   <trkpt lat="32.8648830" lon="35.2489230">
    <ele>298.3</ele>
    <time>2014-02-14T07:31:54Z</time>
   </trkpt>
   <trkpt lat="32.8648440" lon="35.2489240">
    <ele>297.8</ele>
    <time>2014-02-14T07:31:56Z</time>
   </trkpt>
   <trkpt lat="32.8648030" lon="35.2489260">
    <ele>297.4</ele>
    <time>2014-02-14T07:31:58Z</time>
   </trkpt>
   <trkpt lat="32.8647520" lon="35.2489250">
    <ele>296.9</ele>
    <time>2014-02-14T07:32:00Z</time>
   </trkpt>
   <trkpt lat="32.8647010" lon="35.2489370">
    <ele>296.6</ele>
    <time>2014-02-14T07:32:02Z</time>
   </trkpt>
   <trkpt lat="32.8646570" lon="35.2489510">
    <ele>296.4</ele>
    <time>2014-02-14T07:32:04Z</time>
   </trkpt>
   <trkpt lat="32.8646210" lon="35.2489660">
    <ele>296.3</ele>
    <time>2014-02-14T07:32:06Z</time>
   </trkpt>
   <trkpt lat="32.8645800" lon="35.2489720">
    <ele>296.0</ele>
    <time>2014-02-14T07:32:08Z</time>
   </trkpt>
   <trkpt lat="32.8645230" lon="35.2489840">
    <ele>295.4</ele>
    <time>2014-02-14T07:32:10Z</time>
   </trkpt>
   <trkpt lat="32.8644900" lon="35.2489890">
    <ele>295.0</ele>
    <time>2014-02-14T07:32:11Z</time>
   </trkpt>
   <trkpt lat="32.8644560" lon="35.2489910">
    <ele>294.5</ele>
    <time>2014-02-14T07:32:12Z</time>
   </trkpt>
   <trkpt lat="32.8644230" lon="35.2489930">
    <ele>294.1</ele>
    <time>2014-02-14T07:32:13Z</time>
   </trkpt>
   <trkpt lat="32.8643890" lon="35.2489970">
    <ele>293.7</ele>
    <time>2014-02-14T07:32:14Z</time>
   </trkpt>
   <trkpt lat="32.8643560" lon="35.2490010">
    <ele>293.2</ele>
    <time>2014-02-14T07:32:15Z</time>
   </trkpt>
   <trkpt lat="32.8643240" lon="35.2490070">
    <ele>292.9</ele>
    <time>2014-02-14T07:32:16Z</time>
   </trkpt>
   <trkpt lat="32.8642920" lon="35.2490120">
    <ele>292.5</ele>
    <time>2014-02-14T07:32:17Z</time>
   </trkpt>
   <trkpt lat="32.8642640" lon="35.2490170">
    <ele>292.1</ele>
    <time>2014-02-14T07:32:18Z</time>
   </trkpt>
   <trkpt lat="32.8642310" lon="35.2490340">
    <ele>292.0</ele>
    <time>2014-02-14T07:32:20Z</time>
   </trkpt>
   <trkpt lat="32.8642430" lon="35.2490690">
    <ele>292.8</ele>
    <time>2014-02-14T07:32:25Z</time>
   </trkpt>
   <trkpt lat="32.8642660" lon="35.2490940">
    <ele>293.7</ele>
    <time>2014-02-14T07:32:28Z</time>
   </trkpt>
   <trkpt lat="32.8642950" lon="35.2490730">
    <ele>293.8</ele>
    <time>2014-02-14T07:36:30Z</time>
   </trkpt>
   <trkpt lat="32.8643140" lon="35.2490460">
    <ele>293.5</ele>
    <time>2014-02-14T07:36:31Z</time>
   </trkpt>
   <trkpt lat="32.8643480" lon="35.2490040">
    <ele>293.2</ele>
    <time>2014-02-14T07:36:32Z</time>
   </trkpt>
   <trkpt lat="32.8643860" lon="35.2489560">
    <ele>292.7</ele>
    <time>2014-02-14T07:36:33Z</time>
   </trkpt>
   <trkpt lat="32.8644470" lon="35.2488910">
    <ele>292.2</ele>
    <time>2014-02-14T07:36:34Z</time>
   </trkpt>
   <trkpt lat="32.8644840" lon="35.2488510">
    <ele>291.9</ele>
    <time>2014-02-14T07:36:35Z</time>
   </trkpt>
   <trkpt lat="32.8645120" lon="35.2488320">
    <ele>291.9</ele>
    <time>2014-02-14T07:36:36Z</time>
   </trkpt>
   <trkpt lat="32.8645440" lon="35.2488040">
    <ele>291.7</ele>
    <time>2014-02-14T07:36:37Z</time>
   </trkpt>
   <trkpt lat="32.8645570" lon="35.2487710">
    <ele>291.1</ele>
    <time>2014-02-14T07:36:38Z</time>
   </trkpt>
   <trkpt lat="32.8645270" lon="35.2487170">
    <ele>289.6</ele>
    <time>2014-02-14T07:36:40Z</time>
   </trkpt>
   <trkpt lat="32.8644930" lon="35.2486760">
    <ele>288.4</ele>
    <time>2014-02-14T07:36:41Z</time>
   </trkpt>
   <trkpt lat="32.8644640" lon="35.2486860">
    <ele>288.2</ele>
    <time>2014-02-14T07:36:43Z</time>
   </trkpt>
   <trkpt lat="32.8644090" lon="35.2486920">
    <ele>287.6</ele>
    <time>2014-02-14T07:36:45Z</time>
   </trkpt>
   <trkpt lat="32.8643630" lon="35.2486800">
    <ele>286.8</ele>
    <time>2014-02-14T07:36:47Z</time>
   </trkpt>
   <trkpt lat="32.8643580" lon="35.2486290">
    <ele>285.8</ele>
    <time>2014-02-14T07:36:49Z</time>
   </trkpt>
   <trkpt lat="32.8644010" lon="35.2485920">
    <ele>285.6</ele>
    <time>2014-02-14T07:36:51Z</time>
   </trkpt>
   <trkpt lat="32.8644330" lon="35.2485890">
    <ele>285.9</ele>
    <time>2014-02-14T07:36:52Z</time>
   </trkpt>
   <trkpt lat="32.8644740" lon="35.2485840">
    <ele>286.3</ele>
    <time>2014-02-14T07:36:53Z</time>
   </trkpt>
   <trkpt lat="32.8645160" lon="35.2485800">
    <ele>286.7</ele>
    <time>2014-02-14T07:36:54Z</time>
   </trkpt>
   <trkpt lat="32.8645690" lon="35.2485750">
    <ele>287.3</ele>
    <time>2014-02-14T07:36:55Z</time>
   </trkpt>
   <trkpt lat="32.8646150" lon="35.2485680">
    <ele>287.6</ele>
    <time>2014-02-14T07:36:56Z</time>
   </trkpt>
   <trkpt lat="32.8646580" lon="35.2485620">
    <ele>287.8</ele>
    <time>2014-02-14T07:36:57Z</time>
   </trkpt>
   <trkpt lat="32.8646920" lon="35.2485320">
    <ele>287.5</ele>
    <time>2014-02-14T07:36:58Z</time>
   </trkpt>
   <trkpt lat="32.8647120" lon="35.2484900">
    <ele>286.7</ele>
    <time>2014-02-14T07:36:59Z</time>
   </trkpt>
   <trkpt lat="32.8647140" lon="35.2484340">
    <ele>285.5</ele>
    <time>2014-02-14T07:37:00Z</time>
   </trkpt>
   <trkpt lat="32.8647050" lon="35.2483780">
    <ele>284.3</ele>
    <time>2014-02-14T07:37:01Z</time>
   </trkpt>
   <trkpt lat="32.8646880" lon="35.2483230">
    <ele>283.0</ele>
    <time>2014-02-14T07:37:02Z</time>
   </trkpt>
   <trkpt lat="32.8646710" lon="35.2482700">
    <ele>281.7</ele>
    <time>2014-02-14T07:37:03Z</time>
   </trkpt>
   <trkpt lat="32.8646510" lon="35.2482230">
    <ele>280.6</ele>
    <time>2014-02-14T07:37:04Z</time>
   </trkpt>
   <trkpt lat="32.8646320" lon="35.2481850">
    <ele>279.7</ele>
    <time>2014-02-14T07:37:05Z</time>
   </trkpt>
   <trkpt lat="32.8646100" lon="35.2481580">
    <ele>279.1</ele>
    <time>2014-02-14T07:37:06Z</time>
   </trkpt>
   <trkpt lat="32.8645830" lon="35.2481370">
    <ele>278.5</ele>
    <time>2014-02-14T07:37:08Z</time>
   </trkpt>
   <trkpt lat="32.8645520" lon="35.2481080">
    <ele>277.7</ele>
    <time>2014-02-14T07:37:10Z</time>
   </trkpt>
   <trkpt lat="32.8645240" lon="35.2480920">
    <ele>277.1</ele>
    <time>2014-02-14T07:37:11Z</time>
   </trkpt>
   <trkpt lat="32.8644900" lon="35.2480690">
    <ele>276.4</ele>
    <time>2014-02-14T07:37:12Z</time>
   </trkpt>
   <trkpt lat="32.8644520" lon="35.2480430">
    <ele>275.6</ele>
    <time>2014-02-14T07:37:13Z</time>
   </trkpt>
   <trkpt lat="32.8644090" lon="35.2480140">
    <ele>274.8</ele>
    <time>2014-02-14T07:37:14Z</time>
   </trkpt>
   <trkpt lat="32.8643550" lon="35.2479930">
    <ele>274.0</ele>
    <time>2014-02-14T07:37:15Z</time>
   </trkpt>
   <trkpt lat="32.8642670" lon="35.2480220">
    <ele>274.0</ele>
    <time>2014-02-14T07:37:16Z</time>
   </trkpt>
   <trkpt lat="32.8642130" lon="35.2480110">
    <ele>273.4</ele>
    <time>2014-02-14T07:37:17Z</time>
   </trkpt>
   <trkpt lat="32.8641700" lon="35.2479900">
    <ele>272.8</ele>
    <time>2014-02-14T07:37:18Z</time>
   </trkpt>
   <trkpt lat="32.8641300" lon="35.2479740">
    <ele>272.2</ele>
    <time>2014-02-14T07:37:19Z</time>
   </trkpt>
   <trkpt lat="32.8640780" lon="35.2479670">
    <ele>271.8</ele>
    <time>2014-02-14T07:37:20Z</time>
   </trkpt>
   <trkpt lat="32.8640250" lon="35.2479560">
    <ele>271.3</ele>
    <time>2014-02-14T07:37:21Z</time>
   </trkpt>
   <trkpt lat="32.8639660" lon="35.2479560">
    <ele>270.9</ele>
    <time>2014-02-14T07:37:22Z</time>
   </trkpt>
   <trkpt lat="32.8639080" lon="35.2479330">
    <ele>270.2</ele>
    <time>2014-02-14T07:37:23Z</time>
   </trkpt>
   <trkpt lat="32.8638740" lon="35.2478940">
    <ele>269.5</ele>
    <time>2014-02-14T07:37:24Z</time>
   </trkpt>
   <trkpt lat="32.8638450" lon="35.2478490">
    <ele>268.7</ele>
    <time>2014-02-14T07:37:25Z</time>
   </trkpt>
   <trkpt lat="32.8637890" lon="35.2478100">
    <ele>267.9</ele>
    <time>2014-02-14T07:37:26Z</time>
   </trkpt>
   <trkpt lat="32.8637710" lon="35.2477490">
    <ele>267.1</ele>
    <time>2014-02-14T07:37:27Z</time>
   </trkpt>
   <trkpt lat="32.8637440" lon="35.2476950">
    <ele>266.3</ele>
    <time>2014-02-14T07:37:28Z</time>
   </trkpt>
   <trkpt lat="32.8637300" lon="35.2476310">
    <ele>265.3</ele>
    <time>2014-02-14T07:37:29Z</time>
   </trkpt>
   <trkpt lat="32.8636990" lon="35.2475760">
    <ele>264.3</ele>
    <time>2014-02-14T07:37:30Z</time>
   </trkpt>
   <trkpt lat="32.8636870" lon="35.2475370">
    <ele>263.7</ele>
    <time>2014-02-14T07:37:31Z</time>
   </trkpt>
   <trkpt lat="32.8637140" lon="35.2475240">
    <ele>263.9</ele>
    <time>2014-02-14T07:37:32Z</time>
   </trkpt>
   <trkpt lat="32.8637220" lon="35.2474720">
    <ele>263.3</ele>
    <time>2014-02-14T07:37:34Z</time>
   </trkpt>
   <trkpt lat="32.8637460" lon="35.2474560">
    <ele>263.4</ele>
    <time>2014-02-14T07:37:36Z</time>
   </trkpt>
   <trkpt lat="32.8637560" lon="35.2474110">
    <ele>263.0</ele>
    <time>2014-02-14T07:37:37Z</time>
   </trkpt>
   <trkpt lat="32.8637620" lon="35.2473750">
    <ele>262.5</ele>
    <time>2014-02-14T07:37:38Z</time>
   </trkpt>
   <trkpt lat="32.8638130" lon="35.2473050">
    <ele>261.8</ele>
    <time>2014-02-14T07:37:39Z</time>
   </trkpt>
   <trkpt lat="32.8637880" lon="35.2472580">
    <ele>261.2</ele>
    <time>2014-02-14T07:37:40Z</time>
   </trkpt>
   <trkpt lat="32.8637930" lon="35.2472150">
    <ele>260.7</ele>
    <time>2014-02-14T07:37:41Z</time>
   </trkpt>
   <trkpt lat="32.8638160" lon="35.2471670">
    <ele>260.1</ele>
    <time>2014-02-14T07:37:42Z</time>
   </trkpt>
   <trkpt lat="32.8638360" lon="35.2471140">
    <ele>259.5</ele>
    <time>2014-02-14T07:37:43Z</time>
   </trkpt>
   <trkpt lat="32.8638970" lon="35.2470410">
    <ele>258.5</ele>
    <time>2014-02-14T07:37:44Z</time>
   </trkpt>
   <trkpt lat="32.8639290" lon="35.2470310">
    <ele>258.3</ele>
    <time>2014-02-14T07:37:45Z</time>
   </trkpt>
   <trkpt lat="32.8639870" lon="35.2470140">
    <ele>258.1</ele>
    <time>2014-02-14T07:37:46Z</time>
   </trkpt>
   <trkpt lat="32.8640340" lon="35.2470090">
    <ele>258.1</ele>
    <time>2014-02-14T07:37:47Z</time>
   </trkpt>
   <trkpt lat="32.8640690" lon="35.2469930">
    <ele>257.8</ele>
    <time>2014-02-14T07:37:48Z</time>
   </trkpt>
   <trkpt lat="32.8641200" lon="35.2469350">
    <ele>256.8</ele>
    <time>2014-02-14T07:37:49Z</time>
   </trkpt>
   <trkpt lat="32.8640530" lon="35.2469660">
    <ele>257.3</ele>
    <time>2014-02-14T07:37:50Z</time>
   </trkpt>
   <trkpt lat="32.8639610" lon="35.2469760">
    <ele>257.4</ele>
    <time>2014-02-14T07:37:51Z</time>
   </trkpt>
   <trkpt lat="32.8639530" lon="35.2469450">
    <ele>256.9</ele>
    <time>2014-02-14T07:37:52Z</time>
   </trkpt>
   <trkpt lat="32.8639100" lon="35.2469140">
    <ele>256.4</ele>
    <time>2014-02-14T07:37:54Z</time>
   </trkpt>
   <trkpt lat="32.8639750" lon="35.2468640">
    <ele>255.6</ele>
    <time>2014-02-14T07:37:57Z</time>
   </trkpt>
   <trkpt lat="32.8640160" lon="35.2468530">
    <ele>255.4</ele>
    <time>2014-02-14T07:37:58Z</time>
   </trkpt>
   <trkpt lat="32.8640450" lon="35.2468210">
    <ele>254.8</ele>
    <time>2014-02-14T07:37:59Z</time>
   </trkpt>
   <trkpt lat="32.8640700" lon="35.2468100">
    <ele>254.6</ele>
    <time>2014-02-14T07:38:00Z</time>
   </trkpt>
   <trkpt lat="32.8641070" lon="35.2468010">
    <ele>254.4</ele>
    <time>2014-02-14T07:38:01Z</time>
   </trkpt>
   <trkpt lat="32.8641400" lon="35.2467870">
    <ele>254.2</ele>
    <time>2014-02-14T07:38:02Z</time>
   </trkpt>
   <trkpt lat="32.8641750" lon="35.2467700">
    <ele>253.9</ele>
    <time>2014-02-14T07:38:03Z</time>
   </trkpt>
   <trkpt lat="32.8642140" lon="35.2467470">
    <ele>253.4</ele>
    <time>2014-02-14T07:38:04Z</time>
   </trkpt>
   <trkpt lat="32.8642830" lon="35.2467170">
    <ele>252.8</ele>
    <time>2014-02-14T07:38:05Z</time>
   </trkpt>
   <trkpt lat="32.8644150" lon="35.2466560">
    <ele>251.5</ele>
    <time>2014-02-14T07:38:06Z</time>
   </trkpt>
   <trkpt lat="32.8644640" lon="35.2466170">
    <ele>250.7</ele>
    <time>2014-02-14T07:38:07Z</time>
   </trkpt>
   <trkpt lat="32.8644580" lon="35.2465760">
    <ele>249.9</ele>
    <time>2014-02-14T07:38:08Z</time>
   </trkpt>
   <trkpt lat="32.8644160" lon="35.2465730">
    <ele>249.9</ele>
    <time>2014-02-14T07:38:10Z</time>
   </trkpt>
   <trkpt lat="32.8643860" lon="35.2465080">
    <ele>248.7</ele>
    <time>2014-02-14T07:38:11Z</time>
   </trkpt>
   <trkpt lat="32.8643500" lon="35.2464750">
    <ele>248.1</ele>
    <time>2014-02-14T07:38:12Z</time>
   </trkpt>
   <trkpt lat="32.8643180" lon="35.2464310">
    <ele>247.4</ele>
    <time>2014-02-14T07:38:13Z</time>
   </trkpt>
   <trkpt lat="32.8642790" lon="35.2463800">
    <ele>246.5</ele>
    <time>2014-02-14T07:38:14Z</time>
   </trkpt>
   <trkpt lat="32.8642100" lon="35.2463120">
    <ele>245.5</ele>
    <time>2014-02-14T07:38:15Z</time>
   </trkpt>
   <trkpt lat="32.8641690" lon="35.2462700">
    <ele>244.9</ele>
    <time>2014-02-14T07:38:16Z</time>
   </trkpt>
   <trkpt lat="32.8641620" lon="35.2461880">
    <ele>243.6</ele>
    <time>2014-02-14T07:38:17Z</time>
   </trkpt>
   <trkpt lat="32.8641540" lon="35.2461290">
    <ele>242.8</ele>
    <time>2014-02-14T07:38:18Z</time>
   </trkpt>
   <trkpt lat="32.8641310" lon="35.2460890">
    <ele>242.2</ele>
    <time>2014-02-14T07:38:19Z</time>
   </trkpt>
   <trkpt lat="32.8640950" lon="35.2460580">
    <ele>241.8</ele>
    <time>2014-02-14T07:38:20Z</time>
   </trkpt>
   <trkpt lat="32.8640620" lon="35.2460190">
    <ele>241.3</ele>
    <time>2014-02-14T07:38:21Z</time>
   </trkpt>
   <trkpt lat="32.8640290" lon="35.2459840">
    <ele>240.7</ele>
    <time>2014-02-14T07:38:22Z</time>
   </trkpt>
   <trkpt lat="32.8640050" lon="35.2459070">
    <ele>239.5</ele>
    <time>2014-02-14T07:38:23Z</time>
   </trkpt>
   <trkpt lat="32.8639880" lon="35.2458350">
    <ele>238.3</ele>
    <time>2014-02-14T07:38:24Z</time>
   </trkpt>
   <trkpt lat="32.8639540" lon="35.2457830">
    <ele>237.4</ele>
    <time>2014-02-14T07:38:25Z</time>
   </trkpt>
   <trkpt lat="32.8639170" lon="35.2457530">
    <ele>236.8</ele>
    <time>2014-02-14T07:38:26Z</time>
   </trkpt>
   <trkpt lat="32.8638980" lon="35.2457070">
    <ele>236.0</ele>
    <time>2014-02-14T07:38:27Z</time>
   </trkpt>
   <trkpt lat="32.8639170" lon="35.2456420">
    <ele>234.9</ele>
    <time>2014-02-14T07:38:29Z</time>
   </trkpt>
   <trkpt lat="32.8639050" lon="35.2456090">
    <ele>234.3</ele>
    <time>2014-02-14T07:38:30Z</time>
   </trkpt>
   <trkpt lat="32.8638800" lon="35.2455580">
    <ele>233.3</ele>
    <time>2014-02-14T07:38:31Z</time>
   </trkpt>
   <trkpt lat="32.8638620" lon="35.2455090">
    <ele>232.3</ele>
    <time>2014-02-14T07:38:32Z</time>
   </trkpt>
   <trkpt lat="32.8638350" lon="35.2454570">
    <ele>231.2</ele>
    <time>2014-02-14T07:38:33Z</time>
   </trkpt>
   <trkpt lat="32.8638180" lon="35.2453970">
    <ele>230.3</ele>
    <time>2014-02-14T07:38:34Z</time>
   </trkpt>
   <trkpt lat="32.8638010" lon="35.2453550">
    <ele>230.0</ele>
    <time>2014-02-14T07:38:35Z</time>
   </trkpt>
   <trkpt lat="32.8637920" lon="35.2452950">
    <ele>229.7</ele>
    <time>2014-02-14T07:38:36Z</time>
   </trkpt>
   <trkpt lat="32.8637810" lon="35.2452390">
    <ele>229.4</ele>
    <time>2014-02-14T07:38:37Z</time>
   </trkpt>
   <trkpt lat="32.8637600" lon="35.2451770">
    <ele>228.9</ele>
    <time>2014-02-14T07:38:38Z</time>
   </trkpt>
   <trkpt lat="32.8637630" lon="35.2451450">
    <ele>228.8</ele>
    <time>2014-02-14T07:38:39Z</time>
   </trkpt>
   <trkpt lat="32.8637200" lon="35.2451530">
    <ele>228.5</ele>
    <time>2014-02-14T07:38:40Z</time>
   </trkpt>
   <trkpt lat="32.8636360" lon="35.2451800">
    <ele>228.1</ele>
    <time>2014-02-14T07:38:41Z</time>
   </trkpt>
   <trkpt lat="32.8636000" lon="35.2451970">
    <ele>228.0</ele>
    <time>2014-02-14T07:38:42Z</time>
   </trkpt>
   <trkpt lat="32.8635810" lon="35.2451400">
    <ele>227.5</ele>
    <time>2014-02-14T07:38:43Z</time>
   </trkpt>
   <trkpt lat="32.8635540" lon="35.2451150">
    <ele>227.2</ele>
    <time>2014-02-14T07:38:44Z</time>
   </trkpt>
   <trkpt lat="32.8635390" lon="35.2450800">
    <ele>226.9</ele>
    <time>2014-02-14T07:38:45Z</time>
   </trkpt>
   <trkpt lat="32.8635170" lon="35.2450550">
    <ele>226.5</ele>
    <time>2014-02-14T07:38:46Z</time>
   </trkpt>
   <trkpt lat="32.8634730" lon="35.2450280">
    <ele>226.0</ele>
    <time>2014-02-14T07:38:47Z</time>
   </trkpt>
   <trkpt lat="32.8634430" lon="35.2450000">
    <ele>225.6</ele>
    <time>2014-02-14T07:38:48Z</time>
   </trkpt>
   <trkpt lat="32.8634020" lon="35.2449560">
    <ele>225.0</ele>
    <time>2014-02-14T07:38:50Z</time>
   </trkpt>
   <trkpt lat="32.8633730" lon="35.2449390">
    <ele>224.6</ele>
    <time>2014-02-14T07:38:51Z</time>
   </trkpt>
   <trkpt lat="32.8633440" lon="35.2449270">
    <ele>224.3</ele>
    <time>2014-02-14T07:38:52Z</time>
   </trkpt>
   <trkpt lat="32.8633140" lon="35.2449170">
    <ele>223.9</ele>
    <time>2014-02-14T07:38:53Z</time>
   </trkpt>
   <trkpt lat="32.8632840" lon="35.2449040">
    <ele>223.6</ele>
    <time>2014-02-14T07:38:54Z</time>
   </trkpt>
   <trkpt lat="32.8632550" lon="35.2448850">
    <ele>223.2</ele>
    <time>2014-02-14T07:38:55Z</time>
   </trkpt>
   <trkpt lat="32.8632240" lon="35.2448580">
    <ele>222.7</ele>
    <time>2014-02-14T07:38:56Z</time>
   </trkpt>
   <trkpt lat="32.8631930" lon="35.2448240">
    <ele>222.1</ele>
    <time>2014-02-14T07:38:57Z</time>
   </trkpt>
   <trkpt lat="32.8631500" lon="35.2447710">
    <ele>221.2</ele>
    <time>2014-02-14T07:38:58Z</time>
   </trkpt>
   <trkpt lat="32.8630340" lon="35.2447120">
    <ele>219.5</ele>
    <time>2014-02-14T07:38:59Z</time>
   </trkpt>
   <trkpt lat="32.8629700" lon="35.2446570">
    <ele>218.3</ele>
    <time>2014-02-14T07:39:00Z</time>
   </trkpt>
   <trkpt lat="32.8629100" lon="35.2446150">
    <ele>217.2</ele>
    <time>2014-02-14T07:39:01Z</time>
   </trkpt>
   <trkpt lat="32.8628970" lon="35.2445660">
    <ele>216.7</ele>
    <time>2014-02-14T07:39:04Z</time>
   </trkpt>
   <trkpt lat="32.8628780" lon="35.2445350">
    <ele>216.4</ele>
    <time>2014-02-14T07:39:05Z</time>
   </trkpt>
   <trkpt lat="32.8628420" lon="35.2445230">
    <ele>215.8</ele>
    <time>2014-02-14T07:39:06Z</time>
   </trkpt>
   <trkpt lat="32.8628000" lon="35.2445080">
    <ele>215.1</ele>
    <time>2014-02-14T07:39:07Z</time>
   </trkpt>
   <trkpt lat="32.8627710" lon="35.2444110">
    <ele>214.6</ele>
    <time>2014-02-14T07:39:08Z</time>
   </trkpt>
   <trkpt lat="32.8627310" lon="35.2442800">
    <ele>213.8</ele>
    <time>2014-02-14T07:39:09Z</time>
   </trkpt>
   <trkpt lat="32.8626390" lon="35.2442350">
    <ele>212.1</ele>
    <time>2014-02-14T07:39:10Z</time>
   </trkpt>
   <trkpt lat="32.8625960" lon="35.2442370">
    <ele>211.2</ele>
    <time>2014-02-14T07:39:11Z</time>
   </trkpt>
   <trkpt lat="32.8625570" lon="35.2441990">
    <ele>210.4</ele>
    <time>2014-02-14T07:39:12Z</time>
   </trkpt>
   <trkpt lat="32.8625160" lon="35.2441630">
    <ele>209.6</ele>
    <time>2014-02-14T07:39:13Z</time>
   </trkpt>
   <trkpt lat="32.8624770" lon="35.2441280">
    <ele>208.7</ele>
    <time>2014-02-14T07:39:14Z</time>
   </trkpt>
   <trkpt lat="32.8624020" lon="35.2441870">
    <ele>207.4</ele>
    <time>2014-02-14T07:39:15Z</time>
   </trkpt>
   <trkpt lat="32.8624320" lon="35.2442310">
    <ele>208.1</ele>
    <time>2014-02-14T07:39:16Z</time>
   </trkpt>
   <trkpt lat="32.8623930" lon="35.2442740">
    <ele>207.4</ele>
    <time>2014-02-14T07:39:18Z</time>
   </trkpt>
   <trkpt lat="32.8623780" lon="35.2444090">
    <ele>207.5</ele>
    <time>2014-02-14T07:39:19Z</time>
   </trkpt>
   <trkpt lat="32.8623570" lon="35.2445990">
    <ele>207.8</ele>
    <time>2014-02-14T07:39:20Z</time>
   </trkpt>
   <trkpt lat="32.8623180" lon="35.2444890">
    <ele>206.6</ele>
    <time>2014-02-14T07:39:21Z</time>
   </trkpt>
   <trkpt lat="32.8623160" lon="35.2444300">
    <ele>206.4</ele>
    <time>2014-02-14T07:39:22Z</time>
   </trkpt>
   <trkpt lat="32.8623280" lon="35.2443970">
    <ele>206.5</ele>
    <time>2014-02-14T07:39:23Z</time>
   </trkpt>
   <trkpt lat="32.8623030" lon="35.2443550">
    <ele>206.0</ele>
    <time>2014-02-14T07:39:28Z</time>
   </trkpt>
   <trkpt lat="32.8622980" lon="35.2443080">
    <ele>205.7</ele>
    <time>2014-02-14T07:39:30Z</time>
   </trkpt>
   <trkpt lat="32.8622970" lon="35.2442690">
    <ele>205.6</ele>
    <time>2014-02-14T07:39:32Z</time>
   </trkpt>
   <trkpt lat="32.8622950" lon="35.2442230">
    <ele>205.4</ele>
    <time>2014-02-14T07:39:35Z</time>
   </trkpt>
   <trkpt lat="32.8622940" lon="35.2441910">
    <ele>205.3</ele>
    <time>2014-02-14T07:39:48Z</time>
   </trkpt>
   <trkpt lat="32.8622860" lon="35.2441580">
    <ele>205.0</ele>
    <time>2014-02-14T07:40:33Z</time>
   </trkpt>
   <trkpt lat="32.8622750" lon="35.2441270">
    <ele>204.7</ele>
    <time>2014-02-14T07:41:03Z</time>
   </trkpt>
   <trkpt lat="32.8622550" lon="35.2441030">
    <ele>204.2</ele>
    <time>2014-02-14T07:41:06Z</time>
   </trkpt>
   <trkpt lat="32.8622270" lon="35.2440990">
    <ele>203.6</ele>
    <time>2014-02-14T07:41:10Z</time>
   </trkpt>
   <trkpt lat="32.8622340" lon="35.2440640">
    <ele>203.6</ele>
    <time>2014-02-14T07:41:13Z</time>
   </trkpt>
   <trkpt lat="32.8622380" lon="35.2440300">
    <ele>203.6</ele>
    <time>2014-02-14T07:41:16Z</time>
   </trkpt>
   <trkpt lat="32.8622300" lon="35.2439800">
    <ele>203.2</ele>
    <time>2014-02-14T07:41:19Z</time>
   </trkpt>
   <trkpt lat="32.8621960" lon="35.2439620">
    <ele>202.4</ele>
    <time>2014-02-14T07:41:20Z</time>
   </trkpt>
   <trkpt lat="32.8621570" lon="35.2439600">
    <ele>201.6</ele>
    <time>2014-02-14T07:41:21Z</time>
   </trkpt>
   <trkpt lat="32.8621100" lon="35.2439680">
    <ele>200.6</ele>
    <time>2014-02-14T07:41:22Z</time>
   </trkpt>
   <trkpt lat="32.8620630" lon="35.2439780">
    <ele>199.8</ele>
    <time>2014-02-14T07:41:23Z</time>
   </trkpt>
   <trkpt lat="32.8620280" lon="35.2439870">
    <ele>199.5</ele>
    <time>2014-02-14T07:41:24Z</time>
   </trkpt>
   <trkpt lat="32.8620010" lon="35.2440010">
    <ele>199.2</ele>
    <time>2014-02-14T07:41:25Z</time>
   </trkpt>
   <trkpt lat="32.8619740" lon="35.2440120">
    <ele>198.9</ele>
    <time>2014-02-14T07:41:27Z</time>
   </trkpt>
   <trkpt lat="32.8619570" lon="35.2439620">
    <ele>198.5</ele>
    <time>2014-02-14T07:41:30Z</time>
   </trkpt>
   <trkpt lat="32.8619390" lon="35.2439310">
    <ele>198.1</ele>
    <time>2014-02-14T07:41:34Z</time>
   </trkpt>
   <trkpt lat="32.8619140" lon="35.2439170">
    <ele>197.7</ele>
    <time>2014-02-14T07:41:42Z</time>
   </trkpt>
   <trkpt lat="32.8619040" lon="35.2438740">
    <ele>197.3</ele>
    <time>2014-02-14T07:41:45Z</time>
   </trkpt>
   <trkpt lat="32.8619250" lon="35.2439050">
    <ele>197.8</ele>
    <time>2014-02-14T07:41:50Z</time>
   </trkpt>
   <trkpt lat="32.8619220" lon="35.2439450">
    <ele>197.9</ele>
    <time>2014-02-14T07:41:52Z</time>
   </trkpt>
   <trkpt lat="32.8619180" lon="35.2439880">
    <ele>198.1</ele>
    <time>2014-02-14T07:41:54Z</time>
   </trkpt>
   <trkpt lat="32.8619140" lon="35.2440210">
    <ele>198.3</ele>
    <time>2014-02-14T07:41:56Z</time>
   </trkpt>
   <trkpt lat="32.8619160" lon="35.2440580">
    <ele>198.5</ele>
    <time>2014-02-14T07:42:03Z</time>
   </trkpt>
   <trkpt lat="32.8619400" lon="35.2440390">
    <ele>198.7</ele>
    <time>2014-02-14T07:42:21Z</time>
   </trkpt>
   <trkpt lat="32.8619610" lon="35.2439970">
    <ele>198.7</ele>
    <time>2014-02-14T07:42:28Z</time>
   </trkpt>
   <trkpt lat="32.8619870" lon="35.2439450">
    <ele>198.7</ele>
    <time>2014-02-14T07:42:30Z</time>
   </trkpt>
   <trkpt lat="32.8620290" lon="35.2439260">
    <ele>199.2</ele>
    <time>2014-02-14T07:42:32Z</time>
   </trkpt>
   <trkpt lat="32.8620660" lon="35.2439240">
    <ele>199.6</ele>
    <time>2014-02-14T07:42:34Z</time>
   </trkpt>
   <trkpt lat="32.8620950" lon="35.2439350">
    <ele>200.1</ele>
    <time>2014-02-14T07:42:36Z</time>
   </trkpt>
   <trkpt lat="32.8621310" lon="35.2439490">
    <ele>201.0</ele>
    <time>2014-02-14T07:42:38Z</time>
   </trkpt>
   <trkpt lat="32.8621780" lon="35.2439740">
    <ele>202.1</ele>
    <time>2014-02-14T07:42:40Z</time>
   </trkpt>
   <trkpt lat="32.8622020" lon="35.2439880">
    <ele>202.6</ele>
    <time>2014-02-14T07:42:41Z</time>
   </trkpt>
   <trkpt lat="32.8622510" lon="35.2440050">
    <ele>203.7</ele>
    <time>2014-02-14T07:42:43Z</time>
   </trkpt>
   <trkpt lat="32.8622990" lon="35.2440080">
    <ele>204.8</ele>
    <time>2014-02-14T07:42:45Z</time>
   </trkpt>
   <trkpt lat="32.8623510" lon="35.2440140">
    <ele>205.9</ele>
    <time>2014-02-14T07:42:47Z</time>
   </trkpt>
   <trkpt lat="32.8624020" lon="35.2440180">
    <ele>206.9</ele>
    <time>2014-02-14T07:42:49Z</time>
   </trkpt>
   <trkpt lat="32.8624460" lon="35.2440390">
    <ele>207.9</ele>
    <time>2014-02-14T07:42:51Z</time>
   </trkpt>
   <trkpt lat="32.8624680" lon="35.2440740">
    <ele>208.4</ele>
    <time>2014-02-14T07:42:53Z</time>
   </trkpt>
   <trkpt lat="32.8624900" lon="35.2441020">
    <ele>208.9</ele>
    <time>2014-02-14T07:43:00Z</time>
   </trkpt>
   <trkpt lat="32.8625280" lon="35.2441230">
    <ele>209.7</ele>
    <time>2014-02-14T07:43:03Z</time>
   </trkpt>
   <trkpt lat="32.8625350" lon="35.2441590">
    <ele>209.9</ele>
    <time>2014-02-14T07:43:07Z</time>
   </trkpt>
   <trkpt lat="32.8625660" lon="35.2441860">
    <ele>210.6</ele>
    <time>2014-02-14T07:43:12Z</time>
   </trkpt>
   <trkpt lat="32.8626090" lon="35.2441900">
    <ele>211.4</ele>
    <time>2014-02-14T07:43:14Z</time>
   </trkpt>
   <trkpt lat="32.8626420" lon="35.2442060">
    <ele>212.1</ele>
    <time>2014-02-14T07:43:16Z</time>
   </trkpt>
   <trkpt lat="32.8626800" lon="35.2442150">
    <ele>212.8</ele>
    <time>2014-02-14T07:43:18Z</time>
   </trkpt>
   <trkpt lat="32.8627120" lon="35.2442270">
    <ele>213.5</ele>
    <time>2014-02-14T07:43:20Z</time>
   </trkpt>
   <trkpt lat="32.8627420" lon="35.2442420">
    <ele>214.0</ele>
    <time>2014-02-14T07:43:22Z</time>
   </trkpt>
   <trkpt lat="32.8627620" lon="35.2442700">
    <ele>214.4</ele>
    <time>2014-02-14T07:43:24Z</time>
   </trkpt>
   <trkpt lat="32.8627780" lon="35.2443000">
    <ele>214.7</ele>
    <time>2014-02-14T07:43:26Z</time>
   </trkpt>
   <trkpt lat="32.8628130" lon="35.2443170">
    <ele>215.4</ele>
    <time>2014-02-14T07:43:28Z</time>
   </trkpt>
   <trkpt lat="32.8628550" lon="35.2443350">
    <ele>216.2</ele>
    <time>2014-02-14T07:43:30Z</time>
   </trkpt>
   <trkpt lat="32.8629040" lon="35.2443540">
    <ele>217.0</ele>
    <time>2014-02-14T07:43:32Z</time>
   </trkpt>
   <trkpt lat="32.8629450" lon="35.2443650">
    <ele>217.6</ele>
    <time>2014-02-14T07:43:33Z</time>
   </trkpt>
   <trkpt lat="32.8629840" lon="35.2443740">
    <ele>218.0</ele>
    <time>2014-02-14T07:43:34Z</time>
   </trkpt>
   <trkpt lat="32.8630210" lon="35.2443840">
    <ele>218.5</ele>
    <time>2014-02-14T07:43:35Z</time>
   </trkpt>
   <trkpt lat="32.8630550" lon="35.2443960">
    <ele>218.8</ele>
    <time>2014-02-14T07:43:36Z</time>
   </trkpt>
   <trkpt lat="32.8630870" lon="35.2444140">
    <ele>219.2</ele>
    <time>2014-02-14T07:43:37Z</time>
   </trkpt>
   <trkpt lat="32.8631200" lon="35.2444350">
    <ele>219.5</ele>
    <time>2014-02-14T07:43:38Z</time>
   </trkpt>
   <trkpt lat="32.8631500" lon="35.2444530">
    <ele>219.8</ele>
    <time>2014-02-14T07:43:39Z</time>
   </trkpt>
   <trkpt lat="32.8631920" lon="35.2444790">
    <ele>220.2</ele>
    <time>2014-02-14T07:43:41Z</time>
   </trkpt>
   <trkpt lat="32.8632200" lon="35.2445140">
    <ele>220.5</ele>
    <time>2014-02-14T07:43:43Z</time>
   </trkpt>
   <trkpt lat="32.8632410" lon="35.2445640">
    <ele>220.6</ele>
    <time>2014-02-14T07:43:45Z</time>
   </trkpt>
   <trkpt lat="32.8632580" lon="35.2446060">
    <ele>220.9</ele>
    <time>2014-02-14T07:43:47Z</time>
   </trkpt>
   <trkpt lat="32.8633010" lon="35.2446270">
    <ele>221.5</ele>
    <time>2014-02-14T07:43:49Z</time>
   </trkpt>
   <trkpt lat="32.8633420" lon="35.2446480">
    <ele>222.1</ele>
    <time>2014-02-14T07:43:51Z</time>
   </trkpt>
   <trkpt lat="32.8633870" lon="35.2446700">
    <ele>222.7</ele>
    <time>2014-02-14T07:43:53Z</time>
   </trkpt>
   <trkpt lat="32.8634260" lon="35.2446860">
    <ele>223.2</ele>
    <time>2014-02-14T07:43:55Z</time>
   </trkpt>
   <trkpt lat="32.8634550" lon="35.2447060">
    <ele>223.7</ele>
    <time>2014-02-14T07:43:57Z</time>
   </trkpt>
   <trkpt lat="32.8634780" lon="35.2447370">
    <ele>224.1</ele>
    <time>2014-02-14T07:43:59Z</time>
   </trkpt>
   <trkpt lat="32.8635020" lon="35.2447710">
    <ele>224.6</ele>
    <time>2014-02-14T07:44:01Z</time>
   </trkpt>
   <trkpt lat="32.8635250" lon="35.2448040">
    <ele>225.0</ele>
    <time>2014-02-14T07:44:03Z</time>
   </trkpt>
   <trkpt lat="32.8635480" lon="35.2448330">
    <ele>225.4</ele>
    <time>2014-02-14T07:44:05Z</time>
   </trkpt>
   <trkpt lat="32.8635580" lon="35.2448640">
    <ele>225.7</ele>
    <time>2014-02-14T07:44:07Z</time>
   </trkpt>
   <trkpt lat="32.8635830" lon="35.2448830">
    <ele>226.0</ele>
    <time>2014-02-14T07:44:09Z</time>
   </trkpt>
   <trkpt lat="32.8636190" lon="35.2449090">
    <ele>226.5</ele>
    <time>2014-02-14T07:44:11Z</time>
   </trkpt>
   <trkpt lat="32.8636500" lon="35.2449550">
    <ele>227.0</ele>
    <time>2014-02-14T07:44:13Z</time>
   </trkpt>
   <trkpt lat="32.8636810" lon="35.2449950">
    <ele>227.4</ele>
    <time>2014-02-14T07:44:15Z</time>
   </trkpt>
   <trkpt lat="32.8637140" lon="35.2450250">
    <ele>227.8</ele>
    <time>2014-02-14T07:44:17Z</time>
   </trkpt>
   <trkpt lat="32.8637430" lon="35.2450510">
    <ele>228.2</ele>
    <time>2014-02-14T07:44:19Z</time>
   </trkpt>
   <trkpt lat="32.8637760" lon="35.2450730">
    <ele>228.6</ele>
    <time>2014-02-14T07:44:21Z</time>
   </trkpt>
   <trkpt lat="32.8638070" lon="35.2450960">
    <ele>229.0</ele>
    <time>2014-02-14T07:44:23Z</time>
   </trkpt>
   <trkpt lat="32.8638350" lon="35.2451140">
    <ele>229.4</ele>
    <time>2014-02-14T07:44:25Z</time>
   </trkpt>
   <trkpt lat="32.8638680" lon="35.2451340">
    <ele>229.7</ele>
    <time>2014-02-14T07:44:27Z</time>
   </trkpt>
   <trkpt lat="32.8639050" lon="35.2451640">
    <ele>230.2</ele>
    <time>2014-02-14T07:44:29Z</time>
   </trkpt>
   <trkpt lat="32.8639290" lon="35.2451890">
    <ele>230.5</ele>
    <time>2014-02-14T07:44:30Z</time>
   </trkpt>
   <trkpt lat="32.8639510" lon="35.2452130">
    <ele>230.7</ele>
    <time>2014-02-14T07:44:31Z</time>
   </trkpt>
   <trkpt lat="32.8639740" lon="35.2452340">
    <ele>230.9</ele>
    <time>2014-02-14T07:44:32Z</time>
   </trkpt>
   <trkpt lat="32.8639970" lon="35.2452540">
    <ele>231.2</ele>
    <time>2014-02-14T07:44:33Z</time>
   </trkpt>
   <trkpt lat="32.8640200" lon="35.2452720">
    <ele>231.4</ele>
    <time>2014-02-14T07:44:34Z</time>
   </trkpt>
   <trkpt lat="32.8640580" lon="35.2453120">
    <ele>231.7</ele>
    <time>2014-02-14T07:44:36Z</time>
   </trkpt>
   <trkpt lat="32.8640940" lon="35.2453480">
    <ele>232.0</ele>
    <time>2014-02-14T07:44:38Z</time>
   </trkpt>
   <trkpt lat="32.8641260" lon="35.2453830">
    <ele>232.2</ele>
    <time>2014-02-14T07:44:40Z</time>
   </trkpt>
   <trkpt lat="32.8641600" lon="35.2454010">
    <ele>232.5</ele>
    <time>2014-02-14T07:44:42Z</time>
   </trkpt>
   <trkpt lat="32.8642010" lon="35.2454280">
    <ele>232.9</ele>
    <time>2014-02-14T07:44:44Z</time>
   </trkpt>
   <trkpt lat="32.8642370" lon="35.2454170">
    <ele>232.9</ele>
    <time>2014-02-14T07:44:46Z</time>
   </trkpt>
   <trkpt lat="32.8642780" lon="35.2453990">
    <ele>233.2</ele>
    <time>2014-02-14T07:44:48Z</time>
   </trkpt>
   <trkpt lat="32.8643090" lon="35.2453970">
    <ele>233.4</ele>
    <time>2014-02-14T07:44:50Z</time>
   </trkpt>
   <trkpt lat="32.8643510" lon="35.2454130">
    <ele>233.6</ele>
    <time>2014-02-14T07:44:54Z</time>
   </trkpt>
   <trkpt lat="32.8643730" lon="35.2454320">
    <ele>233.9</ele>
    <time>2014-02-14T07:44:57Z</time>
   </trkpt>
   <trkpt lat="32.8643900" lon="35.2454720">
    <ele>234.5</ele>
    <time>2014-02-14T07:45:04Z</time>
   </trkpt>
   <trkpt lat="32.8643910" lon="35.2455160">
    <ele>235.0</ele>
    <time>2014-02-14T07:45:06Z</time>
   </trkpt>
   <trkpt lat="32.8643840" lon="35.2455670">
    <ele>235.6</ele>
    <time>2014-02-14T07:45:08Z</time>
   </trkpt>
   <trkpt lat="32.8644100" lon="35.2455990">
    <ele>236.1</ele>
    <time>2014-02-14T07:45:10Z</time>
   </trkpt>
   <trkpt lat="32.8644520" lon="35.2456250">
    <ele>236.5</ele>
    <time>2014-02-14T07:45:12Z</time>
   </trkpt>
   <trkpt lat="32.8644880" lon="35.2456540">
    <ele>237.0</ele>
    <time>2014-02-14T07:45:14Z</time>
   </trkpt>
   <trkpt lat="32.8645090" lon="35.2456850">
    <ele>237.4</ele>
    <time>2014-02-14T07:45:16Z</time>
   </trkpt>
   <trkpt lat="32.8645310" lon="35.2457260">
    <ele>237.8</ele>
    <time>2014-02-14T07:45:18Z</time>
   </trkpt>
   <trkpt lat="32.8645450" lon="35.2457550">
    <ele>238.2</ele>
    <time>2014-02-14T07:45:19Z</time>
   </trkpt>
   <trkpt lat="32.8645720" lon="35.2458090">
    <ele>238.7</ele>
    <time>2014-02-14T07:45:21Z</time>
   </trkpt>
   <trkpt lat="32.8646080" lon="35.2458550">
    <ele>239.6</ele>
    <time>2014-02-14T07:45:23Z</time>
   </trkpt>
   <trkpt lat="32.8646550" lon="35.2458620">
    <ele>240.3</ele>
    <time>2014-02-14T07:45:25Z</time>
   </trkpt>
   <trkpt lat="32.8647010" lon="35.2458640">
    <ele>241.0</ele>
    <time>2014-02-14T07:45:27Z</time>
   </trkpt>
   <trkpt lat="32.8647390" lon="35.2458630">
    <ele>241.5</ele>
    <time>2014-02-14T07:45:29Z</time>
   </trkpt>
   <trkpt lat="32.8647680" lon="35.2458590">
    <ele>241.9</ele>
    <time>2014-02-14T07:45:31Z</time>
   </trkpt>
   <trkpt lat="32.8648050" lon="35.2458550">
    <ele>242.5</ele>
    <time>2014-02-14T07:45:34Z</time>
   </trkpt>
   <trkpt lat="32.8648360" lon="35.2458650">
    <ele>243.0</ele>
    <time>2014-02-14T07:45:36Z</time>
   </trkpt>
   <trkpt lat="32.8648780" lon="35.2458840">
    <ele>243.7</ele>
    <time>2014-02-14T07:45:38Z</time>
   </trkpt>
   <trkpt lat="32.8649100" lon="35.2459040">
    <ele>244.2</ele>
    <time>2014-02-14T07:45:40Z</time>
   </trkpt>
   <trkpt lat="32.8649400" lon="35.2459410">
    <ele>244.8</ele>
    <time>2014-02-14T07:45:42Z</time>
   </trkpt>
   <trkpt lat="32.8649420" lon="35.2459800">
    <ele>245.0</ele>
    <time>2014-02-14T07:45:44Z</time>
   </trkpt>
   <trkpt lat="32.8649230" lon="35.2460140">
    <ele>244.9</ele>
    <time>2014-02-14T07:45:46Z</time>
   </trkpt>
   <trkpt lat="32.8648880" lon="35.2460200">
    <ele>244.5</ele>
    <time>2014-02-14T07:45:48Z</time>
   </trkpt>
   <trkpt lat="32.8648590" lon="35.2460250">
    <ele>244.1</ele>
    <time>2014-02-14T07:45:50Z</time>
   </trkpt>
   <trkpt lat="32.8648170" lon="35.2460500">
    <ele>243.8</ele>
    <time>2014-02-14T07:45:52Z</time>
   </trkpt>
   <trkpt lat="32.8647940" lon="35.2460670">
    <ele>243.6</ele>
    <time>2014-02-14T07:45:53Z</time>
   </trkpt>
   <trkpt lat="32.8647710" lon="35.2460870">
    <ele>243.5</ele>
    <time>2014-02-14T07:45:54Z</time>
   </trkpt>
   <trkpt lat="32.8647360" lon="35.2461190">
    <ele>243.3</ele>
    <time>2014-02-14T07:45:56Z</time>
   </trkpt>
   <trkpt lat="32.8647040" lon="35.2461370">
    <ele>243.1</ele>
    <time>2014-02-14T07:45:58Z</time>
   </trkpt>
   <trkpt lat="32.8646720" lon="35.2461540">
    <ele>243.0</ele>
    <time>2014-02-14T07:46:00Z</time>
   </trkpt>
   <trkpt lat="32.8646440" lon="35.2461650">
    <ele>242.8</ele>
    <time>2014-02-14T07:46:02Z</time>
   </trkpt>
   <trkpt lat="32.8646060" lon="35.2461720">
    <ele>242.5</ele>
    <time>2014-02-14T07:46:04Z</time>
   </trkpt>
   <trkpt lat="32.8645600" lon="35.2461830">
    <ele>242.4</ele>
    <time>2014-02-14T07:46:06Z</time>
   </trkpt>
   <trkpt lat="32.8645140" lon="35.2461900">
    <ele>242.6</ele>
    <time>2014-02-14T07:46:08Z</time>
   </trkpt>
   <trkpt lat="32.8644770" lon="35.2461940">
    <ele>242.8</ele>
    <time>2014-02-14T07:46:10Z</time>
   </trkpt>
   <trkpt lat="32.8644400" lon="35.2461950">
    <ele>242.9</ele>
    <time>2014-02-14T07:46:12Z</time>
   </trkpt>
   <trkpt lat="32.8643950" lon="35.2461840">
    <ele>242.9</ele>
    <time>2014-02-14T07:46:14Z</time>
   </trkpt>
   <trkpt lat="32.8643510" lon="35.2461770">
    <ele>242.9</ele>
    <time>2014-02-14T07:46:16Z</time>
   </trkpt>
   <trkpt lat="32.8643130" lon="35.2461680">
    <ele>242.9</ele>
    <time>2014-02-14T07:46:18Z</time>
   </trkpt>
   <trkpt lat="32.8642710" lon="35.2461570">
    <ele>242.9</ele>
    <time>2014-02-14T07:46:20Z</time>
   </trkpt>
   <trkpt lat="32.8642300" lon="35.2461330">
    <ele>242.7</ele>
    <time>2014-02-14T07:46:22Z</time>
   </trkpt>
   <trkpt lat="32.8641900" lon="35.2461080">
    <ele>242.4</ele>
    <time>2014-02-14T07:46:24Z</time>
   </trkpt>
   <trkpt lat="32.8641460" lon="35.2460810">
    <ele>242.1</ele>
    <time>2014-02-14T07:46:26Z</time>
   </trkpt>
   <trkpt lat="32.8641000" lon="35.2460570">
    <ele>241.8</ele>
    <time>2014-02-14T07:46:28Z</time>
   </trkpt>
   <trkpt lat="32.8640510" lon="35.2460400">
    <ele>241.6</ele>
    <time>2014-02-14T07:46:30Z</time>
   </trkpt>
   <trkpt lat="32.8640140" lon="35.2460080">
    <ele>241.1</ele>
    <time>2014-02-14T07:46:32Z</time>
   </trkpt>
   <trkpt lat="32.8639750" lon="35.2459870">
    <ele>240.8</ele>
    <time>2014-02-14T07:46:34Z</time>
   </trkpt>
   <trkpt lat="32.8639370" lon="35.2459630">
    <ele>240.4</ele>
    <time>2014-02-14T07:46:36Z</time>
   </trkpt>
   <trkpt lat="32.8638990" lon="35.2459400">
    <ele>240.0</ele>
    <time>2014-02-14T07:46:38Z</time>
   </trkpt>
   <trkpt lat="32.8638560" lon="35.2459210">
    <ele>239.7</ele>
    <time>2014-02-14T07:46:40Z</time>
   </trkpt>
   <trkpt lat="32.8638150" lon="35.2459030">
    <ele>239.4</ele>
    <time>2014-02-14T07:46:42Z</time>
   </trkpt>
   <trkpt lat="32.8637740" lon="35.2458890">
    <ele>239.1</ele>
    <time>2014-02-14T07:46:44Z</time>
   </trkpt>
   <trkpt lat="32.8637270" lon="35.2458830">
    <ele>238.8</ele>
    <time>2014-02-14T07:46:46Z</time>
   </trkpt>
   <trkpt lat="32.8637000" lon="35.2458780">
    <ele>238.6</ele>
    <time>2014-02-14T07:46:47Z</time>
   </trkpt>
   <trkpt lat="32.8636730" lon="35.2458740">
    <ele>238.4</ele>
    <time>2014-02-14T07:46:48Z</time>
   </trkpt>
   <trkpt lat="32.8636450" lon="35.2458680">
    <ele>238.2</ele>
    <time>2014-02-14T07:46:49Z</time>
   </trkpt>
   <trkpt lat="32.8636190" lon="35.2458640">
    <ele>238.0</ele>
    <time>2014-02-14T07:46:50Z</time>
   </trkpt>
   <trkpt lat="32.8635920" lon="35.2458560">
    <ele>237.7</ele>
    <time>2014-02-14T07:46:51Z</time>
   </trkpt>
   <trkpt lat="32.8635430" lon="35.2458460">
    <ele>237.2</ele>
    <time>2014-02-14T07:46:53Z</time>
   </trkpt>
   <trkpt lat="32.8634940" lon="35.2458460">
    <ele>237.0</ele>
    <time>2014-02-14T07:46:55Z</time>
   </trkpt>
   <trkpt lat="32.8634470" lon="35.2458630">
    <ele>237.1</ele>
    <time>2014-02-14T07:46:57Z</time>
   </trkpt>
   <trkpt lat="32.8633990" lon="35.2458800">
    <ele>237.2</ele>
    <time>2014-02-14T07:46:59Z</time>
   </trkpt>
   <trkpt lat="32.8633470" lon="35.2458920">
    <ele>237.2</ele>
    <time>2014-02-14T07:47:01Z</time>
   </trkpt>
   <trkpt lat="32.8633210" lon="35.2458980">
    <ele>237.2</ele>
    <time>2014-02-14T07:47:02Z</time>
   </trkpt>
   <trkpt lat="32.8632730" lon="35.2459200">
    <ele>237.4</ele>
    <time>2014-02-14T07:47:04Z</time>
   </trkpt>
   <trkpt lat="32.8632250" lon="35.2459330">
    <ele>237.4</ele>
    <time>2014-02-14T07:47:06Z</time>
   </trkpt>
   <trkpt lat="32.8631780" lon="35.2459180">
    <ele>236.9</ele>
    <time>2014-02-14T07:47:08Z</time>
   </trkpt>
   <trkpt lat="32.8631320" lon="35.2458990">
    <ele>236.3</ele>
    <time>2014-02-14T07:47:10Z</time>
   </trkpt>
   <trkpt lat="32.8630800" lon="35.2458940">
    <ele>235.9</ele>
    <time>2014-02-14T07:47:12Z</time>
   </trkpt>
   <trkpt lat="32.8630540" lon="35.2459070">
    <ele>236.1</ele>
    <time>2014-02-14T07:47:13Z</time>
   </trkpt>
   <trkpt lat="32.8630310" lon="35.2459300">
    <ele>236.4</ele>
    <time>2014-02-14T07:47:14Z</time>
   </trkpt>
   <trkpt lat="32.8630090" lon="35.2459530">
    <ele>236.7</ele>
    <time>2014-02-14T07:47:15Z</time>
   </trkpt>
   <trkpt lat="32.8629700" lon="35.2459890">
    <ele>237.2</ele>
    <time>2014-02-14T07:47:17Z</time>
   </trkpt>
   <trkpt lat="32.8629390" lon="35.2460210">
    <ele>237.7</ele>
    <time>2014-02-14T07:47:19Z</time>
   </trkpt>
   <trkpt lat="32.8629050" lon="35.2460500">
    <ele>238.0</ele>
    <time>2014-02-14T07:47:21Z</time>
   </trkpt>
   <trkpt lat="32.8628720" lon="35.2460750">
    <ele>237.9</ele>
    <time>2014-02-14T07:47:23Z</time>
   </trkpt>
   <trkpt lat="32.8628400" lon="35.2460850">
    <ele>237.6</ele>
    <time>2014-02-14T07:47:25Z</time>
   </trkpt>
   <trkpt lat="32.8628120" lon="35.2461130">
    <ele>237.7</ele>
    <time>2014-02-14T07:47:27Z</time>
   </trkpt>
   <trkpt lat="32.8627850" lon="35.2461550">
    <ele>238.0</ele>
    <time>2014-02-14T07:47:29Z</time>
   </trkpt>
   <trkpt lat="32.8627680" lon="35.2461850">
    <ele>238.3</ele>
    <time>2014-02-14T07:47:30Z</time>
   </trkpt>
   <trkpt lat="32.8627380" lon="35.2462370">
    <ele>238.8</ele>
    <time>2014-02-14T07:47:32Z</time>
   </trkpt>
   <trkpt lat="32.8627140" lon="35.2462850">
    <ele>239.0</ele>
    <time>2014-02-14T07:47:34Z</time>
   </trkpt>
   <trkpt lat="32.8627000" lon="35.2463430">
    <ele>239.5</ele>
    <time>2014-02-14T07:47:36Z</time>
   </trkpt>
   <trkpt lat="32.8626920" lon="35.2464030">
    <ele>240.0</ele>
    <time>2014-02-14T07:47:38Z</time>
   </trkpt>
   <trkpt lat="32.8626920" lon="35.2464640">
    <ele>240.7</ele>
    <time>2014-02-14T07:47:40Z</time>
   </trkpt>
   <trkpt lat="32.8626850" lon="35.2465260">
    <ele>241.4</ele>
    <time>2014-02-14T07:47:42Z</time>
   </trkpt>
   <trkpt lat="32.8626700" lon="35.2465790">
    <ele>241.8</ele>
    <time>2014-02-14T07:47:44Z</time>
   </trkpt>
   <trkpt lat="32.8626630" lon="35.2466380">
    <ele>242.4</ele>
    <time>2014-02-14T07:47:46Z</time>
   </trkpt>
   <trkpt lat="32.8626600" lon="35.2466730">
    <ele>242.7</ele>
    <time>2014-02-14T07:47:47Z</time>
   </trkpt>
   <trkpt lat="32.8626620" lon="35.2467160">
    <ele>243.3</ele>
    <time>2014-02-14T07:47:48Z</time>
   </trkpt>
   <trkpt lat="32.8626630" lon="35.2467520">
    <ele>243.7</ele>
    <time>2014-02-14T07:47:49Z</time>
   </trkpt>
   <trkpt lat="32.8626670" lon="35.2468050">
    <ele>244.4</ele>
    <time>2014-02-14T07:47:51Z</time>
   </trkpt>
   <trkpt lat="32.8626680" lon="35.2468470">
    <ele>244.9</ele>
    <time>2014-02-14T07:47:53Z</time>
   </trkpt>
   <trkpt lat="32.8626470" lon="35.2468770">
    <ele>245.0</ele>
    <time>2014-02-14T07:47:56Z</time>
   </trkpt>
   <trkpt lat="32.8626320" lon="35.2469090">
    <ele>245.1</ele>
    <time>2014-02-14T07:47:58Z</time>
   </trkpt>
   <trkpt lat="32.8626140" lon="35.2469450">
    <ele>245.3</ele>
    <time>2014-02-14T07:48:01Z</time>
   </trkpt>
   <trkpt lat="32.8626050" lon="35.2469760">
    <ele>245.6</ele>
    <time>2014-02-14T07:48:08Z</time>
   </trkpt>
   <trkpt lat="32.8625950" lon="35.2469440">
    <ele>245.1</ele>
    <time>2014-02-14T07:48:19Z</time>
   </trkpt>
   <trkpt lat="32.8625600" lon="35.2469170">
    <ele>244.2</ele>
    <time>2014-02-14T07:49:04Z</time>
   </trkpt>
   <trkpt lat="32.8625330" lon="35.2468930">
    <ele>243.6</ele>
    <time>2014-02-14T07:49:05Z</time>
   </trkpt>
   <trkpt lat="32.8624830" lon="35.2468530">
    <ele>242.4</ele>
    <time>2014-02-14T07:49:06Z</time>
   </trkpt>
   <trkpt lat="32.8624000" lon="35.2467650">
    <ele>240.0</ele>
    <time>2014-02-14T07:49:07Z</time>
   </trkpt>
   <trkpt lat="32.8623820" lon="35.2466990">
    <ele>238.9</ele>
    <time>2014-02-14T07:49:08Z</time>
   </trkpt>
   <trkpt lat="32.8623420" lon="35.2466380">
    <ele>237.5</ele>
    <time>2014-02-14T07:49:09Z</time>
   </trkpt>
   <trkpt lat="32.8622820" lon="35.2465930">
    <ele>236.0</ele>
    <time>2014-02-14T07:49:10Z</time>
   </trkpt>
   <trkpt lat="32.8622390" lon="35.2465540">
    <ele>234.8</ele>
    <time>2014-02-14T07:49:11Z</time>
   </trkpt>
   <trkpt lat="32.8622140" lon="35.2465300">
    <ele>234.1</ele>
    <time>2014-02-14T07:49:12Z</time>
   </trkpt>
   <trkpt lat="32.8621580" lon="35.2464740">
    <ele>232.4</ele>
    <time>2014-02-14T07:49:13Z</time>
   </trkpt>
   <trkpt lat="32.8621330" lon="35.2464280">
    <ele>231.4</ele>
    <time>2014-02-14T07:49:14Z</time>
   </trkpt>
   <trkpt lat="32.8620910" lon="35.2463900">
    <ele>230.1</ele>
    <time>2014-02-14T07:49:15Z</time>
   </trkpt>
   <trkpt lat="32.8620490" lon="35.2463410">
    <ele>229.0</ele>
    <time>2014-02-14T07:49:16Z</time>
   </trkpt>
   <trkpt lat="32.8620110" lon="35.2463190">
    <ele>228.2</ele>
    <time>2014-02-14T07:49:17Z</time>
   </trkpt>
   <trkpt lat="32.8619810" lon="35.2462810">
    <ele>227.4</ele>
    <time>2014-02-14T07:49:18Z</time>
   </trkpt>
   <trkpt lat="32.8619550" lon="35.2462000">
    <ele>225.9</ele>
    <time>2014-02-14T07:49:19Z</time>
   </trkpt>
   <trkpt lat="32.8619350" lon="35.2461280">
    <ele>224.6</ele>
    <time>2014-02-14T07:49:21Z</time>
   </trkpt>
   <trkpt lat="32.8619330" lon="35.2460720">
    <ele>223.8</ele>
    <time>2014-02-14T07:49:22Z</time>
   </trkpt>
   <trkpt lat="32.8619510" lon="35.2460210">
    <ele>223.3</ele>
    <time>2014-02-14T07:49:23Z</time>
   </trkpt>
   <trkpt lat="32.8619160" lon="35.2459410">
    <ele>221.7</ele>
    <time>2014-02-14T07:49:24Z</time>
   </trkpt>
   <trkpt lat="32.8618850" lon="35.2458790">
    <ele>220.5</ele>
    <time>2014-02-14T07:49:25Z</time>
   </trkpt>
   <trkpt lat="32.8618600" lon="35.2458300">
    <ele>219.5</ele>
    <time>2014-02-14T07:49:26Z</time>
   </trkpt>
   <trkpt lat="32.8618140" lon="35.2457610">
    <ele>218.0</ele>
    <time>2014-02-14T07:49:27Z</time>
   </trkpt>
   <trkpt lat="32.8617720" lon="35.2457180">
    <ele>217.0</ele>
    <time>2014-02-14T07:49:28Z</time>
   </trkpt>
   <trkpt lat="32.8617370" lon="35.2456710">
    <ele>215.9</ele>
    <time>2014-02-14T07:49:29Z</time>
   </trkpt>
   <trkpt lat="32.8616740" lon="35.2456610">
    <ele>215.1</ele>
    <time>2014-02-14T07:49:30Z</time>
   </trkpt>
   <trkpt lat="32.8616390" lon="35.2456650">
    <ele>214.8</ele>
    <time>2014-02-14T07:49:31Z</time>
   </trkpt>
   <trkpt lat="32.8615760" lon="35.2456360">
    <ele>213.7</ele>
    <time>2014-02-14T07:49:32Z</time>
   </trkpt>
   <trkpt lat="32.8615330" lon="35.2455810">
    <ele>212.4</ele>
    <time>2014-02-14T07:49:33Z</time>
   </trkpt>
   <trkpt lat="32.8615190" lon="35.2456120">
    <ele>212.7</ele>
    <time>2014-02-14T07:49:34Z</time>
   </trkpt>
   <trkpt lat="32.8614860" lon="35.2455800">
    <ele>211.9</ele>
    <time>2014-02-14T07:49:35Z</time>
   </trkpt>
   <trkpt lat="32.8614520" lon="35.2455450">
    <ele>211.0</ele>
    <time>2014-02-14T07:49:36Z</time>
   </trkpt>
   <trkpt lat="32.8614220" lon="35.2455130">
    <ele>210.2</ele>
    <time>2014-02-14T07:49:37Z</time>
   </trkpt>
   <trkpt lat="32.8613940" lon="35.2454830">
    <ele>209.5</ele>
    <time>2014-02-14T07:49:38Z</time>
   </trkpt>
   <trkpt lat="32.8613920" lon="35.2454420">
    <ele>208.9</ele>
    <time>2014-02-14T07:49:39Z</time>
   </trkpt>
   <trkpt lat="32.8613630" lon="35.2454040">
    <ele>208.0</ele>
    <time>2014-02-14T07:49:40Z</time>
   </trkpt>
   <trkpt lat="32.8613210" lon="35.2454340">
    <ele>208.0</ele>
    <time>2014-02-14T07:49:41Z</time>
   </trkpt>
   <trkpt lat="32.8612990" lon="35.2453990">
    <ele>207.3</ele>
    <time>2014-02-14T07:49:42Z</time>
   </trkpt>
   <trkpt lat="32.8612590" lon="35.2453860">
    <ele>206.7</ele>
    <time>2014-02-14T07:49:44Z</time>
   </trkpt>
   <trkpt lat="32.8612390" lon="35.2454130">
    <ele>206.9</ele>
    <time>2014-02-14T07:49:45Z</time>
   </trkpt>
   <trkpt lat="32.8612770" lon="35.2454040">
    <ele>207.1</ele>
    <time>2014-02-14T07:49:48Z</time>
   </trkpt>
   <trkpt lat="32.8612820" lon="35.2454380">
    <ele>207.7</ele>
    <time>2014-02-14T07:49:59Z</time>
   </trkpt>
   <trkpt lat="32.8613130" lon="35.2454360">
    <ele>208.0</ele>
    <time>2014-02-14T07:50:01Z</time>
   </trkpt>
   <trkpt lat="32.8613420" lon="35.2454250">
    <ele>208.1</ele>
    <time>2014-02-14T07:50:02Z</time>
   </trkpt>
   <trkpt lat="32.8613690" lon="35.2454220">
    <ele>208.4</ele>
    <time>2014-02-14T07:50:03Z</time>
   </trkpt>
   <trkpt lat="32.8614180" lon="35.2454220">
    <ele>208.9</ele>
    <time>2014-02-14T07:50:05Z</time>
   </trkpt>
   <trkpt lat="32.8614560" lon="35.2454400">
    <ele>209.6</ele>
    <time>2014-02-14T07:50:07Z</time>
   </trkpt>
   <trkpt lat="32.8614900" lon="35.2454500">
    <ele>210.1</ele>
    <time>2014-02-14T07:50:09Z</time>
   </trkpt>
   <trkpt lat="32.8615190" lon="35.2454700">
    <ele>210.7</ele>
    <time>2014-02-14T07:50:11Z</time>
   </trkpt>
   <trkpt lat="32.8615460" lon="35.2454950">
    <ele>211.3</ele>
    <time>2014-02-14T07:50:14Z</time>
   </trkpt>
   <trkpt lat="32.8615190" lon="35.2454800">
    <ele>210.8</ele>
    <time>2014-02-14T07:50:21Z</time>
   </trkpt>
   <trkpt lat="32.8614760" lon="35.2454590">
    <ele>210.1</ele>
    <time>2014-02-14T07:50:24Z</time>
   </trkpt>
   <trkpt lat="32.8614460" lon="35.2454260">
    <ele>209.3</ele>
    <time>2014-02-14T07:50:26Z</time>
   </trkpt>
   <trkpt lat="32.8614190" lon="35.2454050">
    <ele>208.7</ele>
    <time>2014-02-14T07:50:28Z</time>
   </trkpt>
   <trkpt lat="32.8613950" lon="35.2453760">
    <ele>208.0</ele>
    <time>2014-02-14T07:50:31Z</time>
   </trkpt>
   <trkpt lat="32.8613740" lon="35.2453520">
    <ele>207.4</ele>
    <time>2014-02-14T07:50:34Z</time>
   </trkpt>
   <trkpt lat="32.8613380" lon="35.2453350">
    <ele>206.8</ele>
    <time>2014-02-14T07:50:38Z</time>
   </trkpt>
   <trkpt lat="32.8613060" lon="35.2453330">
    <ele>206.4</ele>
    <time>2014-02-14T07:50:40Z</time>
   </trkpt>
   <trkpt lat="32.8612700" lon="35.2453340">
    <ele>206.0</ele>
    <time>2014-02-14T07:50:43Z</time>
   </trkpt>
   <trkpt lat="32.8612410" lon="35.2453370">
    <ele>205.8</ele>
    <time>2014-02-14T07:50:46Z</time>
   </trkpt>
   <trkpt lat="32.8612130" lon="35.2453280">
    <ele>205.5</ele>
    <time>2014-02-14T07:50:50Z</time>
   </trkpt>
   <trkpt lat="32.8611900" lon="35.2453500">
    <ele>205.7</ele>
    <time>2014-02-14T07:50:55Z</time>
   </trkpt>
   <trkpt lat="32.8611970" lon="35.2453850">
    <ele>206.3</ele>
    <time>2014-02-14T07:50:57Z</time>
   </trkpt>
   <trkpt lat="32.8612080" lon="35.2454310">
    <ele>207.0</ele>
    <time>2014-02-14T07:51:01Z</time>
   </trkpt>
   <trkpt lat="32.8612370" lon="35.2454310">
    <ele>207.1</ele>
    <time>2014-02-14T07:51:04Z</time>
   </trkpt>
   <trkpt lat="32.8612680" lon="35.2454370">
    <ele>207.5</ele>
    <time>2014-02-14T07:51:07Z</time>
   </trkpt>
   <trkpt lat="32.8612290" lon="35.2454280">
    <ele>207.1</ele>
    <time>2014-02-14T07:51:12Z</time>
   </trkpt>
   <trkpt lat="32.8611970" lon="35.2454480">
    <ele>207.2</ele>
    <time>2014-02-14T07:51:14Z</time>
   </trkpt>
   <trkpt lat="32.8611730" lon="35.2454680">
    <ele>207.4</ele>
    <time>2014-02-14T07:51:16Z</time>
   </trkpt>
   <trkpt lat="32.8611350" lon="35.2454850">
    <ele>207.5</ele>
    <time>2014-02-14T07:51:19Z</time>
   </trkpt>
   <trkpt lat="32.8611030" lon="35.2454820">
    <ele>207.3</ele>
    <time>2014-02-14T07:51:21Z</time>
   </trkpt>
   <trkpt lat="32.8610680" lon="35.2454960">
    <ele>207.4</ele>
    <time>2014-02-14T07:51:23Z</time>
   </trkpt>
   <trkpt lat="32.8610400" lon="35.2455170">
    <ele>207.6</ele>
    <time>2014-02-14T07:51:25Z</time>
   </trkpt>
   <trkpt lat="32.8610080" lon="35.2455420">
    <ele>207.9</ele>
    <time>2014-02-14T07:51:27Z</time>
   </trkpt>
   <trkpt lat="32.8609830" lon="35.2455610">
    <ele>208.2</ele>
    <time>2014-02-14T07:51:29Z</time>
   </trkpt>
   <trkpt lat="32.8609750" lon="35.2456020">
    <ele>208.9</ele>
    <time>2014-02-14T07:51:32Z</time>
   </trkpt>
   <trkpt lat="32.8609980" lon="35.2456370">
    <ele>209.5</ele>
    <time>2014-02-14T07:51:34Z</time>
   </trkpt>
   <trkpt lat="32.8610190" lon="35.2456710">
    <ele>210.1</ele>
    <time>2014-02-14T07:51:36Z</time>
   </trkpt>
   <trkpt lat="32.8610420" lon="35.2457120">
    <ele>210.9</ele>
    <time>2014-02-14T07:51:39Z</time>
   </trkpt>
   <trkpt lat="32.8610590" lon="35.2457470">
    <ele>211.5</ele>
    <time>2014-02-14T07:51:42Z</time>
   </trkpt>
   <trkpt lat="32.8610690" lon="35.2457820">
    <ele>212.1</ele>
    <time>2014-02-14T07:51:45Z</time>
   </trkpt>
   <trkpt lat="32.8610950" lon="35.2458000">
    <ele>212.4</ele>
    <time>2014-02-14T07:51:47Z</time>
   </trkpt>
   <trkpt lat="32.8611260" lon="35.2458160">
    <ele>212.7</ele>
    <time>2014-02-14T07:51:49Z</time>
   </trkpt>
   <trkpt lat="32.8611520" lon="35.2458280">
    <ele>212.9</ele>
    <time>2014-02-14T07:51:51Z</time>
   </trkpt>
   <trkpt lat="32.8611850" lon="35.2458380">
    <ele>213.0</ele>
    <time>2014-02-14T07:51:54Z</time>
   </trkpt>
   <trkpt lat="32.8612100" lon="35.2458640">
    <ele>213.4</ele>
    <time>2014-02-14T07:51:57Z</time>
   </trkpt>
   <trkpt lat="32.8611990" lon="35.2458990">
    <ele>213.9</ele>
    <time>2014-02-14T07:52:01Z</time>
   </trkpt>
   <trkpt lat="32.8611960" lon="35.2459380">
    <ele>214.5</ele>
    <time>2014-02-14T07:52:05Z</time>
   </trkpt>
   <trkpt lat="32.8611760" lon="35.2459670">
    <ele>215.0</ele>
    <time>2014-02-14T07:52:10Z</time>
   </trkpt>
   <trkpt lat="32.8611880" lon="35.2460030">
    <ele>215.5</ele>
    <time>2014-02-14T07:52:17Z</time>
   </trkpt>
   <trkpt lat="32.8611940" lon="35.2460480">
    <ele>216.2</ele>
    <time>2014-02-14T07:52:24Z</time>
   </trkpt>
   <trkpt lat="32.8612000" lon="35.2461050">
    <ele>217.0</ele>
    <time>2014-02-14T07:52:26Z</time>
   </trkpt>
   <trkpt lat="32.8612270" lon="35.2461540">
    <ele>217.7</ele>
    <time>2014-02-14T07:52:28Z</time>
   </trkpt>
   <trkpt lat="32.8612630" lon="35.2461950">
    <ele>218.3</ele>
    <time>2014-02-14T07:52:30Z</time>
   </trkpt>
   <trkpt lat="32.8612840" lon="35.2462350">
    <ele>219.2</ele>
    <time>2014-02-14T07:52:32Z</time>
   </trkpt>
   <trkpt lat="32.8612890" lon="35.2462740">
    <ele>219.9</ele>
    <time>2014-02-14T07:52:34Z</time>
   </trkpt>
   <trkpt lat="32.8612940" lon="35.2463070">
    <ele>220.6</ele>
    <time>2014-02-14T07:52:36Z</time>
   </trkpt>
   <trkpt lat="32.8612910" lon="35.2463460">
    <ele>221.3</ele>
    <time>2014-02-14T07:52:38Z</time>
   </trkpt>
   <trkpt lat="32.8612890" lon="35.2463860">
    <ele>222.0</ele>
    <time>2014-02-14T07:52:40Z</time>
   </trkpt>
   <trkpt lat="32.8613000" lon="35.2464230">
    <ele>222.8</ele>
    <time>2014-02-14T07:52:42Z</time>
   </trkpt>
   <trkpt lat="32.8613180" lon="35.2464600">
    <ele>223.7</ele>
    <time>2014-02-14T07:52:44Z</time>
   </trkpt>
   <trkpt lat="32.8613350" lon="35.2464960">
    <ele>224.5</ele>
    <time>2014-02-14T07:52:46Z</time>
   </trkpt>
   <trkpt lat="32.8613570" lon="35.2465290">
    <ele>225.3</ele>
    <time>2014-02-14T07:52:48Z</time>
   </trkpt>
   <trkpt lat="32.8613800" lon="35.2465600">
    <ele>226.1</ele>
    <time>2014-02-14T07:52:50Z</time>
   </trkpt>
   <trkpt lat="32.8613920" lon="35.2465950">
    <ele>226.9</ele>
    <time>2014-02-14T07:52:52Z</time>
   </trkpt>
   <trkpt lat="32.8613930" lon="35.2466330">
    <ele>227.6</ele>
    <time>2014-02-14T07:52:54Z</time>
   </trkpt>
   <trkpt lat="32.8613800" lon="35.2466840">
    <ele>228.4</ele>
    <time>2014-02-14T07:52:56Z</time>
   </trkpt>
   <trkpt lat="32.8613670" lon="35.2467310">
    <ele>229.2</ele>
    <time>2014-02-14T07:52:58Z</time>
   </trkpt>
   <trkpt lat="32.8613620" lon="35.2467670">
    <ele>229.8</ele>
    <time>2014-02-14T07:53:00Z</time>
   </trkpt>
   <trkpt lat="32.8613650" lon="35.2468000">
    <ele>230.4</ele>
    <time>2014-02-14T07:53:02Z</time>
   </trkpt>
   <trkpt lat="32.8613830" lon="35.2468340">
    <ele>231.2</ele>
    <time>2014-02-14T07:53:04Z</time>
   </trkpt>
   <trkpt lat="32.8613920" lon="35.2468650">
    <ele>231.8</ele>
    <time>2014-02-14T07:53:06Z</time>
   </trkpt>
   <trkpt lat="32.8613950" lon="35.2469090">
    <ele>232.7</ele>
    <time>2014-02-14T07:53:09Z</time>
   </trkpt>
   <trkpt lat="32.8613980" lon="35.2469430">
    <ele>233.3</ele>
    <time>2014-02-14T07:53:11Z</time>
   </trkpt>
   <trkpt lat="32.8614090" lon="35.2469740">
    <ele>234.0</ele>
    <time>2014-02-14T07:53:13Z</time>
   </trkpt>
   <trkpt lat="32.8614130" lon="35.2470190">
    <ele>234.8</ele>
    <time>2014-02-14T07:53:16Z</time>
   </trkpt>
   <trkpt lat="32.8614130" lon="35.2470640">
    <ele>235.6</ele>
    <time>2014-02-14T07:53:19Z</time>
   </trkpt>
   <trkpt lat="32.8614360" lon="35.2471000">
    <ele>236.5</ele>
    <time>2014-02-14T07:53:22Z</time>
   </trkpt>
   <trkpt lat="32.8614580" lon="35.2471320">
    <ele>237.4</ele>
    <time>2014-02-14T07:53:25Z</time>
   </trkpt>
   <trkpt lat="32.8614480" lon="35.2471790">
    <ele>238.4</ele>
    <time>2014-02-14T07:53:28Z</time>
   </trkpt>
   <trkpt lat="32.8614380" lon="35.2472190">
    <ele>239.3</ele>
    <time>2014-02-14T07:53:30Z</time>
   </trkpt>
   <trkpt lat="32.8614260" lon="35.2472750">
    <ele>240.5</ele>
    <time>2014-02-14T07:53:32Z</time>
   </trkpt>
   <trkpt lat="32.8614000" lon="35.2473250">
    <ele>241.7</ele>
    <time>2014-02-14T07:53:34Z</time>
   </trkpt>
   <trkpt lat="32.8613680" lon="35.2473660">
    <ele>242.6</ele>
    <time>2014-02-14T07:53:36Z</time>
   </trkpt>
   <trkpt lat="32.8613420" lon="35.2474020">
    <ele>243.5</ele>
    <time>2014-02-14T07:53:38Z</time>
   </trkpt>
   <trkpt lat="32.8613170" lon="35.2474440">
    <ele>244.5</ele>
    <time>2014-02-14T07:53:42Z</time>
   </trkpt>
   <trkpt lat="32.8613180" lon="35.2474890">
    <ele>245.6</ele>
    <time>2014-02-14T07:53:44Z</time>
   </trkpt>
   <trkpt lat="32.8613160" lon="35.2475210">
    <ele>246.5</ele>
    <time>2014-02-14T07:53:45Z</time>
   </trkpt>
   <trkpt lat="32.8613170" lon="35.2475730">
    <ele>247.8</ele>
    <time>2014-02-14T07:53:47Z</time>
   </trkpt>
   <trkpt lat="32.8613360" lon="35.2476170">
    <ele>248.8</ele>
    <time>2014-02-14T07:53:49Z</time>
   </trkpt>
   <trkpt lat="32.8613540" lon="35.2476560">
    <ele>249.7</ele>
    <time>2014-02-14T07:53:51Z</time>
   </trkpt>
   <trkpt lat="32.8613680" lon="35.2476840">
    <ele>250.3</ele>
    <time>2014-02-14T07:53:53Z</time>
   </trkpt>
   <trkpt lat="32.8613850" lon="35.2477170">
    <ele>251.1</ele>
    <time>2014-02-14T07:53:56Z</time>
   </trkpt>
   <trkpt lat="32.8613870" lon="35.2477650">
    <ele>252.2</ele>
    <time>2014-02-14T07:53:59Z</time>
   </trkpt>
   <trkpt lat="32.8613990" lon="35.2477990">
    <ele>252.9</ele>
    <time>2014-02-14T07:54:01Z</time>
   </trkpt>
   <trkpt lat="32.8614150" lon="35.2478360">
    <ele>253.7</ele>
    <time>2014-02-14T07:54:03Z</time>
   </trkpt>
   <trkpt lat="32.8614360" lon="35.2478750">
    <ele>254.5</ele>
    <time>2014-02-14T07:54:05Z</time>
   </trkpt>
   <trkpt lat="32.8614710" lon="35.2479000">
    <ele>254.8</ele>
    <time>2014-02-14T07:54:07Z</time>
   </trkpt>
   <trkpt lat="32.8615030" lon="35.2479190">
    <ele>254.9</ele>
    <time>2014-02-14T07:54:09Z</time>
   </trkpt>
   <trkpt lat="32.8615120" lon="35.2479530">
    <ele>255.7</ele>
    <time>2014-02-14T07:54:14Z</time>
   </trkpt>
   <trkpt lat="32.8614960" lon="35.2479840">
    <ele>256.7</ele>
    <time>2014-02-14T07:54:17Z</time>
   </trkpt>
   <trkpt lat="32.8614830" lon="35.2480130">
    <ele>257.6</ele>
    <time>2014-02-14T07:54:19Z</time>
   </trkpt>
   <trkpt lat="32.8614570" lon="35.2480470">
    <ele>258.7</ele>
    <time>2014-02-14T07:54:21Z</time>
   </trkpt>
   <trkpt lat="32.8614940" lon="35.2480820">
    <ele>259.3</ele>
    <time>2014-02-14T07:54:24Z</time>
   </trkpt>
   <trkpt lat="32.8615240" lon="35.2481060">
    <ele>259.6</ele>
    <time>2014-02-14T07:54:26Z</time>
   </trkpt>
   <trkpt lat="32.8615520" lon="35.2481220">
    <ele>259.6</ele>
    <time>2014-02-14T07:54:28Z</time>
   </trkpt>
   <trkpt lat="32.8615880" lon="35.2481300">
    <ele>259.4</ele>
    <time>2014-02-14T07:54:31Z</time>
   </trkpt>
   <trkpt lat="32.8616280" lon="35.2481300">
    <ele>258.9</ele>
    <time>2014-02-14T07:54:34Z</time>
   </trkpt>
   <trkpt lat="32.8616660" lon="35.2481220">
    <ele>258.3</ele>
    <time>2014-02-14T07:54:36Z</time>
   </trkpt>
   <trkpt lat="32.8616930" lon="35.2481310">
    <ele>258.2</ele>
    <time>2014-02-14T07:54:38Z</time>
   </trkpt>
   <trkpt lat="32.8617090" lon="35.2481630">
    <ele>258.7</ele>
    <time>2014-02-14T07:54:40Z</time>
   </trkpt>
   <trkpt lat="32.8617190" lon="35.2481980">
    <ele>259.4</ele>
    <time>2014-02-14T07:54:42Z</time>
   </trkpt>
   <trkpt lat="32.8617130" lon="35.2482380">
    <ele>260.4</ele>
    <time>2014-02-14T07:54:44Z</time>
   </trkpt>
   <trkpt lat="32.8616830" lon="35.2482760">
    <ele>261.7</ele>
    <time>2014-02-14T07:54:46Z</time>
   </trkpt>
   <trkpt lat="32.8616480" lon="35.2482860">
    <ele>262.4</ele>
    <time>2014-02-14T07:54:49Z</time>
   </trkpt>
   <trkpt lat="32.8616300" lon="35.2482590">
    <ele>262.0</ele>
    <time>2014-02-14T07:54:51Z</time>
   </trkpt>
   <trkpt lat="32.8616080" lon="35.2482360">
    <ele>261.8</ele>
    <time>2014-02-14T07:54:54Z</time>
   </trkpt>
   <trkpt lat="32.8616040" lon="35.2481950">
    <ele>260.8</ele>
    <time>2014-02-14T07:54:57Z</time>
   </trkpt>
   <trkpt lat="32.8615840" lon="35.2481510">
    <ele>260.0</ele>
    <time>2014-02-14T07:55:00Z</time>
   </trkpt>
   <trkpt lat="32.8615570" lon="35.2481350">
    <ele>259.9</ele>
    <time>2014-02-14T07:55:02Z</time>
   </trkpt>
   <trkpt lat="32.8615200" lon="35.2481290">
    <ele>260.2</ele>
    <time>2014-02-14T07:55:04Z</time>
   </trkpt>
   <trkpt lat="32.8614920" lon="35.2481090">
    <ele>260.0</ele>
    <time>2014-02-14T07:55:06Z</time>
   </trkpt>
   <trkpt lat="32.8614670" lon="35.2480870">
    <ele>259.7</ele>
    <time>2014-02-14T07:55:08Z</time>
   </trkpt>
   <trkpt lat="32.8614430" lon="35.2480580">
    <ele>259.2</ele>
    <time>2014-02-14T07:55:10Z</time>
   </trkpt>
   <trkpt lat="32.8614050" lon="35.2480400">
    <ele>259.1</ele>
    <time>2014-02-14T07:55:12Z</time>
   </trkpt>
   <trkpt lat="32.8613730" lon="35.2480210">
    <ele>258.9</ele>
    <time>2014-02-14T07:55:14Z</time>
   </trkpt>
   <trkpt lat="32.8613510" lon="35.2479850">
    <ele>258.1</ele>
    <time>2014-02-14T07:55:16Z</time>
   </trkpt>
   <trkpt lat="32.8613370" lon="35.2479420">
    <ele>257.0</ele>
    <time>2014-02-14T07:55:18Z</time>
   </trkpt>
   <trkpt lat="32.8613250" lon="35.2478870">
    <ele>255.6</ele>
    <time>2014-02-14T07:55:20Z</time>
   </trkpt>
   <trkpt lat="32.8613040" lon="35.2478390">
    <ele>254.6</ele>
    <time>2014-02-14T07:55:22Z</time>
   </trkpt>
   <trkpt lat="32.8612770" lon="35.2478020">
    <ele>253.8</ele>
    <time>2014-02-14T07:55:24Z</time>
   </trkpt>
   <trkpt lat="32.8612330" lon="35.2477730">
    <ele>253.4</ele>
    <time>2014-02-14T07:55:26Z</time>
   </trkpt>
   <trkpt lat="32.8611890" lon="35.2477440">
    <ele>253.1</ele>
    <time>2014-02-14T07:55:28Z</time>
   </trkpt>
   <trkpt lat="32.8611470" lon="35.2477060">
    <ele>252.6</ele>
    <time>2014-02-14T07:55:30Z</time>
   </trkpt>
   <trkpt lat="32.8611060" lon="35.2476750">
    <ele>252.2</ele>
    <time>2014-02-14T07:55:32Z</time>
   </trkpt>
   <trkpt lat="32.8610660" lon="35.2476480">
    <ele>251.9</ele>
    <time>2014-02-14T07:55:34Z</time>
   </trkpt>
   <trkpt lat="32.8610290" lon="35.2476190">
    <ele>251.5</ele>
    <time>2014-02-14T07:55:36Z</time>
   </trkpt>
   <trkpt lat="32.8609920" lon="35.2475930">
    <ele>251.2</ele>
    <time>2014-02-14T07:55:38Z</time>
   </trkpt>
   <trkpt lat="32.8609540" lon="35.2475740">
    <ele>251.1</ele>
    <time>2014-02-14T07:55:40Z</time>
   </trkpt>
   <trkpt lat="32.8609220" lon="35.2475460">
    <ele>250.6</ele>
    <time>2014-02-14T07:55:42Z</time>
   </trkpt>
   <trkpt lat="32.8608940" lon="35.2475180">
    <ele>250.1</ele>
    <time>2014-02-14T07:55:44Z</time>
   </trkpt>
   <trkpt lat="32.8608740" lon="35.2474840">
    <ele>249.4</ele>
    <time>2014-02-14T07:55:46Z</time>
   </trkpt>
   <trkpt lat="32.8608500" lon="35.2474520">
    <ele>248.7</ele>
    <time>2014-02-14T07:55:48Z</time>
   </trkpt>
   <trkpt lat="32.8608160" lon="35.2474300">
    <ele>248.4</ele>
    <time>2014-02-14T07:55:50Z</time>
   </trkpt>
   <trkpt lat="32.8607870" lon="35.2474020">
    <ele>247.9</ele>
    <time>2014-02-14T07:55:52Z</time>
   </trkpt>
   <trkpt lat="32.8607530" lon="35.2473780">
    <ele>247.6</ele>
    <time>2014-02-14T07:55:54Z</time>
   </trkpt>
   <trkpt lat="32.8607120" lon="35.2473740">
    <ele>247.9</ele>
    <time>2014-02-14T07:55:56Z</time>
   </trkpt>
   <trkpt lat="32.8606710" lon="35.2473720">
    <ele>248.2</ele>
    <time>2014-02-14T07:55:58Z</time>
   </trkpt>
   <trkpt lat="32.8606340" lon="35.2473620">
    <ele>248.3</ele>
    <time>2014-02-14T07:56:00Z</time>
   </trkpt>
   <trkpt lat="32.8605990" lon="35.2473460">
    <ele>248.1</ele>
    <time>2014-02-14T07:56:02Z</time>
   </trkpt>
   <trkpt lat="32.8605650" lon="35.2473220">
    <ele>247.8</ele>
    <time>2014-02-14T07:56:04Z</time>
   </trkpt>
   <trkpt lat="32.8605300" lon="35.2473010">
    <ele>247.5</ele>
    <time>2014-02-14T07:56:06Z</time>
   </trkpt>
   <trkpt lat="32.8604960" lon="35.2472800">
    <ele>247.2</ele>
    <time>2014-02-14T07:56:08Z</time>
   </trkpt>
   <trkpt lat="32.8604670" lon="35.2472510">
    <ele>246.6</ele>
    <time>2014-02-14T07:56:10Z</time>
   </trkpt>
   <trkpt lat="32.8604240" lon="35.2472470">
    <ele>246.8</ele>
    <time>2014-02-14T07:56:12Z</time>
   </trkpt>
   <trkpt lat="32.8603810" lon="35.2472570">
    <ele>247.8</ele>
    <time>2014-02-14T07:56:14Z</time>
   </trkpt>
   <trkpt lat="32.8603380" lon="35.2472580">
    <ele>248.4</ele>
    <time>2014-02-14T07:56:16Z</time>
   </trkpt>
   <trkpt lat="32.8602940" lon="35.2472680">
    <ele>249.4</ele>
    <time>2014-02-14T07:56:18Z</time>
   </trkpt>
   <trkpt lat="32.8602540" lon="35.2472790">
    <ele>250.3</ele>
    <time>2014-02-14T07:56:20Z</time>
   </trkpt>
   <trkpt lat="32.8602180" lon="35.2473000">
    <ele>251.5</ele>
    <time>2014-02-14T07:56:22Z</time>
   </trkpt>
   <trkpt lat="32.8601820" lon="35.2473280">
    <ele>252.8</ele>
    <time>2014-02-14T07:56:24Z</time>
   </trkpt>
   <trkpt lat="32.8601470" lon="35.2473370">
    <ele>253.5</ele>
    <time>2014-02-14T07:56:26Z</time>
   </trkpt>
   <trkpt lat="32.8601070" lon="35.2473360">
    <ele>254.1</ele>
    <time>2014-02-14T07:56:28Z</time>
   </trkpt>
   <trkpt lat="32.8600640" lon="35.2473410">
    <ele>254.9</ele>
    <time>2014-02-14T07:56:30Z</time>
   </trkpt>
   <trkpt lat="32.8600200" lon="35.2473570">
    <ele>255.9</ele>
    <time>2014-02-14T07:56:32Z</time>
   </trkpt>
   <trkpt lat="32.8599820" lon="35.2473790">
    <ele>257.1</ele>
    <time>2014-02-14T07:56:34Z</time>
   </trkpt>
   <trkpt lat="32.8599460" lon="35.2473790">
    <ele>257.6</ele>
    <time>2014-02-14T07:56:36Z</time>
   </trkpt>
   <trkpt lat="32.8599120" lon="35.2473790">
    <ele>258.1</ele>
    <time>2014-02-14T07:56:38Z</time>
   </trkpt>
   <trkpt lat="32.8598790" lon="35.2474050">
    <ele>259.2</ele>
    <time>2014-02-14T07:56:40Z</time>
   </trkpt>
   <trkpt lat="32.8598470" lon="35.2474160">
    <ele>259.9</ele>
    <time>2014-02-14T07:56:42Z</time>
   </trkpt>
   <trkpt lat="32.8598150" lon="35.2474230">
    <ele>260.5</ele>
    <time>2014-02-14T07:56:44Z</time>
   </trkpt>
   <trkpt lat="32.8597850" lon="35.2474260">
    <ele>261.0</ele>
    <time>2014-02-14T07:56:46Z</time>
   </trkpt>
   <trkpt lat="32.8597580" lon="35.2474160">
    <ele>261.2</ele>
    <time>2014-02-14T07:56:48Z</time>
   </trkpt>
   <trkpt lat="32.8597250" lon="35.2474070">
    <ele>261.4</ele>
    <time>2014-02-14T07:56:50Z</time>
   </trkpt>
   <trkpt lat="32.8596940" lon="35.2473920">
    <ele>261.5</ele>
    <time>2014-02-14T07:56:52Z</time>
   </trkpt>
   <trkpt lat="32.8596670" lon="35.2473750">
    <ele>261.5</ele>
    <time>2014-02-14T07:56:54Z</time>
   </trkpt>
   <trkpt lat="32.8596450" lon="35.2473450">
    <ele>261.1</ele>
    <time>2014-02-14T07:56:56Z</time>
   </trkpt>
   <trkpt lat="32.8596190" lon="35.2473180">
    <ele>260.8</ele>
    <time>2014-02-14T07:56:58Z</time>
   </trkpt>
   <trkpt lat="32.8595890" lon="35.2472920">
    <ele>260.7</ele>
    <time>2014-02-14T07:57:00Z</time>
   </trkpt>
   <trkpt lat="32.8595470" lon="35.2472610">
    <ele>259.8</ele>
    <time>2014-02-14T07:57:02Z</time>
   </trkpt>
   <trkpt lat="32.8595080" lon="35.2472290">
    <ele>258.8</ele>
    <time>2014-02-14T07:57:04Z</time>
   </trkpt>
   <trkpt lat="32.8594760" lon="35.2471900">
    <ele>257.7</ele>
    <time>2014-02-14T07:57:06Z</time>
   </trkpt>
   <trkpt lat="32.8594470" lon="35.2471580">
    <ele>256.8</ele>
    <time>2014-02-14T07:57:08Z</time>
   </trkpt>
   <trkpt lat="32.8594180" lon="35.2471330">
    <ele>256.1</ele>
    <time>2014-02-14T07:57:10Z</time>
   </trkpt>
   <trkpt lat="32.8593880" lon="35.2471250">
    <ele>255.7</ele>
    <time>2014-02-14T07:57:12Z</time>
   </trkpt>
   <trkpt lat="32.8593640" lon="35.2471090">
    <ele>255.2</ele>
    <time>2014-02-14T07:57:14Z</time>
   </trkpt>
   <trkpt lat="32.8593410" lon="35.2470840">
    <ele>254.6</ele>
    <time>2014-02-14T07:57:16Z</time>
   </trkpt>
   <trkpt lat="32.8593110" lon="35.2470590">
    <ele>253.7</ele>
    <time>2014-02-14T07:57:18Z</time>
   </trkpt>
   <trkpt lat="32.8592760" lon="35.2470430">
    <ele>253.0</ele>
    <time>2014-02-14T07:57:20Z</time>
   </trkpt>
   <trkpt lat="32.8592400" lon="35.2470240">
    <ele>252.2</ele>
    <time>2014-02-14T07:57:22Z</time>
   </trkpt>
   <trkpt lat="32.8591970" lon="35.2470040">
    <ele>251.4</ele>
    <time>2014-02-14T07:57:24Z</time>
   </trkpt>
   <trkpt lat="32.8591580" lon="35.2469850">
    <ele>250.6</ele>
    <time>2014-02-14T07:57:26Z</time>
   </trkpt>
   <trkpt lat="32.8591220" lon="35.2469620">
    <ele>249.7</ele>
    <time>2014-02-14T07:57:28Z</time>
   </trkpt>
   <trkpt lat="32.8590890" lon="35.2469440">
    <ele>249.0</ele>
    <time>2014-02-14T07:57:30Z</time>
   </trkpt>
   <trkpt lat="32.8590520" lon="35.2469400">
    <ele>248.6</ele>
    <time>2014-02-14T07:57:32Z</time>
   </trkpt>
   <trkpt lat="32.8590130" lon="35.2469340">
    <ele>248.2</ele>
    <time>2014-02-14T07:57:34Z</time>
   </trkpt>
   <trkpt lat="32.8589740" lon="35.2469400">
    <ele>248.1</ele>
    <time>2014-02-14T07:57:36Z</time>
   </trkpt>
   <trkpt lat="32.8589320" lon="35.2469520">
    <ele>248.2</ele>
    <time>2014-02-14T07:57:38Z</time>
   </trkpt>
   <trkpt lat="32.8588900" lon="35.2469600">
    <ele>248.2</ele>
    <time>2014-02-14T07:57:40Z</time>
   </trkpt>
   <trkpt lat="32.8588500" lon="35.2469730">
    <ele>248.3</ele>
    <time>2014-02-14T07:57:42Z</time>
   </trkpt>
   <trkpt lat="32.8588040" lon="35.2469950">
    <ele>248.7</ele>
    <time>2014-02-14T07:57:44Z</time>
   </trkpt>
   <trkpt lat="32.8587620" lon="35.2470230">
    <ele>249.3</ele>
    <time>2014-02-14T07:57:46Z</time>
   </trkpt>
   <trkpt lat="32.8587240" lon="35.2470580">
    <ele>249.2</ele>
    <time>2014-02-14T07:57:48Z</time>
   </trkpt>
   <trkpt lat="32.8586890" lon="35.2470910">
    <ele>248.7</ele>
    <time>2014-02-14T07:57:50Z</time>
   </trkpt>
   <trkpt lat="32.8586560" lon="35.2471150">
    <ele>247.8</ele>
    <time>2014-02-14T07:57:52Z</time>
   </trkpt>
   <trkpt lat="32.8586270" lon="35.2471390">
    <ele>247.1</ele>
    <time>2014-02-14T07:57:54Z</time>
   </trkpt>
   <trkpt lat="32.8585960" lon="35.2471620">
    <ele>246.3</ele>
    <time>2014-02-14T07:57:56Z</time>
   </trkpt>
   <trkpt lat="32.8585680" lon="35.2471890">
    <ele>245.7</ele>
    <time>2014-02-14T07:57:58Z</time>
   </trkpt>
   <trkpt lat="32.8585460" lon="35.2472130">
    <ele>245.2</ele>
    <time>2014-02-14T07:58:00Z</time>
   </trkpt>
   <trkpt lat="32.8585200" lon="35.2472510">
    <ele>244.9</ele>
    <time>2014-02-14T07:58:03Z</time>
   </trkpt>
   <trkpt lat="32.8585050" lon="35.2472940">
    <ele>245.2</ele>
    <time>2014-02-14T07:58:05Z</time>
   </trkpt>
   <trkpt lat="32.8584880" lon="35.2473190">
    <ele>245.0</ele>
    <time>2014-02-14T07:58:06Z</time>
   </trkpt>
   <trkpt lat="32.8584610" lon="35.2473640">
    <ele>244.8</ele>
    <time>2014-02-14T07:58:08Z</time>
   </trkpt>
   <trkpt lat="32.8584430" lon="35.2473960">
    <ele>244.8</ele>
    <time>2014-02-14T07:58:10Z</time>
   </trkpt>
   <trkpt lat="32.8584280" lon="35.2474270">
    <ele>244.8</ele>
    <time>2014-02-14T07:58:12Z</time>
   </trkpt>
   <trkpt lat="32.8584090" lon="35.2474650">
    <ele>244.8</ele>
    <time>2014-02-14T07:58:14Z</time>
   </trkpt>
   <trkpt lat="32.8583940" lon="35.2475010">
    <ele>244.9</ele>
    <time>2014-02-14T07:58:16Z</time>
   </trkpt>
   <trkpt lat="32.8583760" lon="35.2475370">
    <ele>244.9</ele>
    <time>2014-02-14T07:58:18Z</time>
   </trkpt>
   <trkpt lat="32.8583580" lon="35.2475760">
    <ele>245.0</ele>
    <time>2014-02-14T07:58:20Z</time>
   </trkpt>
   <trkpt lat="32.8583360" lon="35.2476120">
    <ele>244.9</ele>
    <time>2014-02-14T07:58:22Z</time>
   </trkpt>
   <trkpt lat="32.8583070" lon="35.2476420">
    <ele>244.4</ele>
    <time>2014-02-14T07:58:24Z</time>
   </trkpt>
   <trkpt lat="32.8582910" lon="35.2476770">
    <ele>244.5</ele>
    <time>2014-02-14T07:58:26Z</time>
   </trkpt>
   <trkpt lat="32.8582800" lon="35.2477210">
    <ele>244.9</ele>
    <time>2014-02-14T07:58:28Z</time>
   </trkpt>
   <trkpt lat="32.8582730" lon="35.2477640">
    <ele>245.5</ele>
    <time>2014-02-14T07:58:30Z</time>
   </trkpt>
   <trkpt lat="32.8582760" lon="35.2478060">
    <ele>246.5</ele>
    <time>2014-02-14T07:58:32Z</time>
   </trkpt>
   <trkpt lat="32.8582860" lon="35.2478440">
    <ele>247.7</ele>
    <time>2014-02-14T07:58:34Z</time>
   </trkpt>
   <trkpt lat="32.8582840" lon="35.2478830">
    <ele>248.4</ele>
    <time>2014-02-14T07:58:36Z</time>
   </trkpt>
   <trkpt lat="32.8582790" lon="35.2479190">
    <ele>248.9</ele>
    <time>2014-02-14T07:58:38Z</time>
   </trkpt>
   <trkpt lat="32.8582770" lon="35.2479650">
    <ele>249.6</ele>
    <time>2014-02-14T07:58:41Z</time>
   </trkpt>
   <trkpt lat="32.8582610" lon="35.2480090">
    <ele>249.6</ele>
    <time>2014-02-14T07:58:44Z</time>
   </trkpt>
   <trkpt lat="32.8582500" lon="35.2480400">
    <ele>249.7</ele>
    <time>2014-02-14T07:58:46Z</time>
   </trkpt>
   <trkpt lat="32.8582350" lon="35.2480740">
    <ele>249.6</ele>
    <time>2014-02-14T07:58:48Z</time>
   </trkpt>
   <trkpt lat="32.8582210" lon="35.2481060">
    <ele>249.6</ele>
    <time>2014-02-14T07:58:50Z</time>
   </trkpt>
   <trkpt lat="32.8582020" lon="35.2481470">
    <ele>249.5</ele>
    <time>2014-02-14T07:58:52Z</time>
   </trkpt>
   <trkpt lat="32.8581810" lon="35.2481870">
    <ele>249.3</ele>
    <time>2014-02-14T07:58:54Z</time>
   </trkpt>
   <trkpt lat="32.8581620" lon="35.2482190">
    <ele>249.0</ele>
    <time>2014-02-14T07:58:56Z</time>
   </trkpt>
   <trkpt lat="32.8581560" lon="35.2482570">
    <ele>249.4</ele>
    <time>2014-02-14T07:58:58Z</time>
   </trkpt>
   <trkpt lat="32.8581590" lon="35.2482950">
    <ele>250.1</ele>
    <time>2014-02-14T07:59:00Z</time>
   </trkpt>
   <trkpt lat="32.8581640" lon="35.2483340">
    <ele>250.9</ele>
    <time>2014-02-14T07:59:02Z</time>
   </trkpt>
   <trkpt lat="32.8581610" lon="35.2483750">
    <ele>251.4</ele>
    <time>2014-02-14T07:59:04Z</time>
   </trkpt>
   <trkpt lat="32.8581540" lon="35.2484170">
    <ele>251.7</ele>
    <time>2014-02-14T07:59:06Z</time>
   </trkpt>
   <trkpt lat="32.8581620" lon="35.2484530">
    <ele>252.6</ele>
    <time>2014-02-14T07:59:08Z</time>
   </trkpt>
   <trkpt lat="32.8581700" lon="35.2484880">
    <ele>253.4</ele>
    <time>2014-02-14T07:59:10Z</time>
   </trkpt>
   <trkpt lat="32.8581740" lon="35.2485220">
    <ele>254.1</ele>
    <time>2014-02-14T07:59:12Z</time>
   </trkpt>
   <trkpt lat="32.8581930" lon="35.2485530">
    <ele>255.3</ele>
    <time>2014-02-14T07:59:14Z</time>
   </trkpt>
   <trkpt lat="32.8582160" lon="35.2485840">
    <ele>256.6</ele>
    <time>2014-02-14T07:59:16Z</time>
   </trkpt>
   <trkpt lat="32.8582290" lon="35.2486190">
    <ele>257.6</ele>
    <time>2014-02-14T07:59:18Z</time>
   </trkpt>
   <trkpt lat="32.8582300" lon="35.2486630">
    <ele>258.3</ele>
    <time>2014-02-14T07:59:20Z</time>
   </trkpt>
   <trkpt lat="32.8582300" lon="35.2487170">
    <ele>259.2</ele>
    <time>2014-02-14T07:59:22Z</time>
   </trkpt>
   <trkpt lat="32.8582290" lon="35.2487740">
    <ele>259.7</ele>
    <time>2014-02-14T07:59:24Z</time>
   </trkpt>
   <trkpt lat="32.8582400" lon="35.2488310">
    <ele>260.2</ele>
    <time>2014-02-14T07:59:26Z</time>
   </trkpt>
   <trkpt lat="32.8582570" lon="35.2488780">
    <ele>260.9</ele>
    <time>2014-02-14T07:59:28Z</time>
   </trkpt>
   <trkpt lat="32.8582690" lon="35.2489260">
    <ele>261.5</ele>
    <time>2014-02-14T07:59:30Z</time>
   </trkpt>
   <trkpt lat="32.8582770" lon="35.2489640">
    <ele>261.8</ele>
    <time>2014-02-14T07:59:32Z</time>
   </trkpt>
   <trkpt lat="32.8582650" lon="35.2490070">
    <ele>261.5</ele>
    <time>2014-02-14T07:59:35Z</time>
   </trkpt>
   <trkpt lat="32.8582500" lon="35.2490430">
    <ele>261.0</ele>
    <time>2014-02-14T07:59:37Z</time>
   </trkpt>
   <trkpt lat="32.8582410" lon="35.2490850">
    <ele>260.8</ele>
    <time>2014-02-14T07:59:39Z</time>
   </trkpt>
   <trkpt lat="32.8582320" lon="35.2491300">
    <ele>260.6</ele>
    <time>2014-02-14T07:59:41Z</time>
   </trkpt>
   <trkpt lat="32.8582230" lon="35.2491760">
    <ele>260.4</ele>
    <time>2014-02-14T07:59:43Z</time>
   </trkpt>
   <trkpt lat="32.8582450" lon="35.2492100">
    <ele>261.2</ele>
    <time>2014-02-14T07:59:45Z</time>
   </trkpt>
   <trkpt lat="32.8582810" lon="35.2492340">
    <ele>262.5</ele>
    <time>2014-02-14T07:59:47Z</time>
   </trkpt>
   <trkpt lat="32.8583220" lon="35.2492710">
    <ele>264.0</ele>
    <time>2014-02-14T07:59:49Z</time>
   </trkpt>
   <trkpt lat="32.8583440" lon="35.2493050">
    <ele>264.9</ele>
    <time>2014-02-14T07:59:50Z</time>
   </trkpt>
   <trkpt lat="32.8583640" lon="35.2493360">
    <ele>265.6</ele>
    <time>2014-02-14T07:59:51Z</time>
   </trkpt>
   <trkpt lat="32.8583770" lon="35.2493690">
    <ele>266.1</ele>
    <time>2014-02-14T07:59:52Z</time>
   </trkpt>
   <trkpt lat="32.8583910" lon="35.2493990">
    <ele>266.7</ele>
    <time>2014-02-14T07:59:53Z</time>
   </trkpt>
   <trkpt lat="32.8584010" lon="35.2494330">
    <ele>267.0</ele>
    <time>2014-02-14T07:59:54Z</time>
   </trkpt>
   <trkpt lat="32.8584040" lon="35.2494720">
    <ele>267.2</ele>
    <time>2014-02-14T07:59:55Z</time>
   </trkpt>
   <trkpt lat="32.8584090" lon="35.2495100">
    <ele>267.4</ele>
    <time>2014-02-14T07:59:56Z</time>
   </trkpt>
   <trkpt lat="32.8584140" lon="35.2495470">
    <ele>267.7</ele>
    <time>2014-02-14T07:59:57Z</time>
   </trkpt>
   <trkpt lat="32.8584230" lon="35.2495810">
    <ele>268.0</ele>
    <time>2014-02-14T07:59:58Z</time>
   </trkpt>
   <trkpt lat="32.8584350" lon="35.2496150">
    <ele>268.2</ele>
    <time>2014-02-14T07:59:59Z</time>
   </trkpt>
   <trkpt lat="32.8584490" lon="35.2496480">
    <ele>268.3</ele>
    <time>2014-02-14T08:00:00Z</time>
   </trkpt>
   <trkpt lat="32.8584600" lon="35.2496800">
    <ele>268.4</ele>
    <time>2014-02-14T08:00:01Z</time>
   </trkpt>
   <trkpt lat="32.8584910" lon="35.2497300">
    <ele>269.0</ele>
    <time>2014-02-14T08:00:03Z</time>
   </trkpt>
   <trkpt lat="32.8585140" lon="35.2497500">
    <ele>269.5</ele>
    <time>2014-02-14T08:00:04Z</time>
   </trkpt>
   <trkpt lat="32.8585470" lon="35.2497650">
    <ele>270.4</ele>
    <time>2014-02-14T08:00:05Z</time>
   </trkpt>
   <trkpt lat="32.8585800" lon="35.2497750">
    <ele>271.4</ele>
    <time>2014-02-14T08:00:06Z</time>
   </trkpt>
   <trkpt lat="32.8586300" lon="35.2497900">
    <ele>272.8</ele>
    <time>2014-02-14T08:00:08Z</time>
   </trkpt>
   <trkpt lat="32.8586580" lon="35.2497970">
    <ele>273.6</ele>
    <time>2014-02-14T08:00:09Z</time>
   </trkpt>
   <trkpt lat="32.8586860" lon="35.2498140">
    <ele>274.3</ele>
    <time>2014-02-14T08:00:10Z</time>
   </trkpt>
   <trkpt lat="32.8587140" lon="35.2498370">
    <ele>274.9</ele>
    <time>2014-02-14T08:00:11Z</time>
   </trkpt>
   <trkpt lat="32.8587380" lon="35.2498650">
    <ele>275.3</ele>
    <time>2014-02-14T08:00:12Z</time>
   </trkpt>
   <trkpt lat="32.8587640" lon="35.2498920">
    <ele>275.5</ele>
    <time>2014-02-14T08:00:13Z</time>
   </trkpt>
   <trkpt lat="32.8587910" lon="35.2499160">
    <ele>275.7</ele>
    <time>2014-02-14T08:00:14Z</time>
   </trkpt>
   <trkpt lat="32.8588170" lon="35.2499360">
    <ele>275.9</ele>
    <time>2014-02-14T08:00:15Z</time>
   </trkpt>
   <trkpt lat="32.8588420" lon="35.2499550">
    <ele>276.0</ele>
    <time>2014-02-14T08:00:16Z</time>
   </trkpt>
   <trkpt lat="32.8588680" lon="35.2499720">
    <ele>276.3</ele>
    <time>2014-02-14T08:00:17Z</time>
   </trkpt>
   <trkpt lat="32.8589110" lon="35.2500050">
    <ele>276.5</ele>
    <time>2014-02-14T08:00:19Z</time>
   </trkpt>
   <trkpt lat="32.8589350" lon="35.2500190">
    <ele>276.8</ele>
    <time>2014-02-14T08:00:20Z</time>
   </trkpt>
   <trkpt lat="32.8589810" lon="35.2500380">
    <ele>277.3</ele>
    <time>2014-02-14T08:00:22Z</time>
   </trkpt>
   <trkpt lat="32.8590240" lon="35.2500730">
    <ele>277.5</ele>
    <time>2014-02-14T08:00:24Z</time>
   </trkpt>
   <trkpt lat="32.8590640" lon="35.2501120">
    <ele>277.7</ele>
    <time>2014-02-14T08:00:26Z</time>
   </trkpt>
   <trkpt lat="32.8591080" lon="35.2501460">
    <ele>278.0</ele>
    <time>2014-02-14T08:00:28Z</time>
   </trkpt>
   <trkpt lat="32.8591330" lon="35.2501620">
    <ele>278.2</ele>
    <time>2014-02-14T08:00:29Z</time>
   </trkpt>
   <trkpt lat="32.8591800" lon="35.2501940">
    <ele>278.5</ele>
    <time>2014-02-14T08:00:31Z</time>
   </trkpt>
   <trkpt lat="32.8592180" lon="35.2502200">
    <ele>278.8</ele>
    <time>2014-02-14T08:00:33Z</time>
   </trkpt>
   <trkpt lat="32.8592540" lon="35.2502290">
    <ele>279.3</ele>
    <time>2014-02-14T08:00:36Z</time>
   </trkpt>
   <trkpt lat="32.8592790" lon="35.2502540">
    <ele>279.3</ele>
    <time>2014-02-14T08:00:38Z</time>
   </trkpt>
   <trkpt lat="32.8593030" lon="35.2502950">
    <ele>279.2</ele>
    <time>2014-02-14T08:00:40Z</time>
   </trkpt>
   <trkpt lat="32.8593370" lon="35.2503350">
    <ele>279.2</ele>
    <time>2014-02-14T08:00:42Z</time>
   </trkpt>
   <trkpt lat="32.8593720" lon="35.2503730">
    <ele>279.3</ele>
    <time>2014-02-14T08:00:44Z</time>
   </trkpt>
   <trkpt lat="32.8594010" lon="35.2504100">
    <ele>279.2</ele>
    <time>2014-02-14T08:00:46Z</time>
   </trkpt>
   <trkpt lat="32.8594320" lon="35.2504440">
    <ele>279.3</ele>
    <time>2014-02-14T08:00:48Z</time>
   </trkpt>
   <trkpt lat="32.8594540" lon="35.2504810">
    <ele>279.3</ele>
    <time>2014-02-14T08:00:50Z</time>
   </trkpt>
   <trkpt lat="32.8594770" lon="35.2505280">
    <ele>279.1</ele>
    <time>2014-02-14T08:00:52Z</time>
   </trkpt>
   <trkpt lat="32.8594840" lon="35.2505830">
    <ele>278.6</ele>
    <time>2014-02-14T08:00:54Z</time>
   </trkpt>
   <trkpt lat="32.8594880" lon="35.2506370">
    <ele>278.0</ele>
    <time>2014-02-14T08:00:56Z</time>
   </trkpt>
   <trkpt lat="32.8594890" lon="35.2506920">
    <ele>277.4</ele>
    <time>2014-02-14T08:00:58Z</time>
   </trkpt>
   <trkpt lat="32.8594690" lon="35.2507600">
    <ele>276.3</ele>
    <time>2014-02-14T08:01:00Z</time>
   </trkpt>
   <trkpt lat="32.8594560" lon="35.2507940">
    <ele>275.7</ele>
    <time>2014-02-14T08:01:01Z</time>
   </trkpt>
   <trkpt lat="32.8594480" lon="35.2508270">
    <ele>275.2</ele>
    <time>2014-02-14T08:01:02Z</time>
   </trkpt>
   <trkpt lat="32.8594390" lon="35.2508890">
    <ele>274.4</ele>
    <time>2014-02-14T08:01:04Z</time>
   </trkpt>
   <trkpt lat="32.8594280" lon="35.2509490">
    <ele>273.5</ele>
    <time>2014-02-14T08:01:06Z</time>
   </trkpt>
   <trkpt lat="32.8593900" lon="35.2510860">
    <ele>271.2</ele>
    <time>2014-02-14T08:01:11Z</time>
   </trkpt>
   <trkpt lat="32.8593740" lon="35.2511410">
    <ele>270.3</ele>
    <time>2014-02-14T08:01:13Z</time>
   </trkpt>
   <trkpt lat="32.8593520" lon="35.2512000">
    <ele>269.1</ele>
    <time>2014-02-14T08:01:15Z</time>
   </trkpt>
   <trkpt lat="32.8593460" lon="35.2512350">
    <ele>268.6</ele>
    <time>2014-02-14T08:01:16Z</time>
   </trkpt>
   <trkpt lat="32.8593410" lon="35.2512770">
    <ele>268.3</ele>
    <time>2014-02-14T08:01:17Z</time>
   </trkpt>
   <trkpt lat="32.8593460" lon="35.2513100">
    <ele>268.4</ele>
    <time>2014-02-14T08:01:18Z</time>
   </trkpt>
   <trkpt lat="32.8593600" lon="35.2513640">
    <ele>268.6</ele>
    <time>2014-02-14T08:01:20Z</time>
   </trkpt>
   <trkpt lat="32.8593940" lon="35.2514080">
    <ele>269.3</ele>
    <time>2014-02-14T08:01:22Z</time>
   </trkpt>
   <trkpt lat="32.8594070" lon="35.2514640">
    <ele>269.5</ele>
    <time>2014-02-14T08:01:24Z</time>
   </trkpt>
   <trkpt lat="32.8593960" lon="35.2515080">
    <ele>269.3</ele>
    <time>2014-02-14T08:01:26Z</time>
   </trkpt>
   <trkpt lat="32.8593730" lon="35.2515340">
    <ele>268.8</ele>
    <time>2014-02-14T08:01:28Z</time>
   </trkpt>
   <trkpt lat="32.8594020" lon="35.2515460">
    <ele>269.4</ele>
    <time>2014-02-14T08:01:33Z</time>
   </trkpt>
   <trkpt lat="32.8594450" lon="35.2515280">
    <ele>270.2</ele>
    <time>2014-02-14T08:01:35Z</time>
   </trkpt>
   <trkpt lat="32.8594900" lon="35.2515140">
    <ele>271.1</ele>
    <time>2014-02-14T08:01:37Z</time>
   </trkpt>
   <trkpt lat="32.8595300" lon="35.2515070">
    <ele>271.9</ele>
    <time>2014-02-14T08:01:39Z</time>
   </trkpt>
   <trkpt lat="32.8595600" lon="35.2515090">
    <ele>272.5</ele>
    <time>2014-02-14T08:01:42Z</time>
   </trkpt>
   <trkpt lat="32.8595770" lon="35.2514750">
    <ele>272.9</ele>
    <time>2014-02-14T08:01:48Z</time>
   </trkpt>
   <trkpt lat="32.8595970" lon="35.2514510">
    <ele>273.3</ele>
    <time>2014-02-14T08:01:50Z</time>
   </trkpt>
   <trkpt lat="32.8596060" lon="35.2514200">
    <ele>273.5</ele>
    <time>2014-02-14T08:02:06Z</time>
   </trkpt>
   <trkpt lat="32.8596070" lon="35.2513690">
    <ele>273.6</ele>
    <time>2014-02-14T08:03:57Z</time>
   </trkpt>
   <trkpt lat="32.8596300" lon="35.2513250">
    <ele>274.1</ele>
    <time>2014-02-14T08:03:59Z</time>
   </trkpt>
   <trkpt lat="32.8596650" lon="35.2512910">
    <ele>275.0</ele>
    <time>2014-02-14T08:04:01Z</time>
   </trkpt>
   <trkpt lat="32.8597130" lon="35.2512730">
    <ele>276.2</ele>
    <time>2014-02-14T08:04:03Z</time>
   </trkpt>
   <trkpt lat="32.8597590" lon="35.2512730">
    <ele>277.4</ele>
    <time>2014-02-14T08:04:05Z</time>
   </trkpt>
   <trkpt lat="32.8597940" lon="35.2512880">
    <ele>278.2</ele>
    <time>2014-02-14T08:04:07Z</time>
   </trkpt>
   <trkpt lat="32.8598220" lon="35.2513040">
    <ele>278.9</ele>
    <time>2014-02-14T08:04:09Z</time>
   </trkpt>
   <trkpt lat="32.8598300" lon="35.2513390">
    <ele>279.0</ele>
    <time>2014-02-14T08:04:12Z</time>
   </trkpt>
   <trkpt lat="32.8598330" lon="35.2513790">
    <ele>279.0</ele>
    <time>2014-02-14T08:04:15Z</time>
   </trkpt>
   <trkpt lat="32.8598330" lon="35.2514160">
    <ele>278.9</ele>
    <time>2014-02-14T08:04:18Z</time>
   </trkpt>
   <trkpt lat="32.8598230" lon="35.2514470">
    <ele>278.6</ele>
    <time>2014-02-14T08:04:20Z</time>
   </trkpt>
   <trkpt lat="32.8598180" lon="35.2514830">
    <ele>278.4</ele>
    <time>2014-02-14T08:04:22Z</time>
   </trkpt>
   <trkpt lat="32.8598120" lon="35.2515440">
    <ele>278.2</ele>
    <time>2014-02-14T08:04:24Z</time>
   </trkpt>
   <trkpt lat="32.8598090" lon="35.2515760">
    <ele>278.1</ele>
    <time>2014-02-14T08:04:25Z</time>
   </trkpt>
   <trkpt lat="32.8598260" lon="35.2516190">
    <ele>278.3</ele>
    <time>2014-02-14T08:04:27Z</time>
   </trkpt>
   <trkpt lat="32.8598550" lon="35.2516130">
    <ele>279.0</ele>
    <time>2014-02-14T08:04:28Z</time>
   </trkpt>
   <trkpt lat="32.8598790" lon="35.2515850">
    <ele>279.6</ele>
    <time>2014-02-14T08:04:29Z</time>
   </trkpt>
   <trkpt lat="32.8599000" lon="35.2515590">
    <ele>280.1</ele>
    <time>2014-02-14T08:04:30Z</time>
   </trkpt>
   <trkpt lat="32.8599190" lon="35.2515350">
    <ele>280.6</ele>
    <time>2014-02-14T08:04:31Z</time>
   </trkpt>
   <trkpt lat="32.8599500" lon="35.2514840">
    <ele>281.5</ele>
    <time>2014-02-14T08:04:33Z</time>
   </trkpt>
   <trkpt lat="32.8599600" lon="35.2514250">
    <ele>281.9</ele>
    <time>2014-02-14T08:04:35Z</time>
   </trkpt>
   <trkpt lat="32.8599540" lon="35.2513660">
    <ele>282.0</ele>
    <time>2014-02-14T08:04:37Z</time>
   </trkpt>
   <trkpt lat="32.8599540" lon="35.2513140">
    <ele>282.1</ele>
    <time>2014-02-14T08:04:39Z</time>
   </trkpt>
   <trkpt lat="32.8599600" lon="35.2512670">
    <ele>282.4</ele>
    <time>2014-02-14T08:04:41Z</time>
   </trkpt>
   <trkpt lat="32.8599750" lon="35.2512260">
    <ele>283.1</ele>
    <time>2014-02-14T08:04:43Z</time>
   </trkpt>
   <trkpt lat="32.8600150" lon="35.2512050">
    <ele>284.2</ele>
    <time>2014-02-14T08:04:45Z</time>
   </trkpt>
   <trkpt lat="32.8600640" lon="35.2512050">
    <ele>285.4</ele>
    <time>2014-02-14T08:04:47Z</time>
   </trkpt>
   <trkpt lat="32.8601100" lon="35.2512130">
    <ele>286.5</ele>
    <time>2014-02-14T08:04:49Z</time>
   </trkpt>
   <trkpt lat="32.8601380" lon="35.2512170">
    <ele>287.2</ele>
    <time>2014-02-14T08:04:51Z</time>
   </trkpt>
   <trkpt lat="32.8601740" lon="35.2512200">
    <ele>288.1</ele>
    <time>2014-02-14T08:04:53Z</time>
   </trkpt>
   <trkpt lat="32.8602180" lon="35.2512220">
    <ele>289.2</ele>
    <time>2014-02-14T08:04:55Z</time>
   </trkpt>
   <trkpt lat="32.8602460" lon="35.2512070">
    <ele>290.0</ele>
    <time>2014-02-14T08:04:57Z</time>
   </trkpt>
   <trkpt lat="32.8602720" lon="35.2511620">
    <ele>290.9</ele>
    <time>2014-02-14T08:04:59Z</time>
   </trkpt>
   <trkpt lat="32.8603050" lon="35.2511230">
    <ele>291.9</ele>
    <time>2014-02-14T08:05:01Z</time>
   </trkpt>
   <trkpt lat="32.8603310" lon="35.2510910">
    <ele>292.7</ele>
    <time>2014-02-14T08:05:03Z</time>
   </trkpt>
   <trkpt lat="32.8603620" lon="35.2510750">
    <ele>293.5</ele>
    <time>2014-02-14T08:05:06Z</time>
   </trkpt>
   <trkpt lat="32.8603940" lon="35.2510630">
    <ele>294.4</ele>
    <time>2014-02-14T08:05:09Z</time>
   </trkpt>
   <trkpt lat="32.8604300" lon="35.2510490">
    <ele>295.1</ele>
    <time>2014-02-14T08:05:12Z</time>
   </trkpt>
   <trkpt lat="32.8604630" lon="35.2510410">
    <ele>295.4</ele>
    <time>2014-02-14T08:05:15Z</time>
   </trkpt>
   <trkpt lat="32.8604960" lon="35.2510410">
    <ele>295.7</ele>
    <time>2014-02-14T08:05:17Z</time>
   </trkpt>
   <trkpt lat="32.8605210" lon="35.2510220">
    <ele>296.0</ele>
    <time>2014-02-14T08:05:20Z</time>
   </trkpt>
   <trkpt lat="32.8605490" lon="35.2510270">
    <ele>296.3</ele>
    <time>2014-02-14T08:05:22Z</time>
   </trkpt>
   <trkpt lat="32.8605820" lon="35.2510540">
    <ele>296.5</ele>
    <time>2014-02-14T08:05:24Z</time>
   </trkpt>
   <trkpt lat="32.8606110" lon="35.2510780">
    <ele>296.7</ele>
    <time>2014-02-14T08:05:26Z</time>
   </trkpt>
   <trkpt lat="32.8606370" lon="35.2510980">
    <ele>296.9</ele>
    <time>2014-02-14T08:05:28Z</time>
   </trkpt>
   <trkpt lat="32.8606630" lon="35.2511340">
    <ele>297.0</ele>
    <time>2014-02-14T08:05:30Z</time>
   </trkpt>
   <trkpt lat="32.8606910" lon="35.2511530">
    <ele>297.2</ele>
    <time>2014-02-14T08:05:32Z</time>
   </trkpt>
   <trkpt lat="32.8607210" lon="35.2511490">
    <ele>297.6</ele>
    <time>2014-02-14T08:05:34Z</time>
   </trkpt>
   <trkpt lat="32.8607520" lon="35.2511320">
    <ele>297.9</ele>
    <time>2014-02-14T08:05:36Z</time>
   </trkpt>
   <trkpt lat="32.8607800" lon="35.2511120">
    <ele>298.2</ele>
    <time>2014-02-14T08:05:38Z</time>
   </trkpt>
   <trkpt lat="32.8608140" lon="35.2511150">
    <ele>298.6</ele>
    <time>2014-02-14T08:05:40Z</time>
   </trkpt>
   <trkpt lat="32.8608420" lon="35.2511360">
    <ele>298.8</ele>
    <time>2014-02-14T08:05:42Z</time>
   </trkpt>
   <trkpt lat="32.8608800" lon="35.2511480">
    <ele>299.2</ele>
    <time>2014-02-14T08:05:44Z</time>
   </trkpt>
   <trkpt lat="32.8609190" lon="35.2511630">
    <ele>299.5</ele>
    <time>2014-02-14T08:05:46Z</time>
   </trkpt>
   <trkpt lat="32.8609480" lon="35.2511800">
    <ele>299.8</ele>
    <time>2014-02-14T08:05:48Z</time>
   </trkpt>
   <trkpt lat="32.8609710" lon="35.2512000">
    <ele>300.0</ele>
    <time>2014-02-14T08:05:51Z</time>
   </trkpt>
   <trkpt lat="32.8609970" lon="35.2512230">
    <ele>300.3</ele>
    <time>2014-02-14T08:05:53Z</time>
   </trkpt>
   <trkpt lat="32.8610320" lon="35.2512380">
    <ele>300.7</ele>
    <time>2014-02-14T08:05:55Z</time>
   </trkpt>
   <trkpt lat="32.8610690" lon="35.2512390">
    <ele>301.0</ele>
    <time>2014-02-14T08:05:57Z</time>
   </trkpt>
   <trkpt lat="32.8611090" lon="35.2512540">
    <ele>301.5</ele>
    <time>2014-02-14T08:05:59Z</time>
   </trkpt>
   <trkpt lat="32.8611620" lon="35.2512760">
    <ele>301.9</ele>
    <time>2014-02-14T08:06:01Z</time>
   </trkpt>
   <trkpt lat="32.8611890" lon="35.2512910">
    <ele>302.1</ele>
    <time>2014-02-14T08:06:02Z</time>
   </trkpt>
   <trkpt lat="32.8612050" lon="35.2513170">
    <ele>302.1</ele>
    <time>2014-02-14T08:06:03Z</time>
   </trkpt>
   <trkpt lat="32.8612180" lon="35.2513470">
    <ele>302.1</ele>
    <time>2014-02-14T08:06:04Z</time>
   </trkpt>
   <trkpt lat="32.8612270" lon="35.2513780">
    <ele>302.0</ele>
    <time>2014-02-14T08:06:05Z</time>
   </trkpt>
   <trkpt lat="32.8612410" lon="35.2514370">
    <ele>301.8</ele>
    <time>2014-02-14T08:06:07Z</time>
   </trkpt>
   <trkpt lat="32.8612560" lon="35.2514940">
    <ele>301.5</ele>
    <time>2014-02-14T08:06:09Z</time>
   </trkpt>
   <trkpt lat="32.8612720" lon="35.2515430">
    <ele>301.3</ele>
    <time>2014-02-14T08:06:11Z</time>
   </trkpt>
   <trkpt lat="32.8613080" lon="35.2515840">
    <ele>301.1</ele>
    <time>2014-02-14T08:06:13Z</time>
   </trkpt>
   <trkpt lat="32.8613640" lon="35.2516110">
    <ele>301.1</ele>
    <time>2014-02-14T08:06:15Z</time>
   </trkpt>
   <trkpt lat="32.8614100" lon="35.2516070">
    <ele>301.2</ele>
    <time>2014-02-14T08:06:16Z</time>
   </trkpt>
   <trkpt lat="32.8614640" lon="35.2516050">
    <ele>301.3</ele>
    <time>2014-02-14T08:06:17Z</time>
   </trkpt>
   <trkpt lat="32.8615110" lon="35.2515990">
    <ele>301.4</ele>
    <time>2014-02-14T08:06:18Z</time>
   </trkpt>
   <trkpt lat="32.8615550" lon="35.2516040">
    <ele>301.5</ele>
    <time>2014-02-14T08:06:19Z</time>
   </trkpt>
   <trkpt lat="32.8615940" lon="35.2516130">
    <ele>301.5</ele>
    <time>2014-02-14T08:06:20Z</time>
   </trkpt>
   <trkpt lat="32.8616280" lon="35.2516330">
    <ele>301.5</ele>
    <time>2014-02-14T08:06:21Z</time>
   </trkpt>
   <trkpt lat="32.8616590" lon="35.2516630">
    <ele>301.5</ele>
    <time>2014-02-14T08:06:22Z</time>
   </trkpt>
   <trkpt lat="32.8616840" lon="35.2516930">
    <ele>301.4</ele>
    <time>2014-02-14T08:06:23Z</time>
   </trkpt>
   <trkpt lat="32.8617070" lon="35.2517290">
    <ele>301.4</ele>
    <time>2014-02-14T08:06:24Z</time>
   </trkpt>
   <trkpt lat="32.8617230" lon="35.2517690">
    <ele>301.3</ele>
    <time>2014-02-14T08:06:25Z</time>
   </trkpt>
   <trkpt lat="32.8617210" lon="35.2518160">
    <ele>301.1</ele>
    <time>2014-02-14T08:06:26Z</time>
   </trkpt>
   <trkpt lat="32.8617100" lon="35.2518610">
    <ele>301.0</ele>
    <time>2014-02-14T08:06:27Z</time>
   </trkpt>
   <trkpt lat="32.8616950" lon="35.2519040">
    <ele>300.8</ele>
    <time>2014-02-14T08:06:28Z</time>
   </trkpt>
   <trkpt lat="32.8616870" lon="35.2519430">
    <ele>300.6</ele>
    <time>2014-02-14T08:06:29Z</time>
   </trkpt>
   <trkpt lat="32.8616850" lon="35.2519750">
    <ele>300.5</ele>
    <time>2014-02-14T08:06:30Z</time>
   </trkpt>
   <trkpt lat="32.8616900" lon="35.2520080">
    <ele>300.4</ele>
    <time>2014-02-14T08:06:31Z</time>
   </trkpt>
   <trkpt lat="32.8616960" lon="35.2520430">
    <ele>300.3</ele>
    <time>2014-02-14T08:06:32Z</time>
   </trkpt>
   <trkpt lat="32.8617080" lon="35.2520970">
    <ele>300.0</ele>
    <time>2014-02-14T08:06:33Z</time>
   </trkpt>
   <trkpt lat="32.8617140" lon="35.2522650">
    <ele>297.2</ele>
    <time>2014-02-14T08:06:34Z</time>
   </trkpt>
   <trkpt lat="32.8617280" lon="35.2523810">
    <ele>295.3</ele>
    <time>2014-02-14T08:06:35Z</time>
   </trkpt>
   <trkpt lat="32.8617620" lon="35.2524840">
    <ele>293.9</ele>
    <time>2014-02-14T08:06:36Z</time>
   </trkpt>
   <trkpt lat="32.8617410" lon="35.2525780">
    <ele>292.1</ele>
    <time>2014-02-14T08:06:37Z</time>
   </trkpt>
   <trkpt lat="32.8617100" lon="35.2526620">
    <ele>290.4</ele>
    <time>2014-02-14T08:06:38Z</time>
   </trkpt>
   <trkpt lat="32.8616870" lon="35.2527100">
    <ele>289.3</ele>
    <time>2014-02-14T08:06:39Z</time>
   </trkpt>
   <trkpt lat="32.8616680" lon="35.2527800">
    <ele>287.9</ele>
    <time>2014-02-14T08:06:40Z</time>
   </trkpt>
   <trkpt lat="32.8616440" lon="35.2528620">
    <ele>286.2</ele>
    <time>2014-02-14T08:06:41Z</time>
   </trkpt>
   <trkpt lat="32.8616260" lon="35.2529260">
    <ele>285.0</ele>
    <time>2014-02-14T08:06:42Z</time>
   </trkpt>
   <trkpt lat="32.8615790" lon="35.2530230">
    <ele>284.9</ele>
    <time>2014-02-14T08:06:43Z</time>
   </trkpt>
   <trkpt lat="32.8615330" lon="35.2530820">
    <ele>284.5</ele>
    <time>2014-02-14T08:06:44Z</time>
   </trkpt>
   <trkpt lat="32.8615010" lon="35.2531230">
    <ele>284.3</ele>
    <time>2014-02-14T08:06:45Z</time>
   </trkpt>
   <trkpt lat="32.8614470" lon="35.2531720">
    <ele>283.7</ele>
    <time>2014-02-14T08:06:46Z</time>
   </trkpt>
   <trkpt lat="32.8614480" lon="35.2532230">
    <ele>284.0</ele>
    <time>2014-02-14T08:06:47Z</time>
   </trkpt>
   <trkpt lat="32.8613990" lon="35.2532470">
    <ele>283.4</ele>
    <time>2014-02-14T08:06:48Z</time>
   </trkpt>
   <trkpt lat="32.8613610" lon="35.2533010">
    <ele>283.0</ele>
    <time>2014-02-14T08:06:49Z</time>
   </trkpt>
   <trkpt lat="32.8613080" lon="35.2533550">
    <ele>282.5</ele>
    <time>2014-02-14T08:06:50Z</time>
   </trkpt>
   <trkpt lat="32.8612600" lon="35.2534180">
    <ele>282.0</ele>
    <time>2014-02-14T08:06:51Z</time>
   </trkpt>
   <trkpt lat="32.8612230" lon="35.2534680">
    <ele>281.5</ele>
    <time>2014-02-14T08:06:52Z</time>
   </trkpt>
   <trkpt lat="32.8611730" lon="35.2535080">
    <ele>280.9</ele>
    <time>2014-02-14T08:06:53Z</time>
   </trkpt>
   <trkpt lat="32.8611110" lon="35.2535270">
    <ele>279.9</ele>
    <time>2014-02-14T08:06:54Z</time>
   </trkpt>
   <trkpt lat="32.8610410" lon="35.2535620">
    <ele>278.8</ele>
    <time>2014-02-14T08:06:55Z</time>
   </trkpt>
   <trkpt lat="32.8609860" lon="35.2535870">
    <ele>277.9</ele>
    <time>2014-02-14T08:06:56Z</time>
   </trkpt>
   <trkpt lat="32.8609220" lon="35.2536170">
    <ele>276.9</ele>
    <time>2014-02-14T08:06:57Z</time>
   </trkpt>
   <trkpt lat="32.8608660" lon="35.2536630">
    <ele>276.0</ele>
    <time>2014-02-14T08:06:58Z</time>
   </trkpt>
   <trkpt lat="32.8607960" lon="35.2536980">
    <ele>274.8</ele>
    <time>2014-02-14T08:06:59Z</time>
   </trkpt>
   <trkpt lat="32.8607360" lon="35.2537420">
    <ele>273.7</ele>
    <time>2014-02-14T08:07:00Z</time>
   </trkpt>
   <trkpt lat="32.8606930" lon="35.2537660">
    <ele>273.2</ele>
    <time>2014-02-14T08:07:01Z</time>
   </trkpt>
   <trkpt lat="32.8606390" lon="35.2537670">
    <ele>272.3</ele>
    <time>2014-02-14T08:07:02Z</time>
   </trkpt>
   <trkpt lat="32.8605670" lon="35.2537850">
    <ele>271.3</ele>
    <time>2014-02-14T08:07:03Z</time>
   </trkpt>
   <trkpt lat="32.8605170" lon="35.2537900">
    <ele>270.5</ele>
    <time>2014-02-14T08:07:04Z</time>
   </trkpt>
   <trkpt lat="32.8604770" lon="35.2538510">
    <ele>270.8</ele>
    <time>2014-02-14T08:07:05Z</time>
   </trkpt>
   <trkpt lat="32.8604440" lon="35.2538930">
    <ele>270.9</ele>
    <time>2014-02-14T08:07:06Z</time>
   </trkpt>
   <trkpt lat="32.8604240" lon="35.2539340">
    <ele>271.2</ele>
    <time>2014-02-14T08:07:07Z</time>
   </trkpt>
   <trkpt lat="32.8604050" lon="35.2539590">
    <ele>271.3</ele>
    <time>2014-02-14T08:07:08Z</time>
   </trkpt>
   <trkpt lat="32.8603880" lon="35.2539940">
    <ele>271.7</ele>
    <time>2014-02-14T08:07:09Z</time>
   </trkpt>
   <trkpt lat="32.8603750" lon="35.2540490">
    <ele>272.4</ele>
    <time>2014-02-14T08:07:10Z</time>
   </trkpt>
   <trkpt lat="32.8603640" lon="35.2541030">
    <ele>273.2</ele>
    <time>2014-02-14T08:07:11Z</time>
   </trkpt>
   <trkpt lat="32.8603560" lon="35.2541450">
    <ele>273.8</ele>
    <time>2014-02-14T08:07:12Z</time>
   </trkpt>
   <trkpt lat="32.8603390" lon="35.2541740">
    <ele>274.1</ele>
    <time>2014-02-14T08:07:14Z</time>
   </trkpt>
   <trkpt lat="32.8603300" lon="35.2542100">
    <ele>274.6</ele>
    <time>2014-02-14T08:07:15Z</time>
   </trkpt>
   <trkpt lat="32.8603180" lon="35.2542390">
    <ele>274.9</ele>
    <time>2014-02-14T08:07:16Z</time>
   </trkpt>
   <trkpt lat="32.8602990" lon="35.2542720">
    <ele>275.2</ele>
    <time>2014-02-14T08:07:18Z</time>
   </trkpt>
   <trkpt lat="32.8602780" lon="35.2543270">
    <ele>275.9</ele>
    <time>2014-02-14T08:07:20Z</time>
   </trkpt>
   <trkpt lat="32.8602650" lon="35.2543580">
    <ele>276.3</ele>
    <time>2014-02-14T08:07:21Z</time>
   </trkpt>
   <trkpt lat="32.8602570" lon="35.2543920">
    <ele>276.8</ele>
    <time>2014-02-14T08:07:22Z</time>
   </trkpt>
   <trkpt lat="32.8602320" lon="35.2544410">
    <ele>277.4</ele>
    <time>2014-02-14T08:07:24Z</time>
   </trkpt>
   <trkpt lat="32.8602170" lon="35.2544800">
    <ele>278.0</ele>
    <time>2014-02-14T08:07:26Z</time>
   </trkpt>
   <trkpt lat="32.8602000" lon="35.2545080">
    <ele>278.3</ele>
    <time>2014-02-14T08:07:28Z</time>
   </trkpt>
   <trkpt lat="32.8601730" lon="35.2545440">
    <ele>278.6</ele>
    <time>2014-02-14T08:07:30Z</time>
   </trkpt>
   <trkpt lat="32.8601440" lon="35.2545870">
    <ele>279.1</ele>
    <time>2014-02-14T08:07:32Z</time>
   </trkpt>
   <trkpt lat="32.8601060" lon="35.2546060">
    <ele>279.0</ele>
    <time>2014-02-14T08:07:34Z</time>
   </trkpt>
   <trkpt lat="32.8600780" lon="35.2546340">
    <ele>279.2</ele>
    <time>2014-02-14T08:07:36Z</time>
   </trkpt>
   <trkpt lat="32.8600620" lon="35.2546730">
    <ele>279.6</ele>
    <time>2014-02-14T08:07:38Z</time>
   </trkpt>
   <trkpt lat="32.8600400" lon="35.2547300">
    <ele>280.3</ele>
    <time>2014-02-14T08:07:40Z</time>
   </trkpt>
   <trkpt lat="32.8600280" lon="35.2547610">
    <ele>280.7</ele>
    <time>2014-02-14T08:07:41Z</time>
   </trkpt>
   <trkpt lat="32.8600140" lon="35.2547900">
    <ele>281.0</ele>
    <time>2014-02-14T08:07:42Z</time>
   </trkpt>
   <trkpt lat="32.8599960" lon="35.2548260">
    <ele>281.4</ele>
    <time>2014-02-14T08:07:43Z</time>
   </trkpt>
   <trkpt lat="32.8599780" lon="35.2548660">
    <ele>281.9</ele>
    <time>2014-02-14T08:07:44Z</time>
   </trkpt>
   <trkpt lat="32.8599620" lon="35.2549000">
    <ele>282.2</ele>
    <time>2014-02-14T08:07:45Z</time>
   </trkpt>
   <trkpt lat="32.8599500" lon="35.2549330">
    <ele>282.6</ele>
    <time>2014-02-14T08:07:46Z</time>
   </trkpt>
   <trkpt lat="32.8599360" lon="35.2549660">
    <ele>283.0</ele>
    <time>2014-02-14T08:07:47Z</time>
   </trkpt>
   <trkpt lat="32.8599210" lon="35.2550010">
    <ele>283.5</ele>
    <time>2014-02-14T08:07:48Z</time>
   </trkpt>
   <trkpt lat="32.8599050" lon="35.2550320">
    <ele>283.8</ele>
    <time>2014-02-14T08:07:49Z</time>
   </trkpt>
   <trkpt lat="32.8598900" lon="35.2550610">
    <ele>284.1</ele>
    <time>2014-02-14T08:07:50Z</time>
   </trkpt>
   <trkpt lat="32.8598780" lon="35.2550900">
    <ele>284.5</ele>
    <time>2014-02-14T08:07:51Z</time>
   </trkpt>
   <trkpt lat="32.8598570" lon="35.2551460">
    <ele>285.2</ele>
    <time>2014-02-14T08:07:53Z</time>
   </trkpt>
   <trkpt lat="32.8598470" lon="35.2551970">
    <ele>285.9</ele>
    <time>2014-02-14T08:07:55Z</time>
   </trkpt>
   <trkpt lat="32.8598620" lon="35.2552450">
    <ele>286.9</ele>
    <time>2014-02-14T08:07:57Z</time>
   </trkpt>
   <trkpt lat="32.8598770" lon="35.2552800">
    <ele>287.6</ele>
    <time>2014-02-14T08:07:59Z</time>
   </trkpt>
   <trkpt lat="32.8598810" lon="35.2553250">
    <ele>288.4</ele>
    <time>2014-02-14T08:08:01Z</time>
   </trkpt>
   <trkpt lat="32.8598830" lon="35.2553770">
    <ele>289.2</ele>
    <time>2014-02-14T08:08:03Z</time>
   </trkpt>
   <trkpt lat="32.8599000" lon="35.2554250">
    <ele>290.1</ele>
    <time>2014-02-14T08:08:05Z</time>
   </trkpt>
   <trkpt lat="32.8599210" lon="35.2554680">
    <ele>290.6</ele>
    <time>2014-02-14T08:08:07Z</time>
   </trkpt>
   <trkpt lat="32.8599350" lon="35.2555180">
    <ele>291.0</ele>
    <time>2014-02-14T08:08:09Z</time>
   </trkpt>
   <trkpt lat="32.8599410" lon="35.2555660">
    <ele>291.4</ele>
    <time>2014-02-14T08:08:11Z</time>
   </trkpt>
   <trkpt lat="32.8599480" lon="35.2556140">
    <ele>291.7</ele>
    <time>2014-02-14T08:08:13Z</time>
   </trkpt>
   <trkpt lat="32.8599600" lon="35.2556660">
    <ele>292.1</ele>
    <time>2014-02-14T08:08:15Z</time>
   </trkpt>
   <trkpt lat="32.8599770" lon="35.2557130">
    <ele>292.6</ele>
    <time>2014-02-14T08:08:17Z</time>
   </trkpt>
   <trkpt lat="32.8599870" lon="35.2557640">
    <ele>293.0</ele>
    <time>2014-02-14T08:08:19Z</time>
   </trkpt>
   <trkpt lat="32.8599890" lon="35.2558210">
    <ele>293.3</ele>
    <time>2014-02-14T08:08:21Z</time>
   </trkpt>
   <trkpt lat="32.8599990" lon="35.2558770">
    <ele>293.8</ele>
    <time>2014-02-14T08:08:23Z</time>
   </trkpt>
   <trkpt lat="32.8600150" lon="35.2559340">
    <ele>294.2</ele>
    <time>2014-02-14T08:08:25Z</time>
   </trkpt>
   <trkpt lat="32.8600180" lon="35.2559920">
    <ele>294.6</ele>
    <time>2014-02-14T08:08:27Z</time>
   </trkpt>
   <trkpt lat="32.8600170" lon="35.2560400">
    <ele>294.9</ele>
    <time>2014-02-14T08:08:29Z</time>
   </trkpt>
   <trkpt lat="32.8600040" lon="35.2560760">
    <ele>295.0</ele>
    <time>2014-02-14T08:08:31Z</time>
   </trkpt>
   <trkpt lat="32.8599940" lon="35.2561110">
    <ele>295.1</ele>
    <time>2014-02-14T08:08:33Z</time>
   </trkpt>
   <trkpt lat="32.8600020" lon="35.2561490">
    <ele>295.4</ele>
    <time>2014-02-14T08:08:35Z</time>
   </trkpt>
   <trkpt lat="32.8600250" lon="35.2561680">
    <ele>295.7</ele>
    <time>2014-02-14T08:08:37Z</time>
   </trkpt>
   <trkpt lat="32.8600480" lon="35.2561310">
    <ele>295.6</ele>
    <time>2014-02-14T08:08:39Z</time>
   </trkpt>
   <trkpt lat="32.8600510" lon="35.2560900">
    <ele>295.4</ele>
    <time>2014-02-14T08:08:41Z</time>
   </trkpt>
   <trkpt lat="32.8600350" lon="35.2560540">
    <ele>295.1</ele>
    <time>2014-02-14T08:08:43Z</time>
   </trkpt>
   <trkpt lat="32.8600120" lon="35.2560270">
    <ele>294.8</ele>
    <time>2014-02-14T08:08:45Z</time>
   </trkpt>
   <trkpt lat="32.8600120" lon="35.2560750">
    <ele>295.0</ele>
    <time>2014-02-14T08:08:48Z</time>
   </trkpt>
   <trkpt lat="32.8600330" lon="35.2561000">
    <ele>295.4</ele>
    <time>2014-02-14T08:08:50Z</time>
   </trkpt>
   <trkpt lat="32.8600630" lon="35.2561090">
    <ele>295.6</ele>
    <time>2014-02-14T08:08:53Z</time>
   </trkpt>
   <trkpt lat="32.8600370" lon="35.2561000">
    <ele>295.4</ele>
    <time>2014-02-14T08:08:58Z</time>
   </trkpt>
   <trkpt lat="32.8600010" lon="35.2560890">
    <ele>295.0</ele>
    <time>2014-02-14T08:09:56Z</time>
   </trkpt>
   <trkpt lat="32.8599900" lon="35.2560520">
    <ele>294.7</ele>
    <time>2014-02-14T08:09:59Z</time>
   </trkpt>
   <trkpt lat="32.8600060" lon="35.2560990">
    <ele>295.1</ele>
    <time>2014-02-14T08:10:05Z</time>
   </trkpt>
   <trkpt lat="32.8599880" lon="35.2561380">
    <ele>295.2</ele>
    <time>2014-02-14T08:10:07Z</time>
   </trkpt>
   <trkpt lat="32.8599940" lon="35.2561060">
    <ele>295.1</ele>
    <time>2014-02-14T08:10:12Z</time>
   </trkpt>
   <trkpt lat="32.8599740" lon="35.2560810">
    <ele>294.8</ele>
    <time>2014-02-14T08:10:17Z</time>
   </trkpt>
   <trkpt lat="32.8599480" lon="35.2561180">
    <ele>294.8</ele>
    <time>2014-02-14T08:10:19Z</time>
   </trkpt>
   <trkpt lat="32.8599300" lon="35.2561600">
    <ele>294.9</ele>
    <time>2014-02-14T08:10:21Z</time>
   </trkpt>
   <trkpt lat="32.8599110" lon="35.2561920">
    <ele>295.0</ele>
    <time>2014-02-14T08:10:23Z</time>
   </trkpt>
   <trkpt lat="32.8599050" lon="35.2561870">
    <ele>294.9</ele>
    <time>2014-02-14T08:10:26Z</time>
   </trkpt>
   <trkpt lat="32.8598990" lon="35.2561830">
    <ele>294.9</ele>
    <time>2014-02-14T08:10:32Z</time>
   </trkpt>
   <trkpt lat="32.8598940" lon="35.2561780">
    <ele>294.8</ele>
    <time>2014-02-14T08:10:35Z</time>
   </trkpt>
   <trkpt lat="32.8598880" lon="35.2561740">
    <ele>294.7</ele>
    <time>2014-02-14T08:10:37Z</time>
   </trkpt>
   <trkpt lat="32.8598820" lon="35.2561690">
    <ele>294.6</ele>
    <time>2014-02-14T08:10:40Z</time>
   </trkpt>
   <trkpt lat="32.8598760" lon="35.2561650">
    <ele>294.6</ele>
    <time>2014-02-14T08:10:42Z</time>
   </trkpt>
   <trkpt lat="32.8598700" lon="35.2561600">
    <ele>294.5</ele>
    <time>2014-02-14T08:10:45Z</time>
   </trkpt>
   <trkpt lat="32.8598640" lon="35.2561560">
    <ele>294.4</ele>
    <time>2014-02-14T08:11:00Z</time>
   </trkpt>
   <trkpt lat="32.8598580" lon="35.2561510">
    <ele>294.3</ele>
    <time>2014-02-14T08:11:03Z</time>
   </trkpt>
   <trkpt lat="32.8598520" lon="35.2561470">
    <ele>294.3</ele>
    <time>2014-02-14T08:11:15Z</time>
   </trkpt>
   <trkpt lat="32.8598470" lon="35.2561420">
    <ele>294.2</ele>
    <time>2014-02-14T08:17:14Z</time>
   </trkpt>
   <trkpt lat="32.8598370" lon="35.2561350">
    <ele>294.1</ele>
    <time>2014-02-14T08:17:15Z</time>
   </trkpt>
   <trkpt lat="32.8597920" lon="35.2561380">
    <ele>293.8</ele>
    <time>2014-02-14T08:17:16Z</time>
   </trkpt>
   <trkpt lat="32.8597500" lon="35.2561410">
    <ele>293.5</ele>
    <time>2014-02-14T08:17:17Z</time>
   </trkpt>
   <trkpt lat="32.8597100" lon="35.2561470">
    <ele>293.2</ele>
    <time>2014-02-14T08:17:18Z</time>
   </trkpt>
   <trkpt lat="32.8596710" lon="35.2561550">
    <ele>293.0</ele>
    <time>2014-02-14T08:17:19Z</time>
   </trkpt>
   <trkpt lat="32.8596330" lon="35.2561600">
    <ele>292.7</ele>
    <time>2014-02-14T08:17:20Z</time>
   </trkpt>
   <trkpt lat="32.8595950" lon="35.2561610">
    <ele>292.4</ele>
    <time>2014-02-14T08:17:21Z</time>
   </trkpt>
   <trkpt lat="32.8595570" lon="35.2561590">
    <ele>292.2</ele>
    <time>2014-02-14T08:17:22Z</time>
   </trkpt>
   <trkpt lat="32.8595160" lon="35.2561640">
    <ele>291.9</ele>
    <time>2014-02-14T08:17:23Z</time>
   </trkpt>
   <trkpt lat="32.8594770" lon="35.2561770">
    <ele>291.8</ele>
    <time>2014-02-14T08:17:24Z</time>
   </trkpt>
   <trkpt lat="32.8594340" lon="35.2561890">
    <ele>291.6</ele>
    <time>2014-02-14T08:17:25Z</time>
   </trkpt>
   <trkpt lat="32.8593920" lon="35.2561990">
    <ele>291.4</ele>
    <time>2014-02-14T08:17:26Z</time>
   </trkpt>
   <trkpt lat="32.8593530" lon="35.2562060">
    <ele>291.2</ele>
    <time>2014-02-14T08:17:27Z</time>
   </trkpt>
   <trkpt lat="32.8593200" lon="35.2562200">
    <ele>291.1</ele>
    <time>2014-02-14T08:17:28Z</time>
   </trkpt>
   <trkpt lat="32.8592840" lon="35.2562520">
    <ele>291.2</ele>
    <time>2014-02-14T08:17:30Z</time>
   </trkpt>
   <trkpt lat="32.8592580" lon="35.2562920">
    <ele>291.3</ele>
    <time>2014-02-14T08:17:32Z</time>
   </trkpt>
   <trkpt lat="32.8592320" lon="35.2563440">
    <ele>291.5</ele>
    <time>2014-02-14T08:17:34Z</time>
   </trkpt>
   <trkpt lat="32.8592070" lon="35.2563980">
    <ele>291.7</ele>
    <time>2014-02-14T08:17:36Z</time>
   </trkpt>
   <trkpt lat="32.8591840" lon="35.2564470">
    <ele>291.9</ele>
    <time>2014-02-14T08:17:38Z</time>
   </trkpt>
   <trkpt lat="32.8591710" lon="35.2565050">
    <ele>292.2</ele>
    <time>2014-02-14T08:17:40Z</time>
   </trkpt>
   <trkpt lat="32.8591640" lon="35.2565360">
    <ele>292.4</ele>
    <time>2014-02-14T08:17:42Z</time>
   </trkpt>
   <trkpt lat="32.8591840" lon="35.2565130">
    <ele>292.3</ele>
    <time>2014-02-14T08:17:48Z</time>
   </trkpt>
   <trkpt lat="32.8592030" lon="35.2564730">
    <ele>292.1</ele>
    <time>2014-02-14T08:19:18Z</time>
   </trkpt>
   <trkpt lat="32.8592190" lon="35.2564460">
    <ele>292.0</ele>
    <time>2014-02-14T08:19:19Z</time>
   </trkpt>
   <trkpt lat="32.8592340" lon="35.2564130">
    <ele>291.9</ele>
    <time>2014-02-14T08:19:20Z</time>
   </trkpt>
   <trkpt lat="32.8592500" lon="35.2563820">
    <ele>291.8</ele>
    <time>2014-02-14T08:19:21Z</time>
   </trkpt>
   <trkpt lat="32.8592650" lon="35.2563530">
    <ele>291.7</ele>
    <time>2014-02-14T08:19:22Z</time>
   </trkpt>
   <trkpt lat="32.8593000" lon="35.2563080">
    <ele>291.6</ele>
    <time>2014-02-14T08:19:24Z</time>
   </trkpt>
   <trkpt lat="32.8593420" lon="35.2562770">
    <ele>291.7</ele>
    <time>2014-02-14T08:19:26Z</time>
   </trkpt>
   <trkpt lat="32.8593850" lon="35.2562570">
    <ele>291.8</ele>
    <time>2014-02-14T08:19:28Z</time>
   </trkpt>
   <trkpt lat="32.8594310" lon="35.2562440">
    <ele>292.0</ele>
    <time>2014-02-14T08:19:30Z</time>
   </trkpt>
   <trkpt lat="32.8594790" lon="35.2562370">
    <ele>292.3</ele>
    <time>2014-02-14T08:19:32Z</time>
   </trkpt>
   <trkpt lat="32.8595240" lon="35.2562320">
    <ele>292.5</ele>
    <time>2014-02-14T08:19:34Z</time>
   </trkpt>
   <trkpt lat="32.8595570" lon="35.2562180">
    <ele>292.6</ele>
    <time>2014-02-14T08:19:36Z</time>
   </trkpt>
   <trkpt lat="32.8596000" lon="35.2561920">
    <ele>292.7</ele>
    <time>2014-02-14T08:19:38Z</time>
   </trkpt>
   <trkpt lat="32.8596460" lon="35.2561750">
    <ele>292.9</ele>
    <time>2014-02-14T08:19:40Z</time>
   </trkpt>
   <trkpt lat="32.8596920" lon="35.2561660">
    <ele>293.2</ele>
    <time>2014-02-14T08:19:42Z</time>
   </trkpt>
   <trkpt lat="32.8597420" lon="35.2561590">
    <ele>293.5</ele>
    <time>2014-02-14T08:19:44Z</time>
   </trkpt>
   <trkpt lat="32.8597910" lon="35.2561560">
    <ele>293.9</ele>
    <time>2014-02-14T08:19:46Z</time>
   </trkpt>
   <trkpt lat="32.8598380" lon="35.2561610">
    <ele>294.3</ele>
    <time>2014-02-14T08:19:48Z</time>
   </trkpt>
   <trkpt lat="32.8598820" lon="35.2561770">
    <ele>294.7</ele>
    <time>2014-02-14T08:19:50Z</time>
   </trkpt>
   <trkpt lat="32.8599250" lon="35.2562000">
    <ele>295.1</ele>
    <time>2014-02-14T08:19:52Z</time>
   </trkpt>
   <trkpt lat="32.8599610" lon="35.2562390">
    <ele>295.7</ele>
    <time>2014-02-14T08:19:54Z</time>
   </trkpt>
   <trkpt lat="32.8599800" lon="35.2563000">
    <ele>295.9</ele>
    <time>2014-02-14T08:19:56Z</time>
   </trkpt>
   <trkpt lat="32.8599840" lon="35.2563340">
    <ele>295.9</ele>
    <time>2014-02-14T08:19:57Z</time>
   </trkpt>
   <trkpt lat="32.8599890" lon="35.2563690">
    <ele>296.0</ele>
    <time>2014-02-14T08:19:58Z</time>
   </trkpt>
   <trkpt lat="32.8599970" lon="35.2564120">
    <ele>296.1</ele>
    <time>2014-02-14T08:19:59Z</time>
   </trkpt>
   <trkpt lat="32.8600040" lon="35.2564540">
    <ele>296.1</ele>
    <time>2014-02-14T08:20:00Z</time>
   </trkpt>
   <trkpt lat="32.8600100" lon="35.2564960">
    <ele>296.2</ele>
    <time>2014-02-14T08:20:01Z</time>
   </trkpt>
   <trkpt lat="32.8600150" lon="35.2565410">
    <ele>296.3</ele>
    <time>2014-02-14T08:20:02Z</time>
   </trkpt>
   <trkpt lat="32.8600240" lon="35.2565810">
    <ele>296.3</ele>
    <time>2014-02-14T08:20:03Z</time>
   </trkpt>
   <trkpt lat="32.8600350" lon="35.2566190">
    <ele>296.4</ele>
    <time>2014-02-14T08:20:04Z</time>
   </trkpt>
   <trkpt lat="32.8600450" lon="35.2566580">
    <ele>296.4</ele>
    <time>2014-02-14T08:20:05Z</time>
   </trkpt>
   <trkpt lat="32.8600550" lon="35.2566960">
    <ele>296.5</ele>
    <time>2014-02-14T08:20:06Z</time>
   </trkpt>
   <trkpt lat="32.8600640" lon="35.2567350">
    <ele>296.5</ele>
    <time>2014-02-14T08:20:07Z</time>
   </trkpt>
   <trkpt lat="32.8600800" lon="35.2567720">
    <ele>296.6</ele>
    <time>2014-02-14T08:20:08Z</time>
   </trkpt>
   <trkpt lat="32.8601010" lon="35.2568140">
    <ele>296.7</ele>
    <time>2014-02-14T08:20:09Z</time>
   </trkpt>
   <trkpt lat="32.8601260" lon="35.2568540">
    <ele>296.7</ele>
    <time>2014-02-14T08:20:10Z</time>
   </trkpt>
   <trkpt lat="32.8601490" lon="35.2568920">
    <ele>296.8</ele>
    <time>2014-02-14T08:20:11Z</time>
   </trkpt>
   <trkpt lat="32.8601750" lon="35.2569330">
    <ele>296.8</ele>
    <time>2014-02-14T08:20:12Z</time>
   </trkpt>
   <trkpt lat="32.8602040" lon="35.2569750">
    <ele>296.8</ele>
    <time>2014-02-14T08:20:13Z</time>
   </trkpt>
   <trkpt lat="32.8602330" lon="35.2570160">
    <ele>296.9</ele>
    <time>2014-02-14T08:20:14Z</time>
   </trkpt>
   <trkpt lat="32.8602650" lon="35.2570560">
    <ele>296.9</ele>
    <time>2014-02-14T08:20:15Z</time>
   </trkpt>
   <trkpt lat="32.8602950" lon="35.2570960">
    <ele>296.8</ele>
    <time>2014-02-14T08:20:16Z</time>
   </trkpt>
   <trkpt lat="32.8603250" lon="35.2571340">
    <ele>296.7</ele>
    <time>2014-02-14T08:20:17Z</time>
   </trkpt>
   <trkpt lat="32.8603590" lon="35.2571690">
    <ele>296.7</ele>
    <time>2014-02-14T08:20:18Z</time>
   </trkpt>
   <trkpt lat="32.8603940" lon="35.2571940">
    <ele>296.6</ele>
    <time>2014-02-14T08:20:19Z</time>
   </trkpt>
   <trkpt lat="32.8604330" lon="35.2572100">
    <ele>296.7</ele>
    <time>2014-02-14T08:20:20Z</time>
   </trkpt>
   <trkpt lat="32.8604730" lon="35.2572220">
    <ele>297.1</ele>
    <time>2014-02-14T08:20:21Z</time>
   </trkpt>
   <trkpt lat="32.8605150" lon="35.2572330">
    <ele>297.5</ele>
    <time>2014-02-14T08:20:22Z</time>
   </trkpt>
   <trkpt lat="32.8605460" lon="35.2572370">
    <ele>297.7</ele>
    <time>2014-02-14T08:20:23Z</time>
   </trkpt>
   <trkpt lat="32.8605780" lon="35.2572420">
    <ele>298.0</ele>
    <time>2014-02-14T08:20:24Z</time>
   </trkpt>
   <trkpt lat="32.8606130" lon="35.2572440">
    <ele>298.4</ele>
    <time>2014-02-14T08:20:25Z</time>
   </trkpt>
   <trkpt lat="32.8606490" lon="35.2572420">
    <ele>298.7</ele>
    <time>2014-02-14T08:20:26Z</time>
   </trkpt>
   <trkpt lat="32.8606840" lon="35.2572440">
    <ele>299.1</ele>
    <time>2014-02-14T08:20:27Z</time>
   </trkpt>
   <trkpt lat="32.8607180" lon="35.2572510">
    <ele>299.4</ele>
    <time>2014-02-14T08:20:28Z</time>
   </trkpt>
   <trkpt lat="32.8607510" lon="35.2572600">
    <ele>299.6</ele>
    <time>2014-02-14T08:20:29Z</time>
   </trkpt>
   <trkpt lat="32.8607830" lon="35.2572660">
    <ele>299.9</ele>
    <time>2014-02-14T08:20:30Z</time>
   </trkpt>
   <trkpt lat="32.8608140" lon="35.2572690">
    <ele>300.1</ele>
    <time>2014-02-14T08:20:31Z</time>
   </trkpt>
   <trkpt lat="32.8608450" lon="35.2572690">
    <ele>300.4</ele>
    <time>2014-02-14T08:20:32Z</time>
   </trkpt>
   <trkpt lat="32.8608750" lon="35.2572670">
    <ele>300.7</ele>
    <time>2014-02-14T08:20:33Z</time>
   </trkpt>
   <trkpt lat="32.8609040" lon="35.2572660">
    <ele>301.0</ele>
    <time>2014-02-14T08:20:34Z</time>
   </trkpt>
   <trkpt lat="32.8609340" lon="35.2572680">
    <ele>301.3</ele>
    <time>2014-02-14T08:20:35Z</time>
   </trkpt>
   <trkpt lat="32.8609860" lon="35.2572710">
    <ele>301.8</ele>
    <time>2014-02-14T08:20:37Z</time>
   </trkpt>
   <trkpt lat="32.8610150" lon="35.2572740">
    <ele>302.0</ele>
    <time>2014-02-14T08:20:38Z</time>
   </trkpt>
   <trkpt lat="32.8610430" lon="35.2572780">
    <ele>302.2</ele>
    <time>2014-02-14T08:20:39Z</time>
   </trkpt>
   <trkpt lat="32.8610710" lon="35.2572820">
    <ele>302.5</ele>
    <time>2014-02-14T08:20:40Z</time>
   </trkpt>
   <trkpt lat="32.8611000" lon="35.2572870">
    <ele>302.7</ele>
    <time>2014-02-14T08:20:41Z</time>
   </trkpt>
   <trkpt lat="32.8611200" lon="35.2573120">
    <ele>302.5</ele>
    <time>2014-02-14T08:20:42Z</time>
   </trkpt>
   <trkpt lat="32.8611340" lon="35.2573470">
    <ele>302.2</ele>
    <time>2014-02-14T08:20:43Z</time>
   </trkpt>
   <trkpt lat="32.8611440" lon="35.2573890">
    <ele>301.7</ele>
    <time>2014-02-14T08:20:44Z</time>
   </trkpt>
   <trkpt lat="32.8611550" lon="35.2574330">
    <ele>301.3</ele>
    <time>2014-02-14T08:20:45Z</time>
   </trkpt>
   <trkpt lat="32.8611730" lon="35.2574880">
    <ele>300.7</ele>
    <time>2014-02-14T08:20:46Z</time>
   </trkpt>
   <trkpt lat="32.8611930" lon="35.2575520">
    <ele>299.9</ele>
    <time>2014-02-14T08:20:47Z</time>
   </trkpt>
   <trkpt lat="32.8611690" lon="35.2576670">
    <ele>298.2</ele>
    <time>2014-02-14T08:20:48Z</time>
   </trkpt>
   <trkpt lat="32.8611580" lon="35.2577320">
    <ele>297.3</ele>
    <time>2014-02-14T08:20:49Z</time>
   </trkpt>
   <trkpt lat="32.8611300" lon="35.2577620">
    <ele>296.8</ele>
    <time>2014-02-14T08:20:50Z</time>
   </trkpt>
   <trkpt lat="32.8611030" lon="35.2578010">
    <ele>296.3</ele>
    <time>2014-02-14T08:20:51Z</time>
   </trkpt>
   <trkpt lat="32.8610710" lon="35.2578350">
    <ele>295.8</ele>
    <time>2014-02-14T08:20:52Z</time>
   </trkpt>
   <trkpt lat="32.8610180" lon="35.2578030">
    <ele>296.0</ele>
    <time>2014-02-14T08:20:53Z</time>
   </trkpt>
   <trkpt lat="32.8609560" lon="35.2577880">
    <ele>296.0</ele>
    <time>2014-02-14T08:20:55Z</time>
   </trkpt>
   <trkpt lat="32.8609230" lon="35.2577960">
    <ele>295.8</ele>
    <time>2014-02-14T08:20:56Z</time>
   </trkpt>
   <trkpt lat="32.8608920" lon="35.2578000">
    <ele>295.7</ele>
    <time>2014-02-14T08:20:57Z</time>
   </trkpt>
   <trkpt lat="32.8608700" lon="35.2577600">
    <ele>296.0</ele>
    <time>2014-02-14T08:20:59Z</time>
   </trkpt>
   <trkpt lat="32.8608690" lon="35.2577180">
    <ele>296.4</ele>
    <time>2014-02-14T08:21:01Z</time>
   </trkpt>
   <trkpt lat="32.8608740" lon="35.2576810">
    <ele>296.8</ele>
    <time>2014-02-14T08:21:09Z</time>
   </trkpt>
  </trkseg>
 </trk>
</gpx>
